﻿<?xml version="1.0" encoding="utf-8"?><gpx creator="Garmin Desktop App" version="1.1" xsi:schemaLocation="http://www.topografix.com/GPX/1/1 http://www.topografix.com/GPX/1/1/gpx.xsd http://www.garmin.com/xmlschemas/WaypointExtension/v1 http://www8.garmin.com/xmlschemas/WaypointExtensionv1.xsd http://www.garmin.com/xmlschemas/TrackPointExtension/v1 http://www.garmin.com/xmlschemas/TrackPointExtensionv1.xsd http://www.garmin.com/xmlschemas/GpxExtensions/v3 http://www8.garmin.com/xmlschemas/GpxExtensionsv3.xsd http://www.garmin.com/xmlschemas/ActivityExtension/v1 http://www8.garmin.com/xmlschemas/ActivityExtensionv1.xsd http://www.garmin.com/xmlschemas/AdventuresExtensions/v1 http://www8.garmin.com/xmlschemas/AdventuresExtensionv1.xsd http://www.garmin.com/xmlschemas/PressureExtension/v1 http://www.garmin.com/xmlschemas/PressureExtensionv1.xsd http://www.garmin.com/xmlschemas/TripExtensions/v1 http://www.garmin.com/xmlschemas/TripExtensionsv1.xsd http://www.garmin.com/xmlschemas/TripMetaDataExtensions/v1 http://www.garmin.com/xmlschemas/TripMetaDataExtensionsv1.xsd http://www.garmin.com/xmlschemas/ViaPointTransportationModeExtensions/v1 http://www.garmin.com/xmlschemas/ViaPointTransportationModeExtensionsv1.xsd http://www.garmin.com/xmlschemas/CreationTimeExtension/v1 http://www.garmin.com/xmlschemas/CreationTimeExtensionsv1.xsd http://www.garmin.com/xmlschemas/AccelerationExtension/v1 http://www.garmin.com/xmlschemas/AccelerationExtensionv1.xsd http://www.garmin.com/xmlschemas/PowerExtension/v1 http://www.garmin.com/xmlschemas/PowerExtensionv1.xsd http://www.garmin.com/xmlschemas/VideoExtension/v1 http://www.garmin.com/xmlschemas/VideoExtensionv1.xsd" xmlns="http://www.topografix.com/GPX/1/1" xmlns:xsi="http://www.w3.org/2001/XMLSchema-instance" xmlns:wptx1="http://www.garmin.com/xmlschemas/WaypointExtension/v1" xmlns:gpxtrx="http://www.garmin.com/xmlschemas/GpxExtensions/v3" xmlns:gpxtpx="http://www.garmin.com/xmlschemas/TrackPointExtension/v1" xmlns:gpxx="http://www.garmin.com/xmlschemas/GpxExtensions/v3" xmlns:trp="http://www.garmin.com/xmlschemas/TripExtensions/v1" xmlns:adv="http://www.garmin.com/xmlschemas/AdventuresExtensions/v1" xmlns:prs="http://www.garmin.com/xmlschemas/PressureExtension/v1" xmlns:tmd="http://www.garmin.com/xmlschemas/TripMetaDataExtensions/v1" xmlns:vptm="http://www.garmin.com/xmlschemas/ViaPointTransportationModeExtensions/v1" xmlns:ctx="http://www.garmin.com/xmlschemas/CreationTimeExtension/v1" xmlns:gpxacc="http://www.garmin.com/xmlschemas/AccelerationExtension/v1" xmlns:gpxpx="http://www.garmin.com/xmlschemas/PowerExtension/v1" xmlns:vidx1="http://www.garmin.com/xmlschemas/VideoExtension/v1">

  <metadata>
    <link href="http://www.garmin.com">
      <text>Garmin International</text>
    </link>
    <time>2017-10-10T16:28:35Z</time>
    <bounds maxlat="46.020205272361636" maxlon="9.81873320415616" minlat="45.991966975852847" minlon="9.781577400863171" />
  </metadata>

  <trk>
    <name>laghi gemelli da carona2017-10-08</name>
    <extensions>
      <gpxx:TrackExtension>
        <gpxx:DisplayColor>Yellow</gpxx:DisplayColor>
      </gpxx:TrackExtension>
      <gpxtrkx:TrackStatsExtension xmlns:gpxtrkx="http://www.garmin.com/xmlschemas/TrackStatsExtension/v1">
        <gpxtrkx:Distance>17888</gpxtrkx:Distance>
        <gpxtrkx:TotalElapsedTime>26986</gpxtrkx:TotalElapsedTime>
        <gpxtrkx:MovingTime>20206</gpxtrkx:MovingTime>
        <gpxtrkx:StoppedTime>6770</gpxtrkx:StoppedTime>
        <gpxtrkx:MovingSpeed>1</gpxtrkx:MovingSpeed>
        <gpxtrkx:MaxSpeed>2</gpxtrkx:MaxSpeed>
        <gpxtrkx:MaxElevation>2052</gpxtrkx:MaxElevation>
        <gpxtrkx:MinElevation>1103</gpxtrkx:MinElevation>
        <gpxtrkx:Ascent>1036</gpxtrkx:Ascent>
        <gpxtrkx:Descent>1020</gpxtrkx:Descent>
        <gpxtrkx:AvgAscentRate>0</gpxtrkx:AvgAscentRate>
        <gpxtrkx:MaxAscentRate>0</gpxtrkx:MaxAscentRate>
        <gpxtrkx:AvgDescentRate>0</gpxtrkx:AvgDescentRate>
        <gpxtrkx:MaxDescentRate>-0</gpxtrkx:MaxDescentRate>
      </gpxtrkx:TrackStatsExtension>
    </extensions>
    <trkseg>
      <trkpt lat="46.020166883245111" lon="9.781606318429112">
        <ele>1116.71</ele>
        <time>2017-10-08T07:11:26Z</time>
      </trkpt>
      <trkpt lat="46.020167805254459" lon="9.781608078628779">
        <ele>1116.71</ele>
        <time>2017-10-08T07:11:27Z</time>
      </trkpt>
      <trkpt lat="46.020174343138933" lon="9.781598942354322">
        <ele>1116.23</ele>
        <time>2017-10-08T07:11:47Z</time>
      </trkpt>
      <trkpt lat="46.020153136923909" lon="9.781582849100232">
        <ele>1116.71</ele>
        <time>2017-10-08T07:12:08Z</time>
      </trkpt>
      <trkpt lat="46.020159758627415" lon="9.781583854928613">
        <ele>1116.71</ele>
        <time>2017-10-08T07:12:32Z</time>
      </trkpt>
      <trkpt lat="46.020162105560303" lon="9.781589303165674">
        <ele>1116.71</ele>
        <time>2017-10-08T07:13:00Z</time>
      </trkpt>
      <trkpt lat="46.02016587741673" lon="9.781592655926943">
        <ele>1116.23</ele>
        <time>2017-10-08T07:13:26Z</time>
      </trkpt>
      <trkpt lat="46.020150789991021" lon="9.781583771109581">
        <ele>1117.1900000000001</ele>
        <time>2017-10-08T07:13:38Z</time>
      </trkpt>
      <trkpt lat="46.020151544362307" lon="9.781577400863171">
        <ele>1117.1900000000001</ele>
        <time>2017-10-08T07:13:51Z</time>
      </trkpt>
      <trkpt lat="46.020152466371655" lon="9.781578490510583">
        <ele>1117.1900000000001</ele>
        <time>2017-10-08T07:14:03Z</time>
      </trkpt>
      <trkpt lat="46.020158585160971" lon="9.781613191589713">
        <ele>1117.1900000000001</ele>
        <time>2017-10-08T07:14:19Z</time>
      </trkpt>
      <trkpt lat="46.020142827183008" lon="9.781639175489545">
        <ele>1117.1900000000001</ele>
        <time>2017-10-08T07:14:36Z</time>
      </trkpt>
      <trkpt lat="46.020167637616396" lon="9.781652754172683">
        <ele>1117.6700000000001</ele>
        <time>2017-10-08T07:14:50Z</time>
      </trkpt>
      <trkpt lat="46.020156322047114" lon="9.7816311288625">
        <ele>1117.1900000000001</ele>
        <time>2017-10-08T07:15:09Z</time>
      </trkpt>
      <trkpt lat="46.02014877833426" lon="9.781629452481866">
        <ele>1117.6700000000001</ele>
        <time>2017-10-08T07:15:24Z</time>
      </trkpt>
      <trkpt lat="46.020153891295195" lon="9.781650239601731">
        <ele>1117.6700000000001</ele>
        <time>2017-10-08T07:15:36Z</time>
      </trkpt>
      <trkpt lat="46.020166715607047" lon="9.781647892668843">
        <ele>1117.6700000000001</ele>
        <time>2017-10-08T07:15:55Z</time>
      </trkpt>
      <trkpt lat="46.02017518132925" lon="9.78166775777936">
        <ele>1118.1500000000001</ele>
        <time>2017-10-08T07:16:18Z</time>
      </trkpt>
      <trkpt lat="46.020168559625745" lon="9.781647557392716">
        <ele>1118.1500000000001</ele>
        <time>2017-10-08T07:16:34Z</time>
      </trkpt>
      <trkpt lat="46.020130673423409" lon="9.781633391976357">
        <ele>1118.1500000000001</ele>
        <time>2017-10-08T07:16:57Z</time>
      </trkpt>
      <trkpt lat="46.020138552412391" lon="9.781634397804737">
        <ele>1118.1500000000001</ele>
        <time>2017-10-08T07:17:15Z</time>
      </trkpt>
      <trkpt lat="46.020136876031756" lon="9.781665662303567">
        <ele>1118.1500000000001</ele>
        <time>2017-10-08T07:17:29Z</time>
      </trkpt>
      <trkpt lat="46.020100582391024" lon="9.781849225983024">
        <ele>1116.71</ele>
        <time>2017-10-08T07:17:41Z</time>
      </trkpt>
      <trkpt lat="46.02000318467617" lon="9.782002279534936">
        <ele>1114.79</ele>
        <time>2017-10-08T07:17:53Z</time>
      </trkpt>
      <trkpt lat="46.01986831985414" lon="9.781991383060813">
        <ele>1113.3399999999999</ele>
        <time>2017-10-08T07:18:05Z</time>
      </trkpt>
      <trkpt lat="46.019821045920253" lon="9.781988617032766">
        <ele>1111.9000000000001</ele>
        <time>2017-10-08T07:18:16Z</time>
      </trkpt>
      <trkpt lat="46.019746949896216" lon="9.782025162130594">
        <ele>1110.46</ele>
        <time>2017-10-08T07:18:27Z</time>
      </trkpt>
      <trkpt lat="46.019667237997055" lon="9.782049972563982">
        <ele>1108.0599999999999</ele>
        <time>2017-10-08T07:18:38Z</time>
      </trkpt>
      <trkpt lat="46.019622310996056" lon="9.782082745805383">
        <ele>1106.6099999999999</ele>
        <time>2017-10-08T07:18:47Z</time>
      </trkpt>
      <trkpt lat="46.019608061760664" lon="9.782085511833429">
        <ele>1106.1300000000001</ele>
        <time>2017-10-08T07:18:52Z</time>
      </trkpt>
      <trkpt lat="46.01948861964047" lon="9.782173354178667">
        <ele>1103.25</ele>
        <time>2017-10-08T07:19:04Z</time>
      </trkpt>
      <trkpt lat="46.019401699304581" lon="9.782240241765976">
        <ele>1103.25</ele>
        <time>2017-10-08T07:19:16Z</time>
      </trkpt>
      <trkpt lat="46.019379403442144" lon="9.782233452424407">
        <ele>1103.25</ele>
        <time>2017-10-08T07:19:18Z</time>
      </trkpt>
      <trkpt lat="46.019333386793733" lon="9.782221717759967">
        <ele>1103.25</ele>
        <time>2017-10-08T07:19:21Z</time>
      </trkpt>
      <trkpt lat="46.01927756331861" lon="9.782255496829748">
        <ele>1103.25</ele>
        <time>2017-10-08T07:19:27Z</time>
      </trkpt>
      <trkpt lat="46.01914269849658" lon="9.782362366095185">
        <ele>1103.25</ele>
        <time>2017-10-08T07:19:38Z</time>
      </trkpt>
      <trkpt lat="46.019127611070871" lon="9.782334873452783">
        <ele>1103.25</ele>
        <time>2017-10-08T07:19:48Z</time>
      </trkpt>
      <trkpt lat="46.019057622179389" lon="9.782383991405368">
        <ele>1103.25</ele>
        <time>2017-10-08T07:19:56Z</time>
      </trkpt>
      <trkpt lat="46.01900976151228" lon="9.782411651685834">
        <ele>1103.73</ele>
        <time>2017-10-08T07:20:00Z</time>
      </trkpt>
      <trkpt lat="46.018939604982734" lon="9.782572081312537">
        <ele>1103.25</ele>
        <time>2017-10-08T07:20:11Z</time>
      </trkpt>
      <trkpt lat="46.01895016618073" lon="9.782627737149596">
        <ele>1103.25</ele>
        <time>2017-10-08T07:20:15Z</time>
      </trkpt>
      <trkpt lat="46.018963577225804" lon="9.78286293335259">
        <ele>1103.73</ele>
        <time>2017-10-08T07:20:28Z</time>
      </trkpt>
      <trkpt lat="46.01896533742547" lon="9.783108774572611">
        <ele>1103.73</ele>
        <time>2017-10-08T07:20:41Z</time>
      </trkpt>
      <trkpt lat="46.018966846168041" lon="9.783230815082789">
        <ele>1104.21</ele>
        <time>2017-10-08T07:20:50Z</time>
      </trkpt>
      <trkpt lat="46.018968857824802" lon="9.78331102989614">
        <ele>1104.21</ele>
        <time>2017-10-08T07:21:01Z</time>
      </trkpt>
      <trkpt lat="46.018969109281898" lon="9.783313712105155">
        <ele>1104.21</ele>
        <time>2017-10-08T07:21:04Z</time>
      </trkpt>
      <trkpt lat="46.01896969601512" lon="9.78345712646842">
        <ele>1104.21</ele>
        <time>2017-10-08T07:21:11Z</time>
      </trkpt>
      <trkpt lat="46.018975479528308" lon="9.783497359603643">
        <ele>1104.21</ele>
        <time>2017-10-08T07:21:16Z</time>
      </trkpt>
      <trkpt lat="46.018968941643834" lon="9.783684862777591">
        <ele>1104.6900000000001</ele>
        <time>2017-10-08T07:21:25Z</time>
      </trkpt>
      <trkpt lat="46.01898243650794" lon="9.783896841108799">
        <ele>1104.6900000000001</ele>
        <time>2017-10-08T07:21:37Z</time>
      </trkpt>
      <trkpt lat="46.018990818411112" lon="9.7840884514153">
        <ele>1104.21</ele>
        <time>2017-10-08T07:21:52Z</time>
      </trkpt>
      <trkpt lat="46.019020657986403" lon="9.784267153590918">
        <ele>1104.6900000000001</ele>
        <time>2017-10-08T07:22:06Z</time>
      </trkpt>
      <trkpt lat="46.019029710441828" lon="9.784332113340497">
        <ele>1104.6900000000001</ele>
        <time>2017-10-08T07:22:11Z</time>
      </trkpt>
      <trkpt lat="46.019074050709605" lon="9.784414591267705">
        <ele>1104.6900000000001</ele>
        <time>2017-10-08T07:22:16Z</time>
      </trkpt>
      <trkpt lat="46.019166586920619" lon="9.784668311476708">
        <ele>1104.6900000000001</ele>
        <time>2017-10-08T07:22:31Z</time>
      </trkpt>
      <trkpt lat="46.019193911924958" lon="9.784799991175532">
        <ele>1107.5799999999999</ele>
        <time>2017-10-08T07:22:42Z</time>
      </trkpt>
      <trkpt lat="46.019202461466193" lon="9.784912224858999">
        <ele>1109.02</ele>
        <time>2017-10-08T07:22:52Z</time>
      </trkpt>
      <trkpt lat="46.019244203343987" lon="9.785098386928439">
        <ele>1110.46</ele>
        <time>2017-10-08T07:23:03Z</time>
      </trkpt>
      <trkpt lat="46.019287621602416" lon="9.785259068012238">
        <ele>1110.46</ele>
        <time>2017-10-08T07:23:14Z</time>
      </trkpt>
      <trkpt lat="46.019283346831799" lon="9.785376833751798">
        <ele>1112.3800000000001</ele>
        <time>2017-10-08T07:23:24Z</time>
      </trkpt>
      <trkpt lat="46.019234731793404" lon="9.78546685539186">
        <ele>1113.3399999999999</ele>
        <time>2017-10-08T07:23:34Z</time>
      </trkpt>
      <trkpt lat="46.019204473122954" lon="9.785478003323078">
        <ele>1113.3399999999999</ele>
        <time>2017-10-08T07:23:42Z</time>
      </trkpt>
      <trkpt lat="46.019155774265528" lon="9.785481942817569">
        <ele>1114.79</ele>
        <time>2017-10-08T07:23:51Z</time>
      </trkpt>
      <trkpt lat="46.019143033772707" lon="9.785514129325748">
        <ele>1115.27</ele>
        <time>2017-10-08T07:24:00Z</time>
      </trkpt>
      <trkpt lat="46.019103722646832" lon="9.785547992214561">
        <ele>1116.71</ele>
        <time>2017-10-08T07:24:08Z</time>
      </trkpt>
      <trkpt lat="46.019051838666201" lon="9.785566432401538">
        <ele>1119.1099999999999</ele>
        <time>2017-10-08T07:24:20Z</time>
      </trkpt>
      <trkpt lat="46.019020825624466" lon="9.785617645829916">
        <ele>1120.55</ele>
        <time>2017-10-08T07:24:30Z</time>
      </trkpt>
      <trkpt lat="46.018974473699927" lon="9.785667518153787">
        <ele>1122</ele>
        <time>2017-10-08T07:24:40Z</time>
      </trkpt>
      <trkpt lat="46.018911525607109" lon="9.785659555345774">
        <ele>1123.4400000000001</ele>
        <time>2017-10-08T07:24:50Z</time>
      </trkpt>
      <trkpt lat="46.018891744315624" lon="9.78570431470871">
        <ele>1124.4000000000001</ele>
        <time>2017-10-08T07:25:00Z</time>
      </trkpt>
      <trkpt lat="46.018852517008781" lon="9.785707080736756">
        <ele>1125.8399999999999</ele>
        <time>2017-10-08T07:25:10Z</time>
      </trkpt>
      <trkpt lat="46.018838351592422" lon="9.785774890333414">
        <ele>1127.28</ele>
        <time>2017-10-08T07:25:20Z</time>
      </trkpt>
      <trkpt lat="46.018780851736665" lon="9.785802382975817">
        <ele>1128.73</ele>
        <time>2017-10-08T07:25:28Z</time>
      </trkpt>
      <trkpt lat="46.018774146214128" lon="9.785863487049937">
        <ele>1130.1700000000001</ele>
        <time>2017-10-08T07:25:39Z</time>
      </trkpt>
      <trkpt lat="46.018770206719637" lon="9.785912269726396">
        <ele>1131.6099999999999</ele>
        <time>2017-10-08T07:25:50Z</time>
      </trkpt>
      <trkpt lat="46.018763082101941" lon="9.785995669662952">
        <ele>1133.05</ele>
        <time>2017-10-08T07:26:00Z</time>
      </trkpt>
      <trkpt lat="46.018731314688921" lon="9.786087702959776">
        <ele>1134.49</ele>
        <time>2017-10-08T07:26:14Z</time>
      </trkpt>
      <trkpt lat="46.018687058240175" lon="9.786195494234562">
        <ele>1136.4200000000001</ele>
        <time>2017-10-08T07:26:28Z</time>
      </trkpt>
      <trkpt lat="46.018659146502614" lon="9.786114105954766">
        <ele>1137.8599999999999</ele>
        <time>2017-10-08T07:26:41Z</time>
      </trkpt>
      <trkpt lat="46.018640203401446" lon="9.786052331328392">
        <ele>1139.78</ele>
        <time>2017-10-08T07:26:51Z</time>
      </trkpt>
      <trkpt lat="46.018587984144688" lon="9.786023246124387">
        <ele>1141.22</ele>
        <time>2017-10-08T07:27:00Z</time>
      </trkpt>
      <trkpt lat="46.018563257530332" lon="9.785977229475975">
        <ele>1142.6600000000001</ele>
        <time>2017-10-08T07:27:12Z</time>
      </trkpt>
      <trkpt lat="46.018559401854873" lon="9.785899948328733">
        <ele>1143.6300000000001</ele>
        <time>2017-10-08T07:27:21Z</time>
      </trkpt>
      <trkpt lat="46.0184923466295" lon="9.785789810121059">
        <ele>1145.55</ele>
        <time>2017-10-08T07:27:33Z</time>
      </trkpt>
      <trkpt lat="46.018431326374412" lon="9.785738848149777">
        <ele>1146.99</ele>
        <time>2017-10-08T07:27:42Z</time>
      </trkpt>
      <trkpt lat="46.018396960571408" lon="9.785704398527741">
        <ele>1146.51</ele>
        <time>2017-10-08T07:27:50Z</time>
      </trkpt>
      <trkpt lat="46.018374664708972" lon="9.785713786259294">
        <ele>1148.4300000000001</ele>
        <time>2017-10-08T07:27:56Z</time>
      </trkpt>
      <trkpt lat="46.018339628353715" lon="9.785717390477657">
        <ele>1150.8399999999999</ele>
        <time>2017-10-08T07:28:07Z</time>
      </trkpt>
      <trkpt lat="46.018318757414818" lon="9.785752510651946">
        <ele>1151.8</ele>
        <time>2017-10-08T07:28:16Z</time>
      </trkpt>
      <trkpt lat="46.018323367461562" lon="9.785781176760793">
        <ele>1153.72</ele>
        <time>2017-10-08T07:28:26Z</time>
      </trkpt>
      <trkpt lat="46.018330659717321" lon="9.785826941952109">
        <ele>1155.1600000000001</ele>
        <time>2017-10-08T07:28:35Z</time>
      </trkpt>
      <trkpt lat="46.018360666930676" lon="9.785873293876648">
        <ele>1156.5999999999999</ele>
        <time>2017-10-08T07:28:45Z</time>
      </trkpt>
      <trkpt lat="46.018399558961391" lon="9.785930793732405">
        <ele>1158.53</ele>
        <time>2017-10-08T07:28:54Z</time>
      </trkpt>
      <trkpt lat="46.018334347754717" lon="9.785958621650934">
        <ele>1159.49</ele>
        <time>2017-10-08T07:29:03Z</time>
      </trkpt>
      <trkpt lat="46.018289923667908" lon="9.785984605550766">
        <ele>1160.9300000000001</ele>
        <time>2017-10-08T07:29:13Z</time>
      </trkpt>
      <trkpt lat="46.018284140154719" lon="9.786027856171131">
        <ele>1162.3699999999999</ele>
        <time>2017-10-08T07:29:24Z</time>
      </trkpt>
      <trkpt lat="46.018236698582768" lon="9.785992987453938">
        <ele>1164.29</ele>
        <time>2017-10-08T07:29:36Z</time>
      </trkpt>
      <trkpt lat="46.018185317516327" lon="9.785991897806525">
        <ele>1166.22</ele>
        <time>2017-10-08T07:29:46Z</time>
      </trkpt>
      <trkpt lat="46.018105186522007" lon="9.78597111068666">
        <ele>1167.6600000000001</ele>
        <time>2017-10-08T07:29:58Z</time>
      </trkpt>
      <trkpt lat="46.018053218722343" lon="9.785961052402854">
        <ele>1169.0999999999999</ele>
        <time>2017-10-08T07:30:09Z</time>
      </trkpt>
      <trkpt lat="46.018032934516668" lon="9.785934984683991">
        <ele>1170.54</ele>
        <time>2017-10-08T07:30:19Z</time>
      </trkpt>
      <trkpt lat="46.017996305599809" lon="9.785924004390836">
        <ele>1172.47</ele>
        <time>2017-10-08T07:30:30Z</time>
      </trkpt>
      <trkpt lat="46.017895303666592" lon="9.785927189514041">
        <ele>1173.9100000000001</ele>
        <time>2017-10-08T07:30:42Z</time>
      </trkpt>
      <trkpt lat="46.01784341968596" lon="9.785893578082323">
        <ele>1175.8299999999999</ele>
        <time>2017-10-08T07:30:54Z</time>
      </trkpt>
      <trkpt lat="46.017803940922022" lon="9.78592274710536">
        <ele>1177.27</ele>
        <time>2017-10-08T07:31:06Z</time>
      </trkpt>
      <trkpt lat="46.017811736091971" lon="9.785972954705358">
        <ele>1179.1900000000001</ele>
        <time>2017-10-08T07:31:17Z</time>
      </trkpt>
      <trkpt lat="46.017773933708668" lon="9.785945629701018">
        <ele>1180.6400000000001</ele>
        <time>2017-10-08T07:31:29Z</time>
      </trkpt>
      <trkpt lat="46.0177515540272" lon="9.785918891429901">
        <ele>1182.0799999999999</ele>
        <time>2017-10-08T07:31:40Z</time>
      </trkpt>
      <trkpt lat="46.017708135768771" lon="9.785826606675983">
        <ele>1183.04</ele>
        <time>2017-10-08T07:31:50Z</time>
      </trkpt>
      <trkpt lat="46.017669579014182" lon="9.785802215337753">
        <ele>1184.48</ele>
        <time>2017-10-08T07:32:02Z</time>
      </trkpt>
      <trkpt lat="46.017669830471277" lon="9.785880837589502">
        <ele>1185.9200000000001</ele>
        <time>2017-10-08T07:32:14Z</time>
      </trkpt>
      <trkpt lat="46.017635213211179" lon="9.785851920023561">
        <ele>1187.8499999999999</ele>
        <time>2017-10-08T07:32:26Z</time>
      </trkpt>
      <trkpt lat="46.017601098865271" lon="9.78580011986196">
        <ele>1189.29</ele>
        <time>2017-10-08T07:32:36Z</time>
      </trkpt>
      <trkpt lat="46.017545778304338" lon="9.785832557827234">
        <ele>1190.73</ele>
        <time>2017-10-08T07:32:47Z</time>
      </trkpt>
      <trkpt lat="46.01760252378881" lon="9.78598577901721">
        <ele>1192.6500000000001</ele>
        <time>2017-10-08T07:33:02Z</time>
      </trkpt>
      <trkpt lat="46.017658850178123" lon="9.786027688533068">
        <ele>1194.5799999999999</ele>
        <time>2017-10-08T07:33:14Z</time>
      </trkpt>
      <trkpt lat="46.017644600942731" lon="9.786048894748092">
        <ele>1195.54</ele>
        <time>2017-10-08T07:33:24Z</time>
      </trkpt>
      <trkpt lat="46.017685253173113" lon="9.78611133992672">
        <ele>1196.5</ele>
        <time>2017-10-08T07:33:33Z</time>
      </trkpt>
      <trkpt lat="46.017671842128038" lon="9.786166325211525">
        <ele>1197.9400000000001</ele>
        <time>2017-10-08T07:33:43Z</time>
      </trkpt>
      <trkpt lat="46.017577797174454" lon="9.786175293847919">
        <ele>1199.3800000000001</ele>
        <time>2017-10-08T07:33:55Z</time>
      </trkpt>
      <trkpt lat="46.017522308975458" lon="9.786173282191157">
        <ele>1201.3</ele>
        <time>2017-10-08T07:34:06Z</time>
      </trkpt>
      <trkpt lat="46.017454834654927" lon="9.786130031570792">
        <ele>1202.75</ele>
        <time>2017-10-08T07:34:19Z</time>
      </trkpt>
      <trkpt lat="46.017407728359103" lon="9.786000531166792">
        <ele>1204.1900000000001</ele>
        <time>2017-10-08T07:34:32Z</time>
      </trkpt>
      <trkpt lat="46.017383420839906" lon="9.78605174459517">
        <ele>1205.6300000000001</ele>
        <time>2017-10-08T07:34:44Z</time>
      </trkpt>
      <trkpt lat="46.017433376982808" lon="9.78612600825727">
        <ele>1207.0699999999999</ele>
        <time>2017-10-08T07:34:56Z</time>
      </trkpt>
      <trkpt lat="46.017460701987147" lon="9.786201696842909">
        <ele>1209</ele>
        <time>2017-10-08T07:35:08Z</time>
      </trkpt>
      <trkpt lat="46.017506131902337" lon="9.78625450283289">
        <ele>1210.9200000000001</ele>
        <time>2017-10-08T07:35:20Z</time>
      </trkpt>
      <trkpt lat="46.017557848244905" lon="9.786348212510347">
        <ele>1212.8399999999999</ele>
        <time>2017-10-08T07:35:35Z</time>
      </trkpt>
      <trkpt lat="46.017618197947741" lon="9.786437228322029">
        <ele>1213.8</ele>
        <time>2017-10-08T07:35:46Z</time>
      </trkpt>
      <trkpt lat="46.017578886821866" lon="9.78652716614306">
        <ele>1215.72</ele>
        <time>2017-10-08T07:35:57Z</time>
      </trkpt>
      <trkpt lat="46.01748232729733" lon="9.786529513075948">
        <ele>1216.6900000000001</ele>
        <time>2017-10-08T07:36:07Z</time>
      </trkpt>
      <trkpt lat="46.017409572377801" lon="9.78651107288897">
        <ele>1218.1300000000001</ele>
        <time>2017-10-08T07:36:19Z</time>
      </trkpt>
      <trkpt lat="46.017355257645249" lon="9.786474946886301">
        <ele>1220.05</ele>
        <time>2017-10-08T07:36:32Z</time>
      </trkpt>
      <trkpt lat="46.017308989539742" lon="9.786408981308341">
        <ele>1221.49</ele>
        <time>2017-10-08T07:36:42Z</time>
      </trkpt>
      <trkpt lat="46.017294824123383" lon="9.786355337128043">
        <ele>1222.45</ele>
        <time>2017-10-08T07:36:50Z</time>
      </trkpt>
      <trkpt lat="46.017227936536074" lon="9.786316780373454">
        <ele>1223.4200000000001</ele>
        <time>2017-10-08T07:37:02Z</time>
      </trkpt>
      <trkpt lat="46.017169682309031" lon="9.786279816180468">
        <ele>1224.8599999999999</ele>
        <time>2017-10-08T07:37:13Z</time>
      </trkpt>
      <trkpt lat="46.017108326777816" lon="9.786185268312693">
        <ele>1226.3</ele>
        <time>2017-10-08T07:37:26Z</time>
      </trkpt>
      <trkpt lat="46.017080163583159" lon="9.786212760955095">
        <ele>1227.74</ele>
        <time>2017-10-08T07:37:38Z</time>
      </trkpt>
      <trkpt lat="46.017108075320721" lon="9.78628727607429">
        <ele>1229.1800000000001</ele>
        <time>2017-10-08T07:37:47Z</time>
      </trkpt>
      <trkpt lat="46.017154343426228" lon="9.78633270598948">
        <ele>1230.6199999999999</ele>
        <time>2017-10-08T07:38:01Z</time>
      </trkpt>
      <trkpt lat="46.017122576013207" lon="9.786384757608175">
        <ele>1232.55</ele>
        <time>2017-10-08T07:38:16Z</time>
      </trkpt>
      <trkpt lat="46.017051916569471" lon="9.786379896104336">
        <ele>1234.47</ele>
        <time>2017-10-08T07:38:33Z</time>
      </trkpt>
      <trkpt lat="46.016926104202867" lon="9.786247881129384">
        <ele>1235.9100000000001</ele>
        <time>2017-10-08T07:38:48Z</time>
      </trkpt>
      <trkpt lat="46.016875393688679" lon="9.786197170615196">
        <ele>1237.3499999999999</ele>
        <time>2017-10-08T07:39:03Z</time>
      </trkpt>
      <trkpt lat="46.01679970510304" lon="9.786084266379476">
        <ele>1239.28</ele>
        <time>2017-10-08T07:39:19Z</time>
      </trkpt>
      <trkpt lat="46.016749078407884" lon="9.785980582237244">
        <ele>1241.2</ele>
        <time>2017-10-08T07:39:35Z</time>
      </trkpt>
      <trkpt lat="46.01667900569737" lon="9.785873126238585">
        <ele>1243.1199999999999</ele>
        <time>2017-10-08T07:39:49Z</time>
      </trkpt>
      <trkpt lat="46.016680095344782" lon="9.785910006612539">
        <ele>1244.5599999999999</ele>
        <time>2017-10-08T07:40:04Z</time>
      </trkpt>
      <trkpt lat="46.016730638220906" lon="9.786018384620547">
        <ele>1246.49</ele>
        <time>2017-10-08T07:40:20Z</time>
      </trkpt>
      <trkpt lat="46.016631564125419" lon="9.78597354143858">
        <ele>1248.4100000000001</ele>
        <time>2017-10-08T07:40:33Z</time>
      </trkpt>
      <trkpt lat="46.016554869711399" lon="9.785871198400855">
        <ele>1249.8499999999999</ele>
        <time>2017-10-08T07:40:48Z</time>
      </trkpt>
      <trkpt lat="46.016558976843953" lon="9.78589097969234">
        <ele>1251.77</ele>
        <time>2017-10-08T07:41:00Z</time>
      </trkpt>
      <trkpt lat="46.016579428687692" lon="9.785987623035908">
        <ele>1253.22</ele>
        <time>2017-10-08T07:41:11Z</time>
      </trkpt>
      <trkpt lat="46.016572304069996" lon="9.786090217530727">
        <ele>1255.1400000000001</ele>
        <time>2017-10-08T07:41:23Z</time>
      </trkpt>
      <trkpt lat="46.016543721780181" lon="9.786086194217205">
        <ele>1256.5799999999999</ele>
        <time>2017-10-08T07:41:34Z</time>
      </trkpt>
      <trkpt lat="46.01648110896349" lon="9.786012936383486">
        <ele>1258.5</ele>
        <time>2017-10-08T07:41:45Z</time>
      </trkpt>
      <trkpt lat="46.016415813937783" lon="9.785968847572804">
        <ele>1259.46</ele>
        <time>2017-10-08T07:41:57Z</time>
      </trkpt>
      <trkpt lat="46.016354123130441" lon="9.785922663286328">
        <ele>1260.9100000000001</ele>
        <time>2017-10-08T07:42:09Z</time>
      </trkpt>
      <trkpt lat="46.016312800347805" lon="9.785898104310036">
        <ele>1262.8299999999999</ele>
        <time>2017-10-08T07:42:21Z</time>
      </trkpt>
      <trkpt lat="46.01635504513979" lon="9.785979995504022">
        <ele>1264.27</ele>
        <time>2017-10-08T07:42:32Z</time>
      </trkpt>
      <trkpt lat="46.016388488933444" lon="9.78605224750936">
        <ele>1265.23</ele>
        <time>2017-10-08T07:42:40Z</time>
      </trkpt>
      <trkpt lat="46.016427297145128" lon="9.786134138703346">
        <ele>1266.6700000000001</ele>
        <time>2017-10-08T07:42:50Z</time>
      </trkpt>
      <trkpt lat="46.016450515016913" lon="9.786210749298334">
        <ele>1267.6400000000001</ele>
        <time>2017-10-08T07:43:00Z</time>
      </trkpt>
      <trkpt lat="46.016402821987867" lon="9.786266153678298">
        <ele>1269.0799999999999</ele>
        <time>2017-10-08T07:43:09Z</time>
      </trkpt>
      <trkpt lat="46.016358314082026" lon="9.786209994927049">
        <ele>1270.04</ele>
        <time>2017-10-08T07:43:18Z</time>
      </trkpt>
      <trkpt lat="46.016313219442964" lon="9.786191051825881">
        <ele>1271.48</ele>
        <time>2017-10-08T07:43:28Z</time>
      </trkpt>
      <trkpt lat="46.016258904710412" lon="9.786162972450256">
        <ele>1273.4000000000001</ele>
        <time>2017-10-08T07:43:39Z</time>
      </trkpt>
      <trkpt lat="46.016179863363504" lon="9.786097761243582">
        <ele>1274.8499999999999</ele>
        <time>2017-10-08T07:43:51Z</time>
      </trkpt>
      <trkpt lat="46.016107276082039" lon="9.786050571128726">
        <ele>1276.77</ele>
        <time>2017-10-08T07:44:05Z</time>
      </trkpt>
      <trkpt lat="46.016027396544814" lon="9.785980833694339">
        <ele>1278.21</ele>
        <time>2017-10-08T07:44:19Z</time>
      </trkpt>
      <trkpt lat="46.016043908894062" lon="9.786004135385156">
        <ele>1279.6500000000001</ele>
        <time>2017-10-08T07:44:30Z</time>
      </trkpt>
      <trkpt lat="46.016117334365845" lon="9.786105724051595">
        <ele>1281.0899999999999</ele>
        <time>2017-10-08T07:44:43Z</time>
      </trkpt>
      <trkpt lat="46.01614398881793" lon="9.786196416243911">
        <ele>1282.54</ele>
        <time>2017-10-08T07:44:54Z</time>
      </trkpt>
      <trkpt lat="46.016100151464343" lon="9.786234553903341">
        <ele>1283.02</ele>
        <time>2017-10-08T07:45:04Z</time>
      </trkpt>
      <trkpt lat="46.0161092877388" lon="9.786224663257599">
        <ele>1282.54</ele>
        <time>2017-10-08T07:45:17Z</time>
      </trkpt>
      <trkpt lat="46.016127057373524" lon="9.78622374124825">
        <ele>1282.54</ele>
        <time>2017-10-08T07:45:28Z</time>
      </trkpt>
      <trkpt lat="46.01611708290875" lon="9.786233380436897">
        <ele>1282.54</ele>
        <time>2017-10-08T07:45:44Z</time>
      </trkpt>
      <trkpt lat="46.016104677692056" lon="9.786212760955095">
        <ele>1282.54</ele>
        <time>2017-10-08T07:46:02Z</time>
      </trkpt>
      <trkpt lat="46.016115490347147" lon="9.786175964400172">
        <ele>1283.02</ele>
        <time>2017-10-08T07:46:15Z</time>
      </trkpt>
      <trkpt lat="46.016147173941135" lon="9.786197254434228">
        <ele>1283.98</ele>
        <time>2017-10-08T07:46:25Z</time>
      </trkpt>
      <trkpt lat="46.016130661591887" lon="9.786223992705345">
        <ele>1284.46</ele>
        <time>2017-10-08T07:46:47Z</time>
      </trkpt>
      <trkpt lat="46.016154130920768" lon="9.786292556673288">
        <ele>1284.46</ele>
        <time>2017-10-08T07:47:01Z</time>
      </trkpt>
      <trkpt lat="46.016164356842637" lon="9.786304123699665">
        <ele>1284.9400000000001</ele>
        <time>2017-10-08T07:47:18Z</time>
      </trkpt>
      <trkpt lat="46.016171062365174" lon="9.786283252760768">
        <ele>1284.9400000000001</ele>
        <time>2017-10-08T07:47:32Z</time>
      </trkpt>
      <trkpt lat="46.016159830614924" lon="9.786285683512688">
        <ele>1284.9400000000001</ele>
        <time>2017-10-08T07:47:49Z</time>
      </trkpt>
      <trkpt lat="46.016186233609915" lon="9.786327928304672">
        <ele>1286.3800000000001</ele>
        <time>2017-10-08T07:47:59Z</time>
      </trkpt>
      <trkpt lat="46.016214480623603" lon="9.7863903734833">
        <ele>1287.8199999999999</ele>
        <time>2017-10-08T07:48:10Z</time>
      </trkpt>
      <trkpt lat="46.016134349629283" lon="9.7863576002419">
        <ele>1289.27</ele>
        <time>2017-10-08T07:48:21Z</time>
      </trkpt>
      <trkpt lat="46.01604038849473" lon="9.786307225003839">
        <ele>1291.1900000000001</ele>
        <time>2017-10-08T07:48:34Z</time>
      </trkpt>
      <trkpt lat="46.015938380733132" lon="9.78622424416244">
        <ele>1293.1099999999999</ele>
        <time>2017-10-08T07:48:47Z</time>
      </trkpt>
      <trkpt lat="46.015850454568863" lon="9.786182837560773">
        <ele>1294.55</ele>
        <time>2017-10-08T07:48:58Z</time>
      </trkpt>
      <trkpt lat="46.015800582244992" lon="9.786158362403512">
        <ele>1296.48</ele>
        <time>2017-10-08T07:49:10Z</time>
      </trkpt>
      <trkpt lat="46.015878114849329" lon="9.786264142021537">
        <ele>1297.9200000000001</ele>
        <time>2017-10-08T07:49:22Z</time>
      </trkpt>
      <trkpt lat="46.015948606655002" lon="9.786386601626873">
        <ele>1299.3599999999999</ele>
        <time>2017-10-08T07:49:34Z</time>
      </trkpt>
      <trkpt lat="46.015989761799574" lon="9.786462374031544">
        <ele>1300.8</ele>
        <time>2017-10-08T07:49:44Z</time>
      </trkpt>
      <trkpt lat="46.016016332432628" lon="9.786549713462591">
        <ele>1302.72</ele>
        <time>2017-10-08T07:49:55Z</time>
      </trkpt>
      <trkpt lat="46.015942739322782" lon="9.786569662392139">
        <ele>1303.6900000000001</ele>
        <time>2017-10-08T07:50:05Z</time>
      </trkpt>
      <trkpt lat="46.015892447903752" lon="9.786511743441224">
        <ele>1305.6099999999999</ele>
        <time>2017-10-08T07:50:15Z</time>
      </trkpt>
      <trkpt lat="46.015787925571203" lon="9.786481484770775">
        <ele>1307.05</ele>
        <time>2017-10-08T07:50:27Z</time>
      </trkpt>
      <trkpt lat="46.015709470957518" lon="9.786457680165768">
        <ele>1308.97</ele>
        <time>2017-10-08T07:50:37Z</time>
      </trkpt>
      <trkpt lat="46.015708465129137" lon="9.78651249781251">
        <ele>1310.9000000000001</ele>
        <time>2017-10-08T07:50:48Z</time>
      </trkpt>
      <trkpt lat="46.015775436535478" lon="9.786541163921356">
        <ele>1312.3399999999999</ele>
        <time>2017-10-08T07:50:56Z</time>
      </trkpt>
      <trkpt lat="46.015804605558515" lon="9.78662439621985">
        <ele>1313.78</ele>
        <time>2017-10-08T07:51:07Z</time>
      </trkpt>
      <trkpt lat="46.015798738226295" lon="9.786701258271933">
        <ele>1315.22</ele>
        <time>2017-10-08T07:51:18Z</time>
      </trkpt>
      <trkpt lat="46.015715505927801" lon="9.786654738709331">
        <ele>1317.6199999999999</ele>
        <time>2017-10-08T07:51:31Z</time>
      </trkpt>
      <trkpt lat="46.015629172325134" lon="9.786603357642889">
        <ele>1319.0699999999999</ele>
        <time>2017-10-08T07:51:43Z</time>
      </trkpt>
      <trkpt lat="46.015554573386908" lon="9.786602184176445">
        <ele>1320.51</ele>
        <time>2017-10-08T07:51:53Z</time>
      </trkpt>
      <trkpt lat="46.015522386878729" lon="9.786543510854244">
        <ele>1321.95</ele>
        <time>2017-10-08T07:52:02Z</time>
      </trkpt>
      <trkpt lat="46.015469748526812" lon="9.786496907472611">
        <ele>1322.9100000000001</ele>
        <time>2017-10-08T07:52:10Z</time>
      </trkpt>
      <trkpt lat="46.015438735485077" lon="9.78646514005959">
        <ele>1324.8299999999999</ele>
        <time>2017-10-08T07:52:22Z</time>
      </trkpt>
      <trkpt lat="46.015474358573556" lon="9.786583576351404">
        <ele>1326.76</ele>
        <time>2017-10-08T07:52:35Z</time>
      </trkpt>
      <trkpt lat="46.015515681356192" lon="9.786647614091635">
        <ele>1327.72</ele>
        <time>2017-10-08T07:52:46Z</time>
      </trkpt>
      <trkpt lat="46.015588939189911" lon="9.786720117554069">
        <ele>1329.6400000000001</ele>
        <time>2017-10-08T07:52:57Z</time>
      </trkpt>
      <trkpt lat="46.015624143183231" lon="9.786813659593463">
        <ele>1331.0799999999999</ele>
        <time>2017-10-08T07:53:06Z</time>
      </trkpt>
      <trkpt lat="46.015588855370879" lon="9.786906866356731">
        <ele>1333.01</ele>
        <time>2017-10-08T07:53:18Z</time>
      </trkpt>
      <trkpt lat="46.015471424907446" lon="9.786881720647216">
        <ele>1335.4100000000001</ele>
        <time>2017-10-08T07:53:31Z</time>
      </trkpt>
      <trkpt lat="46.015372686088085" lon="9.786849115043879">
        <ele>1336.8499999999999</ele>
        <time>2017-10-08T07:53:43Z</time>
      </trkpt>
      <trkpt lat="46.015299176797271" lon="9.786813827231526">
        <ele>1338.77</ele>
        <time>2017-10-08T07:53:53Z</time>
      </trkpt>
      <trkpt lat="46.015239330008626" lon="9.78673193603754">
        <ele>1340.7</ele>
        <time>2017-10-08T07:54:05Z</time>
      </trkpt>
      <trkpt lat="46.015229942277074" lon="9.786625569686294">
        <ele>1341.6600000000001</ele>
        <time>2017-10-08T07:54:16Z</time>
      </trkpt>
      <trkpt lat="46.01519163697958" lon="9.786526327952743">
        <ele>1343.0999999999999</ele>
        <time>2017-10-08T07:54:28Z</time>
      </trkpt>
      <trkpt lat="46.015157271176577" lon="9.78643286973238">
        <ele>1344.0599999999999</ele>
        <time>2017-10-08T07:54:40Z</time>
      </trkpt>
      <trkpt lat="46.0151163674891" lon="9.786337818950415">
        <ele>1345.02</ele>
        <time>2017-10-08T07:54:50Z</time>
      </trkpt>
      <trkpt lat="46.015087869018316" lon="9.786275960505009">
        <ele>1345.98</ele>
        <time>2017-10-08T07:55:00Z</time>
      </trkpt>
      <trkpt lat="46.015038080513477" lon="9.786214018240571">
        <ele>1347.4300000000001</ele>
        <time>2017-10-08T07:55:11Z</time>
      </trkpt>
      <trkpt lat="46.01498594507575" lon="9.786172276362777">
        <ele>1348.8699999999999</ele>
        <time>2017-10-08T07:55:23Z</time>
      </trkpt>
      <trkpt lat="46.01488234475255" lon="9.786102203652263">
        <ele>1350.3099999999999</ele>
        <time>2017-10-08T07:55:36Z</time>
      </trkpt>
      <trkpt lat="46.014809003099799" lon="9.786043195053935">
        <ele>1351.27</ele>
        <time>2017-10-08T07:55:48Z</time>
      </trkpt>
      <trkpt lat="46.014748234301805" lon="9.785936996340752">
        <ele>1352.23</ele>
        <time>2017-10-08T07:56:02Z</time>
      </trkpt>
      <trkpt lat="46.014717724174261" lon="9.785843789577484">
        <ele>1353.1900000000001</ele>
        <time>2017-10-08T07:56:13Z</time>
      </trkpt>
      <trkpt lat="46.014680257067084" lon="9.785760138183832">
        <ele>1354.6300000000001</ele>
        <time>2017-10-08T07:56:24Z</time>
      </trkpt>
      <trkpt lat="46.014651507139206" lon="9.785670451819897">
        <ele>1356.0799999999999</ele>
        <time>2017-10-08T07:56:36Z</time>
      </trkpt>
      <trkpt lat="46.014630133286119" lon="9.785531898960471">
        <ele>1357.04</ele>
        <time>2017-10-08T07:56:48Z</time>
      </trkpt>
      <trkpt lat="46.014630803838372" lon="9.785420252010226">
        <ele>1358</ele>
        <time>2017-10-08T07:56:58Z</time>
      </trkpt>
      <trkpt lat="46.014597276225686" lon="9.78527775965631">
        <ele>1359.4400000000001</ele>
        <time>2017-10-08T07:57:12Z</time>
      </trkpt>
      <trkpt lat="46.01464731618762" lon="9.785153288394213">
        <ele>1360.4000000000001</ele>
        <time>2017-10-08T07:57:24Z</time>
      </trkpt>
      <trkpt lat="46.014671456068754" lon="9.785024374723434">
        <ele>1361.3599999999999</ele>
        <time>2017-10-08T07:57:37Z</time>
      </trkpt>
      <trkpt lat="46.014670450240374" lon="9.784929659217596">
        <ele>1362.8099999999999</ele>
        <time>2017-10-08T07:57:48Z</time>
      </trkpt>
      <trkpt lat="46.014702804386616" lon="9.784943656995893">
        <ele>1363.29</ele>
        <time>2017-10-08T07:58:03Z</time>
      </trkpt>
      <trkpt lat="46.01473331451416" lon="9.784812983125448">
        <ele>1364.73</ele>
        <time>2017-10-08T07:58:15Z</time>
      </trkpt>
      <trkpt lat="46.014753431081772" lon="9.784702090546489">
        <ele>1364.73</ele>
        <time>2017-10-08T07:58:25Z</time>
      </trkpt>
      <trkpt lat="46.014741696417332" lon="9.784603519365192">
        <ele>1365.21</ele>
        <time>2017-10-08T07:58:34Z</time>
      </trkpt>
      <trkpt lat="46.014796597883105" lon="9.784482819959521">
        <ele>1366.6500000000001</ele>
        <time>2017-10-08T07:58:44Z</time>
      </trkpt>
      <trkpt lat="46.014816211536527" lon="9.784393971785903">
        <ele>1368.0899999999999</ele>
        <time>2017-10-08T07:58:55Z</time>
      </trkpt>
      <trkpt lat="46.014813026413321" lon="9.784351056441665">
        <ele>1368.5699999999999</ele>
        <time>2017-10-08T07:59:04Z</time>
      </trkpt>
      <trkpt lat="46.014809757471085" lon="9.784319121390581">
        <ele>1370.02</ele>
        <time>2017-10-08T07:59:13Z</time>
      </trkpt>
      <trkpt lat="46.014841105788946" lon="9.784232703968883">
        <ele>1370.5</ele>
        <time>2017-10-08T07:59:24Z</time>
      </trkpt>
      <trkpt lat="46.014847811311483" lon="9.784097252413631">
        <ele>1372.4200000000001</ele>
        <time>2017-10-08T07:59:35Z</time>
      </trkpt>
      <trkpt lat="46.014848817139864" lon="9.784086523577571">
        <ele>1372.4200000000001</ele>
        <time>2017-10-08T07:59:36Z</time>
      </trkpt>
      <trkpt lat="46.014851834625006" lon="9.784017624333501">
        <ele>1373.3800000000001</ele>
        <time>2017-10-08T07:59:46Z</time>
      </trkpt>
      <trkpt lat="46.014809757471085" lon="9.784050732851028">
        <ele>1374.8199999999999</ele>
        <time>2017-10-08T07:59:56Z</time>
      </trkpt>
      <trkpt lat="46.014747815206647" lon="9.784100521355867">
        <ele>1375.78</ele>
        <time>2017-10-08T08:00:07Z</time>
      </trkpt>
      <trkpt lat="46.014722250401974" lon="9.784149387851358">
        <ele>1377.71</ele>
        <time>2017-10-08T08:00:23Z</time>
      </trkpt>
      <trkpt lat="46.014666175469756" lon="9.784234715625644">
        <ele>1378.6700000000001</ele>
        <time>2017-10-08T08:00:35Z</time>
      </trkpt>
      <trkpt lat="46.014710180461407" lon="9.784261956810951">
        <ele>1379.1500000000001</ele>
        <time>2017-10-08T08:00:46Z</time>
      </trkpt>
      <trkpt lat="46.014717305079103" lon="9.784268997609615">
        <ele>1379.1500000000001</ele>
        <time>2017-10-08T08:01:05Z</time>
      </trkpt>
      <trkpt lat="46.014661230146885" lon="9.78421158157289">
        <ele>1379.1500000000001</ele>
        <time>2017-10-08T08:01:21Z</time>
      </trkpt>
      <trkpt lat="46.014622338116169" lon="9.784097000956535">
        <ele>1380.1099999999999</ele>
        <time>2017-10-08T08:01:31Z</time>
      </trkpt>
      <trkpt lat="46.014660894870758" lon="9.78400681167841">
        <ele>1382.03</ele>
        <time>2017-10-08T08:01:42Z</time>
      </trkpt>
      <trkpt lat="46.014731470495462" lon="9.78386364877224">
        <ele>1382.99</ele>
        <time>2017-10-08T08:01:57Z</time>
      </trkpt>
      <trkpt lat="46.014800537377596" lon="9.783744709566236">
        <ele>1384.4400000000001</ele>
        <time>2017-10-08T08:02:09Z</time>
      </trkpt>
      <trkpt lat="46.014698864892125" lon="9.783682096749544">
        <ele>1387.3199999999999</ele>
        <time>2017-10-08T08:02:23Z</time>
      </trkpt>
      <trkpt lat="46.014591744169593" lon="9.783648317679763">
        <ele>1389.24</ele>
        <time>2017-10-08T08:02:37Z</time>
      </trkpt>
      <trkpt lat="46.014522593468428" lon="9.783714367076755">
        <ele>1390.6800000000001</ele>
        <time>2017-10-08T08:02:50Z</time>
      </trkpt>
      <trkpt lat="46.014459393918514" lon="9.783812519162893">
        <ele>1392.1300000000001</ele>
        <time>2017-10-08T08:03:04Z</time>
      </trkpt>
      <trkpt lat="46.014443803578615" lon="9.783563492819667">
        <ele>1393.5699999999999</ele>
        <time>2017-10-08T08:03:19Z</time>
      </trkpt>
      <trkpt lat="46.014432488009334" lon="9.783468190580607">
        <ele>1395.49</ele>
        <time>2017-10-08T08:03:31Z</time>
      </trkpt>
      <trkpt lat="46.014390494674444" lon="9.783534575253725">
        <ele>1396.45</ele>
        <time>2017-10-08T08:03:42Z</time>
      </trkpt>
      <trkpt lat="46.014347914606333" lon="9.783644629642367">
        <ele>1397.8900000000001</ele>
        <time>2017-10-08T08:03:53Z</time>
      </trkpt>
      <trkpt lat="46.014314386993647" lon="9.783559050410986">
        <ele>1399.3399999999999</ele>
        <time>2017-10-08T08:04:06Z</time>
      </trkpt>
      <trkpt lat="46.014334671199322" lon="9.78347078897059">
        <ele>1400.78</ele>
        <time>2017-10-08T08:04:15Z</time>
      </trkpt>
      <trkpt lat="46.014324864372611" lon="9.783382946625352">
        <ele>1401.74</ele>
        <time>2017-10-08T08:04:25Z</time>
      </trkpt>
      <trkpt lat="46.014331821352243" lon="9.783273478969932">
        <ele>1404.1400000000001</ele>
        <time>2017-10-08T08:04:36Z</time>
      </trkpt>
      <trkpt lat="46.01433115079999" lon="9.783265013247728">
        <ele>1403.6600000000001</ele>
        <time>2017-10-08T08:04:37Z</time>
      </trkpt>
      <trkpt lat="46.014330480247736" lon="9.783204412087798">
        <ele>1404.6199999999999</ele>
        <time>2017-10-08T08:04:46Z</time>
      </trkpt>
      <trkpt lat="46.014291755855083" lon="9.783260570839047">
        <ele>1405.5799999999999</ele>
        <time>2017-10-08T08:04:57Z</time>
      </trkpt>
      <trkpt lat="46.014253869652748" lon="9.783326368778944">
        <ele>1406.55</ele>
        <time>2017-10-08T08:05:09Z</time>
      </trkpt>
      <trkpt lat="46.01422025822103" lon="9.783354699611664">
        <ele>1407.99</ele>
        <time>2017-10-08T08:05:20Z</time>
      </trkpt>
      <trkpt lat="46.0142080206424" lon="9.783416725695133">
        <ele>1408.95</ele>
        <time>2017-10-08T08:05:31Z</time>
      </trkpt>
      <trkpt lat="46.014149766415358" lon="9.783439608290792">
        <ele>1409.4300000000001</ele>
        <time>2017-10-08T08:05:40Z</time>
      </trkpt>
      <trkpt lat="46.014089751988649" lon="9.783366769552231">
        <ele>1410.8699999999999</ele>
        <time>2017-10-08T08:05:51Z</time>
      </trkpt>
      <trkpt lat="46.014046836644411" lon="9.783361153677106">
        <ele>1411.3499999999999</ele>
        <time>2017-10-08T08:06:00Z</time>
      </trkpt>
      <trkpt lat="46.014022948220372" lon="9.783301139250398">
        <ele>1412.3099999999999</ele>
        <time>2017-10-08T08:06:10Z</time>
      </trkpt>
      <trkpt lat="46.014046669006348" lon="9.783203657716513">
        <ele>1412.3099999999999</ele>
        <time>2017-10-08T08:06:31Z</time>
      </trkpt>
      <trkpt lat="46.014051446691155" lon="9.783192845061421">
        <ele>1412.3099999999999</ele>
        <time>2017-10-08T08:06:32Z</time>
      </trkpt>
      <trkpt lat="46.014095284044743" lon="9.783117827028036">
        <ele>1413.28</ele>
        <time>2017-10-08T08:06:43Z</time>
      </trkpt>
      <trkpt lat="46.014102827757597" lon="9.78310776874423">
        <ele>1413.28</ele>
        <time>2017-10-08T08:06:52Z</time>
      </trkpt>
      <trkpt lat="46.014100732281804" lon="9.783123442903161">
        <ele>1413.28</ele>
        <time>2017-10-08T08:06:59Z</time>
      </trkpt>
      <trkpt lat="46.01410592906177" lon="9.783152025192976">
        <ele>1413.76</ele>
        <time>2017-10-08T08:07:12Z</time>
      </trkpt>
      <trkpt lat="46.014104755595326" lon="9.783141799271107">
        <ele>1413.76</ele>
        <time>2017-10-08T08:07:13Z</time>
      </trkpt>
      <trkpt lat="46.014090590178967" lon="9.783036187291145">
        <ele>1414.72</ele>
        <time>2017-10-08T08:07:23Z</time>
      </trkpt>
      <trkpt lat="46.014004591852427" lon="9.783056387677789">
        <ele>1416.6400000000001</ele>
        <time>2017-10-08T08:07:35Z</time>
      </trkpt>
      <trkpt lat="46.013919850811362" lon="9.78305789642036">
        <ele>1417.5999999999999</ele>
        <time>2017-10-08T08:07:48Z</time>
      </trkpt>
      <trkpt lat="46.013883221894503" lon="9.783003833144903">
        <ele>1418.0799999999999</ele>
        <time>2017-10-08T08:07:58Z</time>
      </trkpt>
      <trkpt lat="46.01384206674993" lon="9.782878523692489">
        <ele>1419.04</ele>
        <time>2017-10-08T08:08:09Z</time>
      </trkpt>
      <trkpt lat="46.013815077021718" lon="9.782782383263111">
        <ele>1420</ele>
        <time>2017-10-08T08:08:19Z</time>
      </trkpt>
      <trkpt lat="46.013808287680149" lon="9.782719518989325">
        <ele>1422.4100000000001</ele>
        <time>2017-10-08T08:08:30Z</time>
      </trkpt>
      <trkpt lat="46.013810131698847" lon="9.782710634171963">
        <ele>1422.4100000000001</ele>
        <time>2017-10-08T08:08:32Z</time>
      </trkpt>
      <trkpt lat="46.013759169727564" lon="9.782660342752934">
        <ele>1424.8099999999999</ele>
        <time>2017-10-08T08:08:43Z</time>
      </trkpt>
      <trkpt lat="46.013751626014709" lon="9.782554814592004">
        <ele>1427.7</ele>
        <time>2017-10-08T08:08:56Z</time>
      </trkpt>
      <trkpt lat="46.013695215806365" lon="9.782514832913876">
        <ele>1427.21</ele>
        <time>2017-10-08T08:09:09Z</time>
      </trkpt>
      <trkpt lat="46.013643583282828" lon="9.782459931448102">
        <ele>1428.6600000000001</ele>
        <time>2017-10-08T08:09:21Z</time>
      </trkpt>
      <trkpt lat="46.013648696243763" lon="9.782592533156276">
        <ele>1431.0599999999999</ele>
        <time>2017-10-08T08:09:34Z</time>
      </trkpt>
      <trkpt lat="46.013604942709208" lon="9.78261181153357">
        <ele>1432.5</ele>
        <time>2017-10-08T08:09:44Z</time>
      </trkpt>
      <trkpt lat="46.013546269387007" lon="9.782648272812367">
        <ele>1434.4200000000001</ele>
        <time>2017-10-08T08:09:55Z</time>
      </trkpt>
      <trkpt lat="46.013547275215387" lon="9.782553473487496">
        <ele>1434.9100000000001</ele>
        <time>2017-10-08T08:10:05Z</time>
      </trkpt>
      <trkpt lat="46.013564709573984" lon="9.782418860122562">
        <ele>1437.3099999999999</ele>
        <time>2017-10-08T08:10:18Z</time>
      </trkpt>
      <trkpt lat="46.013538725674152" lon="9.782368736341596">
        <ele>1437.3099999999999</ele>
        <time>2017-10-08T08:10:28Z</time>
      </trkpt>
      <trkpt lat="46.013495642691851" lon="9.782371334731579">
        <ele>1439.23</ele>
        <time>2017-10-08T08:10:42Z</time>
      </trkpt>
      <trkpt lat="46.013515507802367" lon="9.782467978075147">
        <ele>1440.1900000000001</ele>
        <time>2017-10-08T08:10:54Z</time>
      </trkpt>
      <trkpt lat="46.01347804069519" lon="9.78255657479167">
        <ele>1441.1500000000001</ele>
        <time>2017-10-08T08:11:08Z</time>
      </trkpt>
      <trkpt lat="46.013453984633088" lon="9.78266017511487">
        <ele>1442.5999999999999</ele>
        <time>2017-10-08T08:11:19Z</time>
      </trkpt>
      <trkpt lat="46.013417188078165" lon="9.782552719116211">
        <ele>1444.52</ele>
        <time>2017-10-08T08:11:31Z</time>
      </trkpt>
      <trkpt lat="46.013358514755964" lon="9.782504104077816">
        <ele>1445.48</ele>
        <time>2017-10-08T08:11:41Z</time>
      </trkpt>
      <trkpt lat="46.013326579704881" lon="9.782578367739916">
        <ele>1447.8800000000001</ele>
        <time>2017-10-08T08:11:55Z</time>
      </trkpt>
      <trkpt lat="46.01328500546515" lon="9.782597729936242">
        <ele>1449.3199999999999</ele>
        <time>2017-10-08T08:12:07Z</time>
      </trkpt>
      <trkpt lat="46.013260027393699" lon="9.782525561749935">
        <ele>1450.29</ele>
        <time>2017-10-08T08:12:16Z</time>
      </trkpt>
      <trkpt lat="46.013265894725919" lon="9.782592868432403">
        <ele>1451.25</ele>
        <time>2017-10-08T08:12:26Z</time>
      </trkpt>
      <trkpt lat="46.013281736522913" lon="9.782635616138578">
        <ele>1451.73</ele>
        <time>2017-10-08T08:12:31Z</time>
      </trkpt>
      <trkpt lat="46.013307301327586" lon="9.782722871750593">
        <ele>1453.1700000000001</ele>
        <time>2017-10-08T08:12:42Z</time>
      </trkpt>
      <trkpt lat="46.013236809521914" lon="9.782811300829053">
        <ele>1454.1300000000001</ele>
        <time>2017-10-08T08:12:54Z</time>
      </trkpt>
      <trkpt lat="46.013206969946623" lon="9.782903334125876">
        <ele>1455.5699999999999</ele>
        <time>2017-10-08T08:13:06Z</time>
      </trkpt>
      <trkpt lat="46.013194061815739" lon="9.782993858680129">
        <ele>1457.02</ele>
        <time>2017-10-08T08:13:19Z</time>
      </trkpt>
      <trkpt lat="46.013154247775674" lon="9.782996205613017">
        <ele>1458.46</ele>
        <time>2017-10-08T08:13:31Z</time>
      </trkpt>
      <trkpt lat="46.013126503676176" lon="9.78285706602037">
        <ele>1460.8599999999999</ele>
        <time>2017-10-08T08:13:46Z</time>
      </trkpt>
      <trkpt lat="46.013063723221421" lon="9.782800739631057">
        <ele>1464.23</ele>
        <time>2017-10-08T08:14:02Z</time>
      </trkpt>
      <trkpt lat="46.013021394610405" lon="9.782727817073464">
        <ele>1466.6300000000001</ele>
        <time>2017-10-08T08:14:16Z</time>
      </trkpt>
      <trkpt lat="46.013013683259487" lon="9.782819598913193">
        <ele>1468.55</ele>
        <time>2017-10-08T08:14:29Z</time>
      </trkpt>
      <trkpt lat="46.013007145375013" lon="9.782939460128546">
        <ele>1469.99</ele>
        <time>2017-10-08T08:14:41Z</time>
      </trkpt>
      <trkpt lat="46.013013012707233" lon="9.783009616658092">
        <ele>1471.4400000000001</ele>
        <time>2017-10-08T08:14:52Z</time>
      </trkpt>
      <trkpt lat="46.01299281232059" lon="9.783094776794314">
        <ele>1472.8800000000001</ele>
        <time>2017-10-08T08:15:02Z</time>
      </trkpt>
      <trkpt lat="46.013009157031775" lon="9.783154958859086">
        <ele>1472.8800000000001</ele>
        <time>2017-10-08T08:15:11Z</time>
      </trkpt>
      <trkpt lat="46.013042936101556" lon="9.783172057941556">
        <ele>1474.3199999999999</ele>
        <time>2017-10-08T08:15:20Z</time>
      </trkpt>
      <trkpt lat="46.013021226972342" lon="9.783246573060751">
        <ele>1474.8</ele>
        <time>2017-10-08T08:15:29Z</time>
      </trkpt>
      <trkpt lat="46.012989459559321" lon="9.783300217241049">
        <ele>1475.28</ele>
        <time>2017-10-08T08:15:38Z</time>
      </trkpt>
      <trkpt lat="46.012988956645131" lon="9.783331397920847">
        <ele>1476.24</ele>
        <time>2017-10-08T08:15:41Z</time>
      </trkpt>
      <trkpt lat="46.013016616925597" lon="9.783427705988288">
        <ele>1476.72</ele>
        <time>2017-10-08T08:15:51Z</time>
      </trkpt>
      <trkpt lat="46.012996751815081" lon="9.78346835821867">
        <ele>1477.2</ele>
        <time>2017-10-08T08:15:56Z</time>
      </trkpt>
      <trkpt lat="46.012948472052813" lon="9.783572545275092">
        <ele>1478.6500000000001</ele>
        <time>2017-10-08T08:16:07Z</time>
      </trkpt>
      <trkpt lat="46.012912010774016" lon="9.783649826422334">
        <ele>1480.0899999999999</ele>
        <time>2017-10-08T08:16:18Z</time>
      </trkpt>
      <trkpt lat="46.012864904478192" lon="9.78372878395021">
        <ele>1482.01</ele>
        <time>2017-10-08T08:16:29Z</time>
      </trkpt>
      <trkpt lat="46.012870855629444" lon="9.783740267157555">
        <ele>1482.49</ele>
        <time>2017-10-08T08:16:40Z</time>
      </trkpt>
      <trkpt lat="46.01283255033195" lon="9.783824170008302">
        <ele>1482.49</ele>
        <time>2017-10-08T08:16:50Z</time>
      </trkpt>
      <trkpt lat="46.012793155387044" lon="9.783890973776579">
        <ele>1483.45</ele>
        <time>2017-10-08T08:17:01Z</time>
      </trkpt>
      <trkpt lat="46.012785108759999" lon="9.783912934362888">
        <ele>1483.45</ele>
        <time>2017-10-08T08:17:11Z</time>
      </trkpt>
      <trkpt lat="46.012799274176359" lon="9.783930955454707">
        <ele>1483.45</ele>
        <time>2017-10-08T08:17:24Z</time>
      </trkpt>
      <trkpt lat="46.012811344116926" lon="9.783905558288097">
        <ele>1483.45</ele>
        <time>2017-10-08T08:17:40Z</time>
      </trkpt>
      <trkpt lat="46.012795502319932" lon="9.783913353458047">
        <ele>1483.45</ele>
        <time>2017-10-08T08:17:59Z</time>
      </trkpt>
      <trkpt lat="46.01281838491559" lon="9.783908408135176">
        <ele>1483.45</ele>
        <time>2017-10-08T08:18:21Z</time>
      </trkpt>
      <trkpt lat="46.012797681614757" lon="9.783918298780918">
        <ele>1483.45</ele>
        <time>2017-10-08T08:18:39Z</time>
      </trkpt>
      <trkpt lat="46.012809667736292" lon="9.783915784209967">
        <ele>1483.45</ele>
        <time>2017-10-08T08:18:50Z</time>
      </trkpt>
      <trkpt lat="46.012796675786376" lon="9.783896086737514">
        <ele>1483.45</ele>
        <time>2017-10-08T08:19:06Z</time>
      </trkpt>
      <trkpt lat="46.012806063517928" lon="9.783905725926161">
        <ele>1483.45</ele>
        <time>2017-10-08T08:19:15Z</time>
      </trkpt>
      <trkpt lat="46.012776307761669" lon="9.783917041495442">
        <ele>1483.45</ele>
        <time>2017-10-08T08:19:30Z</time>
      </trkpt>
      <trkpt lat="46.012783935293555" lon="9.783936319872737">
        <ele>1483.45</ele>
        <time>2017-10-08T08:19:53Z</time>
      </trkpt>
      <trkpt lat="46.012784941121936" lon="9.783946964889765">
        <ele>1483.45</ele>
        <time>2017-10-08T08:20:14Z</time>
      </trkpt>
      <trkpt lat="46.012776391580701" lon="9.783905306831002">
        <ele>1483.45</ele>
        <time>2017-10-08T08:20:34Z</time>
      </trkpt>
      <trkpt lat="46.012748144567013" lon="9.783901115879417">
        <ele>1483.45</ele>
        <time>2017-10-08T08:20:56Z</time>
      </trkpt>
      <trkpt lat="46.012766500934958" lon="9.78391645476222">
        <ele>1483.45</ele>
        <time>2017-10-08T08:21:17Z</time>
      </trkpt>
      <trkpt lat="46.012752000242472" lon="9.783954340964556">
        <ele>1483.45</ele>
        <time>2017-10-08T08:21:37Z</time>
      </trkpt>
      <trkpt lat="46.012742780148983" lon="9.783922992646694">
        <ele>1483.45</ele>
        <time>2017-10-08T08:22:01Z</time>
      </trkpt>
      <trkpt lat="46.012709755450487" lon="9.783875718712807">
        <ele>1483.9300000000001</ele>
        <time>2017-10-08T08:22:25Z</time>
      </trkpt>
      <trkpt lat="46.012746719643474" lon="9.783929279074073">
        <ele>1483.9300000000001</ele>
        <time>2017-10-08T08:22:48Z</time>
      </trkpt>
      <trkpt lat="46.012777648866177" lon="9.783925339579582">
        <ele>1483.9300000000001</ele>
        <time>2017-10-08T08:23:13Z</time>
      </trkpt>
      <trkpt lat="46.012761555612087" lon="9.783870438113809">
        <ele>1484.4100000000001</ele>
        <time>2017-10-08T08:23:32Z</time>
      </trkpt>
      <trkpt lat="46.012754095718265" lon="9.783852500841022">
        <ele>1484.4100000000001</ele>
        <time>2017-10-08T08:23:54Z</time>
      </trkpt>
      <trkpt lat="46.012759879231453" lon="9.783956604078412">
        <ele>1484.8900000000001</ele>
        <time>2017-10-08T08:24:18Z</time>
      </trkpt>
      <trkpt lat="46.012740936130285" lon="9.784056097269058">
        <ele>1485.8499999999999</ele>
        <time>2017-10-08T08:24:31Z</time>
      </trkpt>
      <trkpt lat="46.012764321640134" lon="9.784150896593928">
        <ele>1486.8199999999999</ele>
        <time>2017-10-08T08:24:44Z</time>
      </trkpt>
      <trkpt lat="46.012739259749651" lon="9.784182412549853">
        <ele>1488.26</ele>
        <time>2017-10-08T08:24:56Z</time>
      </trkpt>
      <trkpt lat="46.012691985815763" lon="9.7842369787395">
        <ele>1489.7</ele>
        <time>2017-10-08T08:25:09Z</time>
      </trkpt>
      <trkpt lat="46.012663822621107" lon="9.784096917137504">
        <ele>1490.1800000000001</ele>
        <time>2017-10-08T08:25:20Z</time>
      </trkpt>
      <trkpt lat="46.012631971389055" lon="9.784049307927489">
        <ele>1490.1800000000001</ele>
        <time>2017-10-08T08:25:32Z</time>
      </trkpt>
      <trkpt lat="46.012600371614099" lon="9.784075291827321">
        <ele>1493.0599999999999</ele>
        <time>2017-10-08T08:25:40Z</time>
      </trkpt>
      <trkpt lat="46.012585870921612" lon="9.784148801118136">
        <ele>1494.51</ele>
        <time>2017-10-08T08:25:49Z</time>
      </trkpt>
      <trkpt lat="46.012604394927621" lon="9.784263297915459">
        <ele>1495.47</ele>
        <time>2017-10-08T08:26:02Z</time>
      </trkpt>
      <trkpt lat="46.012619817629457" lon="9.784316271543503">
        <ele>1496.9100000000001</ele>
        <time>2017-10-08T08:26:07Z</time>
      </trkpt>
      <trkpt lat="46.012609088793397" lon="9.784418782219291">
        <ele>1498.8299999999999</ele>
        <time>2017-10-08T08:26:19Z</time>
      </trkpt>
      <trkpt lat="46.01260581985116" lon="9.78450863622129">
        <ele>1500.27</ele>
        <time>2017-10-08T08:26:31Z</time>
      </trkpt>
      <trkpt lat="46.012574722990394" lon="9.784489190205932">
        <ele>1501.72</ele>
        <time>2017-10-08T08:26:42Z</time>
      </trkpt>
      <trkpt lat="46.012571789324284" lon="9.784558424726129">
        <ele>1503.1600000000001</ele>
        <time>2017-10-08T08:26:56Z</time>
      </trkpt>
      <trkpt lat="46.012586960569024" lon="9.784670993685722">
        <ele>1506.04</ele>
        <time>2017-10-08T08:27:06Z</time>
      </trkpt>
      <trkpt lat="46.012572962790728" lon="9.784695217385888">
        <ele>1506.52</ele>
        <time>2017-10-08T08:27:19Z</time>
      </trkpt>
      <trkpt lat="46.012532981112599" lon="9.784741317853332">
        <ele>1507.48</ele>
        <time>2017-10-08T08:27:31Z</time>
      </trkpt>
      <trkpt lat="46.012503895908594" lon="9.784653140231967">
        <ele>1509.4100000000001</ele>
        <time>2017-10-08T08:27:44Z</time>
      </trkpt>
      <trkpt lat="46.012487383559346" lon="9.784721955657005">
        <ele>1511.3299999999999</ele>
        <time>2017-10-08T08:27:55Z</time>
      </trkpt>
      <trkpt lat="46.012504566460848" lon="9.784824131056666">
        <ele>1512.77</ele>
        <time>2017-10-08T08:28:09Z</time>
      </trkpt>
      <trkpt lat="46.012480426579714" lon="9.784928485751152">
        <ele>1513.73</ele>
        <time>2017-10-08T08:28:19Z</time>
      </trkpt>
      <trkpt lat="46.012456119060516" lon="9.785015909001231">
        <ele>1515.1800000000001</ele>
        <time>2017-10-08T08:28:33Z</time>
      </trkpt>
      <trkpt lat="46.012447066605091" lon="9.785104086622596">
        <ele>1516.1400000000001</ele>
        <time>2017-10-08T08:28:43Z</time>
      </trkpt>
      <trkpt lat="46.012403899803758" lon="9.785158652812243">
        <ele>1516.6199999999999</ele>
        <time>2017-10-08T08:28:51Z</time>
      </trkpt>
      <trkpt lat="46.01233122870326" lon="9.785193940624595">
        <ele>1517.5799999999999</ele>
        <time>2017-10-08T08:29:02Z</time>
      </trkpt>
      <trkpt lat="46.012319074943662" lon="9.78527189232409">
        <ele>1518.54</ele>
        <time>2017-10-08T08:29:13Z</time>
      </trkpt>
      <trkpt lat="46.012324523180723" lon="9.785338193178177">
        <ele>1519.02</ele>
        <time>2017-10-08T08:29:24Z</time>
      </trkpt>
      <trkpt lat="46.012319158762693" lon="9.785355627536774">
        <ele>1519.02</ele>
        <time>2017-10-08T08:29:32Z</time>
      </trkpt>
      <trkpt lat="46.012246068567038" lon="9.785357555374503">
        <ele>1519.98</ele>
        <time>2017-10-08T08:29:42Z</time>
      </trkpt>
      <trkpt lat="46.012175744399428" lon="9.785402985289693">
        <ele>1521.4200000000001</ele>
        <time>2017-10-08T08:29:54Z</time>
      </trkpt>
      <trkpt lat="46.012117322534323" lon="9.785476243123412">
        <ele>1523.3499999999999</ele>
        <time>2017-10-08T08:30:06Z</time>
      </trkpt>
      <trkpt lat="46.01208102889359" lon="9.785538939759135">
        <ele>1524.3099999999999</ele>
        <time>2017-10-08T08:30:17Z</time>
      </trkpt>
      <trkpt lat="46.0121064260602" lon="9.785611694678664">
        <ele>1526.71</ele>
        <time>2017-10-08T08:30:30Z</time>
      </trkpt>
      <trkpt lat="46.012066528201103" lon="9.785686042159796">
        <ele>1527.6700000000001</ele>
        <time>2017-10-08T08:30:43Z</time>
      </trkpt>
      <trkpt lat="46.012050434947014" lon="9.785774638876319">
        <ele>1529.1099999999999</ele>
        <time>2017-10-08T08:30:56Z</time>
      </trkpt>
      <trkpt lat="46.012022020295262" lon="9.78569945320487">
        <ele>1529.5899999999999</ele>
        <time>2017-10-08T08:31:05Z</time>
      </trkpt>
      <trkpt lat="46.012001819908619" lon="9.785668943077326">
        <ele>1531.04</ele>
        <time>2017-10-08T08:31:15Z</time>
      </trkpt>
      <trkpt lat="46.011978015303612" lon="9.785743458196521">
        <ele>1532</ele>
        <time>2017-10-08T08:31:27Z</time>
      </trkpt>
      <trkpt lat="46.011937614530325" lon="9.785684952512384">
        <ele>1533.4400000000001</ele>
        <time>2017-10-08T08:31:37Z</time>
      </trkpt>
      <trkpt lat="46.011921605095267" lon="9.785611275583506">
        <ele>1534.4000000000001</ele>
        <time>2017-10-08T08:31:47Z</time>
      </trkpt>
      <trkpt lat="46.011888580396771" lon="9.785601552575827">
        <ele>1535.8399999999999</ele>
        <time>2017-10-08T08:31:57Z</time>
      </trkpt>
      <trkpt lat="46.011893441900611" lon="9.78571311570704">
        <ele>1537.29</ele>
        <time>2017-10-08T08:32:07Z</time>
      </trkpt>
      <trkpt lat="46.01191540248692" lon="9.785822164267302">
        <ele>1538.25</ele>
        <time>2017-10-08T08:32:19Z</time>
      </trkpt>
      <trkpt lat="46.011898722499609" lon="9.785902043804526">
        <ele>1539.21</ele>
        <time>2017-10-08T08:32:30Z</time>
      </trkpt>
      <trkpt lat="46.011892352253199" lon="9.78594621643424">
        <ele>1540.6500000000001</ele>
        <time>2017-10-08T08:32:42Z</time>
      </trkpt>
      <trkpt lat="46.011861590668559" lon="9.785924255847931">
        <ele>1542.5699999999999</ele>
        <time>2017-10-08T08:32:54Z</time>
      </trkpt>
      <trkpt lat="46.011796379461884" lon="9.785842448472977">
        <ele>1544.01</ele>
        <time>2017-10-08T08:33:07Z</time>
      </trkpt>
      <trkpt lat="46.011744327843189" lon="9.785708002746105">
        <ele>1545.46</ele>
        <time>2017-10-08T08:33:20Z</time>
      </trkpt>
      <trkpt lat="46.011729575693607" lon="9.785604486241937">
        <ele>1546.9000000000001</ele>
        <time>2017-10-08T08:33:32Z</time>
      </trkpt>
      <trkpt lat="46.011698395013809" lon="9.785574143752456">
        <ele>1547.3800000000001</ele>
        <time>2017-10-08T08:33:43Z</time>
      </trkpt>
      <trkpt lat="46.011672494933009" lon="9.785489067435265">
        <ele>1548.8199999999999</ele>
        <time>2017-10-08T08:33:55Z</time>
      </trkpt>
      <trkpt lat="46.011671992018819" lon="9.785382449626923">
        <ele>1549.3</ele>
        <time>2017-10-08T08:34:06Z</time>
      </trkpt>
      <trkpt lat="46.011700490489602" lon="9.785280022770166">
        <ele>1550.74</ele>
        <time>2017-10-08T08:34:18Z</time>
      </trkpt>
      <trkpt lat="46.011733179911971" lon="9.785202322527766">
        <ele>1551.71</ele>
        <time>2017-10-08T08:34:28Z</time>
      </trkpt>
      <trkpt lat="46.011715913191438" lon="9.78508179076016">
        <ele>1552.1900000000001</ele>
        <time>2017-10-08T08:34:40Z</time>
      </trkpt>
      <trkpt lat="46.011748015880585" lon="9.785004174336791">
        <ele>1553.1500000000001</ele>
        <time>2017-10-08T08:34:50Z</time>
      </trkpt>
      <trkpt lat="46.011755643412471" lon="9.784905686974526">
        <ele>1553.6300000000001</ele>
        <time>2017-10-08T08:35:00Z</time>
      </trkpt>
      <trkpt lat="46.011727564036846" lon="9.784878445789218">
        <ele>1554.5899999999999</ele>
        <time>2017-10-08T08:35:11Z</time>
      </trkpt>
      <trkpt lat="46.011690767481923" lon="9.78497676551342">
        <ele>1555.55</ele>
        <time>2017-10-08T08:35:24Z</time>
      </trkpt>
      <trkpt lat="46.011659251525998" lon="9.785026386380196">
        <ele>1556.51</ele>
        <time>2017-10-08T08:35:33Z</time>
      </trkpt>
      <trkpt lat="46.011638045310974" lon="9.785122191533446">
        <ele>1557.47</ele>
        <time>2017-10-08T08:35:43Z</time>
      </trkpt>
      <trkpt lat="46.011593034490943" lon="9.785201400518417">
        <ele>1558.9200000000001</ele>
        <time>2017-10-08T08:35:55Z</time>
      </trkpt>
      <trkpt lat="46.011531930416822" lon="9.785273401066661">
        <ele>1559.8800000000001</ele>
        <time>2017-10-08T08:36:06Z</time>
      </trkpt>
      <trkpt lat="46.011463198810816" lon="9.785305503755808">
        <ele>1560.3599999999999</ele>
        <time>2017-10-08T08:36:18Z</time>
      </trkpt>
      <trkpt lat="46.011405028402805" lon="9.785317573696375">
        <ele>1562.28</ele>
        <time>2017-10-08T08:36:31Z</time>
      </trkpt>
      <trkpt lat="46.011345433071256" lon="9.78536861948669">
        <ele>1563.24</ele>
        <time>2017-10-08T08:36:43Z</time>
      </trkpt>
      <trkpt lat="46.011345935985446" lon="9.7852523624897">
        <ele>1564.6800000000001</ele>
        <time>2017-10-08T08:36:52Z</time>
      </trkpt>
      <trkpt lat="46.011339649558067" lon="9.785192180424929">
        <ele>1566.1199999999999</ele>
        <time>2017-10-08T08:37:03Z</time>
      </trkpt>
      <trkpt lat="46.011311234906316" lon="9.785300809890032">
        <ele>1567.0899999999999</ele>
        <time>2017-10-08T08:37:14Z</time>
      </trkpt>
      <trkpt lat="46.01124451495707" lon="9.785411283373833">
        <ele>1568.05</ele>
        <time>2017-10-08T08:37:26Z</time>
      </trkpt>
      <trkpt lat="46.011230852454901" lon="9.785464843735099">
        <ele>1569.49</ele>
        <time>2017-10-08T08:37:35Z</time>
      </trkpt>
      <trkpt lat="46.011213418096304" lon="9.785509686917067">
        <ele>1570.9300000000001</ele>
        <time>2017-10-08T08:37:48Z</time>
      </trkpt>
      <trkpt lat="46.011164132505655" lon="9.785455456003547">
        <ele>1572.8499999999999</ele>
        <time>2017-10-08T08:38:02Z</time>
      </trkpt>
      <trkpt lat="46.011135801672935" lon="9.78543165139854">
        <ele>1574.3</ele>
        <time>2017-10-08T08:38:12Z</time>
      </trkpt>
      <trkpt lat="46.01113211363554" lon="9.785537933930755">
        <ele>1575.26</ele>
        <time>2017-10-08T08:38:23Z</time>
      </trkpt>
      <trkpt lat="46.01109397597611" lon="9.785657124593854">
        <ele>1576.7</ele>
        <time>2017-10-08T08:38:36Z</time>
      </trkpt>
      <trkpt lat="46.011026417836547" lon="9.78571948595345">
        <ele>1577.6600000000001</ele>
        <time>2017-10-08T08:38:48Z</time>
      </trkpt>
      <trkpt lat="46.01094352081418" lon="9.785744296386838">
        <ele>1579.0999999999999</ele>
        <time>2017-10-08T08:39:01Z</time>
      </trkpt>
      <trkpt lat="46.01091762073338" lon="9.785698782652617">
        <ele>1579.5799999999999</ele>
        <time>2017-10-08T08:39:09Z</time>
      </trkpt>
      <trkpt lat="46.010902617126703" lon="9.785646060481668">
        <ele>1579.5799999999999</ele>
        <time>2017-10-08T08:39:20Z</time>
      </trkpt>
      <trkpt lat="46.010866239666939" lon="9.785613538697362">
        <ele>1581.99</ele>
        <time>2017-10-08T08:39:30Z</time>
      </trkpt>
      <trkpt lat="46.010842937976122" lon="9.785561487078667">
        <ele>1584.8699999999999</ele>
        <time>2017-10-08T08:39:42Z</time>
      </trkpt>
      <trkpt lat="46.010791808366776" lon="9.785591075196862">
        <ele>1585.8299999999999</ele>
        <time>2017-10-08T08:39:53Z</time>
      </trkpt>
      <trkpt lat="46.010721400380135" lon="9.785670703276992">
        <ele>1586.79</ele>
        <time>2017-10-08T08:40:04Z</time>
      </trkpt>
      <trkpt lat="46.01065568625927" lon="9.785737842321396">
        <ele>1588.24</ele>
        <time>2017-10-08T08:40:16Z</time>
      </trkpt>
      <trkpt lat="46.010605897754431" lon="9.78579618036747">
        <ele>1589.2</ele>
        <time>2017-10-08T08:40:27Z</time>
      </trkpt>
      <trkpt lat="46.010551583021879" lon="9.785863067954779">
        <ele>1590.1600000000001</ele>
        <time>2017-10-08T08:40:37Z</time>
      </trkpt>
      <trkpt lat="46.010563569143414" lon="9.78595451451838">
        <ele>1589.6800000000001</ele>
        <time>2017-10-08T08:40:49Z</time>
      </trkpt>
      <trkpt lat="46.010591983795166" lon="9.78597505018115">
        <ele>1591.1199999999999</ele>
        <time>2017-10-08T08:40:57Z</time>
      </trkpt>
      <trkpt lat="46.01067379117012" lon="9.786016205325723">
        <ele>1592.0799999999999</ele>
        <time>2017-10-08T08:41:09Z</time>
      </trkpt>
      <trkpt lat="46.010603550821543" lon="9.786052834242582">
        <ele>1592.5599999999999</ele>
        <time>2017-10-08T08:41:19Z</time>
      </trkpt>
      <trkpt lat="46.010511182248592" lon="9.786068927496672">
        <ele>1594</ele>
        <time>2017-10-08T08:41:30Z</time>
      </trkpt>
      <trkpt lat="46.010428117588162" lon="9.786057025194168">
        <ele>1594.96</ele>
        <time>2017-10-08T08:41:41Z</time>
      </trkpt>
      <trkpt lat="46.010370366275311" lon="9.786005392670631">
        <ele>1595.9300000000001</ele>
        <time>2017-10-08T08:41:53Z</time>
      </trkpt>
      <trkpt lat="46.010325690731406" lon="9.785913107916713">
        <ele>1597.3699999999999</ele>
        <time>2017-10-08T08:42:03Z</time>
      </trkpt>
      <trkpt lat="46.01027162745595" lon="9.785870695486665">
        <ele>1597.8499999999999</ele>
        <time>2017-10-08T08:42:15Z</time>
      </trkpt>
      <trkpt lat="46.010255701839924" lon="9.78574831970036">
        <ele>1599.29</ele>
        <time>2017-10-08T08:42:28Z</time>
      </trkpt>
      <trkpt lat="46.010222341865301" lon="9.785803807899356">
        <ele>1600.73</ele>
        <time>2017-10-08T08:42:39Z</time>
      </trkpt>
      <trkpt lat="46.010196022689342" lon="9.785939762368798">
        <ele>1601.6900000000001</ele>
        <time>2017-10-08T08:42:52Z</time>
      </trkpt>
      <trkpt lat="46.010196441784501" lon="9.785989550873637">
        <ele>1602.1700000000001</ele>
        <time>2017-10-08T08:43:04Z</time>
      </trkpt>
      <trkpt lat="46.010190239176154" lon="9.786082254722714">
        <ele>1603.1400000000001</ele>
        <time>2017-10-08T08:43:14Z</time>
      </trkpt>
      <trkpt lat="46.010199878364801" lon="9.786190968006849">
        <ele>1604.5799999999999</ele>
        <time>2017-10-08T08:43:24Z</time>
      </trkpt>
      <trkpt lat="46.010199543088675" lon="9.786298675462604">
        <ele>1604.5799999999999</ele>
        <time>2017-10-08T08:43:35Z</time>
      </trkpt>
      <trkpt lat="46.0101567953825" lon="9.78635223582387">
        <ele>1606.02</ele>
        <time>2017-10-08T08:43:46Z</time>
      </trkpt>
      <trkpt lat="46.01013483479619" lon="9.786316445097327">
        <ele>1607.46</ele>
        <time>2017-10-08T08:43:51Z</time>
      </trkpt>
      <trkpt lat="46.010065684095025" lon="9.78625156916678">
        <ele>1608.4200000000001</ele>
        <time>2017-10-08T08:44:02Z</time>
      </trkpt>
      <trkpt lat="46.010010028257966" lon="9.786194739863277">
        <ele>1608.9000000000001</ele>
        <time>2017-10-08T08:44:12Z</time>
      </trkpt>
      <trkpt lat="46.009955713525414" lon="9.786148387938738">
        <ele>1610.3499999999999</ele>
        <time>2017-10-08T08:44:24Z</time>
      </trkpt>
      <trkpt lat="46.009922185912728" lon="9.786022072657943">
        <ele>1611.3099999999999</ele>
        <time>2017-10-08T08:44:35Z</time>
      </trkpt>
      <trkpt lat="46.009894106537104" lon="9.785906402394176">
        <ele>1612.27</ele>
        <time>2017-10-08T08:44:47Z</time>
      </trkpt>
      <trkpt lat="46.009884299710393" lon="9.785772878676653">
        <ele>1614.1900000000001</ele>
        <time>2017-10-08T08:45:02Z</time>
      </trkpt>
      <trkpt lat="46.009808443486691" lon="9.785814369097352">
        <ele>1615.1500000000001</ele>
        <time>2017-10-08T08:45:15Z</time>
      </trkpt>
      <trkpt lat="46.00980693474412" lon="9.785920819267631">
        <ele>1616.5899999999999</ele>
        <time>2017-10-08T08:45:28Z</time>
      </trkpt>
      <trkpt lat="46.009809197857976" lon="9.7860121820122">
        <ele>1618.04</ele>
        <time>2017-10-08T08:45:39Z</time>
      </trkpt>
      <trkpt lat="46.009794529527426" lon="9.786065658554435">
        <ele>1619.48</ele>
        <time>2017-10-08T08:45:51Z</time>
      </trkpt>
      <trkpt lat="46.009725127369165" lon="9.785967757925391">
        <ele>1620.9200000000001</ele>
        <time>2017-10-08T08:46:04Z</time>
      </trkpt>
      <trkpt lat="46.009665196761489" lon="9.785897433757782">
        <ele>1621.8800000000001</ele>
        <time>2017-10-08T08:46:17Z</time>
      </trkpt>
      <trkpt lat="46.009701574221253" lon="9.785942612215877">
        <ele>1623.3199999999999</ele>
        <time>2017-10-08T08:46:27Z</time>
      </trkpt>
      <trkpt lat="46.009743819013238" lon="9.786034561693668">
        <ele>1624.28</ele>
        <time>2017-10-08T08:46:37Z</time>
      </trkpt>
      <trkpt lat="46.009786650538445" lon="9.786107484251261">
        <ele>1625.25</ele>
        <time>2017-10-08T08:46:47Z</time>
      </trkpt>
      <trkpt lat="46.00979377515614" lon="9.786146376281977">
        <ele>1625.25</ele>
        <time>2017-10-08T08:46:56Z</time>
      </trkpt>
      <trkpt lat="46.009756475687027" lon="9.786199098452926">
        <ele>1626.21</ele>
        <time>2017-10-08T08:47:04Z</time>
      </trkpt>
      <trkpt lat="46.009699562564492" lon="9.786179736256599">
        <ele>1627.6500000000001</ele>
        <time>2017-10-08T08:47:12Z</time>
      </trkpt>
      <trkpt lat="46.009634602814913" lon="9.786158613860607">
        <ele>1629.5699999999999</ele>
        <time>2017-10-08T08:47:22Z</time>
      </trkpt>
      <trkpt lat="46.009588418528438" lon="9.786116452887654">
        <ele>1630.53</ele>
        <time>2017-10-08T08:47:33Z</time>
      </trkpt>
      <trkpt lat="46.009533600881696" lon="9.786053840070963">
        <ele>1632.46</ele>
        <time>2017-10-08T08:47:45Z</time>
      </trkpt>
      <trkpt lat="46.009532511234283" lon="9.786099186167121">
        <ele>1633.9000000000001</ele>
        <time>2017-10-08T08:47:58Z</time>
      </trkpt>
      <trkpt lat="46.009568050503731" lon="9.786175461485982">
        <ele>1635.3399999999999</ele>
        <time>2017-10-08T08:48:09Z</time>
      </trkpt>
      <trkpt lat="46.009557573124766" lon="9.786173449829221">
        <ele>1637.26</ele>
        <time>2017-10-08T08:48:22Z</time>
      </trkpt>
      <trkpt lat="46.009494625031948" lon="9.786115614697337">
        <ele>1638.22</ele>
        <time>2017-10-08T08:48:34Z</time>
      </trkpt>
      <trkpt lat="46.009489763528109" lon="9.786154758185148">
        <ele>1639.1900000000001</ele>
        <time>2017-10-08T08:48:43Z</time>
      </trkpt>
      <trkpt lat="46.009480124339461" lon="9.786205971613526">
        <ele>1641.1099999999999</ele>
        <time>2017-10-08T08:48:55Z</time>
      </trkpt>
      <trkpt lat="46.009436203166842" lon="9.786157943308353">
        <ele>1643.03</ele>
        <time>2017-10-08T08:49:07Z</time>
      </trkpt>
      <trkpt lat="46.009425725787878" lon="9.786098431795836">
        <ele>1644.47</ele>
        <time>2017-10-08T08:49:19Z</time>
      </trkpt>
      <trkpt lat="46.009384486824274" lon="9.786035316064954">
        <ele>1645.4300000000001</ele>
        <time>2017-10-08T08:49:30Z</time>
      </trkpt>
      <trkpt lat="46.009335117414594" lon="9.785982258617878">
        <ele>1646.8800000000001</ele>
        <time>2017-10-08T08:49:44Z</time>
      </trkpt>
      <trkpt lat="46.009390857070684" lon="9.786062389612198">
        <ele>1648.3199999999999</ele>
        <time>2017-10-08T08:49:56Z</time>
      </trkpt>
      <trkpt lat="46.009372333064675" lon="9.786111423745751">
        <ele>1649.76</ele>
        <time>2017-10-08T08:50:08Z</time>
      </trkpt>
      <trkpt lat="46.009320616722107" lon="9.786057528108358">
        <ele>1650.72</ele>
        <time>2017-10-08T08:50:20Z</time>
      </trkpt>
      <trkpt lat="46.009298823773861" lon="9.78596624918282">
        <ele>1651.6800000000001</ele>
        <time>2017-10-08T08:50:30Z</time>
      </trkpt>
      <trkpt lat="46.009273510426283" lon="9.786003464832902">
        <ele>1653.1199999999999</ele>
        <time>2017-10-08T08:50:42Z</time>
      </trkpt>
      <trkpt lat="46.009288597851992" lon="9.786086697131395">
        <ele>1655.05</ele>
        <time>2017-10-08T08:50:56Z</time>
      </trkpt>
      <trkpt lat="46.009296644479036" lon="9.786154506728053">
        <ele>1656.49</ele>
        <time>2017-10-08T08:51:07Z</time>
      </trkpt>
      <trkpt lat="46.00929488427937" lon="9.786219215020537">
        <ele>1658.4100000000001</ele>
        <time>2017-10-08T08:51:17Z</time>
      </trkpt>
      <trkpt lat="46.00924015045166" lon="9.786197170615196">
        <ele>1659.3699999999999</ele>
        <time>2017-10-08T08:51:27Z</time>
      </trkpt>
      <trkpt lat="46.009203772991896" lon="9.786107316613197">
        <ele>1661.3</ele>
        <time>2017-10-08T08:51:41Z</time>
      </trkpt>
      <trkpt lat="46.009183069691062" lon="9.786049481481314">
        <ele>1662.26</ele>
        <time>2017-10-08T08:51:50Z</time>
      </trkpt>
      <trkpt lat="46.00914585404098" lon="9.785982258617878">
        <ele>1662.74</ele>
        <time>2017-10-08T08:52:00Z</time>
      </trkpt>
      <trkpt lat="46.009091036394238" lon="9.785937834531069">
        <ele>1664.1800000000001</ele>
        <time>2017-10-08T08:52:10Z</time>
      </trkpt>
      <trkpt lat="46.009041164070368" lon="9.785873126238585">
        <ele>1665.1400000000001</ele>
        <time>2017-10-08T08:52:23Z</time>
      </trkpt>
      <trkpt lat="46.009018868207932" lon="9.78592811152339">
        <ele>1667.0599999999999</ele>
        <time>2017-10-08T08:52:35Z</time>
      </trkpt>
      <trkpt lat="46.009065471589565" lon="9.786010086536408">
        <ele>1668.02</ele>
        <time>2017-10-08T08:52:47Z</time>
      </trkpt>
      <trkpt lat="46.009088773280382" lon="9.786115027964115">
        <ele>1669.95</ele>
        <time>2017-10-08T08:53:00Z</time>
      </trkpt>
      <trkpt lat="46.009110398590565" lon="9.786180490627885">
        <ele>1670.9100000000001</ele>
        <time>2017-10-08T08:53:12Z</time>
      </trkpt>
      <trkpt lat="46.009112661704421" lon="9.786294903606176">
        <ele>1672.3499999999999</ele>
        <time>2017-10-08T08:53:25Z</time>
      </trkpt>
      <trkpt lat="46.009088438004255" lon="9.786331700161099">
        <ele>1674.27</ele>
        <time>2017-10-08T08:53:39Z</time>
      </trkpt>
      <trkpt lat="46.009039236232638" lon="9.786233548074961">
        <ele>1675.72</ele>
        <time>2017-10-08T08:53:52Z</time>
      </trkpt>
      <trkpt lat="46.008996237069368" lon="9.786208486184478">
        <ele>1676.6800000000001</ele>
        <time>2017-10-08T08:54:03Z</time>
      </trkpt>
      <trkpt lat="46.008973438292742" lon="9.786256095394492">
        <ele>1678.5999999999999</ele>
        <time>2017-10-08T08:54:16Z</time>
      </trkpt>
      <trkpt lat="46.009002942591906" lon="9.786339830607176">
        <ele>1680.04</ele>
        <time>2017-10-08T08:54:30Z</time>
      </trkpt>
      <trkpt lat="46.008950304239988" lon="9.786355504766107">
        <ele>1681.48</ele>
        <time>2017-10-08T08:54:41Z</time>
      </trkpt>
      <trkpt lat="46.008874028921127" lon="9.786334298551083">
        <ele>1682.4400000000001</ele>
        <time>2017-10-08T08:54:54Z</time>
      </trkpt>
      <trkpt lat="46.008853996172547" lon="9.78632440790534">
        <ele>1684.8499999999999</ele>
        <time>2017-10-08T08:55:04Z</time>
      </trkpt>
      <trkpt lat="46.008876794949174" lon="9.786377716809511">
        <ele>1685.3299999999999</ele>
        <time>2017-10-08T08:55:16Z</time>
      </trkpt>
      <trkpt lat="46.00884192623198" lon="9.786413423717022">
        <ele>1686.29</ele>
        <time>2017-10-08T08:55:27Z</time>
      </trkpt>
      <trkpt lat="46.008776295930147" lon="9.786410657688975">
        <ele>1687.73</ele>
        <time>2017-10-08T08:55:40Z</time>
      </trkpt>
      <trkpt lat="46.008718460798264" lon="9.786430858075619">
        <ele>1689.1700000000001</ele>
        <time>2017-10-08T08:55:52Z</time>
      </trkpt>
      <trkpt lat="46.008653668686748" lon="9.78644359856844">
        <ele>1690.1400000000001</ele>
        <time>2017-10-08T08:56:03Z</time>
      </trkpt>
      <trkpt lat="46.008618297055364" lon="9.786476204171777">
        <ele>1691.5799999999999</ele>
        <time>2017-10-08T08:56:15Z</time>
      </trkpt>
      <trkpt lat="46.008600611239672" lon="9.786533955484629">
        <ele>1693.5</ele>
        <time>2017-10-08T08:56:26Z</time>
      </trkpt>
      <trkpt lat="46.008569933474064" lon="9.786567902192473">
        <ele>1694.9400000000001</ele>
        <time>2017-10-08T08:56:36Z</time>
      </trkpt>
      <trkpt lat="46.008509919047356" lon="9.786588605493307">
        <ele>1696.3800000000001</ele>
        <time>2017-10-08T08:56:46Z</time>
      </trkpt>
      <trkpt lat="46.008447222411633" lon="9.786617439240217">
        <ele>1697.3399999999999</ele>
        <time>2017-10-08T08:56:55Z</time>
      </trkpt>
      <trkpt lat="46.008381173014641" lon="9.786648033186793">
        <ele>1698.3099999999999</ele>
        <time>2017-10-08T08:57:06Z</time>
      </trkpt>
      <trkpt lat="46.008289726451039" lon="9.786679884418845">
        <ele>1699.75</ele>
        <time>2017-10-08T08:57:19Z</time>
      </trkpt>
      <trkpt lat="46.008213115856051" lon="9.786700839176774">
        <ele>1701.1900000000001</ele>
        <time>2017-10-08T08:57:32Z</time>
      </trkpt>
      <trkpt lat="46.008168691769242" lon="9.786721710115671">
        <ele>1702.1500000000001</ele>
        <time>2017-10-08T08:57:42Z</time>
      </trkpt>
      <trkpt lat="46.008099373430014" lon="9.786725481972098">
        <ele>1703.1099999999999</ele>
        <time>2017-10-08T08:57:54Z</time>
      </trkpt>
      <trkpt lat="46.008057547733188" lon="9.786693127825856">
        <ele>1704.55</ele>
        <time>2017-10-08T08:58:04Z</time>
      </trkpt>
      <trkpt lat="46.008024774491787" lon="9.786662282422185">
        <ele>1705.52</ele>
        <time>2017-10-08T08:58:14Z</time>
      </trkpt>
      <trkpt lat="46.008083028718829" lon="9.786737803369761">
        <ele>1705.52</ele>
        <time>2017-10-08T08:58:27Z</time>
      </trkpt>
      <trkpt lat="46.00813583470881" lon="9.78679496794939">
        <ele>1707.9200000000001</ele>
        <time>2017-10-08T08:58:39Z</time>
      </trkpt>
      <trkpt lat="46.008201045915484" lon="9.786804271861911">
        <ele>1709.3599999999999</ele>
        <time>2017-10-08T08:58:49Z</time>
      </trkpt>
      <trkpt lat="46.008292324841022" lon="9.786785580217838">
        <ele>1709.3599999999999</ele>
        <time>2017-10-08T08:59:00Z</time>
      </trkpt>
      <trkpt lat="46.008364157751203" lon="9.78684090077877">
        <ele>1710.3199999999999</ele>
        <time>2017-10-08T08:59:11Z</time>
      </trkpt>
      <trkpt lat="46.008437164127827" lon="9.786857916042209">
        <ele>1711.28</ele>
        <time>2017-10-08T08:59:24Z</time>
      </trkpt>
      <trkpt lat="46.008501034229994" lon="9.786898819729686">
        <ele>1712.25</ele>
        <time>2017-10-08T08:59:37Z</time>
      </trkpt>
      <trkpt lat="46.008540261536837" lon="9.786950200796127">
        <ele>1714.1700000000001</ele>
        <time>2017-10-08T08:59:48Z</time>
      </trkpt>
      <trkpt lat="46.008566077798605" lon="9.787061847746372">
        <ele>1715.1300000000001</ele>
        <time>2017-10-08T08:59:57Z</time>
      </trkpt>
      <trkpt lat="46.008591810241342" lon="9.787161508575082">
        <ele>1715.6099999999999</ele>
        <time>2017-10-08T09:00:06Z</time>
      </trkpt>
      <trkpt lat="46.008603125810623" lon="9.787220181897283">
        <ele>1716.0899999999999</ele>
        <time>2017-10-08T09:00:15Z</time>
      </trkpt>
      <trkpt lat="46.008608490228653" lon="9.787289248779416">
        <ele>1717.05</ele>
        <time>2017-10-08T09:00:24Z</time>
      </trkpt>
      <trkpt lat="46.008573202416301" lon="9.787319004535675">
        <ele>1718.01</ele>
        <time>2017-10-08T09:00:31Z</time>
      </trkpt>
      <trkpt lat="46.00850229151547" lon="9.787344988435507">
        <ele>1718.97</ele>
        <time>2017-10-08T09:00:41Z</time>
      </trkpt>
      <trkpt lat="46.008525174111128" lon="9.787392597645521">
        <ele>1720.4200000000001</ele>
        <time>2017-10-08T09:00:54Z</time>
      </trkpt>
      <trkpt lat="46.008544368669391" lon="9.787444984540343">
        <ele>1721.8599999999999</ele>
        <time>2017-10-08T09:01:05Z</time>
      </trkpt>
      <trkpt lat="46.008542692288756" lon="9.787472393363714">
        <ele>1722.3399999999999</ele>
        <time>2017-10-08T09:01:15Z</time>
      </trkpt>
      <trkpt lat="46.008549481630325" lon="9.787576496601105">
        <ele>1724.26</ele>
        <time>2017-10-08T09:01:26Z</time>
      </trkpt>
      <trkpt lat="46.00851402617991" lon="9.787678588181734">
        <ele>1725.22</ele>
        <time>2017-10-08T09:01:38Z</time>
      </trkpt>
      <trkpt lat="46.008471697568893" lon="9.7877511754632">
        <ele>1726.6700000000001</ele>
        <time>2017-10-08T09:01:47Z</time>
      </trkpt>
      <trkpt lat="46.008447473868728" lon="9.787818063050509">
        <ele>1726.6700000000001</ele>
        <time>2017-10-08T09:01:56Z</time>
      </trkpt>
      <trkpt lat="46.008403971791267" lon="9.787893751636148">
        <ele>1728.1099999999999</ele>
        <time>2017-10-08T09:02:07Z</time>
      </trkpt>
      <trkpt lat="46.008380418643355" lon="9.787972625344992">
        <ele>1728.5899999999999</ele>
        <time>2017-10-08T09:02:17Z</time>
      </trkpt>
      <trkpt lat="46.008355692028999" lon="9.788076058030129">
        <ele>1729.55</ele>
        <time>2017-10-08T09:02:28Z</time>
      </trkpt>
      <trkpt lat="46.008341610431671" lon="9.788121907040477">
        <ele>1730.03</ele>
        <time>2017-10-08T09:02:36Z</time>
      </trkpt>
      <trkpt lat="46.008311016485095" lon="9.788167336955667">
        <ele>1730.99</ele>
        <time>2017-10-08T09:02:47Z</time>
      </trkpt>
      <trkpt lat="46.008286122232676" lon="9.788258615881205">
        <ele>1730.03</ele>
        <time>2017-10-08T09:02:53Z</time>
      </trkpt>
      <trkpt lat="46.008266005665064" lon="9.788273284211755">
        <ele>1730.51</ele>
        <time>2017-10-08T09:02:55Z</time>
      </trkpt>
      <trkpt lat="46.008204650133848" lon="9.788359198719263">
        <ele>1730.03</ele>
        <time>2017-10-08T09:03:04Z</time>
      </trkpt>
      <trkpt lat="46.008155783638358" lon="9.78844603523612">
        <ele>1730.51</ele>
        <time>2017-10-08T09:03:13Z</time>
      </trkpt>
      <trkpt lat="46.008125022053719" lon="9.788456931710243">
        <ele>1731.47</ele>
        <time>2017-10-08T09:03:24Z</time>
      </trkpt>
      <trkpt lat="46.008111108094454" lon="9.788347044959664">
        <ele>1732.4300000000001</ele>
        <time>2017-10-08T09:03:36Z</time>
      </trkpt>
      <trkpt lat="46.008113035932183" lon="9.788250317797065">
        <ele>1734.3599999999999</ele>
        <time>2017-10-08T09:03:48Z</time>
      </trkpt>
      <trkpt lat="46.008126530796289" lon="9.788161385804415">
        <ele>1735.8</ele>
        <time>2017-10-08T09:04:01Z</time>
      </trkpt>
      <trkpt lat="46.008110018447042" lon="9.78807513602078">
        <ele>1736.76</ele>
        <time>2017-10-08T09:04:11Z</time>
      </trkpt>
      <trkpt lat="46.008124351501465" lon="9.788035489618778">
        <ele>1738.6800000000001</ele>
        <time>2017-10-08T09:04:23Z</time>
      </trkpt>
      <trkpt lat="46.008164836093783" lon="9.787932140752673">
        <ele>1740.1199999999999</ele>
        <time>2017-10-08T09:04:36Z</time>
      </trkpt>
      <trkpt lat="46.008158382028341" lon="9.787820409983397">
        <ele>1741.5699999999999</ele>
        <time>2017-10-08T09:04:50Z</time>
      </trkpt>
      <trkpt lat="46.008152598515153" lon="9.787717228755355">
        <ele>1742.53</ele>
        <time>2017-10-08T09:05:00Z</time>
      </trkpt>
      <trkpt lat="46.008137091994286" lon="9.78766224347055">
        <ele>1743.49</ele>
        <time>2017-10-08T09:05:09Z</time>
      </trkpt>
      <trkpt lat="46.008115215227008" lon="9.78756207972765">
        <ele>1744.45</ele>
        <time>2017-10-08T09:05:21Z</time>
      </trkpt>
      <trkpt lat="46.008091242983937" lon="9.787519834935665">
        <ele>1745.4100000000001</ele>
        <time>2017-10-08T09:05:32Z</time>
      </trkpt>
      <trkpt lat="46.008097445592284" lon="9.787610024213791">
        <ele>1746.8499999999999</ele>
        <time>2017-10-08T09:05:43Z</time>
      </trkpt>
      <trkpt lat="46.008099541068077" lon="9.787718066945672">
        <ele>1747.3299999999999</ele>
        <time>2017-10-08T09:05:53Z</time>
      </trkpt>
      <trkpt lat="46.008087554946542" lon="9.78779174387455">
        <ele>1748.29</ele>
        <time>2017-10-08T09:06:02Z</time>
      </trkpt>
      <trkpt lat="46.008057631552219" lon="9.787875646725297">
        <ele>1749.74</ele>
        <time>2017-10-08T09:06:13Z</time>
      </trkpt>
      <trkpt lat="46.008032821118832" lon="9.787921411916614">
        <ele>1750.7</ele>
        <time>2017-10-08T09:06:22Z</time>
      </trkpt>
      <trkpt lat="46.007996946573257" lon="9.787943037226796">
        <ele>1752.1400000000001</ele>
        <time>2017-10-08T09:06:32Z</time>
      </trkpt>
      <trkpt lat="46.007988061755896" lon="9.788004979491234">
        <ele>1753.0999999999999</ele>
        <time>2017-10-08T09:06:41Z</time>
      </trkpt>
      <trkpt lat="46.007942380383611" lon="9.788070945069194">
        <ele>1754.0599999999999</ele>
        <time>2017-10-08T09:06:51Z</time>
      </trkpt>
      <trkpt lat="46.007922347635031" lon="9.78814453817904">
        <ele>1754.54</ele>
        <time>2017-10-08T09:07:01Z</time>
      </trkpt>
      <trkpt lat="46.007899381220341" lon="9.788205306977034">
        <ele>1755.02</ele>
        <time>2017-10-08T09:07:10Z</time>
      </trkpt>
      <trkpt lat="46.007843725383282" lon="9.788281749933958">
        <ele>1755.5</ele>
        <time>2017-10-08T09:07:20Z</time>
      </trkpt>
      <trkpt lat="46.00780894048512" lon="9.788370849564672">
        <ele>1755.5</ele>
        <time>2017-10-08T09:07:29Z</time>
      </trkpt>
      <trkpt lat="46.007779184728861" lon="9.788454417139292">
        <ele>1755.02</ele>
        <time>2017-10-08T09:07:39Z</time>
      </trkpt>
      <trkpt lat="46.00777130573988" lon="9.788480484858155">
        <ele>1754.54</ele>
        <time>2017-10-08T09:07:41Z</time>
      </trkpt>
      <trkpt lat="46.007708525285125" lon="9.788566902279854">
        <ele>1754.54</ele>
        <time>2017-10-08T09:07:53Z</time>
      </trkpt>
      <trkpt lat="46.007663682103157" lon="9.788640243932605">
        <ele>1754.54</ele>
        <time>2017-10-08T09:08:02Z</time>
      </trkpt>
      <trkpt lat="46.007585898041725" lon="9.788654074072838">
        <ele>1755.02</ele>
        <time>2017-10-08T09:08:13Z</time>
      </trkpt>
      <trkpt lat="46.007464863359928" lon="9.788725404068828">
        <ele>1755.5</ele>
        <time>2017-10-08T09:08:29Z</time>
      </trkpt>
      <trkpt lat="46.007394958287477" lon="9.788793800398707">
        <ele>1756.47</ele>
        <time>2017-10-08T09:08:41Z</time>
      </trkpt>
      <trkpt lat="46.007333267480135" lon="9.788831267505884">
        <ele>1756.95</ele>
        <time>2017-10-08T09:08:52Z</time>
      </trkpt>
      <trkpt lat="46.007269565016031" lon="9.78888482786715">
        <ele>1757.9100000000001</ele>
        <time>2017-10-08T09:09:04Z</time>
      </trkpt>
      <trkpt lat="46.00720795802772" lon="9.788960600271821">
        <ele>1757.4300000000001</ele>
        <time>2017-10-08T09:09:16Z</time>
      </trkpt>
      <trkpt lat="46.007160600274801" lon="9.788997396826744">
        <ele>1758.3900000000001</ele>
        <time>2017-10-08T09:09:24Z</time>
      </trkpt>
      <trkpt lat="46.007121540606022" lon="9.789020614698529">
        <ele>1759.3499999999999</ele>
        <time>2017-10-08T09:09:35Z</time>
      </trkpt>
      <trkpt lat="46.007075607776642" lon="9.78906562551856">
        <ele>1760.79</ele>
        <time>2017-10-08T09:09:46Z</time>
      </trkpt>
      <trkpt lat="46.007014755159616" lon="9.789124298840761">
        <ele>1761.75</ele>
        <time>2017-10-08T09:09:57Z</time>
      </trkpt>
      <trkpt lat="46.006913334131241" lon="9.78916478343308">
        <ele>1763.2</ele>
        <time>2017-10-08T09:10:09Z</time>
      </trkpt>
      <trkpt lat="46.006902689114213" lon="9.789119772613049">
        <ele>1764.1600000000001</ele>
        <time>2017-10-08T09:10:22Z</time>
      </trkpt>
      <trkpt lat="46.00692548789084" lon="9.789029248058796">
        <ele>1765.5999999999999</ele>
        <time>2017-10-08T09:10:34Z</time>
      </trkpt>
      <trkpt lat="46.00690009072423" lon="9.789006616920233">
        <ele>1767.04</ele>
        <time>2017-10-08T09:10:45Z</time>
      </trkpt>
      <trkpt lat="46.006864132359624" lon="9.789071325212717">
        <ele>1768.48</ele>
        <time>2017-10-08T09:10:55Z</time>
      </trkpt>
      <trkpt lat="46.006847200915217" lon="9.789118180051446">
        <ele>1769.4400000000001</ele>
        <time>2017-10-08T09:11:06Z</time>
      </trkpt>
      <trkpt lat="46.006798334419727" lon="9.789168974384666">
        <ele>1770.4100000000001</ele>
        <time>2017-10-08T09:11:16Z</time>
      </trkpt>
      <trkpt lat="46.006759945303202" lon="9.789204681292176">
        <ele>1772.3299999999999</ele>
        <time>2017-10-08T09:11:26Z</time>
      </trkpt>
      <trkpt lat="46.006715521216393" lon="9.789252709597349">
        <ele>1773.29</ele>
        <time>2017-10-08T09:11:39Z</time>
      </trkpt>
      <trkpt lat="46.006665145978332" lon="9.789361758157611">
        <ele>1774.73</ele>
        <time>2017-10-08T09:11:51Z</time>
      </trkpt>
      <trkpt lat="46.006619464606047" lon="9.789422275498509">
        <ele>1776.1700000000001</ele>
        <time>2017-10-08T09:12:03Z</time>
      </trkpt>
      <trkpt lat="46.006578225642443" lon="9.789522020146251">
        <ele>1776.6500000000001</ele>
        <time>2017-10-08T09:12:13Z</time>
      </trkpt>
      <trkpt lat="46.006541093811393" lon="9.789590081200004">
        <ele>1776.6500000000001</ele>
        <time>2017-10-08T09:12:20Z</time>
      </trkpt>
      <trkpt lat="46.006501279771328" lon="9.789694352075458">
        <ele>1776.6500000000001</ele>
        <time>2017-10-08T09:12:30Z</time>
      </trkpt>
      <trkpt lat="46.006459705531597" lon="9.789818404242396">
        <ele>1776.6500000000001</ele>
        <time>2017-10-08T09:12:40Z</time>
      </trkpt>
      <trkpt lat="46.006456855684519" lon="9.789830474182963">
        <ele>1776.6500000000001</ele>
        <time>2017-10-08T09:12:41Z</time>
      </trkpt>
      <trkpt lat="46.0063904710114" lon="9.789957040920854">
        <ele>1777.6099999999999</ele>
        <time>2017-10-08T09:12:52Z</time>
      </trkpt>
      <trkpt lat="46.00632056593895" lon="9.790044212713838">
        <ele>1777.6099999999999</ele>
        <time>2017-10-08T09:13:03Z</time>
      </trkpt>
      <trkpt lat="46.006265999749303" lon="9.790128786116839">
        <ele>1778.5799999999999</ele>
        <time>2017-10-08T09:13:15Z</time>
      </trkpt>
      <trkpt lat="46.006222330033779" lon="9.79022660292685">
        <ele>1779.0599999999999</ele>
        <time>2017-10-08T09:13:27Z</time>
      </trkpt>
      <trkpt lat="46.006216714158654" lon="9.790253341197968">
        <ele>1779.0599999999999</ele>
        <time>2017-10-08T09:13:29Z</time>
      </trkpt>
      <trkpt lat="46.0062609706074" lon="9.790379656478763">
        <ele>1779.0599999999999</ele>
        <time>2017-10-08T09:13:41Z</time>
      </trkpt>
      <trkpt lat="46.006313525140285" lon="9.790333975106478">
        <ele>1780.02</ele>
        <time>2017-10-08T09:13:54Z</time>
      </trkpt>
      <trkpt lat="46.00634353235364" lon="9.790338166058064">
        <ele>1780.98</ele>
        <time>2017-10-08T09:14:04Z</time>
      </trkpt>
      <trkpt lat="46.006346633657813" lon="9.790384015068412">
        <ele>1781.46</ele>
        <time>2017-10-08T09:14:13Z</time>
      </trkpt>
      <trkpt lat="46.00636063143611" lon="9.790405808016658">
        <ele>1781.9400000000001</ele>
        <time>2017-10-08T09:14:26Z</time>
      </trkpt>
      <trkpt lat="46.006380831822753" lon="9.790485017001629">
        <ele>1781.9400000000001</ele>
        <time>2017-10-08T09:14:35Z</time>
      </trkpt>
      <trkpt lat="46.006398685276508" lon="9.790546540170908">
        <ele>1782.9000000000001</ele>
        <time>2017-10-08T09:14:44Z</time>
      </trkpt>
      <trkpt lat="46.00637923926115" lon="9.790578139945865">
        <ele>1784.8199999999999</ele>
        <time>2017-10-08T09:14:54Z</time>
      </trkpt>
      <trkpt lat="46.006314950063825" lon="9.7905607894063">
        <ele>1787.23</ele>
        <time>2017-10-08T09:15:06Z</time>
      </trkpt>
      <trkpt lat="46.006271196529269" lon="9.790594819933176">
        <ele>1788.6700000000001</ele>
        <time>2017-10-08T09:15:16Z</time>
      </trkpt>
      <trkpt lat="46.006262060254812" lon="9.790658187121153">
        <ele>1788.1900000000001</ele>
        <time>2017-10-08T09:15:29Z</time>
      </trkpt>
      <trkpt lat="46.00626633502543" lon="9.790666904300451">
        <ele>1788.1900000000001</ele>
        <time>2017-10-08T09:15:30Z</time>
      </trkpt>
      <trkpt lat="46.006253594532609" lon="9.790697330608964">
        <ele>1791.0699999999999</ele>
        <time>2017-10-08T09:15:35Z</time>
      </trkpt>
      <trkpt lat="46.006250157952309" lon="9.790702108293772">
        <ele>1791.0699999999999</ele>
        <time>2017-10-08T09:15:36Z</time>
      </trkpt>
      <trkpt lat="46.00623607635498" lon="9.790723482146859">
        <ele>1792.52</ele>
        <time>2017-10-08T09:15:44Z</time>
      </trkpt>
      <trkpt lat="46.006163153797388" lon="9.79079975746572">
        <ele>1794.4400000000001</ele>
        <time>2017-10-08T09:15:56Z</time>
      </trkpt>
      <trkpt lat="46.006191149353981" lon="9.790831273421645">
        <ele>1794.4400000000001</ele>
        <time>2017-10-08T09:16:07Z</time>
      </trkpt>
      <trkpt lat="46.006169272586703" lon="9.790858095511794">
        <ele>1794.9200000000001</ele>
        <time>2017-10-08T09:16:18Z</time>
      </trkpt>
      <trkpt lat="46.006088722497225" lon="9.790873350575566">
        <ele>1795.8800000000001</ele>
        <time>2017-10-08T09:16:28Z</time>
      </trkpt>
      <trkpt lat="46.006049243733287" lon="9.790942333638668">
        <ele>1798.28</ele>
        <time>2017-10-08T09:16:39Z</time>
      </trkpt>
      <trkpt lat="46.005948996171355" lon="9.790990110486746">
        <ele>1799.73</ele>
        <time>2017-10-08T09:16:52Z</time>
      </trkpt>
      <trkpt lat="46.005849586799741" lon="9.791037300601602">
        <ele>1801.6500000000001</ele>
        <time>2017-10-08T09:17:07Z</time>
      </trkpt>
      <trkpt lat="46.00577381439507" lon="9.791056495159864">
        <ele>1803.0899999999999</ele>
        <time>2017-10-08T09:17:18Z</time>
      </trkpt>
      <trkpt lat="46.005711033940315" lon="9.791098404675722">
        <ele>1805.01</ele>
        <time>2017-10-08T09:17:31Z</time>
      </trkpt>
      <trkpt lat="46.005643894895911" lon="9.791138218715787">
        <ele>1806.9400000000001</ele>
        <time>2017-10-08T09:17:42Z</time>
      </trkpt>
      <trkpt lat="46.005599554628134" lon="9.791200077161193">
        <ele>1808.8599999999999</ele>
        <time>2017-10-08T09:17:55Z</time>
      </trkpt>
      <trkpt lat="46.005537947639823" lon="9.791252296417952">
        <ele>1810.3</ele>
        <time>2017-10-08T09:18:05Z</time>
      </trkpt>
      <trkpt lat="46.005470557138324" lon="9.791302336379886">
        <ele>1810.78</ele>
        <time>2017-10-08T09:18:16Z</time>
      </trkpt>
      <trkpt lat="46.00542445667088" lon="9.791361931711435">
        <ele>1812.22</ele>
        <time>2017-10-08T09:18:28Z</time>
      </trkpt>
      <trkpt lat="46.005347091704607" lon="9.791391016915441">
        <ele>1812.22</ele>
        <time>2017-10-08T09:18:38Z</time>
      </trkpt>
      <trkpt lat="46.005252124741673" lon="9.791370565071702">
        <ele>1813.1800000000001</ele>
        <time>2017-10-08T09:18:48Z</time>
      </trkpt>
      <trkpt lat="46.005173083394766" lon="9.791322033852339">
        <ele>1814.1500000000001</ele>
        <time>2017-10-08T09:18:59Z</time>
      </trkpt>
      <trkpt lat="46.005130419507623" lon="9.791233772411943">
        <ele>1815.1099999999999</ele>
        <time>2017-10-08T09:19:09Z</time>
      </trkpt>
      <trkpt lat="46.005084738135338" lon="9.791184738278389">
        <ele>1817.51</ele>
        <time>2017-10-08T09:19:20Z</time>
      </trkpt>
      <trkpt lat="46.00503696128726" lon="9.791162274777889">
        <ele>1818.47</ele>
        <time>2017-10-08T09:19:30Z</time>
      </trkpt>
      <trkpt lat="46.005009384825826" lon="9.791164537891746">
        <ele>1819.4300000000001</ele>
        <time>2017-10-08T09:19:41Z</time>
      </trkpt>
      <trkpt lat="46.00492556579411" lon="9.791178619489074">
        <ele>1820.3900000000001</ele>
        <time>2017-10-08T09:19:53Z</time>
      </trkpt>
      <trkpt lat="46.004855157807469" lon="9.791228240355849">
        <ele>1821.3499999999999</ele>
        <time>2017-10-08T09:20:04Z</time>
      </trkpt>
      <trkpt lat="46.004774356260896" lon="9.79125757701695">
        <ele>1822.8</ele>
        <time>2017-10-08T09:20:15Z</time>
      </trkpt>
      <trkpt lat="46.004746779799461" lon="9.791286243125796">
        <ele>1823.76</ele>
        <time>2017-10-08T09:20:25Z</time>
      </trkpt>
      <trkpt lat="46.004693806171417" lon="9.79129864834249">
        <ele>1824.72</ele>
        <time>2017-10-08T09:20:33Z</time>
      </trkpt>
      <trkpt lat="46.004628343507648" lon="9.791243327781558">
        <ele>1826.1600000000001</ele>
        <time>2017-10-08T09:20:43Z</time>
      </trkpt>
      <trkpt lat="46.004617027938366" lon="9.791164705529809">
        <ele>1827.1199999999999</ele>
        <time>2017-10-08T09:20:50Z</time>
      </trkpt>
      <trkpt lat="46.00468710064888" lon="9.791054734960198">
        <ele>1826.6400000000001</ele>
        <time>2017-10-08T09:21:02Z</time>
      </trkpt>
      <trkpt lat="46.004745857790112" lon="9.79097954928875">
        <ele>1827.5999999999999</ele>
        <time>2017-10-08T09:21:14Z</time>
      </trkpt>
      <trkpt lat="46.004747115075588" lon="9.790913248434663">
        <ele>1829.05</ele>
        <time>2017-10-08T09:21:26Z</time>
      </trkpt>
      <trkpt lat="46.004704367369413" lon="9.79092188179493">
        <ele>1831.45</ele>
        <time>2017-10-08T09:21:39Z</time>
      </trkpt>
      <trkpt lat="46.004704870283604" lon="9.790826411917806">
        <ele>1833.3699999999999</ele>
        <time>2017-10-08T09:21:53Z</time>
      </trkpt>
      <trkpt lat="46.004704870283604" lon="9.790738737210631">
        <ele>1834.8099999999999</ele>
        <time>2017-10-08T09:22:05Z</time>
      </trkpt>
      <trkpt lat="46.00468466989696" lon="9.790775449946523">
        <ele>1835.29</ele>
        <time>2017-10-08T09:22:10Z</time>
      </trkpt>
      <trkpt lat="46.004632785916328" lon="9.790854407474399">
        <ele>1836.74</ele>
        <time>2017-10-08T09:22:21Z</time>
      </trkpt>
      <trkpt lat="46.004603700712323" lon="9.790819119662046">
        <ele>1837.22</ele>
        <time>2017-10-08T09:22:33Z</time>
      </trkpt>
      <trkpt lat="46.00461476482451" lon="9.790698252618313">
        <ele>1840.0999999999999</ele>
        <time>2017-10-08T09:22:46Z</time>
      </trkpt>
      <trkpt lat="46.004620967432857" lon="9.790603369474411">
        <ele>1841.54</ele>
        <time>2017-10-08T09:22:57Z</time>
      </trkpt>
      <trkpt lat="46.004613507539034" lon="9.790551066398621">
        <ele>1842.98</ele>
        <time>2017-10-08T09:23:07Z</time>
      </trkpt>
      <trkpt lat="46.004558773711324" lon="9.790633209049702">
        <ele>1844.4300000000001</ele>
        <time>2017-10-08T09:23:20Z</time>
      </trkpt>
      <trkpt lat="46.004474703222513" lon="9.790678974241018">
        <ele>1845.8699999999999</ele>
        <time>2017-10-08T09:23:32Z</time>
      </trkpt>
      <trkpt lat="46.004390465095639" lon="9.790667993947864">
        <ele>1847.3099999999999</ele>
        <time>2017-10-08T09:23:43Z</time>
      </trkpt>
      <trkpt lat="46.004381747916341" lon="9.790668832138181">
        <ele>1847.3099999999999</ele>
        <time>2017-10-08T09:23:44Z</time>
      </trkpt>
      <trkpt lat="46.004344616085291" lon="9.790677297860384">
        <ele>1846.8299999999999</ele>
        <time>2017-10-08T09:23:48Z</time>
      </trkpt>
      <trkpt lat="46.004281416535378" lon="9.790661036968231">
        <ele>1847.3099999999999</ele>
        <time>2017-10-08T09:23:57Z</time>
      </trkpt>
      <trkpt lat="46.004265574738383" lon="9.79064779356122">
        <ele>1847.3099999999999</ele>
        <time>2017-10-08T09:24:05Z</time>
      </trkpt>
      <trkpt lat="46.004267334938049" lon="9.790620049461722">
        <ele>1847.3099999999999</ele>
        <time>2017-10-08T09:24:07Z</time>
      </trkpt>
      <trkpt lat="46.004224671050906" lon="9.790541678667069">
        <ele>1846.3499999999999</ele>
        <time>2017-10-08T09:24:17Z</time>
      </trkpt>
      <trkpt lat="46.004207571968436" lon="9.790557185187936">
        <ele>1846.3499999999999</ele>
        <time>2017-10-08T09:24:31Z</time>
      </trkpt>
      <trkpt lat="46.004253504797816" lon="9.790526423603296">
        <ele>1846.3499999999999</ele>
        <time>2017-10-08T09:24:43Z</time>
      </trkpt>
      <trkpt lat="46.004277728497982" lon="9.790519550442696">
        <ele>1846.3499999999999</ele>
        <time>2017-10-08T09:24:53Z</time>
      </trkpt>
      <trkpt lat="46.004268676042557" lon="9.790520891547203">
        <ele>1846.3499999999999</ele>
        <time>2017-10-08T09:24:59Z</time>
      </trkpt>
      <trkpt lat="46.004274543374777" lon="9.790530614554882">
        <ele>1845.8699999999999</ele>
        <time>2017-10-08T09:25:06Z</time>
      </trkpt>
      <trkpt lat="46.004269598051906" lon="9.790535308420658">
        <ele>1845.8699999999999</ele>
        <time>2017-10-08T09:25:16Z</time>
      </trkpt>
      <trkpt lat="46.004284517839551" lon="9.790509240701795">
        <ele>1846.3499999999999</ele>
        <time>2017-10-08T09:25:27Z</time>
      </trkpt>
      <trkpt lat="46.004291642457247" lon="9.790515946224332">
        <ele>1845.8699999999999</ele>
        <time>2017-10-08T09:25:43Z</time>
      </trkpt>
      <trkpt lat="46.00427957251668" lon="9.790550647303462">
        <ele>1846.3499999999999</ele>
        <time>2017-10-08T09:25:56Z</time>
      </trkpt>
      <trkpt lat="46.004293235018849" lon="9.790525753051043">
        <ele>1846.3499999999999</ele>
        <time>2017-10-08T09:26:15Z</time>
      </trkpt>
      <trkpt lat="46.004290636628866" lon="9.790519131347537">
        <ele>1846.3499999999999</ele>
        <time>2017-10-08T09:26:35Z</time>
      </trkpt>
      <trkpt lat="46.004296923056245" lon="9.790511252358556">
        <ele>1846.8299999999999</ele>
        <time>2017-10-08T09:26:53Z</time>
      </trkpt>
      <trkpt lat="46.004302119836211" lon="9.790535308420658">
        <ele>1846.3499999999999</ele>
        <time>2017-10-08T09:27:10Z</time>
      </trkpt>
      <trkpt lat="46.004290049895644" lon="9.790543941780925">
        <ele>1846.8299999999999</ele>
        <time>2017-10-08T09:27:29Z</time>
      </trkpt>
      <trkpt lat="46.004300946369767" lon="9.790545953437686">
        <ele>1846.8299999999999</ele>
        <time>2017-10-08T09:27:52Z</time>
      </trkpt>
      <trkpt lat="46.004304047673941" lon="9.790518963709474">
        <ele>1846.8299999999999</ele>
        <time>2017-10-08T09:28:12Z</time>
      </trkpt>
      <trkpt lat="46.004294408485293" lon="9.790528602898121">
        <ele>1846.8299999999999</ele>
        <time>2017-10-08T09:28:29Z</time>
      </trkpt>
      <trkpt lat="46.004303293302655" lon="9.790515610948205">
        <ele>1846.8299999999999</ele>
        <time>2017-10-08T09:28:53Z</time>
      </trkpt>
      <trkpt lat="46.00430304184556" lon="9.790513347834349">
        <ele>1846.8299999999999</ele>
        <time>2017-10-08T09:29:15Z</time>
      </trkpt>
      <trkpt lat="46.004302203655243" lon="9.790529273450375">
        <ele>1847.3099999999999</ele>
        <time>2017-10-08T09:29:41Z</time>
      </trkpt>
      <trkpt lat="46.004298515617847" lon="9.790547797456384">
        <ele>1847.3099999999999</ele>
        <time>2017-10-08T09:30:00Z</time>
      </trkpt>
      <trkpt lat="46.004296252503991" lon="9.79053639806807">
        <ele>1847.3099999999999</ele>
        <time>2017-10-08T09:30:26Z</time>
      </trkpt>
      <trkpt lat="46.004290552809834" lon="9.790530782192946">
        <ele>1847.3099999999999</ele>
        <time>2017-10-08T09:30:47Z</time>
      </trkpt>
      <trkpt lat="46.004313351586461" lon="9.790519382804632">
        <ele>1847.79</ele>
        <time>2017-10-08T09:31:16Z</time>
      </trkpt>
      <trkpt lat="46.004318464547396" lon="9.79051485657692">
        <ele>1848.27</ele>
        <time>2017-10-08T09:31:37Z</time>
      </trkpt>
      <trkpt lat="46.004303628578782" lon="9.790516784414649">
        <ele>1847.79</ele>
        <time>2017-10-08T09:32:06Z</time>
      </trkpt>
      <trkpt lat="46.004299018532038" lon="9.790546121075749">
        <ele>1848.27</ele>
        <time>2017-10-08T09:32:41Z</time>
      </trkpt>
      <trkpt lat="46.004293235018849" lon="9.790548300370574">
        <ele>1847.79</ele>
        <time>2017-10-08T09:33:04Z</time>
      </trkpt>
      <trkpt lat="46.004301449283957" lon="9.790533296763897">
        <ele>1848.27</ele>
        <time>2017-10-08T09:33:33Z</time>
      </trkpt>
      <trkpt lat="46.004287702962756" lon="9.790542768314481">
        <ele>1848.27</ele>
        <time>2017-10-08T09:33:59Z</time>
      </trkpt>
      <trkpt lat="46.004292313009501" lon="9.790544025599957">
        <ele>1848.75</ele>
        <time>2017-10-08T09:34:26Z</time>
      </trkpt>
      <trkpt lat="46.00425417535007" lon="9.79055835865438">
        <ele>1848.75</ele>
        <time>2017-10-08T09:34:46Z</time>
      </trkpt>
      <trkpt lat="46.004270100966096" lon="9.790516449138522">
        <ele>1849.23</ele>
        <time>2017-10-08T09:34:57Z</time>
      </trkpt>
      <trkpt lat="46.004274878650904" lon="9.790516113862395">
        <ele>1849.23</ele>
        <time>2017-10-08T09:35:30Z</time>
      </trkpt>
      <trkpt lat="46.004295498132706" lon="9.790535978972912">
        <ele>1849.23</ele>
        <time>2017-10-08T09:36:00Z</time>
      </trkpt>
      <trkpt lat="46.004298096522689" lon="9.790536146610975">
        <ele>1849.23</ele>
        <time>2017-10-08T09:36:39Z</time>
      </trkpt>
      <trkpt lat="46.004296755418181" lon="9.790545701980591">
        <ele>1849.23</ele>
        <time>2017-10-08T09:37:10Z</time>
      </trkpt>
      <trkpt lat="46.004288541153073" lon="9.790529189631343">
        <ele>1849.23</ele>
        <time>2017-10-08T09:37:47Z</time>
      </trkpt>
      <trkpt lat="46.004308573901653" lon="9.790528099983931">
        <ele>1849.23</ele>
        <time>2017-10-08T09:38:17Z</time>
      </trkpt>
      <trkpt lat="46.004282254725695" lon="9.790491303429008">
        <ele>1849.71</ele>
        <time>2017-10-08T09:38:44Z</time>
      </trkpt>
      <trkpt lat="46.004307651892304" lon="9.7905089892447">
        <ele>1849.71</ele>
        <time>2017-10-08T09:39:06Z</time>
      </trkpt>
      <trkpt lat="46.004293989390135" lon="9.790544947609305">
        <ele>1849.71</ele>
        <time>2017-10-08T09:39:45Z</time>
      </trkpt>
      <trkpt lat="46.004287032410502" lon="9.79052709415555">
        <ele>1850.6800000000001</ele>
        <time>2017-10-08T09:39:57Z</time>
      </trkpt>
      <trkpt lat="46.004270100966096" lon="9.790568249300122">
        <ele>1851.1600000000001</ele>
        <time>2017-10-08T09:40:13Z</time>
      </trkpt>
      <trkpt lat="46.004269598051906" lon="9.790564980357885">
        <ele>1851.1600000000001</ele>
        <time>2017-10-08T09:40:26Z</time>
      </trkpt>
      <trkpt lat="46.004276303574443" lon="9.790545199066401">
        <ele>1851.1600000000001</ele>
        <time>2017-10-08T09:40:36Z</time>
      </trkpt>
      <trkpt lat="46.004276890307665" lon="9.79053296148777">
        <ele>1851.1600000000001</ele>
        <time>2017-10-08T09:40:55Z</time>
      </trkpt>
      <trkpt lat="46.004286864772439" lon="9.790526004508138">
        <ele>1851.6400000000001</ele>
        <time>2017-10-08T09:41:11Z</time>
      </trkpt>
      <trkpt lat="46.00427077151835" lon="9.790538745000958">
        <ele>1850.6800000000001</ele>
        <time>2017-10-08T09:41:22Z</time>
      </trkpt>
      <trkpt lat="46.004257025197148" lon="9.790519466623664">
        <ele>1850.6800000000001</ele>
        <time>2017-10-08T09:41:33Z</time>
      </trkpt>
      <trkpt lat="46.004242775961757" lon="9.790541594848037">
        <ele>1850.1900000000001</ele>
        <time>2017-10-08T09:41:49Z</time>
      </trkpt>
      <trkpt lat="46.004245625808835" lon="9.790515024214983">
        <ele>1850.6800000000001</ele>
        <time>2017-10-08T09:42:01Z</time>
      </trkpt>
      <trkpt lat="46.004222994670272" lon="9.790510078892112">
        <ele>1850.6800000000001</ele>
        <time>2017-10-08T09:42:15Z</time>
      </trkpt>
      <trkpt lat="46.00421997718513" lon="9.790505971759558">
        <ele>1850.6800000000001</ele>
        <time>2017-10-08T09:42:26Z</time>
      </trkpt>
      <trkpt lat="46.004219725728035" lon="9.790512844920158">
        <ele>1850.6800000000001</ele>
        <time>2017-10-08T09:42:45Z</time>
      </trkpt>
      <trkpt lat="46.004208410158753" lon="9.79049189016223">
        <ele>1850.6800000000001</ele>
        <time>2017-10-08T09:43:05Z</time>
      </trkpt>
      <trkpt lat="46.004200531169772" lon="9.790513012558222">
        <ele>1850.6800000000001</ele>
        <time>2017-10-08T09:43:23Z</time>
      </trkpt>
      <trkpt lat="46.004224251955748" lon="9.790446544066072">
        <ele>1850.6800000000001</ele>
        <time>2017-10-08T09:43:37Z</time>
      </trkpt>
      <trkpt lat="46.004255348816514" lon="9.790354259312153">
        <ele>1850.1900000000001</ele>
        <time>2017-10-08T09:43:47Z</time>
      </trkpt>
      <trkpt lat="46.004245458170772" lon="9.790340848267078">
        <ele>1849.23</ele>
        <time>2017-10-08T09:43:57Z</time>
      </trkpt>
      <trkpt lat="46.004217378795147" lon="9.790298519656062">
        <ele>1848.75</ele>
        <time>2017-10-08T09:44:08Z</time>
      </trkpt>
      <trkpt lat="46.004130207002163" lon="9.790301704779267">
        <ele>1847.79</ele>
        <time>2017-10-08T09:44:19Z</time>
      </trkpt>
      <trkpt lat="46.004032976925373" lon="9.790327101945877">
        <ele>1847.79</ele>
        <time>2017-10-08T09:44:32Z</time>
      </trkpt>
      <trkpt lat="46.003945637494326" lon="9.790356438606978">
        <ele>1849.23</ele>
        <time>2017-10-08T09:44:44Z</time>
      </trkpt>
      <trkpt lat="46.003879504278302" lon="9.790357612073422">
        <ele>1850.6800000000001</ele>
        <time>2017-10-08T09:44:55Z</time>
      </trkpt>
      <trkpt lat="46.003758134320378" lon="9.790332214906812">
        <ele>1850.6800000000001</ele>
        <time>2017-10-08T09:45:07Z</time>
      </trkpt>
      <trkpt lat="46.003640703856945" lon="9.790337579324842">
        <ele>1850.1900000000001</ele>
        <time>2017-10-08T09:45:18Z</time>
      </trkpt>
      <trkpt lat="46.0036292206496" lon="9.790336824953556">
        <ele>1850.1900000000001</ele>
        <time>2017-10-08T09:45:19Z</time>
      </trkpt>
      <trkpt lat="46.003513801842928" lon="9.790405808016658">
        <ele>1850.1900000000001</ele>
        <time>2017-10-08T09:45:30Z</time>
      </trkpt>
      <trkpt lat="46.00343911908567" lon="9.790341518819332">
        <ele>1850.6800000000001</ele>
        <time>2017-10-08T09:45:41Z</time>
      </trkpt>
      <trkpt lat="46.003434341400862" lon="9.790310086682439">
        <ele>1850.6800000000001</ele>
        <time>2017-10-08T09:45:43Z</time>
      </trkpt>
      <trkpt lat="46.003436855971813" lon="9.790258621796966">
        <ele>1850.6800000000001</ele>
        <time>2017-10-08T09:45:46Z</time>
      </trkpt>
      <trkpt lat="46.003436017781496" lon="9.790158877149224">
        <ele>1850.1900000000001</ele>
        <time>2017-10-08T09:45:57Z</time>
      </trkpt>
      <trkpt lat="46.003428557887673" lon="9.79003943502903">
        <ele>1849.71</ele>
        <time>2017-10-08T09:46:08Z</time>
      </trkpt>
      <trkpt lat="46.003427971154451" lon="9.789874730631709">
        <ele>1850.1900000000001</ele>
        <time>2017-10-08T09:46:19Z</time>
      </trkpt>
      <trkpt lat="46.003414811566472" lon="9.789734333753586">
        <ele>1849.71</ele>
        <time>2017-10-08T09:46:28Z</time>
      </trkpt>
      <trkpt lat="46.003357898443937" lon="9.789527552202344">
        <ele>1849.71</ele>
        <time>2017-10-08T09:46:41Z</time>
      </trkpt>
      <trkpt lat="46.003302242606878" lon="9.789375588297844">
        <ele>1849.71</ele>
        <time>2017-10-08T09:46:55Z</time>
      </trkpt>
      <trkpt lat="46.003263602033257" lon="9.789211386814714">
        <ele>1849.71</ele>
        <time>2017-10-08T09:47:08Z</time>
      </trkpt>
      <trkpt lat="46.003180956467986" lon="9.789121281355619">
        <ele>1849.23</ele>
        <time>2017-10-08T09:47:18Z</time>
      </trkpt>
      <trkpt lat="46.003042152151465" lon="9.7890998236835">
        <ele>1849.71</ele>
        <time>2017-10-08T09:47:31Z</time>
      </trkpt>
      <trkpt lat="46.002945508807898" lon="9.789001671597362">
        <ele>1849.71</ele>
        <time>2017-10-08T09:47:43Z</time>
      </trkpt>
      <trkpt lat="46.00284593179822" lon="9.788911398500204">
        <ele>1849.23</ele>
        <time>2017-10-08T09:47:54Z</time>
      </trkpt>
      <trkpt lat="46.002783318981528" lon="9.788884492591023">
        <ele>1849.23</ele>
        <time>2017-10-08T09:48:01Z</time>
      </trkpt>
      <trkpt lat="46.002663373947144" lon="9.78886479511857">
        <ele>1849.71</ele>
        <time>2017-10-08T09:48:14Z</time>
      </trkpt>
      <trkpt lat="46.00256597623229" lon="9.788835123181343">
        <ele>1849.71</ele>
        <time>2017-10-08T09:48:24Z</time>
      </trkpt>
      <trkpt lat="46.002541417255998" lon="9.788837302476168">
        <ele>1850.1900000000001</ele>
        <time>2017-10-08T09:48:26Z</time>
      </trkpt>
      <trkpt lat="46.00247411057353" lon="9.789026146754623">
        <ele>1850.1900000000001</ele>
        <time>2017-10-08T09:48:40Z</time>
      </trkpt>
      <trkpt lat="46.002459693700075" lon="9.78907585144043">
        <ele>1850.1900000000001</ele>
        <time>2017-10-08T09:48:43Z</time>
      </trkpt>
      <trkpt lat="46.002383250743151" lon="9.789215745404363">
        <ele>1849.71</ele>
        <time>2017-10-08T09:48:55Z</time>
      </trkpt>
      <trkpt lat="46.002353075891733" lon="9.789291014894843">
        <ele>1850.1900000000001</ele>
        <time>2017-10-08T09:49:02Z</time>
      </trkpt>
      <trkpt lat="46.00230697542429" lon="9.78944624774158">
        <ele>1851.1600000000001</ele>
        <time>2017-10-08T09:49:14Z</time>
      </trkpt>
      <trkpt lat="46.002275794744492" lon="9.789492851123214">
        <ele>1850.1900000000001</ele>
        <time>2017-10-08T09:49:18Z</time>
      </trkpt>
      <trkpt lat="46.002220725640655" lon="9.789515482261777">
        <ele>1849.71</ele>
        <time>2017-10-08T09:49:23Z</time>
      </trkpt>
      <trkpt lat="46.002089884132147" lon="9.789536520838738">
        <ele>1849.71</ele>
        <time>2017-10-08T09:49:35Z</time>
      </trkpt>
      <trkpt lat="46.001979326829314" lon="9.789563762024045">
        <ele>1849.71</ele>
        <time>2017-10-08T09:49:46Z</time>
      </trkpt>
      <trkpt lat="46.00193808786571" lon="9.789586393162608">
        <ele>1849.71</ele>
        <time>2017-10-08T09:49:51Z</time>
      </trkpt>
      <trkpt lat="46.001903973519802" lon="9.789660489186645">
        <ele>1849.71</ele>
        <time>2017-10-08T09:49:57Z</time>
      </trkpt>
      <trkpt lat="46.001906488090754" lon="9.789804322645068">
        <ele>1850.1900000000001</ele>
        <time>2017-10-08T09:50:07Z</time>
      </trkpt>
      <trkpt lat="46.001917216926813" lon="9.789893422275782">
        <ele>1850.1900000000001</ele>
        <time>2017-10-08T09:50:14Z</time>
      </trkpt>
      <trkpt lat="46.001872709020972" lon="9.790056953206658">
        <ele>1850.1900000000001</ele>
        <time>2017-10-08T09:50:26Z</time>
      </trkpt>
      <trkpt lat="46.00186675786972" lon="9.790067682042718">
        <ele>1850.1900000000001</ele>
        <time>2017-10-08T09:50:27Z</time>
      </trkpt>
      <trkpt lat="46.001822333782911" lon="9.790125517174602">
        <ele>1850.1900000000001</ele>
        <time>2017-10-08T09:50:33Z</time>
      </trkpt>
      <trkpt lat="46.001751339063048" lon="9.790236158296466">
        <ele>1850.1900000000001</ele>
        <time>2017-10-08T09:50:44Z</time>
      </trkpt>
      <trkpt lat="46.001744717359543" lon="9.790247306227684">
        <ele>1850.1900000000001</ele>
        <time>2017-10-08T09:50:45Z</time>
      </trkpt>
      <trkpt lat="46.001642290502787" lon="9.790367837995291">
        <ele>1849.71</ele>
        <time>2017-10-08T09:50:57Z</time>
      </trkpt>
      <trkpt lat="46.001603566110134" lon="9.790432546287775">
        <ele>1850.6800000000001</ele>
        <time>2017-10-08T09:51:04Z</time>
      </trkpt>
      <trkpt lat="46.001548832282424" lon="9.790591634809971">
        <ele>1850.6800000000001</ele>
        <time>2017-10-08T09:51:16Z</time>
      </trkpt>
      <trkpt lat="46.001465935260057" lon="9.790687691420317">
        <ele>1850.1900000000001</ele>
        <time>2017-10-08T09:51:27Z</time>
      </trkpt>
      <trkpt lat="46.001417571678758" lon="9.790788777172566">
        <ele>1850.1900000000001</ele>
        <time>2017-10-08T09:51:37Z</time>
      </trkpt>
      <trkpt lat="46.001399802044034" lon="9.790880642831326">
        <ele>1850.6800000000001</ele>
        <time>2017-10-08T09:51:46Z</time>
      </trkpt>
      <trkpt lat="46.001333752647042" lon="9.791030427441001">
        <ele>1851.1600000000001</ele>
        <time>2017-10-08T09:51:58Z</time>
      </trkpt>
      <trkpt lat="46.001283880323172" lon="9.791130339726806">
        <ele>1850.1900000000001</ele>
        <time>2017-10-08T09:52:08Z</time>
      </trkpt>
      <trkpt lat="46.001254040747881" lon="9.791249865666032">
        <ele>1850.6800000000001</ele>
        <time>2017-10-08T09:52:19Z</time>
      </trkpt>
      <trkpt lat="46.0012236982584" lon="9.791361428797245">
        <ele>1850.1900000000001</ele>
        <time>2017-10-08T09:52:29Z</time>
      </trkpt>
      <trkpt lat="46.001216406002641" lon="9.791471650823951">
        <ele>1850.6800000000001</ele>
        <time>2017-10-08T09:52:39Z</time>
      </trkpt>
      <trkpt lat="46.001204838976264" lon="9.791502328589559">
        <ele>1851.1600000000001</ele>
        <time>2017-10-08T09:52:49Z</time>
      </trkpt>
      <trkpt lat="46.001177597790956" lon="9.791477350518107">
        <ele>1851.1600000000001</ele>
        <time>2017-10-08T09:53:09Z</time>
      </trkpt>
      <trkpt lat="46.00120022892952" lon="9.791555302217603">
        <ele>1851.1600000000001</ele>
        <time>2017-10-08T09:53:24Z</time>
      </trkpt>
      <trkpt lat="46.001178100705147" lon="9.791595200076699">
        <ele>1851.6400000000001</ele>
        <time>2017-10-08T09:53:28Z</time>
      </trkpt>
      <trkpt lat="46.001151278614998" lon="9.791619004681706">
        <ele>1851.6400000000001</ele>
        <time>2017-10-08T09:53:31Z</time>
      </trkpt>
      <trkpt lat="46.00112646818161" lon="9.791643563657999">
        <ele>1851.1600000000001</ele>
        <time>2017-10-08T09:53:40Z</time>
      </trkpt>
      <trkpt lat="46.001004260033369" lon="9.791692178696394">
        <ele>1851.1600000000001</ele>
        <time>2017-10-08T09:53:51Z</time>
      </trkpt>
      <trkpt lat="46.000934187322855" lon="9.791699051856995">
        <ele>1851.1600000000001</ele>
        <time>2017-10-08T09:53:57Z</time>
      </trkpt>
      <trkpt lat="46.000883560627699" lon="9.791697291657329">
        <ele>1851.6400000000001</ele>
        <time>2017-10-08T09:54:01Z</time>
      </trkpt>
      <trkpt lat="46.000695303082466" lon="9.791699135676026">
        <ele>1850.6800000000001</ele>
        <time>2017-10-08T09:54:16Z</time>
      </trkpt>
      <trkpt lat="46.000509057193995" lon="9.791709277778864">
        <ele>1851.1600000000001</ele>
        <time>2017-10-08T09:54:32Z</time>
      </trkpt>
      <trkpt lat="46.000392884016037" lon="9.791705254465342">
        <ele>1851.6400000000001</ele>
        <time>2017-10-08T09:54:40Z</time>
      </trkpt>
      <trkpt lat="46.000337228178978" lon="9.791733250021935">
        <ele>1850.6800000000001</ele>
        <time>2017-10-08T09:54:45Z</time>
      </trkpt>
      <trkpt lat="46.000198340043426" lon="9.791932068765163">
        <ele>1851.1600000000001</ele>
        <time>2017-10-08T09:55:00Z</time>
      </trkpt>
      <trkpt lat="46.000056182965636" lon="9.792022928595543">
        <ele>1850.6800000000001</ele>
        <time>2017-10-08T09:55:12Z</time>
      </trkpt>
      <trkpt lat="45.999968675896525" lon="9.791979594156146">
        <ele>1850.6800000000001</ele>
        <time>2017-10-08T09:55:20Z</time>
      </trkpt>
      <trkpt lat="45.999890053644776" lon="9.791968027129769">
        <ele>1850.1900000000001</ele>
        <time>2017-10-08T09:55:28Z</time>
      </trkpt>
      <trkpt lat="45.999751500785351" lon="9.791984288021922">
        <ele>1848.75</ele>
        <time>2017-10-08T09:55:40Z</time>
      </trkpt>
      <trkpt lat="45.999691653996706" lon="9.792032819241285">
        <ele>1849.23</ele>
        <time>2017-10-08T09:55:47Z</time>
      </trkpt>
      <trkpt lat="45.999670950695872" lon="9.792105322703719">
        <ele>1849.23</ele>
        <time>2017-10-08T09:55:53Z</time>
      </trkpt>
      <trkpt lat="45.999653181061149" lon="9.792113034054637">
        <ele>1848.27</ele>
        <time>2017-10-08T09:56:00Z</time>
      </trkpt>
      <trkpt lat="45.999651756137609" lon="9.792116638273001">
        <ele>1848.27</ele>
        <time>2017-10-08T09:56:04Z</time>
      </trkpt>
      <trkpt lat="45.999544886872172" lon="9.792255107313395">
        <ele>1847.79</ele>
        <time>2017-10-08T09:56:15Z</time>
      </trkpt>
      <trkpt lat="45.999353025108576" lon="9.792345212772489">
        <ele>1847.3099999999999</ele>
        <time>2017-10-08T09:56:29Z</time>
      </trkpt>
      <trkpt lat="45.999187901616096" lon="9.792361306026578">
        <ele>1846.8299999999999</ele>
        <time>2017-10-08T09:56:43Z</time>
      </trkpt>
      <trkpt lat="45.999111542478204" lon="9.792381757870317">
        <ele>1846.8299999999999</ele>
        <time>2017-10-08T09:56:54Z</time>
      </trkpt>
      <trkpt lat="45.99916216917336" lon="9.792692139744759">
        <ele>1844.9100000000001</ele>
        <time>2017-10-08T09:57:12Z</time>
      </trkpt>
      <trkpt lat="45.999146997928619" lon="9.792883917689323">
        <ele>1844.4300000000001</ele>
        <time>2017-10-08T09:57:25Z</time>
      </trkpt>
      <trkpt lat="45.999158481135964" lon="9.792908225208521">
        <ele>1844.4300000000001</ele>
        <time>2017-10-08T09:57:30Z</time>
      </trkpt>
      <trkpt lat="45.999181196093559" lon="9.792971340939403">
        <ele>1844.4300000000001</ele>
        <time>2017-10-08T09:57:41Z</time>
      </trkpt>
      <trkpt lat="45.999176669865847" lon="9.792974945157766">
        <ele>1844.4300000000001</ele>
        <time>2017-10-08T09:57:42Z</time>
      </trkpt>
      <trkpt lat="45.999106345698237" lon="9.793016435578466">
        <ele>1844.4300000000001</ele>
        <time>2017-10-08T09:57:47Z</time>
      </trkpt>
      <trkpt lat="45.998992016538978" lon="9.793161526322365">
        <ele>1844.4300000000001</ele>
        <time>2017-10-08T09:58:00Z</time>
      </trkpt>
      <trkpt lat="45.998968128114939" lon="9.79321894235909">
        <ele>1844.4300000000001</ele>
        <time>2017-10-08T09:58:13Z</time>
      </trkpt>
      <trkpt lat="45.998957650735974" lon="9.793230006471276">
        <ele>1843.47</ele>
        <time>2017-10-08T09:58:31Z</time>
      </trkpt>
      <trkpt lat="45.998925715684891" lon="9.793257918208838">
        <ele>1844.4300000000001</ele>
        <time>2017-10-08T09:58:38Z</time>
      </trkpt>
      <trkpt lat="45.998879112303257" lon="9.793300246819854">
        <ele>1843.95</ele>
        <time>2017-10-08T09:58:45Z</time>
      </trkpt>
      <trkpt lat="45.998843740671873" lon="9.793356657028198">
        <ele>1843.47</ele>
        <time>2017-10-08T09:58:50Z</time>
      </trkpt>
      <trkpt lat="45.99884114228189" lon="9.79344860650599">
        <ele>1844.4300000000001</ele>
        <time>2017-10-08T09:58:59Z</time>
      </trkpt>
      <trkpt lat="45.998832006007433" lon="9.793457826599479">
        <ele>1844.4300000000001</ele>
        <time>2017-10-08T09:59:03Z</time>
      </trkpt>
      <trkpt lat="45.998822534456849" lon="9.79350040666759">
        <ele>1844.4300000000001</ele>
        <time>2017-10-08T09:59:08Z</time>
      </trkpt>
      <trkpt lat="45.998778026551008" lon="9.793671565130353">
        <ele>1844.4300000000001</ele>
        <time>2017-10-08T09:59:20Z</time>
      </trkpt>
      <trkpt lat="45.998754557222128" lon="9.793725125491619">
        <ele>1843.47</ele>
        <time>2017-10-08T09:59:23Z</time>
      </trkpt>
      <trkpt lat="45.998675683513284" lon="9.793912209570408">
        <ele>1841.54</ele>
        <time>2017-10-08T09:59:35Z</time>
      </trkpt>
      <trkpt lat="45.998639138415456" lon="9.794061239808798">
        <ele>1840.5799999999999</ele>
        <time>2017-10-08T09:59:45Z</time>
      </trkpt>
      <trkpt lat="45.998575184494257" lon="9.794223010540009">
        <ele>1840.0999999999999</ele>
        <time>2017-10-08T09:59:57Z</time>
      </trkpt>
      <trkpt lat="45.998519109562039" lon="9.794345973059535">
        <ele>1839.6199999999999</ele>
        <time>2017-10-08T10:00:07Z</time>
      </trkpt>
      <trkpt lat="45.998424477875233" lon="9.794550994411111">
        <ele>1839.1400000000001</ele>
        <time>2017-10-08T10:00:22Z</time>
      </trkpt>
      <trkpt lat="45.998362703248858" lon="9.794723661616445">
        <ele>1838.6600000000001</ele>
        <time>2017-10-08T10:00:34Z</time>
      </trkpt>
      <trkpt lat="45.998295480385423" lon="9.794930694624782">
        <ele>1838.1800000000001</ele>
        <time>2017-10-08T10:00:48Z</time>
      </trkpt>
      <trkpt lat="45.998230604454875" lon="9.79512901045382">
        <ele>1837.22</ele>
        <time>2017-10-08T10:01:02Z</time>
      </trkpt>
      <trkpt lat="45.998188862577081" lon="9.795300168916583">
        <ele>1836.74</ele>
        <time>2017-10-08T10:01:14Z</time>
      </trkpt>
      <trkpt lat="45.998177547007799" lon="9.795429166406393">
        <ele>1836.74</ele>
        <time>2017-10-08T10:01:25Z</time>
      </trkpt>
      <trkpt lat="45.998175954446197" lon="9.795509548857808">
        <ele>1836.74</ele>
        <time>2017-10-08T10:01:31Z</time>
      </trkpt>
      <trkpt lat="45.998166650533676" lon="9.79566746391356">
        <ele>1835.77</ele>
        <time>2017-10-08T10:01:44Z</time>
      </trkpt>
      <trkpt lat="45.998119544237852" lon="9.795818338170648">
        <ele>1834.8099999999999</ele>
        <time>2017-10-08T10:01:55Z</time>
      </trkpt>
      <trkpt lat="45.99810236133635" lon="9.795853542163968">
        <ele>1833.8499999999999</ele>
        <time>2017-10-08T10:01:58Z</time>
      </trkpt>
      <trkpt lat="45.998065480962396" lon="9.796025957912207">
        <ele>1831.9300000000001</ele>
        <time>2017-10-08T10:02:11Z</time>
      </trkpt>
      <trkpt lat="45.998054081574082" lon="9.796096533536911">
        <ele>1830.97</ele>
        <time>2017-10-08T10:02:17Z</time>
      </trkpt>
      <trkpt lat="45.998041005805135" lon="9.796225363388658">
        <ele>1829.05</ele>
        <time>2017-10-08T10:02:31Z</time>
      </trkpt>
      <trkpt lat="45.998022314161062" lon="9.796300297603011">
        <ele>1828.0799999999999</ele>
        <time>2017-10-08T10:02:40Z</time>
      </trkpt>
      <trkpt lat="45.998003873974085" lon="9.796389900147915">
        <ele>1826.6400000000001</ele>
        <time>2017-10-08T10:02:50Z</time>
      </trkpt>
      <trkpt lat="45.998000940307975" lon="9.796502720564604">
        <ele>1825.2</ele>
        <time>2017-10-08T10:03:02Z</time>
      </trkpt>
      <trkpt lat="45.998021895065904" lon="9.796616462990642">
        <ele>1823.76</ele>
        <time>2017-10-08T10:03:11Z</time>
      </trkpt>
      <trkpt lat="45.997941847890615" lon="9.796707574278116">
        <ele>1824.24</ele>
        <time>2017-10-08T10:03:22Z</time>
      </trkpt>
      <trkpt lat="45.997919468209147" lon="9.796732049435377">
        <ele>1823.28</ele>
        <time>2017-10-08T10:03:26Z</time>
      </trkpt>
      <trkpt lat="45.997879235073924" lon="9.79690563865006">
        <ele>1825.2</ele>
        <time>2017-10-08T10:03:40Z</time>
      </trkpt>
      <trkpt lat="45.997835732996464" lon="9.796993816271424">
        <ele>1826.6400000000001</ele>
        <time>2017-10-08T10:03:50Z</time>
      </trkpt>
      <trkpt lat="45.997816035524011" lon="9.797085681930184">
        <ele>1828.5599999999999</ele>
        <time>2017-10-08T10:04:02Z</time>
      </trkpt>
      <trkpt lat="45.997830117121339" lon="9.797119209542871">
        <ele>1829.53</ele>
        <time>2017-10-08T10:04:13Z</time>
      </trkpt>
      <trkpt lat="45.997830200940371" lon="9.797186767682433">
        <ele>1830.49</ele>
        <time>2017-10-08T10:04:23Z</time>
      </trkpt>
      <trkpt lat="45.997827434912324" lon="9.79725843295455">
        <ele>1832.4100000000001</ele>
        <time>2017-10-08T10:04:32Z</time>
      </trkpt>
      <trkpt lat="45.997809916734695" lon="9.797342335805297">
        <ele>1833.8499999999999</ele>
        <time>2017-10-08T10:04:43Z</time>
      </trkpt>
      <trkpt lat="45.997809581458569" lon="9.797374354675412">
        <ele>1834.3299999999999</ele>
        <time>2017-10-08T10:04:51Z</time>
      </trkpt>
      <trkpt lat="45.997798852622509" lon="9.797458592802286">
        <ele>1834.8099999999999</ele>
        <time>2017-10-08T10:04:59Z</time>
      </trkpt>
      <trkpt lat="45.997797762975097" lon="9.797505363821983">
        <ele>1835.29</ele>
        <time>2017-10-08T10:05:03Z</time>
      </trkpt>
      <trkpt lat="45.997765827924013" lon="9.797617513686419">
        <ele>1836.26</ele>
        <time>2017-10-08T10:05:13Z</time>
      </trkpt>
      <trkpt lat="45.997748980298638" lon="9.797700494527817">
        <ele>1838.1800000000001</ele>
        <time>2017-10-08T10:05:21Z</time>
      </trkpt>
      <trkpt lat="45.997750489041209" lon="9.797696219757199">
        <ele>1837.7</ele>
        <time>2017-10-08T10:05:22Z</time>
      </trkpt>
      <trkpt lat="45.997737916186452" lon="9.797787498682737">
        <ele>1838.1800000000001</ele>
        <time>2017-10-08T10:05:31Z</time>
      </trkpt>
      <trkpt lat="45.997719392180443" lon="9.797868635505438">
        <ele>1839.1400000000001</ele>
        <time>2017-10-08T10:05:38Z</time>
      </trkpt>
      <trkpt lat="45.997690977528691" lon="9.79800752364099">
        <ele>1840.0999999999999</ele>
        <time>2017-10-08T10:05:49Z</time>
      </trkpt>
      <trkpt lat="45.997664239257574" lon="9.798087319359183">
        <ele>1841.0599999999999</ele>
        <time>2017-10-08T10:05:59Z</time>
      </trkpt>
      <trkpt lat="45.997638842090964" lon="9.798144400119782">
        <ele>1842.02</ele>
        <time>2017-10-08T10:06:09Z</time>
      </trkpt>
      <trkpt lat="45.997596932575107" lon="9.79821371845901">
        <ele>1843.95</ele>
        <time>2017-10-08T10:06:21Z</time>
      </trkpt>
      <trkpt lat="45.997548820450902" lon="9.798283120617271">
        <ele>1845.3900000000001</ele>
        <time>2017-10-08T10:06:33Z</time>
      </trkpt>
      <trkpt lat="45.997540187090635" lon="9.79834271594882">
        <ele>1846.8299999999999</ele>
        <time>2017-10-08T10:06:45Z</time>
      </trkpt>
      <trkpt lat="45.997564494609833" lon="9.798343637958169">
        <ele>1847.79</ele>
        <time>2017-10-08T10:06:57Z</time>
      </trkpt>
      <trkpt lat="45.997534487396479" lon="9.798366269096732">
        <ele>1848.75</ele>
        <time>2017-10-08T10:07:06Z</time>
      </trkpt>
      <trkpt lat="45.997508335858583" lon="9.798457967117429">
        <ele>1850.6800000000001</ele>
        <time>2017-10-08T10:07:18Z</time>
      </trkpt>
      <trkpt lat="45.997466091066599" lon="9.798571206629276">
        <ele>1852.1199999999999</ele>
        <time>2017-10-08T10:07:28Z</time>
      </trkpt>
      <trkpt lat="45.997416721656919" lon="9.798673130571842">
        <ele>1853.5599999999999</ele>
        <time>2017-10-08T10:07:40Z</time>
      </trkpt>
      <trkpt lat="45.997406663373113" lon="9.79872333817184">
        <ele>1855</ele>
        <time>2017-10-08T10:07:49Z</time>
      </trkpt>
      <trkpt lat="45.997364837676287" lon="9.798791818320751">
        <ele>1855.96</ele>
        <time>2017-10-08T10:07:59Z</time>
      </trkpt>
      <trkpt lat="45.997357042506337" lon="9.798803888261318">
        <ele>1855.96</ele>
        <time>2017-10-08T10:08:00Z</time>
      </trkpt>
      <trkpt lat="45.997293926775455" lon="9.79886507615447">
        <ele>1854.52</ele>
        <time>2017-10-08T10:08:08Z</time>
      </trkpt>
      <trkpt lat="45.997182447463274" lon="9.798967503011227">
        <ele>1854.52</ele>
        <time>2017-10-08T10:08:20Z</time>
      </trkpt>
      <trkpt lat="45.997109608724713" lon="9.799055093899369">
        <ele>1856.9200000000001</ele>
        <time>2017-10-08T10:08:33Z</time>
      </trkpt>
      <trkpt lat="45.997079852968454" lon="9.799092309549451">
        <ele>1858.3699999999999</ele>
        <time>2017-10-08T10:08:43Z</time>
      </trkpt>
      <trkpt lat="45.997067112475634" lon="9.799148887395859">
        <ele>1859.8099999999999</ele>
        <time>2017-10-08T10:08:53Z</time>
      </trkpt>
      <trkpt lat="45.997019167989492" lon="9.79925743304193">
        <ele>1862.21</ele>
        <time>2017-10-08T10:09:06Z</time>
      </trkpt>
      <trkpt lat="45.996989160776138" lon="9.799336390569806">
        <ele>1863.6500000000001</ele>
        <time>2017-10-08T10:09:17Z</time>
      </trkpt>
      <trkpt lat="45.996966194361448" lon="9.799425574019551">
        <ele>1865.5799999999999</ele>
        <time>2017-10-08T10:09:28Z</time>
      </trkpt>
      <trkpt lat="45.996948843821883" lon="9.799456587061286">
        <ele>1866.0599999999999</ele>
        <time>2017-10-08T10:09:38Z</time>
      </trkpt>
      <trkpt lat="45.996907018125057" lon="9.799518277868629">
        <ele>1867.5</ele>
        <time>2017-10-08T10:09:49Z</time>
      </trkpt>
      <trkpt lat="45.996865527704358" lon="9.799578208476305">
        <ele>1869.4200000000001</ele>
        <time>2017-10-08T10:10:01Z</time>
      </trkpt>
      <trkpt lat="45.996832335367799" lon="9.799661273136735">
        <ele>1870.3800000000001</ele>
        <time>2017-10-08T10:10:12Z</time>
      </trkpt>
      <trkpt lat="45.996841890737414" lon="9.799687005579472">
        <ele>1870.8599999999999</ele>
        <time>2017-10-08T10:10:15Z</time>
      </trkpt>
      <trkpt lat="45.996829988434911" lon="9.799841148778796">
        <ele>1871.3399999999999</ele>
        <time>2017-10-08T10:10:25Z</time>
      </trkpt>
      <trkpt lat="45.996806854382157" lon="9.799932092428207">
        <ele>1872.3</ele>
        <time>2017-10-08T10:10:35Z</time>
      </trkpt>
      <trkpt lat="45.996754635125399" lon="9.800006188452244">
        <ele>1872.79</ele>
        <time>2017-10-08T10:10:44Z</time>
      </trkpt>
      <trkpt lat="45.996736865490675" lon="9.800172653049231">
        <ele>1873.75</ele>
        <time>2017-10-08T10:10:57Z</time>
      </trkpt>
      <trkpt lat="45.996692609041929" lon="9.800309864804149">
        <ele>1874.71</ele>
        <time>2017-10-08T10:11:10Z</time>
      </trkpt>
      <trkpt lat="45.99663401953876" lon="9.800380356609821">
        <ele>1876.6300000000001</ele>
        <time>2017-10-08T10:11:24Z</time>
      </trkpt>
      <trkpt lat="45.996605018153787" lon="9.800466606393457">
        <ele>1878.55</ele>
        <time>2017-10-08T10:11:34Z</time>
      </trkpt>
      <trkpt lat="45.996558666229248" lon="9.800583785399795">
        <ele>1880</ele>
        <time>2017-10-08T10:11:46Z</time>
      </trkpt>
      <trkpt lat="45.996527066454291" lon="9.800636591389775">
        <ele>1880.48</ele>
        <time>2017-10-08T10:11:59Z</time>
      </trkpt>
      <trkpt lat="45.996467806398869" lon="9.800676237791777">
        <ele>1882.8800000000001</ele>
        <time>2017-10-08T10:12:14Z</time>
      </trkpt>
      <trkpt lat="45.996393375098705" lon="9.80077707208693">
        <ele>1885.28</ele>
        <time>2017-10-08T10:12:29Z</time>
      </trkpt>
      <trkpt lat="45.996347609907389" lon="9.800816886126995">
        <ele>1885.76</ele>
        <time>2017-10-08T10:12:39Z</time>
      </trkpt>
      <trkpt lat="45.996325984597206" lon="9.800836835056543">
        <ele>1886.24</ele>
        <time>2017-10-08T10:12:43Z</time>
      </trkpt>
      <trkpt lat="45.996288182213902" lon="9.800961222499609">
        <ele>1886.72</ele>
        <time>2017-10-08T10:12:54Z</time>
      </trkpt>
      <trkpt lat="45.996239734813571" lon="9.801049064844847">
        <ele>1887.6900000000001</ele>
        <time>2017-10-08T10:13:04Z</time>
      </trkpt>
      <trkpt lat="45.996188940480351" lon="9.801125591620803">
        <ele>1889.1300000000001</ele>
        <time>2017-10-08T10:13:14Z</time>
      </trkpt>
      <trkpt lat="45.996137224137783" lon="9.80121779255569">
        <ele>1891.53</ele>
        <time>2017-10-08T10:13:26Z</time>
      </trkpt>
      <trkpt lat="45.996114257723093" lon="9.801271604374051">
        <ele>1891.53</ele>
        <time>2017-10-08T10:13:32Z</time>
      </trkpt>
      <trkpt lat="45.996063128113747" lon="9.801408899948001">
        <ele>1892.01</ele>
        <time>2017-10-08T10:13:45Z</time>
      </trkpt>
      <trkpt lat="45.996030857786536" lon="9.801538903266192">
        <ele>1891.53</ele>
        <time>2017-10-08T10:13:56Z</time>
      </trkpt>
      <trkpt lat="45.99598509259522" lon="9.801640408113599">
        <ele>1892.49</ele>
        <time>2017-10-08T10:14:07Z</time>
      </trkpt>
      <trkpt lat="45.995944188907743" lon="9.801725735887885">
        <ele>1892.97</ele>
        <time>2017-10-08T10:14:15Z</time>
      </trkpt>
      <trkpt lat="45.995912421494722" lon="9.801793629303575">
        <ele>1893.45</ele>
        <time>2017-10-08T10:14:21Z</time>
      </trkpt>
      <trkpt lat="45.995896495878696" lon="9.801828330382705">
        <ele>1892.97</ele>
        <time>2017-10-08T10:14:24Z</time>
      </trkpt>
      <trkpt lat="45.995851568877697" lon="9.801999740302563">
        <ele>1894.9000000000001</ele>
        <time>2017-10-08T10:14:37Z</time>
      </trkpt>
      <trkpt lat="45.995903536677361" lon="9.802091522142291">
        <ele>1895.3800000000001</ele>
        <time>2017-10-08T10:14:48Z</time>
      </trkpt>
      <trkpt lat="45.995931616052985" lon="9.802129408344626">
        <ele>1895.8599999999999</ele>
        <time>2017-10-08T10:14:57Z</time>
      </trkpt>
      <trkpt lat="45.995932957157493" lon="9.802224794402719">
        <ele>1897.3</ele>
        <time>2017-10-08T10:15:07Z</time>
      </trkpt>
      <trkpt lat="45.995916612446308" lon="9.80233090929687">
        <ele>1898.26</ele>
        <time>2017-10-08T10:15:17Z</time>
      </trkpt>
      <trkpt lat="45.995872355997562" lon="9.802483459934592">
        <ele>1898.26</ele>
        <time>2017-10-08T10:15:27Z</time>
      </trkpt>
      <trkpt lat="45.995839415118098" lon="9.802624611184001">
        <ele>1898.74</ele>
        <time>2017-10-08T10:15:38Z</time>
      </trkpt>
      <trkpt lat="45.995776718482375" lon="9.802781101316214">
        <ele>1898.74</ele>
        <time>2017-10-08T10:15:51Z</time>
      </trkpt>
      <trkpt lat="45.995750650763512" lon="9.802817981690168">
        <ele>1898.26</ele>
        <time>2017-10-08T10:16:05Z</time>
      </trkpt>
      <trkpt lat="45.995704382658005" lon="9.802905404940248">
        <ele>1898.74</ele>
        <time>2017-10-08T10:16:14Z</time>
      </trkpt>
      <trkpt lat="45.995684266090393" lon="9.80292895808816">
        <ele>1898.74</ele>
        <time>2017-10-08T10:16:17Z</time>
      </trkpt>
      <trkpt lat="45.995634393766522" lon="9.80303205549717">
        <ele>1899.22</ele>
        <time>2017-10-08T10:16:24Z</time>
      </trkpt>
      <trkpt lat="45.995585611090064" lon="9.803100535646081">
        <ele>1899.7</ele>
        <time>2017-10-08T10:16:30Z</time>
      </trkpt>
      <trkpt lat="45.995567925274372" lon="9.803117467090488">
        <ele>1900.1800000000001</ele>
        <time>2017-10-08T10:16:32Z</time>
      </trkpt>
      <trkpt lat="45.995455272495747" lon="9.803304383531213">
        <ele>1900.6600000000001</ele>
        <time>2017-10-08T10:16:45Z</time>
      </trkpt>
      <trkpt lat="45.995383020490408" lon="9.803413851186633">
        <ele>1901.6300000000001</ele>
        <time>2017-10-08T10:16:54Z</time>
      </trkpt>
      <trkpt lat="45.995375895872712" lon="9.803427932783961">
        <ele>1901.6300000000001</ele>
        <time>2017-10-08T10:16:55Z</time>
      </trkpt>
      <trkpt lat="45.995290819555521" lon="9.803608311340213">
        <ele>1902.1099999999999</ele>
        <time>2017-10-08T10:17:08Z</time>
      </trkpt>
      <trkpt lat="45.995229296386242" lon="9.80368978343904">
        <ele>1904.03</ele>
        <time>2017-10-08T10:17:18Z</time>
      </trkpt>
      <trkpt lat="45.995164168998599" lon="9.803830180317164">
        <ele>1905.47</ele>
        <time>2017-10-08T10:17:31Z</time>
      </trkpt>
      <trkpt lat="45.995093509554863" lon="9.803960854187608">
        <ele>1906.4300000000001</ele>
        <time>2017-10-08T10:17:43Z</time>
      </trkpt>
      <trkpt lat="45.995014971122146" lon="9.804062694311142">
        <ele>1906.9100000000001</ele>
        <time>2017-10-08T10:17:53Z</time>
      </trkpt>
      <trkpt lat="45.994929056614637" lon="9.80417593382299">
        <ele>1907.8699999999999</ele>
        <time>2017-10-08T10:18:05Z</time>
      </trkpt>
      <trkpt lat="45.994853535667062" lon="9.80426293797791">
        <ele>1909.3199999999999</ele>
        <time>2017-10-08T10:18:16Z</time>
      </trkpt>
      <trkpt lat="45.994816152378917" lon="9.804324964061379">
        <ele>1910.76</ele>
        <time>2017-10-08T10:18:27Z</time>
      </trkpt>
      <trkpt lat="45.994759323075414" lon="9.804398640990257">
        <ele>1912.6800000000001</ele>
        <time>2017-10-08T10:18:38Z</time>
      </trkpt>
      <trkpt lat="45.994715904816985" lon="9.804465528577566">
        <ele>1914.1199999999999</ele>
        <time>2017-10-08T10:18:48Z</time>
      </trkpt>
      <trkpt lat="45.994626805186272" lon="9.804552281275392">
        <ele>1916.04</ele>
        <time>2017-10-08T10:19:00Z</time>
      </trkpt>
      <trkpt lat="45.99457492120564" lon="9.804593604058027">
        <ele>1917.01</ele>
        <time>2017-10-08T10:19:07Z</time>
      </trkpt>
      <trkpt lat="45.994461681693792" lon="9.804657055065036">
        <ele>1917.97</ele>
        <time>2017-10-08T10:19:18Z</time>
      </trkpt>
      <trkpt lat="45.994341485202312" lon="9.804742215201259">
        <ele>1917.97</ele>
        <time>2017-10-08T10:19:31Z</time>
      </trkpt>
      <trkpt lat="45.994267472997308" lon="9.804784711450338">
        <ele>1919.8900000000001</ele>
        <time>2017-10-08T10:19:40Z</time>
      </trkpt>
      <trkpt lat="45.994180385023355" lon="9.804823687300086">
        <ele>1920.3699999999999</ele>
        <time>2017-10-08T10:19:50Z</time>
      </trkpt>
      <trkpt lat="45.99408533424139" lon="9.804842211306095">
        <ele>1921.8099999999999</ele>
        <time>2017-10-08T10:20:00Z</time>
      </trkpt>
      <trkpt lat="45.993993217125535" lon="9.804896106943488">
        <ele>1922.29</ele>
        <time>2017-10-08T10:20:10Z</time>
      </trkpt>
      <trkpt lat="45.993951810523868" lon="9.804921839386225">
        <ele>1922.77</ele>
        <time>2017-10-08T10:20:15Z</time>
      </trkpt>
      <trkpt lat="45.993931023404002" lon="9.804928544908762">
        <ele>1922.29</ele>
        <time>2017-10-08T10:20:17Z</time>
      </trkpt>
      <trkpt lat="45.993874361738563" lon="9.804962072521448">
        <ele>1922.29</ele>
        <time>2017-10-08T10:20:22Z</time>
      </trkpt>
      <trkpt lat="45.993762547150254" lon="9.804998533800244">
        <ele>1923.25</ele>
        <time>2017-10-08T10:20:33Z</time>
      </trkpt>
      <trkpt lat="45.993672357872128" lon="9.805012196302414">
        <ele>1924.22</ele>
        <time>2017-10-08T10:20:44Z</time>
      </trkpt>
      <trkpt lat="45.993617372587323" lon="9.805029211565852">
        <ele>1924.7</ele>
        <time>2017-10-08T10:20:54Z</time>
      </trkpt>
      <trkpt lat="45.993543528020382" lon="9.805068857967854">
        <ele>1926.1400000000001</ele>
        <time>2017-10-08T10:21:04Z</time>
      </trkpt>
      <trkpt lat="45.993536319583654" lon="9.805085454136133">
        <ele>1926.6199999999999</ele>
        <time>2017-10-08T10:21:09Z</time>
      </trkpt>
      <trkpt lat="45.993435652926564" lon="9.805094758048654">
        <ele>1928.0599999999999</ele>
        <time>2017-10-08T10:21:21Z</time>
      </trkpt>
      <trkpt lat="45.993403047323227" lon="9.805038515478373">
        <ele>1929.02</ele>
        <time>2017-10-08T10:21:31Z</time>
      </trkpt>
      <trkpt lat="45.993433892726898" lon="9.804928209632635">
        <ele>1930.46</ele>
        <time>2017-10-08T10:21:40Z</time>
      </trkpt>
      <trkpt lat="45.993455434218049" lon="9.804827878251672">
        <ele>1931.4300000000001</ele>
        <time>2017-10-08T10:21:48Z</time>
      </trkpt>
      <trkpt lat="45.993483681231737" lon="9.804746741428971">
        <ele>1932.3900000000001</ele>
        <time>2017-10-08T10:21:58Z</time>
      </trkpt>
      <trkpt lat="45.993520310148597" lon="9.804630316793919">
        <ele>1933.8299999999999</ele>
        <time>2017-10-08T10:22:12Z</time>
      </trkpt>
      <trkpt lat="45.993559369817376" lon="9.80456099845469">
        <ele>1934.79</ele>
        <time>2017-10-08T10:22:23Z</time>
      </trkpt>
      <trkpt lat="45.993566997349262" lon="9.804420182481408">
        <ele>1937.6700000000001</ele>
        <time>2017-10-08T10:22:37Z</time>
      </trkpt>
      <trkpt lat="45.993592059239745" lon="9.80434793047607">
        <ele>1938.6400000000001</ele>
        <time>2017-10-08T10:22:48Z</time>
      </trkpt>
      <trkpt lat="45.993625838309526" lon="9.804306859150529">
        <ele>1939.5999999999999</ele>
        <time>2017-10-08T10:22:58Z</time>
      </trkpt>
      <trkpt lat="45.993639584630728" lon="9.804263859987259">
        <ele>1940.5599999999999</ele>
        <time>2017-10-08T10:23:08Z</time>
      </trkpt>
      <trkpt lat="45.993651235476136" lon="9.804214658215642">
        <ele>1942</ele>
        <time>2017-10-08T10:23:17Z</time>
      </trkpt>
      <trkpt lat="45.993658527731895" lon="9.804119858890772">
        <ele>1944.8800000000001</ele>
        <time>2017-10-08T10:23:30Z</time>
      </trkpt>
      <trkpt lat="45.993704628199339" lon="9.804020617157221">
        <ele>1946.3299999999999</ele>
        <time>2017-10-08T10:23:48Z</time>
      </trkpt>
      <trkpt lat="45.993718458339572" lon="9.803936295211315">
        <ele>1947.29</ele>
        <time>2017-10-08T10:23:56Z</time>
      </trkpt>
      <trkpt lat="45.993737736716866" lon="9.80388717725873">
        <ele>1948.25</ele>
        <time>2017-10-08T10:24:01Z</time>
      </trkpt>
      <trkpt lat="45.993771348148584" lon="9.803799251094461">
        <ele>1949.6900000000001</ele>
        <time>2017-10-08T10:24:11Z</time>
      </trkpt>
      <trkpt lat="45.993787441402674" lon="9.803705709055066">
        <ele>1950.6500000000001</ele>
        <time>2017-10-08T10:24:19Z</time>
      </trkpt>
      <trkpt lat="45.99377897568047" lon="9.803634043782949">
        <ele>1947.77</ele>
        <time>2017-10-08T10:24:26Z</time>
      </trkpt>
      <trkpt lat="45.993777383118868" lon="9.803627422079444">
        <ele>1947.77</ele>
        <time>2017-10-08T10:24:27Z</time>
      </trkpt>
      <trkpt lat="45.993765816092491" lon="9.80358081869781">
        <ele>1951.6099999999999</ele>
        <time>2017-10-08T10:24:34Z</time>
      </trkpt>
      <trkpt lat="45.993766654282808" lon="9.803576627746224">
        <ele>1951.6099999999999</ele>
        <time>2017-10-08T10:24:35Z</time>
      </trkpt>
      <trkpt lat="45.993760703131557" lon="9.803514769300818">
        <ele>1952.0899999999999</ele>
        <time>2017-10-08T10:24:41Z</time>
      </trkpt>
      <trkpt lat="45.993756260722876" lon="9.803430112078786">
        <ele>1952.5699999999999</ele>
        <time>2017-10-08T10:24:50Z</time>
      </trkpt>
      <trkpt lat="45.993746956810355" lon="9.803371606394649">
        <ele>1954.02</ele>
        <time>2017-10-08T10:24:58Z</time>
      </trkpt>
      <trkpt lat="45.993711752817035" lon="9.803320225328207">
        <ele>1955.46</ele>
        <time>2017-10-08T10:25:06Z</time>
      </trkpt>
      <trkpt lat="45.993670178577304" lon="9.80337118729949">
        <ele>1956.4200000000001</ele>
        <time>2017-10-08T10:25:16Z</time>
      </trkpt>
      <trkpt lat="45.993628269061446" lon="9.803382586687803">
        <ele>1956.9000000000001</ele>
        <time>2017-10-08T10:25:21Z</time>
      </trkpt>
      <trkpt lat="45.993537660688162" lon="9.803493479266763">
        <ele>1956.9000000000001</ele>
        <time>2017-10-08T10:25:32Z</time>
      </trkpt>
      <trkpt lat="45.993528859689832" lon="9.803504040464759">
        <ele>1956.9000000000001</ele>
        <time>2017-10-08T10:25:33Z</time>
      </trkpt>
      <trkpt lat="45.993479741737247" lon="9.803561372682452">
        <ele>1956.9000000000001</ele>
        <time>2017-10-08T10:25:40Z</time>
      </trkpt>
      <trkpt lat="45.993470270186663" lon="9.803588362410665">
        <ele>1957.3800000000001</ele>
        <time>2017-10-08T10:25:42Z</time>
      </trkpt>
      <trkpt lat="45.993404053151608" lon="9.803685005754232">
        <ele>1957.8599999999999</ele>
        <time>2017-10-08T10:25:53Z</time>
      </trkpt>
      <trkpt lat="45.993366166949272" lon="9.803734375163913">
        <ele>1958.3399999999999</ele>
        <time>2017-10-08T10:25:58Z</time>
      </trkpt>
      <trkpt lat="45.993225518614054" lon="9.803798412904143">
        <ele>1959.78</ele>
        <time>2017-10-08T10:26:13Z</time>
      </trkpt>
      <trkpt lat="45.993158966302872" lon="9.803828503936529">
        <ele>1961.23</ele>
        <time>2017-10-08T10:26:21Z</time>
      </trkpt>
      <trkpt lat="45.99312367849052" lon="9.80386714451015">
        <ele>1960.75</ele>
        <time>2017-10-08T10:26:25Z</time>
      </trkpt>
      <trkpt lat="45.993055617436767" lon="9.803912155330181">
        <ele>1961.23</ele>
        <time>2017-10-08T10:26:33Z</time>
      </trkpt>
      <trkpt lat="45.992993507534266" lon="9.803921962156892">
        <ele>1962.1900000000001</ele>
        <time>2017-10-08T10:26:43Z</time>
      </trkpt>
      <trkpt lat="45.992982443422079" lon="9.803903270512819">
        <ele>1962.1900000000001</ele>
        <time>2017-10-08T10:26:47Z</time>
      </trkpt>
      <trkpt lat="45.992908766493201" lon="9.803795982152224">
        <ele>1962.6700000000001</ele>
        <time>2017-10-08T10:26:59Z</time>
      </trkpt>
      <trkpt lat="45.992883453145623" lon="9.803725322708488">
        <ele>1964.1099999999999</ele>
        <time>2017-10-08T10:27:10Z</time>
      </trkpt>
      <trkpt lat="45.992878507822752" lon="9.803706295788288">
        <ele>1964.5899999999999</ele>
        <time>2017-10-08T10:27:13Z</time>
      </trkpt>
      <trkpt lat="45.992832574993372" lon="9.803687771782279">
        <ele>1964.1099999999999</ele>
        <time>2017-10-08T10:27:24Z</time>
      </trkpt>
      <trkpt lat="45.992816397920251" lon="9.80372691527009">
        <ele>1964.1099999999999</ele>
        <time>2017-10-08T10:27:34Z</time>
      </trkpt>
      <trkpt lat="45.992710785940289" lon="9.803747702389956">
        <ele>1965.0699999999999</ele>
        <time>2017-10-08T10:27:44Z</time>
      </trkpt>
      <trkpt lat="45.992686729878187" lon="9.803781481459737">
        <ele>1965.55</ele>
        <time>2017-10-08T10:27:48Z</time>
      </trkpt>
      <trkpt lat="45.992662506178021" lon="9.803808052092791">
        <ele>1965.55</ele>
        <time>2017-10-08T10:27:57Z</time>
      </trkpt>
      <trkpt lat="45.992675581946969" lon="9.803758598864079">
        <ele>1964.5899999999999</ele>
        <time>2017-10-08T10:28:16Z</time>
      </trkpt>
      <trkpt lat="45.992686981335282" lon="9.803736219182611">
        <ele>1965.0699999999999</ele>
        <time>2017-10-08T10:28:18Z</time>
      </trkpt>
      <trkpt lat="45.992707014083862" lon="9.803697243332863">
        <ele>1965.0699999999999</ele>
        <time>2017-10-08T10:28:26Z</time>
      </trkpt>
      <trkpt lat="45.992801729589701" lon="9.803657680749893">
        <ele>1964.1099999999999</ele>
        <time>2017-10-08T10:28:37Z</time>
      </trkpt>
      <trkpt lat="45.992789827287197" lon="9.803650304675102">
        <ele>1964.1099999999999</ele>
        <time>2017-10-08T10:28:56Z</time>
      </trkpt>
      <trkpt lat="45.992777924984694" lon="9.803634295240045">
        <ele>1964.1099999999999</ele>
        <time>2017-10-08T10:29:01Z</time>
      </trkpt>
      <trkpt lat="45.99275722168386" lon="9.803574616089463">
        <ele>1965.0699999999999</ele>
        <time>2017-10-08T10:29:12Z</time>
      </trkpt>
      <trkpt lat="45.992754539474845" lon="9.803579477593303">
        <ele>1964.5899999999999</ele>
        <time>2017-10-08T10:29:23Z</time>
      </trkpt>
      <trkpt lat="45.992783708497882" lon="9.803578639402986">
        <ele>1964.5899999999999</ele>
        <time>2017-10-08T10:29:36Z</time>
      </trkpt>
      <trkpt lat="45.992742804810405" lon="9.803563300520182">
        <ele>1965.55</ele>
        <time>2017-10-08T10:29:46Z</time>
      </trkpt>
      <trkpt lat="45.992731908336282" lon="9.803583081811667">
        <ele>1965.0699999999999</ele>
        <time>2017-10-08T10:29:54Z</time>
      </trkpt>
      <trkpt lat="45.992752108722925" lon="9.803585093468428">
        <ele>1965.55</ele>
        <time>2017-10-08T10:30:07Z</time>
      </trkpt>
      <trkpt lat="45.9927464928478" lon="9.803593810647726">
        <ele>1965.55</ele>
        <time>2017-10-08T10:30:20Z</time>
      </trkpt>
      <trkpt lat="45.992736602202058" lon="9.803592469543219">
        <ele>1965.55</ele>
        <time>2017-10-08T10:30:30Z</time>
      </trkpt>
      <trkpt lat="45.992743894457817" lon="9.803597247228026">
        <ele>1965.0699999999999</ele>
        <time>2017-10-08T10:30:44Z</time>
      </trkpt>
      <trkpt lat="45.992716401815414" lon="9.803659189492464">
        <ele>1965.55</ele>
        <time>2017-10-08T10:30:52Z</time>
      </trkpt>
      <trkpt lat="45.99268052726984" lon="9.803692298009992">
        <ele>1965.55</ele>
        <time>2017-10-08T10:31:00Z</time>
      </trkpt>
      <trkpt lat="45.992656471207738" lon="9.803698752075434">
        <ele>1964.5899999999999</ele>
        <time>2017-10-08T10:31:04Z</time>
      </trkpt>
      <trkpt lat="45.992620596662164" lon="9.803728926926851">
        <ele>1963.1500000000001</ele>
        <time>2017-10-08T10:31:12Z</time>
      </trkpt>
      <trkpt lat="45.992557145655155" lon="9.803768657147884">
        <ele>1961.71</ele>
        <time>2017-10-08T10:31:22Z</time>
      </trkpt>
      <trkpt lat="45.992529066279531" lon="9.803790701553226">
        <ele>1960.75</ele>
        <time>2017-10-08T10:31:33Z</time>
      </trkpt>
      <trkpt lat="45.992514984682202" lon="9.803797909989953">
        <ele>1960.27</ele>
        <time>2017-10-08T10:31:36Z</time>
      </trkpt>
      <trkpt lat="45.99250023253262" lon="9.803808303549886">
        <ele>1959.3</ele>
        <time>2017-10-08T10:31:46Z</time>
      </trkpt>
      <trkpt lat="45.992507189512253" lon="9.803777625784278">
        <ele>1959.3</ele>
        <time>2017-10-08T10:31:58Z</time>
      </trkpt>
      <trkpt lat="45.992476511746645" lon="9.80376404710114">
        <ele>1958.8199999999999</ele>
        <time>2017-10-08T10:32:11Z</time>
      </trkpt>
      <trkpt lat="45.992467626929283" lon="9.803756587207317">
        <ele>1959.3</ele>
        <time>2017-10-08T10:32:31Z</time>
      </trkpt>
      <trkpt lat="45.99248212762177" lon="9.803738398477435">
        <ele>1959.3</ele>
        <time>2017-10-08T10:32:50Z</time>
      </trkpt>
      <trkpt lat="45.992470812052488" lon="9.803764466196299">
        <ele>1959.78</ele>
        <time>2017-10-08T10:33:17Z</time>
      </trkpt>
      <trkpt lat="45.992467375472188" lon="9.803763628005981">
        <ele>1959.78</ele>
        <time>2017-10-08T10:33:48Z</time>
      </trkpt>
      <trkpt lat="45.99247382953763" lon="9.803764214739204">
        <ele>1959.78</ele>
        <time>2017-10-08T10:34:14Z</time>
      </trkpt>
      <trkpt lat="45.992474164813757" lon="9.803756754845381">
        <ele>1960.27</ele>
        <time>2017-10-08T10:34:41Z</time>
      </trkpt>
      <trkpt lat="45.992487072944641" lon="9.803747199475765">
        <ele>1960.27</ele>
        <time>2017-10-08T10:35:12Z</time>
      </trkpt>
      <trkpt lat="45.992484809830785" lon="9.80375281535089">
        <ele>1960.27</ele>
        <time>2017-10-08T10:35:41Z</time>
      </trkpt>
      <trkpt lat="45.99247919395566" lon="9.803736554458737">
        <ele>1960.27</ele>
        <time>2017-10-08T10:36:03Z</time>
      </trkpt>
      <trkpt lat="45.992470141500235" lon="9.803759688511491">
        <ele>1960.75</ele>
        <time>2017-10-08T10:36:34Z</time>
      </trkpt>
      <trkpt lat="45.992478439584374" lon="9.8037229757756">
        <ele>1960.27</ele>
        <time>2017-10-08T10:37:02Z</time>
      </trkpt>
      <trkpt lat="45.992477517575026" lon="9.803726160898805">
        <ele>1960.75</ele>
        <time>2017-10-08T10:37:27Z</time>
      </trkpt>
      <trkpt lat="45.992489503696561" lon="9.803759437054396">
        <ele>1961.23</ele>
        <time>2017-10-08T10:37:57Z</time>
      </trkpt>
      <trkpt lat="45.992500567808747" lon="9.803754575550556">
        <ele>1960.75</ele>
        <time>2017-10-08T10:38:22Z</time>
      </trkpt>
      <trkpt lat="45.992476176470518" lon="9.803764466196299">
        <ele>1961.23</ele>
        <time>2017-10-08T10:38:55Z</time>
      </trkpt>
      <trkpt lat="45.992466453462839" lon="9.803727082908154">
        <ele>1961.23</ele>
        <time>2017-10-08T10:39:25Z</time>
      </trkpt>
      <trkpt lat="45.992476176470518" lon="9.803732531145215">
        <ele>1961.23</ele>
        <time>2017-10-08T10:39:56Z</time>
      </trkpt>
      <trkpt lat="45.992471063509583" lon="9.80371467769146">
        <ele>1961.23</ele>
        <time>2017-10-08T10:40:25Z</time>
      </trkpt>
      <trkpt lat="45.992478439584374" lon="9.803734039887786">
        <ele>1961.71</ele>
        <time>2017-10-08T10:40:56Z</time>
      </trkpt>
      <trkpt lat="45.992494532838464" lon="9.803724400699139">
        <ele>1961.71</ele>
        <time>2017-10-08T10:41:30Z</time>
      </trkpt>
      <trkpt lat="45.992490341886878" lon="9.80372884310782">
        <ele>1961.23</ele>
        <time>2017-10-08T10:42:01Z</time>
      </trkpt>
      <trkpt lat="45.992503920570016" lon="9.803764633834362">
        <ele>1961.23</ele>
        <time>2017-10-08T10:42:30Z</time>
      </trkpt>
      <trkpt lat="45.992502579465508" lon="9.803756922483444">
        <ele>1961.23</ele>
        <time>2017-10-08T10:42:57Z</time>
      </trkpt>
      <trkpt lat="45.992510206997395" lon="9.803768489509821">
        <ele>1961.23</ele>
        <time>2017-10-08T10:43:28Z</time>
      </trkpt>
      <trkpt lat="45.992495371028781" lon="9.803773183375597">
        <ele>1961.23</ele>
        <time>2017-10-08T10:43:52Z</time>
      </trkpt>
      <trkpt lat="45.992504926398396" lon="9.803760275244713">
        <ele>1961.23</ele>
        <time>2017-10-08T10:44:26Z</time>
      </trkpt>
      <trkpt lat="45.992491850629449" lon="9.803764298558235">
        <ele>1961.23</ele>
        <time>2017-10-08T10:44:58Z</time>
      </trkpt>
      <trkpt lat="45.992500903084874" lon="9.803765639662743">
        <ele>1961.23</ele>
        <time>2017-10-08T10:45:23Z</time>
      </trkpt>
      <trkpt lat="45.992502328008413" lon="9.803756168112159">
        <ele>1961.23</ele>
        <time>2017-10-08T10:45:56Z</time>
      </trkpt>
      <trkpt lat="45.99250752478838" lon="9.803776200860739">
        <ele>1961.71</ele>
        <time>2017-10-08T10:46:25Z</time>
      </trkpt>
      <trkpt lat="45.992499561980367" lon="9.803774608299136">
        <ele>1961.23</ele>
        <time>2017-10-08T10:46:48Z</time>
      </trkpt>
      <trkpt lat="45.99250559695065" lon="9.803737225010991">
        <ele>1961.71</ele>
        <time>2017-10-08T10:47:22Z</time>
      </trkpt>
      <trkpt lat="45.992498891428113" lon="9.803784750401974">
        <ele>1961.23</ele>
        <time>2017-10-08T10:47:52Z</time>
      </trkpt>
      <trkpt lat="45.992498137056828" lon="9.803779888898134">
        <ele>1961.23</ele>
        <time>2017-10-08T10:48:22Z</time>
      </trkpt>
      <trkpt lat="45.992492521181703" lon="9.803785672411323">
        <ele>1961.71</ele>
        <time>2017-10-08T10:48:48Z</time>
      </trkpt>
      <trkpt lat="45.992515403777361" lon="9.803761867806315">
        <ele>1961.71</ele>
        <time>2017-10-08T10:49:21Z</time>
      </trkpt>
      <trkpt lat="45.992518337443471" lon="9.80375281535089">
        <ele>1961.71</ele>
        <time>2017-10-08T10:49:46Z</time>
      </trkpt>
      <trkpt lat="45.992506267502904" lon="9.803765388205648">
        <ele>1961.71</ele>
        <time>2017-10-08T10:50:11Z</time>
      </trkpt>
      <trkpt lat="45.992515403777361" lon="9.803780056536198">
        <ele>1962.1900000000001</ele>
        <time>2017-10-08T10:50:44Z</time>
      </trkpt>
      <trkpt lat="45.992516493424773" lon="9.803778296336532">
        <ele>1961.71</ele>
        <time>2017-10-08T10:51:15Z</time>
      </trkpt>
      <trkpt lat="45.992504507303238" lon="9.803784834221005">
        <ele>1961.71</ele>
        <time>2017-10-08T10:51:50Z</time>
      </trkpt>
      <trkpt lat="45.992507021874189" lon="9.803789360448718">
        <ele>1961.71</ele>
        <time>2017-10-08T10:52:19Z</time>
      </trkpt>
      <trkpt lat="45.992519091814756" lon="9.803789779543877">
        <ele>1961.71</ele>
        <time>2017-10-08T10:52:48Z</time>
      </trkpt>
      <trkpt lat="45.992509787902236" lon="9.803778044879437">
        <ele>1961.71</ele>
        <time>2017-10-08T10:53:19Z</time>
      </trkpt>
      <trkpt lat="45.992508614435792" lon="9.803787600249052">
        <ele>1961.71</ele>
        <time>2017-10-08T10:53:57Z</time>
      </trkpt>
      <trkpt lat="45.992522528395057" lon="9.803785840049386">
        <ele>1961.71</ele>
        <time>2017-10-08T10:54:30Z</time>
      </trkpt>
      <trkpt lat="45.992510206997395" lon="9.803771506994963">
        <ele>1961.71</ele>
        <time>2017-10-08T10:54:59Z</time>
      </trkpt>
      <trkpt lat="45.992506267502904" lon="9.803802520036697">
        <ele>1962.1900000000001</ele>
        <time>2017-10-08T10:55:32Z</time>
      </trkpt>
      <trkpt lat="45.992506351321936" lon="9.803781816735864">
        <ele>1962.1900000000001</ele>
        <time>2017-10-08T10:56:04Z</time>
      </trkpt>
      <trkpt lat="45.992514733225107" lon="9.803775949403644">
        <ele>1962.1900000000001</ele>
        <time>2017-10-08T10:56:36Z</time>
      </trkpt>
      <trkpt lat="45.992509117349982" lon="9.80378994718194">
        <ele>1962.1900000000001</ele>
        <time>2017-10-08T10:57:09Z</time>
      </trkpt>
      <trkpt lat="45.992506099864841" lon="9.803784331306815">
        <ele>1962.1900000000001</ele>
        <time>2017-10-08T10:57:34Z</time>
      </trkpt>
      <trkpt lat="45.992507357150316" lon="9.803801346570253">
        <ele>1962.1900000000001</ele>
        <time>2017-10-08T10:58:07Z</time>
      </trkpt>
      <trkpt lat="45.992527641355991" lon="9.803785420954227">
        <ele>1962.1900000000001</ele>
        <time>2017-10-08T10:58:33Z</time>
      </trkpt>
      <trkpt lat="45.992510374635458" lon="9.803771758452058">
        <ele>1962.1900000000001</ele>
        <time>2017-10-08T10:59:03Z</time>
      </trkpt>
      <trkpt lat="45.992508614435792" lon="9.803793802857399">
        <ele>1962.1900000000001</ele>
        <time>2017-10-08T10:59:34Z</time>
      </trkpt>
      <trkpt lat="45.992512973025441" lon="9.803795479238033">
        <ele>1961.71</ele>
        <time>2017-10-08T11:00:04Z</time>
      </trkpt>
      <trkpt lat="45.992513308301568" lon="9.803789360448718">
        <ele>1961.71</ele>
        <time>2017-10-08T11:00:33Z</time>
      </trkpt>
      <trkpt lat="45.992505429312587" lon="9.803799251094461">
        <ele>1961.71</ele>
        <time>2017-10-08T11:01:01Z</time>
      </trkpt>
      <trkpt lat="45.992509787902236" lon="9.80379824526608">
        <ele>1961.71</ele>
        <time>2017-10-08T11:01:39Z</time>
      </trkpt>
      <trkpt lat="45.992506099864841" lon="9.803794054314494">
        <ele>1961.71</ele>
        <time>2017-10-08T11:02:14Z</time>
      </trkpt>
      <trkpt lat="45.992512470111251" lon="9.803784498944879">
        <ele>1961.71</ele>
        <time>2017-10-08T11:02:47Z</time>
      </trkpt>
      <trkpt lat="45.99251632578671" lon="9.803792797029018">
        <ele>1961.71</ele>
        <time>2017-10-08T11:03:18Z</time>
      </trkpt>
      <trkpt lat="45.992505010217428" lon="9.803793216124177">
        <ele>1961.71</ele>
        <time>2017-10-08T11:03:52Z</time>
      </trkpt>
      <trkpt lat="45.992510039359331" lon="9.803790869191289">
        <ele>1962.1900000000001</ele>
        <time>2017-10-08T11:04:20Z</time>
      </trkpt>
      <trkpt lat="45.992513978853822" lon="9.803780559450388">
        <ele>1962.1900000000001</ele>
        <time>2017-10-08T11:04:53Z</time>
      </trkpt>
      <trkpt lat="45.992514062672853" lon="9.803792713209987">
        <ele>1961.71</ele>
        <time>2017-10-08T11:05:23Z</time>
      </trkpt>
      <trkpt lat="45.992520935833454" lon="9.803788689896464">
        <ele>1962.1900000000001</ele>
        <time>2017-10-08T11:05:51Z</time>
      </trkpt>
      <trkpt lat="45.992511548101902" lon="9.803771926090121">
        <ele>1962.1900000000001</ele>
        <time>2017-10-08T11:06:19Z</time>
      </trkpt>
      <trkpt lat="45.9925133921206" lon="9.803784498944879">
        <ele>1961.71</ele>
        <time>2017-10-08T11:06:44Z</time>
      </trkpt>
      <trkpt lat="45.99251045845449" lon="9.803783744573593">
        <ele>1961.71</ele>
        <time>2017-10-08T11:07:17Z</time>
      </trkpt>
      <trkpt lat="45.992502998560667" lon="9.803793719038367">
        <ele>1961.71</ele>
        <time>2017-10-08T11:07:43Z</time>
      </trkpt>
      <trkpt lat="45.992488414049149" lon="9.803788773715496">
        <ele>1962.1900000000001</ele>
        <time>2017-10-08T11:08:04Z</time>
      </trkpt>
      <trkpt lat="45.992508782073855" lon="9.803795395419002">
        <ele>1962.1900000000001</ele>
        <time>2017-10-08T11:08:34Z</time>
      </trkpt>
      <trkpt lat="45.992509955540299" lon="9.803776619955897">
        <ele>1962.1900000000001</ele>
        <time>2017-10-08T11:08:59Z</time>
      </trkpt>
      <trkpt lat="45.992510123178363" lon="9.803788019344211">
        <ele>1962.1900000000001</ele>
        <time>2017-10-08T11:09:24Z</time>
      </trkpt>
      <trkpt lat="45.992520935833454" lon="9.803773267194629">
        <ele>1962.6700000000001</ele>
        <time>2017-10-08T11:09:53Z</time>
      </trkpt>
      <trkpt lat="45.992518924176693" lon="9.803761532530189">
        <ele>1962.1900000000001</ele>
        <time>2017-10-08T11:10:19Z</time>
      </trkpt>
      <trkpt lat="45.992506938055158" lon="9.803757425397635">
        <ele>1962.1900000000001</ele>
        <time>2017-10-08T11:10:47Z</time>
      </trkpt>
      <trkpt lat="45.992506351321936" lon="9.803795982152224">
        <ele>1962.1900000000001</ele>
        <time>2017-10-08T11:11:15Z</time>
      </trkpt>
      <trkpt lat="45.992508782073855" lon="9.803778044879437">
        <ele>1962.6700000000001</ele>
        <time>2017-10-08T11:11:41Z</time>
      </trkpt>
      <trkpt lat="45.992516074329615" lon="9.803785337135196">
        <ele>1962.6700000000001</ele>
        <time>2017-10-08T11:12:05Z</time>
      </trkpt>
      <trkpt lat="45.992507776245475" lon="9.80376647785306">
        <ele>1962.1900000000001</ele>
        <time>2017-10-08T11:12:33Z</time>
      </trkpt>
      <trkpt lat="45.992508279159665" lon="9.803778380155563">
        <ele>1962.1900000000001</ele>
        <time>2017-10-08T11:13:02Z</time>
      </trkpt>
      <trkpt lat="45.992515906691551" lon="9.80376061052084">
        <ele>1962.6700000000001</ele>
        <time>2017-10-08T11:13:31Z</time>
      </trkpt>
      <trkpt lat="45.992541555315256" lon="9.803776955232024">
        <ele>1962.6700000000001</ele>
        <time>2017-10-08T11:14:02Z</time>
      </trkpt>
      <trkpt lat="45.992525210604072" lon="9.803780727088451">
        <ele>1962.1900000000001</ele>
        <time>2017-10-08T11:14:22Z</time>
      </trkpt>
      <trkpt lat="45.992523534223437" lon="9.80376455001533">
        <ele>1962.1900000000001</ele>
        <time>2017-10-08T11:14:42Z</time>
      </trkpt>
      <trkpt lat="45.992511631920934" lon="9.803785337135196">
        <ele>1962.1900000000001</ele>
        <time>2017-10-08T11:15:11Z</time>
      </trkpt>
      <trkpt lat="45.992499394342303" lon="9.803780140355229">
        <ele>1962.6700000000001</ele>
        <time>2017-10-08T11:15:43Z</time>
      </trkpt>
      <trkpt lat="45.992523869499564" lon="9.803775530308485">
        <ele>1964.5899999999999</ele>
        <time>2017-10-08T11:16:10Z</time>
      </trkpt>
      <trkpt lat="45.992504004389048" lon="9.80378600768745">
        <ele>1962.6700000000001</ele>
        <time>2017-10-08T11:16:42Z</time>
      </trkpt>
      <trkpt lat="45.992501825094223" lon="9.803800089284778">
        <ele>1962.6700000000001</ele>
        <time>2017-10-08T11:17:12Z</time>
      </trkpt>
      <trkpt lat="45.992504758760333" lon="9.803802268579602">
        <ele>1963.1500000000001</ele>
        <time>2017-10-08T11:17:34Z</time>
      </trkpt>
      <trkpt lat="45.99249679595232" lon="9.803786594420672">
        <ele>1963.1500000000001</ele>
        <time>2017-10-08T11:17:54Z</time>
      </trkpt>
      <trkpt lat="45.992508279159665" lon="9.803800173103809">
        <ele>1963.1500000000001</ele>
        <time>2017-10-08T11:18:20Z</time>
      </trkpt>
      <trkpt lat="45.99249386228621" lon="9.803792545571923">
        <ele>1963.1500000000001</ele>
        <time>2017-10-08T11:18:45Z</time>
      </trkpt>
      <trkpt lat="45.992497717961669" lon="9.803791791200638">
        <ele>1963.1500000000001</ele>
        <time>2017-10-08T11:19:09Z</time>
      </trkpt>
      <trkpt lat="45.992511129006743" lon="9.803806459531188">
        <ele>1962.6700000000001</ele>
        <time>2017-10-08T11:19:24Z</time>
      </trkpt>
      <trkpt lat="45.992501238361001" lon="9.803806040436029">
        <ele>1962.6700000000001</ele>
        <time>2017-10-08T11:19:48Z</time>
      </trkpt>
      <trkpt lat="45.992497717961669" lon="9.803801095113158">
        <ele>1962.6700000000001</ele>
        <time>2017-10-08T11:20:07Z</time>
      </trkpt>
      <trkpt lat="45.992506099864841" lon="9.803806878626347">
        <ele>1962.6700000000001</ele>
        <time>2017-10-08T11:20:29Z</time>
      </trkpt>
      <trkpt lat="45.992509033530951" lon="9.80379631742835">
        <ele>1962.6700000000001</ele>
        <time>2017-10-08T11:20:58Z</time>
      </trkpt>
      <trkpt lat="45.992503920570016" lon="9.803796401247382">
        <ele>1962.6700000000001</ele>
        <time>2017-10-08T11:21:22Z</time>
      </trkpt>
      <trkpt lat="45.992507105693221" lon="9.803793970495462">
        <ele>1962.6700000000001</ele>
        <time>2017-10-08T11:21:53Z</time>
      </trkpt>
      <trkpt lat="45.99250509403646" lon="9.803812829777598">
        <ele>1963.1500000000001</ele>
        <time>2017-10-08T11:22:26Z</time>
      </trkpt>
      <trkpt lat="45.992500819265842" lon="9.803799502551556">
        <ele>1963.1500000000001</ele>
        <time>2017-10-08T11:22:48Z</time>
      </trkpt>
      <trkpt lat="45.992503333836794" lon="9.803802352398634">
        <ele>1963.1500000000001</ele>
        <time>2017-10-08T11:23:08Z</time>
      </trkpt>
      <trkpt lat="45.992509368807077" lon="9.803803861141205">
        <ele>1963.1500000000001</ele>
        <time>2017-10-08T11:23:29Z</time>
      </trkpt>
      <trkpt lat="45.992525042966008" lon="9.803798999637365">
        <ele>1963.1500000000001</ele>
        <time>2017-10-08T11:23:58Z</time>
      </trkpt>
      <trkpt lat="45.992509117349982" lon="9.803798496723175">
        <ele>1963.6300000000001</ele>
        <time>2017-10-08T11:24:32Z</time>
      </trkpt>
      <trkpt lat="45.992508782073855" lon="9.803801095113158">
        <ele>1963.6300000000001</ele>
        <time>2017-10-08T11:24:56Z</time>
      </trkpt>
      <trkpt lat="45.99251389503479" lon="9.803801346570253">
        <ele>1963.6300000000001</ele>
        <time>2017-10-08T11:25:28Z</time>
      </trkpt>
      <trkpt lat="45.992510709911585" lon="9.803816014900804">
        <ele>1963.6300000000001</ele>
        <time>2017-10-08T11:25:57Z</time>
      </trkpt>
      <trkpt lat="45.992509033530951" lon="9.803796401247382">
        <ele>1963.6300000000001</ele>
        <time>2017-10-08T11:26:11Z</time>
      </trkpt>
      <trkpt lat="45.992502579465508" lon="9.803779469802976">
        <ele>1963.6300000000001</ele>
        <time>2017-10-08T11:26:35Z</time>
      </trkpt>
      <trkpt lat="45.992499394342303" lon="9.803787851706147">
        <ele>1963.1500000000001</ele>
        <time>2017-10-08T11:26:55Z</time>
      </trkpt>
      <trkpt lat="45.992492940276861" lon="9.803800089284778">
        <ele>1963.6300000000001</ele>
        <time>2017-10-08T11:27:18Z</time>
      </trkpt>
      <trkpt lat="45.992499981075525" lon="9.803788019344211">
        <ele>1963.1500000000001</ele>
        <time>2017-10-08T11:27:32Z</time>
      </trkpt>
      <trkpt lat="45.992503417655826" lon="9.803776536136866">
        <ele>1964.5899999999999</ele>
        <time>2017-10-08T11:27:46Z</time>
      </trkpt>
      <trkpt lat="45.992505261674523" lon="9.803787432610989">
        <ele>1964.5899999999999</ele>
        <time>2017-10-08T11:27:57Z</time>
      </trkpt>
      <trkpt lat="45.992506938055158" lon="9.80379045009613">
        <ele>1964.5899999999999</ele>
        <time>2017-10-08T11:28:11Z</time>
      </trkpt>
      <trkpt lat="45.992512889206409" lon="9.803778128698468">
        <ele>1964.5899999999999</ele>
        <time>2017-10-08T11:28:21Z</time>
      </trkpt>
      <trkpt lat="45.992511296644807" lon="9.803797490894795">
        <ele>1964.5899999999999</ele>
        <time>2017-10-08T11:28:34Z</time>
      </trkpt>
      <trkpt lat="45.992509620264173" lon="9.8038075491786">
        <ele>1964.5899999999999</ele>
        <time>2017-10-08T11:28:51Z</time>
      </trkpt>
      <trkpt lat="45.992500064894557" lon="9.803799251094461">
        <ele>1964.1099999999999</ele>
        <time>2017-10-08T11:29:08Z</time>
      </trkpt>
      <trkpt lat="45.992486989125609" lon="9.803793216124177">
        <ele>1964.5899999999999</ele>
        <time>2017-10-08T11:29:22Z</time>
      </trkpt>
      <trkpt lat="45.99251045845449" lon="9.803788773715496">
        <ele>1964.5899999999999</ele>
        <time>2017-10-08T11:29:34Z</time>
      </trkpt>
      <trkpt lat="45.992502076551318" lon="9.803797071799636">
        <ele>1964.5899999999999</ele>
        <time>2017-10-08T11:29:50Z</time>
      </trkpt>
      <trkpt lat="45.992491263896227" lon="9.803773937746882">
        <ele>1964.5899999999999</ele>
        <time>2017-10-08T11:30:05Z</time>
      </trkpt>
      <trkpt lat="45.992510542273521" lon="9.80379824526608">
        <ele>1964.5899999999999</ele>
        <time>2017-10-08T11:30:21Z</time>
      </trkpt>
      <trkpt lat="45.99251439794898" lon="9.803814087063074">
        <ele>1964.5899999999999</ele>
        <time>2017-10-08T11:30:29Z</time>
      </trkpt>
      <trkpt lat="45.992495873942971" lon="9.803811321035028">
        <ele>1965.0699999999999</ele>
        <time>2017-10-08T11:30:41Z</time>
      </trkpt>
      <trkpt lat="45.992520600557327" lon="9.803791791200638">
        <ele>1965.0699999999999</ele>
        <time>2017-10-08T11:30:54Z</time>
      </trkpt>
      <trkpt lat="45.992549350485206" lon="9.803829761222005">
        <ele>1966.51</ele>
        <time>2017-10-08T11:31:14Z</time>
      </trkpt>
      <trkpt lat="45.99259159527719" lon="9.803855242207646">
        <ele>1967.48</ele>
        <time>2017-10-08T11:31:27Z</time>
      </trkpt>
      <trkpt lat="45.992623530328274" lon="9.803867982700467">
        <ele>1968.4400000000001</ele>
        <time>2017-10-08T11:31:39Z</time>
      </trkpt>
      <trkpt lat="45.992628559470177" lon="9.803872425109148">
        <ele>1968.4400000000001</ele>
        <time>2017-10-08T11:31:53Z</time>
      </trkpt>
      <trkpt lat="45.992616154253483" lon="9.803802352398634">
        <ele>1968.9200000000001</ele>
        <time>2017-10-08T11:32:02Z</time>
      </trkpt>
      <trkpt lat="45.992641132324934" lon="9.803742337971926">
        <ele>1969.4000000000001</ele>
        <time>2017-10-08T11:32:10Z</time>
      </trkpt>
      <trkpt lat="45.992650352418423" lon="9.803738733753562">
        <ele>1969.8800000000001</ele>
        <time>2017-10-08T11:32:19Z</time>
      </trkpt>
      <trkpt lat="45.992673318833113" lon="9.803747283294797">
        <ele>1969.8800000000001</ele>
        <time>2017-10-08T11:32:34Z</time>
      </trkpt>
      <trkpt lat="45.992667535319924" lon="9.803745187819004">
        <ele>1969.8800000000001</ele>
        <time>2017-10-08T11:32:37Z</time>
      </trkpt>
      <trkpt lat="45.992624368518591" lon="9.803758515045047">
        <ele>1968.9200000000001</ele>
        <time>2017-10-08T11:32:46Z</time>
      </trkpt>
      <trkpt lat="45.99262772127986" lon="9.803757425397635">
        <ele>1968.9200000000001</ele>
        <time>2017-10-08T11:33:18Z</time>
      </trkpt>
      <trkpt lat="45.992636438459158" lon="9.803750216960907">
        <ele>1968.9200000000001</ele>
        <time>2017-10-08T11:33:47Z</time>
      </trkpt>
      <trkpt lat="45.992618501186371" lon="9.80376890860498">
        <ele>1968.9200000000001</ele>
        <time>2017-10-08T11:34:17Z</time>
      </trkpt>
      <trkpt lat="45.992619171738625" lon="9.803755749017">
        <ele>1968.9200000000001</ele>
        <time>2017-10-08T11:34:49Z</time>
      </trkpt>
      <trkpt lat="45.992625877261162" lon="9.803762622177601">
        <ele>1968.4400000000001</ele>
        <time>2017-10-08T11:35:14Z</time>
      </trkpt>
      <trkpt lat="45.992646664381027" lon="9.803762203082442">
        <ele>1968.4400000000001</ele>
        <time>2017-10-08T11:35:41Z</time>
      </trkpt>
      <trkpt lat="45.992629397660494" lon="9.803751977160573">
        <ele>1969.8800000000001</ele>
        <time>2017-10-08T11:36:07Z</time>
      </trkpt>
      <trkpt lat="45.992630152031779" lon="9.803760861977935">
        <ele>1968.9200000000001</ele>
        <time>2017-10-08T11:36:31Z</time>
      </trkpt>
      <trkpt lat="45.992609448730946" lon="9.803773602470756">
        <ele>1967.96</ele>
        <time>2017-10-08T11:37:03Z</time>
      </trkpt>
      <trkpt lat="45.992636270821095" lon="9.803751306608319">
        <ele>1968.9200000000001</ele>
        <time>2017-10-08T11:37:09Z</time>
      </trkpt>
      <trkpt lat="45.992651274427772" lon="9.803753150627017">
        <ele>1969.4000000000001</ele>
        <time>2017-10-08T11:37:21Z</time>
      </trkpt>
      <trkpt lat="45.99266242235899" lon="9.803768070414662">
        <ele>1969.4000000000001</ele>
        <time>2017-10-08T11:37:31Z</time>
      </trkpt>
      <trkpt lat="45.992662338539958" lon="9.803757341578603">
        <ele>1969.8800000000001</ele>
        <time>2017-10-08T11:37:43Z</time>
      </trkpt>
      <trkpt lat="45.992663847282529" lon="9.803780391812325">
        <ele>1968.9200000000001</ele>
        <time>2017-10-08T11:37:53Z</time>
      </trkpt>
      <trkpt lat="45.992640964686871" lon="9.803807297721505">
        <ele>1970.3599999999999</ele>
        <time>2017-10-08T11:38:09Z</time>
      </trkpt>
      <trkpt lat="45.992618585005403" lon="9.803874436765909">
        <ele>1967.96</ele>
        <time>2017-10-08T11:38:20Z</time>
      </trkpt>
      <trkpt lat="45.992629397660494" lon="9.803905114531517">
        <ele>1966.51</ele>
        <time>2017-10-08T11:38:30Z</time>
      </trkpt>
      <trkpt lat="45.992641719058156" lon="9.80396194383502">
        <ele>1965.55</ele>
        <time>2017-10-08T11:38:40Z</time>
      </trkpt>
      <trkpt lat="45.99258815869689" lon="9.80403134599328">
        <ele>1964.5899999999999</ele>
        <time>2017-10-08T11:38:50Z</time>
      </trkpt>
      <trkpt lat="45.992562677711248" lon="9.804039979353547">
        <ele>1964.1099999999999</ele>
        <time>2017-10-08T11:38:55Z</time>
      </trkpt>
      <trkpt lat="45.992492185905576" lon="9.804029166698456">
        <ele>1963.1500000000001</ele>
        <time>2017-10-08T11:39:04Z</time>
      </trkpt>
      <trkpt lat="45.992440218105912" lon="9.804068729281426">
        <ele>1962.6700000000001</ele>
        <time>2017-10-08T11:39:10Z</time>
      </trkpt>
      <trkpt lat="45.992412138730288" lon="9.804082307964563">
        <ele>1962.1900000000001</ele>
        <time>2017-10-08T11:39:14Z</time>
      </trkpt>
      <trkpt lat="45.992356734350324" lon="9.804133102297783">
        <ele>1961.23</ele>
        <time>2017-10-08T11:39:23Z</time>
      </trkpt>
      <trkpt lat="45.992310466244817" lon="9.804198145866394">
        <ele>1961.23</ele>
        <time>2017-10-08T11:39:32Z</time>
      </trkpt>
      <trkpt lat="45.992279201745987" lon="9.804296968504787">
        <ele>1960.27</ele>
        <time>2017-10-08T11:39:43Z</time>
      </trkpt>
      <trkpt lat="45.992244249209762" lon="9.804413393139839">
        <ele>1959.3</ele>
        <time>2017-10-08T11:39:53Z</time>
      </trkpt>
      <trkpt lat="45.992198400199413" lon="9.804554376751185">
        <ele>1959.3</ele>
        <time>2017-10-08T11:40:04Z</time>
      </trkpt>
      <trkpt lat="45.992191443219781" lon="9.804575415328145">
        <ele>1959.3</ele>
        <time>2017-10-08T11:40:06Z</time>
      </trkpt>
      <trkpt lat="45.99217526614666" lon="9.804603243246675">
        <ele>1959.3</ele>
        <time>2017-10-08T11:40:09Z</time>
      </trkpt>
      <trkpt lat="45.992153640836477" lon="9.804724613204598">
        <ele>1959.3</ele>
        <time>2017-10-08T11:40:21Z</time>
      </trkpt>
      <trkpt lat="45.992103600874543" lon="9.804890742525458">
        <ele>1960.27</ele>
        <time>2017-10-08T11:40:35Z</time>
      </trkpt>
      <trkpt lat="45.992066469043493" lon="9.805002305656672">
        <ele>1960.27</ele>
        <time>2017-10-08T11:40:45Z</time>
      </trkpt>
      <trkpt lat="45.992059428244829" lon="9.805070366710424">
        <ele>1960.75</ele>
        <time>2017-10-08T11:40:56Z</time>
      </trkpt>
      <trkpt lat="45.992030678316951" lon="9.805196011438966">
        <ele>1960.75</ele>
        <time>2017-10-08T11:41:09Z</time>
      </trkpt>
      <trkpt lat="45.992014836519957" lon="9.805295756086707">
        <ele>1960.27</ele>
        <time>2017-10-08T11:41:20Z</time>
      </trkpt>
      <trkpt lat="45.991987260058522" lon="9.80544445104897">
        <ele>1960.75</ele>
        <time>2017-10-08T11:41:33Z</time>
      </trkpt>
      <trkpt lat="45.991966975852847" lon="9.805519720539451">
        <ele>1960.75</ele>
        <time>2017-10-08T11:41:44Z</time>
      </trkpt>
      <trkpt lat="45.99196907132864" lon="9.805549560114741">
        <ele>1960.75</ele>
        <time>2017-10-08T11:41:59Z</time>
      </trkpt>
      <trkpt lat="45.991980638355017" lon="9.805703032761812">
        <ele>1962.1900000000001</ele>
        <time>2017-10-08T11:42:11Z</time>
      </trkpt>
      <trkpt lat="45.991969406604767" lon="9.805789031088352">
        <ele>1960.75</ele>
        <time>2017-10-08T11:42:18Z</time>
      </trkpt>
      <trkpt lat="45.991967394948006" lon="9.805921129882336">
        <ele>1960.75</ele>
        <time>2017-10-08T11:42:28Z</time>
      </trkpt>
      <trkpt lat="45.991967059671879" lon="9.806051133200526">
        <ele>1961.23</ele>
        <time>2017-10-08T11:42:37Z</time>
      </trkpt>
      <trkpt lat="45.991974351927638" lon="9.806204438209534">
        <ele>1960.75</ele>
        <time>2017-10-08T11:42:48Z</time>
      </trkpt>
      <trkpt lat="45.991996647790074" lon="9.806378027424216">
        <ele>1960.75</ele>
        <time>2017-10-08T11:43:00Z</time>
      </trkpt>
      <trkpt lat="45.991998491808772" lon="9.80640359222889">
        <ele>1960.27</ele>
        <time>2017-10-08T11:43:02Z</time>
      </trkpt>
      <trkpt lat="45.991994636133313" lon="9.806480035185814">
        <ele>1960.75</ele>
        <time>2017-10-08T11:43:12Z</time>
      </trkpt>
      <trkpt lat="45.992025397717953" lon="9.806593526154757">
        <ele>1960.75</ele>
        <time>2017-10-08T11:43:21Z</time>
      </trkpt>
      <trkpt lat="45.992071582004428" lon="9.806788908317685">
        <ele>1960.75</ele>
        <time>2017-10-08T11:43:35Z</time>
      </trkpt>
      <trkpt lat="45.992107121273875" lon="9.806946739554405">
        <ele>1960.75</ele>
        <time>2017-10-08T11:43:46Z</time>
      </trkpt>
      <trkpt lat="45.992150204256177" lon="9.807102391496301">
        <ele>1960.75</ele>
        <time>2017-10-08T11:43:58Z</time>
      </trkpt>
      <trkpt lat="45.992179708555341" lon="9.807188054546714">
        <ele>1960.75</ele>
        <time>2017-10-08T11:44:08Z</time>
      </trkpt>
      <trkpt lat="45.992199741303921" lon="9.807248990982771">
        <ele>1960.75</ele>
        <time>2017-10-08T11:44:17Z</time>
      </trkpt>
      <trkpt lat="45.992234107106924" lon="9.807320991531014">
        <ele>1960.27</ele>
        <time>2017-10-08T11:44:24Z</time>
      </trkpt>
      <trkpt lat="45.992276016622782" lon="9.807400284335017">
        <ele>1958.8199999999999</ele>
        <time>2017-10-08T11:44:30Z</time>
      </trkpt>
      <trkpt lat="45.992329828441143" lon="9.807321410626173">
        <ele>1959.3</ele>
        <time>2017-10-08T11:44:41Z</time>
      </trkpt>
      <trkpt lat="45.992398224771023" lon="9.80719517916441">
        <ele>1955.9400000000001</ele>
        <time>2017-10-08T11:44:53Z</time>
      </trkpt>
      <trkpt lat="45.992393950000405" lon="9.807156203314662">
        <ele>1955.46</ele>
        <time>2017-10-08T11:45:02Z</time>
      </trkpt>
      <trkpt lat="45.992440385743976" lon="9.807142540812492">
        <ele>1954.98</ele>
        <time>2017-10-08T11:45:11Z</time>
      </trkpt>
      <trkpt lat="45.992462178692222" lon="9.807142959907651">
        <ele>1954.5</ele>
        <time>2017-10-08T11:45:13Z</time>
      </trkpt>
      <trkpt lat="45.992488749325275" lon="9.80712435208261">
        <ele>1954.02</ele>
        <time>2017-10-08T11:45:16Z</time>
      </trkpt>
      <trkpt lat="45.992547087371349" lon="9.807123430073261">
        <ele>1954.5</ele>
        <time>2017-10-08T11:45:26Z</time>
      </trkpt>
      <trkpt lat="45.992595534771681" lon="9.80707447975874">
        <ele>1954.02</ele>
        <time>2017-10-08T11:45:36Z</time>
      </trkpt>
      <trkpt lat="45.992635935544968" lon="9.80710037983954">
        <ele>1954.02</ele>
        <time>2017-10-08T11:45:44Z</time>
      </trkpt>
      <trkpt lat="45.99273526109755" lon="9.807050339877605">
        <ele>1954.5</ele>
        <time>2017-10-08T11:45:53Z</time>
      </trkpt>
      <trkpt lat="45.992880435660481" lon="9.806947242468596">
        <ele>1954.5</ele>
        <time>2017-10-08T11:46:07Z</time>
      </trkpt>
      <trkpt lat="45.992907006293535" lon="9.806943386793137">
        <ele>1955.46</ele>
        <time>2017-10-08T11:46:16Z</time>
      </trkpt>
      <trkpt lat="45.992921004071832" lon="9.806968532502651">
        <ele>1954.98</ele>
        <time>2017-10-08T11:46:23Z</time>
      </trkpt>
      <trkpt lat="45.992942964658141" lon="9.806965766474605">
        <ele>1954.98</ele>
        <time>2017-10-08T11:46:25Z</time>
      </trkpt>
      <trkpt lat="45.993024688214064" lon="9.806928802281618">
        <ele>1955.46</ele>
        <time>2017-10-08T11:46:32Z</time>
      </trkpt>
      <trkpt lat="45.99315251223743" lon="9.80688538402319">
        <ele>1955.46</ele>
        <time>2017-10-08T11:46:44Z</time>
      </trkpt>
      <trkpt lat="45.993257202208042" lon="9.806899717077613">
        <ele>1954.98</ele>
        <time>2017-10-08T11:46:53Z</time>
      </trkpt>
      <trkpt lat="45.993399359285831" lon="9.806995522230864">
        <ele>1954.5</ele>
        <time>2017-10-08T11:47:06Z</time>
      </trkpt>
      <trkpt lat="45.993521232157946" lon="9.807079844176769">
        <ele>1954.02</ele>
        <time>2017-10-08T11:47:19Z</time>
      </trkpt>
      <trkpt lat="45.993573870509863" lon="9.807134913280606">
        <ele>1954.02</ele>
        <time>2017-10-08T11:47:26Z</time>
      </trkpt>
      <trkpt lat="45.993668921291828" lon="9.807268269360066">
        <ele>1954.5</ele>
        <time>2017-10-08T11:47:39Z</time>
      </trkpt>
      <trkpt lat="45.993740418925881" lon="9.807263156399131">
        <ele>1954.98</ele>
        <time>2017-10-08T11:47:47Z</time>
      </trkpt>
      <trkpt lat="45.993829183280468" lon="9.807182438671589">
        <ele>1954.02</ele>
        <time>2017-10-08T11:47:57Z</time>
      </trkpt>
      <trkpt lat="45.993976956233382" lon="9.807111192494631">
        <ele>1952.5699999999999</ele>
        <time>2017-10-08T11:48:11Z</time>
      </trkpt>
      <trkpt lat="45.994111485779285" lon="9.807159891352058">
        <ele>1951.6099999999999</ele>
        <time>2017-10-08T11:48:22Z</time>
      </trkpt>
      <trkpt lat="45.994236124679446" lon="9.807250080630183">
        <ele>1951.1300000000001</ele>
        <time>2017-10-08T11:48:33Z</time>
      </trkpt>
      <trkpt lat="45.994365960359573" lon="9.807355357334018">
        <ele>1951.1300000000001</ele>
        <time>2017-10-08T11:48:45Z</time>
      </trkpt>
      <trkpt lat="45.994408037513494" lon="9.807419311255217">
        <ele>1951.1300000000001</ele>
        <time>2017-10-08T11:48:50Z</time>
      </trkpt>
      <trkpt lat="45.994396973401308" lon="9.807626511901617">
        <ele>1950.6500000000001</ele>
        <time>2017-10-08T11:49:03Z</time>
      </trkpt>
      <trkpt lat="45.994368307292461" lon="9.807741176337004">
        <ele>1950.1700000000001</ele>
        <time>2017-10-08T11:49:10Z</time>
      </trkpt>
      <trkpt lat="45.994332851842046" lon="9.807885512709618">
        <ele>1949.6900000000001</ele>
        <time>2017-10-08T11:49:21Z</time>
      </trkpt>
      <trkpt lat="45.994362607598305" lon="9.80798190459609">
        <ele>1949.21</ele>
        <time>2017-10-08T11:49:32Z</time>
      </trkpt>
      <trkpt lat="45.994370570406318" lon="9.807983245700598">
        <ele>1949.21</ele>
        <time>2017-10-08T11:49:33Z</time>
      </trkpt>
      <trkpt lat="45.994365708902478" lon="9.808019371703267">
        <ele>1949.21</ele>
        <time>2017-10-08T11:49:44Z</time>
      </trkpt>
      <trkpt lat="45.994399571791291" lon="9.80805809609592">
        <ele>1949.6900000000001</ele>
        <time>2017-10-08T11:49:57Z</time>
      </trkpt>
      <trkpt lat="45.994390100240707" lon="9.808265548199415">
        <ele>1949.6900000000001</ele>
        <time>2017-10-08T11:50:09Z</time>
      </trkpt>
      <trkpt lat="45.99438582547009" lon="9.808301506564021">
        <ele>1950.1700000000001</ele>
        <time>2017-10-08T11:50:11Z</time>
      </trkpt>
      <trkpt lat="45.994469979777932" lon="9.808455063030124">
        <ele>1949.21</ele>
        <time>2017-10-08T11:50:24Z</time>
      </trkpt>
      <trkpt lat="45.994613645598292" lon="9.808554723858833">
        <ele>1949.6900000000001</ele>
        <time>2017-10-08T11:50:37Z</time>
      </trkpt>
      <trkpt lat="45.994735853746533" lon="9.808694366365671">
        <ele>1949.21</ele>
        <time>2017-10-08T11:50:50Z</time>
      </trkpt>
      <trkpt lat="45.994812799617648" lon="9.808914391323924">
        <ele>1949.21</ele>
        <time>2017-10-08T11:51:04Z</time>
      </trkpt>
      <trkpt lat="45.994815481826663" lon="9.808947751298547">
        <ele>1948.73</ele>
        <time>2017-10-08T11:51:06Z</time>
      </trkpt>
      <trkpt lat="45.994825540110469" lon="9.808976165950298">
        <ele>1948.73</ele>
        <time>2017-10-08T11:51:08Z</time>
      </trkpt>
      <trkpt lat="45.994918998330832" lon="9.809155287221074">
        <ele>1948.25</ele>
        <time>2017-10-08T11:51:21Z</time>
      </trkpt>
      <trkpt lat="45.995033830404282" lon="9.809314794838429">
        <ele>1947.77</ele>
        <time>2017-10-08T11:51:35Z</time>
      </trkpt>
      <trkpt lat="45.995142040774226" lon="9.809422669932246">
        <ele>1947.77</ele>
        <time>2017-10-08T11:51:47Z</time>
      </trkpt>
      <trkpt lat="45.995236672461033" lon="9.809540351852775">
        <ele>1948.25</ele>
        <time>2017-10-08T11:51:59Z</time>
      </trkpt>
      <trkpt lat="45.995313115417957" lon="9.809635821729899">
        <ele>1948.73</ele>
        <time>2017-10-08T11:52:08Z</time>
      </trkpt>
      <trkpt lat="45.995376901701093" lon="9.809736823663116">
        <ele>1949.21</ele>
        <time>2017-10-08T11:52:19Z</time>
      </trkpt>
      <trkpt lat="45.99542367272079" lon="9.809776805341244">
        <ele>1950.1700000000001</ele>
        <time>2017-10-08T11:52:27Z</time>
      </trkpt>
      <trkpt lat="45.995474383234978" lon="9.809806225821376">
        <ele>1950.1700000000001</ele>
        <time>2017-10-08T11:52:34Z</time>
      </trkpt>
      <trkpt lat="45.995496595278382" lon="9.809814943000674">
        <ele>1950.6500000000001</ele>
        <time>2017-10-08T11:52:37Z</time>
      </trkpt>
      <trkpt lat="45.995563818141818" lon="9.809827683493495">
        <ele>1951.1300000000001</ele>
        <time>2017-10-08T11:52:45Z</time>
      </trkpt>
      <trkpt lat="45.995641183108091" lon="9.809848973527551">
        <ele>1951.6099999999999</ele>
        <time>2017-10-08T11:52:54Z</time>
      </trkpt>
      <trkpt lat="45.995716787874699" lon="9.809865150600672">
        <ele>1952.5699999999999</ele>
        <time>2017-10-08T11:53:02Z</time>
      </trkpt>
      <trkpt lat="45.995798259973526" lon="9.809862971305847">
        <ele>1954.02</ele>
        <time>2017-10-08T11:53:12Z</time>
      </trkpt>
      <trkpt lat="45.995829189196229" lon="9.809867581352592">
        <ele>1954.5</ele>
        <time>2017-10-08T11:53:16Z</time>
      </trkpt>
      <trkpt lat="45.995907727628946" lon="9.809889458119869">
        <ele>1955.9400000000001</ele>
        <time>2017-10-08T11:53:25Z</time>
      </trkpt>
      <trkpt lat="45.995964473113418" lon="9.809912173077464">
        <ele>1957.3800000000001</ele>
        <time>2017-10-08T11:53:32Z</time>
      </trkpt>
      <trkpt lat="45.996032450348139" lon="9.809972019866109">
        <ele>1957.8599999999999</ele>
        <time>2017-10-08T11:53:40Z</time>
      </trkpt>
      <trkpt lat="45.996081652119756" lon="9.810080733150244">
        <ele>1958.8199999999999</ele>
        <time>2017-10-08T11:53:50Z</time>
      </trkpt>
      <trkpt lat="45.996083077043295" lon="9.810159271582961">
        <ele>1959.3</ele>
        <time>2017-10-08T11:53:59Z</time>
      </trkpt>
      <trkpt lat="45.99607503041625" lon="9.810158433392644">
        <ele>1959.78</ele>
        <time>2017-10-08T11:54:00Z</time>
      </trkpt>
      <trkpt lat="45.996025325730443" lon="9.810066148638725">
        <ele>1961.23</ele>
        <time>2017-10-08T11:54:10Z</time>
      </trkpt>
      <trkpt lat="45.99600805900991" lon="9.81008886359632">
        <ele>1961.71</ele>
        <time>2017-10-08T11:54:14Z</time>
      </trkpt>
      <trkpt lat="45.9960119985044" lon="9.81017092242837">
        <ele>1963.6300000000001</ele>
        <time>2017-10-08T11:54:24Z</time>
      </trkpt>
      <trkpt lat="45.996021050959826" lon="9.810196487233043">
        <ele>1963.6300000000001</ele>
        <time>2017-10-08T11:54:27Z</time>
      </trkpt>
      <trkpt lat="45.996024738997221" lon="9.810238815844059">
        <ele>1964.5899999999999</ele>
        <time>2017-10-08T11:54:31Z</time>
      </trkpt>
      <trkpt lat="45.99605399183929" lon="9.810295226052404">
        <ele>1965.0699999999999</ele>
        <time>2017-10-08T11:54:37Z</time>
      </trkpt>
      <trkpt lat="45.996065139770508" lon="9.810408549383283">
        <ele>1965.0699999999999</ele>
        <time>2017-10-08T11:54:46Z</time>
      </trkpt>
      <trkpt lat="45.996086848899722" lon="9.810502678155899">
        <ele>1965.55</ele>
        <time>2017-10-08T11:54:55Z</time>
      </trkpt>
      <trkpt lat="45.996109563857317" lon="9.810607871040702">
        <ele>1966.51</ele>
        <time>2017-10-08T11:55:04Z</time>
      </trkpt>
      <trkpt lat="45.996110904961824" lon="9.8107357788831">
        <ele>1967.48</ele>
        <time>2017-10-08T11:55:15Z</time>
      </trkpt>
      <trkpt lat="45.996137140318751" lon="9.810812054201961">
        <ele>1968.9200000000001</ele>
        <time>2017-10-08T11:55:22Z</time>
      </trkpt>
      <trkpt lat="45.996146611869335" lon="9.810949433594942">
        <ele>1969.8800000000001</ele>
        <time>2017-10-08T11:55:33Z</time>
      </trkpt>
      <trkpt lat="45.996152479201555" lon="9.811059571802616">
        <ele>1970.8399999999999</ele>
        <time>2017-10-08T11:55:43Z</time>
      </trkpt>
      <trkpt lat="45.996161615476012" lon="9.81118144467473">
        <ele>1972.76</ele>
        <time>2017-10-08T11:55:53Z</time>
      </trkpt>
      <trkpt lat="45.996171170845628" lon="9.811250092461705">
        <ele>1973.24</ele>
        <time>2017-10-08T11:55:58Z</time>
      </trkpt>
      <trkpt lat="45.99614686332643" lon="9.811378754675388">
        <ele>1974.6900000000001</ele>
        <time>2017-10-08T11:56:09Z</time>
      </trkpt>
      <trkpt lat="45.996121801435947" lon="9.811483444646001">
        <ele>1975.1700000000001</ele>
        <time>2017-10-08T11:56:18Z</time>
      </trkpt>
      <trkpt lat="45.996097661554813" lon="9.811610095202923">
        <ele>1977.0899999999999</ele>
        <time>2017-10-08T11:56:29Z</time>
      </trkpt>
      <trkpt lat="45.996109144762158" lon="9.811740182340145">
        <ele>1978.53</ele>
        <time>2017-10-08T11:56:40Z</time>
      </trkpt>
      <trkpt lat="45.996126495301723" lon="9.811771446838975">
        <ele>1978.53</ele>
        <time>2017-10-08T11:56:44Z</time>
      </trkpt>
      <trkpt lat="45.996190113946795" lon="9.811866078525782">
        <ele>1980.45</ele>
        <time>2017-10-08T11:56:56Z</time>
      </trkpt>
      <trkpt lat="45.996228167787194" lon="9.812007732689381">
        <ele>1981.4100000000001</ele>
        <time>2017-10-08T11:57:08Z</time>
      </trkpt>
      <trkpt lat="45.996218277141452" lon="9.812160702422261">
        <ele>1981.9000000000001</ele>
        <time>2017-10-08T11:57:20Z</time>
      </trkpt>
      <trkpt lat="45.99619715474546" lon="9.812284419313073">
        <ele>1981.9000000000001</ele>
        <time>2017-10-08T11:57:32Z</time>
      </trkpt>
      <trkpt lat="45.996182151138783" lon="9.812395395711064">
        <ele>1984.3</ele>
        <time>2017-10-08T11:57:42Z</time>
      </trkpt>
      <trkpt lat="45.996199082583189" lon="9.812529589980841">
        <ele>1985.26</ele>
        <time>2017-10-08T11:57:53Z</time>
      </trkpt>
      <trkpt lat="45.996225820854306" lon="9.81265121139586">
        <ele>1986.7</ele>
        <time>2017-10-08T11:58:04Z</time>
      </trkpt>
      <trkpt lat="45.99627192132175" lon="9.812759505584836">
        <ele>1988.1400000000001</ele>
        <time>2017-10-08T11:58:15Z</time>
      </trkpt>
      <trkpt lat="45.996295474469662" lon="9.812879618257284">
        <ele>1989.0999999999999</ele>
        <time>2017-10-08T11:58:26Z</time>
      </trkpt>
      <trkpt lat="45.996293798089027" lon="9.813034599646926">
        <ele>1990.55</ele>
        <time>2017-10-08T11:58:39Z</time>
      </trkpt>
      <trkpt lat="45.996290193870664" lon="9.813063517212868">
        <ele>1990.55</ele>
        <time>2017-10-08T11:58:42Z</time>
      </trkpt>
      <trkpt lat="45.99627829156816" lon="9.813213301822543">
        <ele>1991.99</ele>
        <time>2017-10-08T11:58:55Z</time>
      </trkpt>
      <trkpt lat="45.996274519711733" lon="9.813320674002171">
        <ele>1992.95</ele>
        <time>2017-10-08T11:59:06Z</time>
      </trkpt>
      <trkpt lat="45.996323553845286" lon="9.813444390892983">
        <ele>1993.4300000000001</ele>
        <time>2017-10-08T11:59:19Z</time>
      </trkpt>
      <trkpt lat="45.996399074792862" lon="9.813505411148071">
        <ele>1994.8699999999999</ele>
        <time>2017-10-08T11:59:32Z</time>
      </trkpt>
      <trkpt lat="45.996404523029923" lon="9.81350289657712">
        <ele>1995.3499999999999</ele>
        <time>2017-10-08T11:59:43Z</time>
      </trkpt>
      <trkpt lat="45.996488928794861" lon="9.81359769590199">
        <ele>1996.8</ele>
        <time>2017-10-08T11:59:55Z</time>
      </trkpt>
      <trkpt lat="45.996538046747446" lon="9.813697021454573">
        <ele>1998.24</ele>
        <time>2017-10-08T12:00:05Z</time>
      </trkpt>
      <trkpt lat="45.996564030647278" lon="9.813798358663917">
        <ele>1999.2</ele>
        <time>2017-10-08T12:00:14Z</time>
      </trkpt>
      <trkpt lat="45.996586913242936" lon="9.813906652852893">
        <ele>2000.6400000000001</ele>
        <time>2017-10-08T12:00:24Z</time>
      </trkpt>
      <trkpt lat="45.996586661785841" lon="9.813942024484277">
        <ele>2000.6400000000001</ele>
        <time>2017-10-08T12:00:27Z</time>
      </trkpt>
      <trkpt lat="45.996621195226908" lon="9.814071105793119">
        <ele>2001.5999999999999</ele>
        <time>2017-10-08T12:00:39Z</time>
      </trkpt>
      <trkpt lat="45.99668238312006" lon="9.814179232344031">
        <ele>2002.5599999999999</ele>
        <time>2017-10-08T12:00:51Z</time>
      </trkpt>
      <trkpt lat="45.996685735881329" lon="9.814191302284598">
        <ele>2002.5599999999999</ele>
        <time>2017-10-08T12:00:52Z</time>
      </trkpt>
      <trkpt lat="45.996739631518722" lon="9.814251819625497">
        <ele>2004.01</ele>
        <time>2017-10-08T12:01:02Z</time>
      </trkpt>
      <trkpt lat="45.996787156909704" lon="9.814308732748032">
        <ele>2004.49</ele>
        <time>2017-10-08T12:01:12Z</time>
      </trkpt>
      <trkpt lat="45.996852032840252" lon="9.814370842650533">
        <ele>2005.9300000000001</ele>
        <time>2017-10-08T12:01:23Z</time>
      </trkpt>
      <trkpt lat="45.996857481077313" lon="9.814378386363387">
        <ele>2005.9300000000001</ele>
        <time>2017-10-08T12:01:24Z</time>
      </trkpt>
      <trkpt lat="45.996890673413873" lon="9.814456673339009">
        <ele>2006.8900000000001</ele>
        <time>2017-10-08T12:01:32Z</time>
      </trkpt>
      <trkpt lat="45.996940545737743" lon="9.814503863453865">
        <ele>2007.3699999999999</ele>
        <time>2017-10-08T12:01:41Z</time>
      </trkpt>
      <trkpt lat="45.996990837156773" lon="9.814517023041844">
        <ele>2008.8099999999999</ele>
        <time>2017-10-08T12:01:51Z</time>
      </trkpt>
      <trkpt lat="45.997064094990492" lon="9.814575193449855">
        <ele>2010.73</ele>
        <time>2017-10-08T12:02:03Z</time>
      </trkpt>
      <trkpt lat="45.997146321460605" lon="9.814614756032825">
        <ele>2012.6600000000001</ele>
        <time>2017-10-08T12:02:16Z</time>
      </trkpt>
      <trkpt lat="45.997220166027546" lon="9.814683822914958">
        <ele>2013.6199999999999</ele>
        <time>2017-10-08T12:02:29Z</time>
      </trkpt>
      <trkpt lat="45.997286969795823" lon="9.814792536199093">
        <ele>2014.5799999999999</ele>
        <time>2017-10-08T12:02:41Z</time>
      </trkpt>
      <trkpt lat="45.997312618419528" lon="9.814860932528973">
        <ele>2015.54</ele>
        <time>2017-10-08T12:02:50Z</time>
      </trkpt>
      <trkpt lat="45.997368022799492" lon="9.814943494275212">
        <ele>2016.02</ele>
        <time>2017-10-08T12:02:59Z</time>
      </trkpt>
      <trkpt lat="45.997412614524364" lon="9.815022367984057">
        <ele>2016.98</ele>
        <time>2017-10-08T12:03:08Z</time>
      </trkpt>
      <trkpt lat="45.997474556788802" lon="9.815077604725957">
        <ele>2017.9400000000001</ele>
        <time>2017-10-08T12:03:18Z</time>
      </trkpt>
      <trkpt lat="45.997541695833206" lon="9.815155891701579">
        <ele>2019.3900000000001</ele>
        <time>2017-10-08T12:03:28Z</time>
      </trkpt>
      <trkpt lat="45.997557705268264" lon="9.815261252224445">
        <ele>2020.3499999999999</ele>
        <time>2017-10-08T12:03:36Z</time>
      </trkpt>
      <trkpt lat="45.997569272294641" lon="9.815349010750651">
        <ele>2021.3099999999999</ele>
        <time>2017-10-08T12:03:45Z</time>
      </trkpt>
      <trkpt lat="45.997563321143389" lon="9.815470883622766">
        <ele>2022.27</ele>
        <time>2017-10-08T12:03:55Z</time>
      </trkpt>
      <trkpt lat="45.997559549286962" lon="9.815536681562662">
        <ele>2022.75</ele>
        <time>2017-10-08T12:04:00Z</time>
      </trkpt>
      <trkpt lat="45.997538259252906" lon="9.815652687102556">
        <ele>2023.71</ele>
        <time>2017-10-08T12:04:09Z</time>
      </trkpt>
      <trkpt lat="45.997531218454242" lon="9.815732063725591">
        <ele>2024.1900000000001</ele>
        <time>2017-10-08T12:04:16Z</time>
      </trkpt>
      <trkpt lat="45.997515628114343" lon="9.815880004316568">
        <ele>2025.1500000000001</ele>
        <time>2017-10-08T12:04:29Z</time>
      </trkpt>
      <trkpt lat="45.997491739690304" lon="9.815993160009384">
        <ele>2026.1199999999999</ele>
        <time>2017-10-08T12:04:38Z</time>
      </trkpt>
      <trkpt lat="45.997468773275614" lon="9.816085612401366">
        <ele>2027.0799999999999</ele>
        <time>2017-10-08T12:04:48Z</time>
      </trkpt>
      <trkpt lat="45.997457792982459" lon="9.816162893548608">
        <ele>2028.04</ele>
        <time>2017-10-08T12:04:55Z</time>
      </trkpt>
      <trkpt lat="45.997440693899989" lon="9.816252160817385">
        <ele>2028.52</ele>
        <time>2017-10-08T12:05:04Z</time>
      </trkpt>
      <trkpt lat="45.997404651716352" lon="9.816393814980984">
        <ele>2029.96</ele>
        <time>2017-10-08T12:05:16Z</time>
      </trkpt>
      <trkpt lat="45.997383445501328" lon="9.816517280414701">
        <ele>2030.4400000000001</ele>
        <time>2017-10-08T12:05:27Z</time>
      </trkpt>
      <trkpt lat="45.997353354468942" lon="9.81662180274725">
        <ele>2030.9200000000001</ele>
        <time>2017-10-08T12:05:37Z</time>
      </trkpt>
      <trkpt lat="45.997333656996489" lon="9.816723139956594">
        <ele>2032.3599999999999</ele>
        <time>2017-10-08T12:05:47Z</time>
      </trkpt>
      <trkpt lat="45.997332399711013" lon="9.816758176311851">
        <ele>2032.8399999999999</ele>
        <time>2017-10-08T12:05:57Z</time>
      </trkpt>
      <trkpt lat="45.997303817421198" lon="9.816816262900829">
        <ele>2032.8399999999999</ele>
        <time>2017-10-08T12:06:05Z</time>
      </trkpt>
      <trkpt lat="45.997277749702334" lon="9.816928831860423">
        <ele>2033.8099999999999</ele>
        <time>2017-10-08T12:06:15Z</time>
      </trkpt>
      <trkpt lat="45.997264087200165" lon="9.816962443292141">
        <ele>2034.29</ele>
        <time>2017-10-08T12:06:18Z</time>
      </trkpt>
      <trkpt lat="45.997258890420198" lon="9.816994797438383">
        <ele>2034.29</ele>
        <time>2017-10-08T12:06:21Z</time>
      </trkpt>
      <trkpt lat="45.997238354757428" lon="9.817047938704491">
        <ele>2034.77</ele>
        <time>2017-10-08T12:06:26Z</time>
      </trkpt>
      <trkpt lat="45.997232235968113" lon="9.817076940089464">
        <ele>2034.77</ele>
        <time>2017-10-08T12:06:28Z</time>
      </trkpt>
      <trkpt lat="45.997226452454925" lon="9.817210715264082">
        <ele>2035.25</ele>
        <time>2017-10-08T12:06:38Z</time>
      </trkpt>
      <trkpt lat="45.9972501732409" lon="9.817373910918832">
        <ele>2035.73</ele>
        <time>2017-10-08T12:06:50Z</time>
      </trkpt>
      <trkpt lat="45.997236426919699" lon="9.817464435473084">
        <ele>2036.21</ele>
        <time>2017-10-08T12:06:58Z</time>
      </trkpt>
      <trkpt lat="45.997234331443906" lon="9.817475583404303">
        <ele>2036.6900000000001</ele>
        <time>2017-10-08T12:06:59Z</time>
      </trkpt>
      <trkpt lat="45.997173897922039" lon="9.817577172070742">
        <ele>2037.6500000000001</ele>
        <time>2017-10-08T12:07:10Z</time>
      </trkpt>
      <trkpt lat="45.997175155207515" lon="9.817663421854377">
        <ele>2038.6099999999999</ele>
        <time>2017-10-08T12:07:20Z</time>
      </trkpt>
      <trkpt lat="45.997195104137063" lon="9.817679347470403">
        <ele>2039.0899999999999</ele>
        <time>2017-10-08T12:07:30Z</time>
      </trkpt>
      <trkpt lat="45.997185297310352" lon="9.817762579768896">
        <ele>2040.54</ele>
        <time>2017-10-08T12:07:40Z</time>
      </trkpt>
      <trkpt lat="45.997197702527046" lon="9.817853523418307">
        <ele>2041.98</ele>
        <time>2017-10-08T12:07:50Z</time>
      </trkpt>
      <trkpt lat="45.997205497696996" lon="9.817934995517135">
        <ele>2044.3800000000001</ele>
        <time>2017-10-08T12:07:59Z</time>
      </trkpt>
      <trkpt lat="45.997211197391152" lon="9.817989310249686">
        <ele>2045.8199999999999</ele>
        <time>2017-10-08T12:08:07Z</time>
      </trkpt>
      <trkpt lat="45.997233241796494" lon="9.818022921681404">
        <ele>2047.26</ele>
        <time>2017-10-08T12:08:16Z</time>
      </trkpt>
      <trkpt lat="45.997255789116025" lon="9.818060556426644">
        <ele>2048.71</ele>
        <time>2017-10-08T12:08:26Z</time>
      </trkpt>
      <trkpt lat="45.997288143262267" lon="9.818116463720799">
        <ele>2050.1500000000001</ele>
        <time>2017-10-08T12:08:36Z</time>
      </trkpt>
      <trkpt lat="45.997318485751748" lon="9.818151667714119">
        <ele>2050.6300000000001</ele>
        <time>2017-10-08T12:08:46Z</time>
      </trkpt>
      <trkpt lat="45.997300548478961" lon="9.818104980513454">
        <ele>2050.1500000000001</ele>
        <time>2017-10-08T12:09:02Z</time>
      </trkpt>
      <trkpt lat="45.997314713895321" lon="9.818070866167545">
        <ele>2050.1500000000001</ele>
        <time>2017-10-08T12:09:12Z</time>
      </trkpt>
      <trkpt lat="45.997350420802832" lon="9.818075057119131">
        <ele>2050.1500000000001</ele>
        <time>2017-10-08T12:09:28Z</time>
      </trkpt>
      <trkpt lat="45.997369196265936" lon="9.81807941570878">
        <ele>2049.6700000000001</ele>
        <time>2017-10-08T12:09:42Z</time>
      </trkpt>
      <trkpt lat="45.99736550822854" lon="9.818070530891419">
        <ele>2050.1500000000001</ele>
        <time>2017-10-08T12:09:57Z</time>
      </trkpt>
      <trkpt lat="45.997397862374783" lon="9.818051252514124">
        <ele>2050.1500000000001</ele>
        <time>2017-10-08T12:10:07Z</time>
      </trkpt>
      <trkpt lat="45.99743977189064" lon="9.818085031583905">
        <ele>2050.6300000000001</ele>
        <time>2017-10-08T12:10:17Z</time>
      </trkpt>
      <trkpt lat="45.99747103638947" lon="9.818052677437663">
        <ele>2050.1500000000001</ele>
        <time>2017-10-08T12:10:26Z</time>
      </trkpt>
      <trkpt lat="45.997497020289302" lon="9.818033734336495">
        <ele>2050.6300000000001</ele>
        <time>2017-10-08T12:10:29Z</time>
      </trkpt>
      <trkpt lat="45.997565248981118" lon="9.817990399897099">
        <ele>2050.1500000000001</ele>
        <time>2017-10-08T12:10:37Z</time>
      </trkpt>
      <trkpt lat="45.997646134346724" lon="9.817954357713461">
        <ele>2050.1500000000001</ele>
        <time>2017-10-08T12:10:47Z</time>
      </trkpt>
      <trkpt lat="45.997688043862581" lon="9.818093748763204">
        <ele>2050.1500000000001</ele>
        <time>2017-10-08T12:10:58Z</time>
      </trkpt>
      <trkpt lat="45.997724588960409" lon="9.818213190883398">
        <ele>2050.1500000000001</ele>
        <time>2017-10-08T12:11:09Z</time>
      </trkpt>
      <trkpt lat="45.997801534831524" lon="9.818345960229635">
        <ele>2050.1500000000001</ele>
        <time>2017-10-08T12:11:21Z</time>
      </trkpt>
      <trkpt lat="45.997863141819835" lon="9.818455930799246">
        <ele>2050.6300000000001</ele>
        <time>2017-10-08T12:11:31Z</time>
      </trkpt>
      <trkpt lat="45.997966909781098" lon="9.818575289100409">
        <ele>2050.1500000000001</ele>
        <time>2017-10-08T12:11:44Z</time>
      </trkpt>
      <trkpt lat="45.99806766025722" lon="9.818638823926449">
        <ele>2050.1500000000001</ele>
        <time>2017-10-08T12:11:56Z</time>
      </trkpt>
      <trkpt lat="45.998165812343359" lon="9.818693809211254">
        <ele>2049.6700000000001</ele>
        <time>2017-10-08T12:12:07Z</time>
      </trkpt>
      <trkpt lat="45.998313333839178" lon="9.818729935213924">
        <ele>2050.1500000000001</ele>
        <time>2017-10-08T12:12:21Z</time>
      </trkpt>
      <trkpt lat="45.998466555029154" lon="9.81873320415616">
        <ele>2049.6700000000001</ele>
        <time>2017-10-08T12:12:35Z</time>
      </trkpt>
      <trkpt lat="45.998508129268885" lon="9.818708896636963">
        <ele>2050.1500000000001</ele>
        <time>2017-10-08T12:12:45Z</time>
      </trkpt>
      <trkpt lat="45.998615836724639" lon="9.818722642958164">
        <ele>2049.6700000000001</ele>
        <time>2017-10-08T12:12:58Z</time>
      </trkpt>
      <trkpt lat="45.998623883351684" lon="9.818704202771187">
        <ele>2049.6700000000001</ele>
        <time>2017-10-08T12:13:02Z</time>
      </trkpt>
      <trkpt lat="45.998616674914956" lon="9.818598004058003">
        <ele>2048.23</ele>
        <time>2017-10-08T12:13:14Z</time>
      </trkpt>
      <trkpt lat="45.998609801754355" lon="9.818614851683378">
        <ele>2047.75</ele>
        <time>2017-10-08T12:13:24Z</time>
      </trkpt>
      <trkpt lat="45.998597061261535" lon="9.818593561649323">
        <ele>2047.26</ele>
        <time>2017-10-08T12:13:41Z</time>
      </trkpt>
      <trkpt lat="45.998588763177395" lon="9.818562716245651">
        <ele>2047.26</ele>
        <time>2017-10-08T12:13:43Z</time>
      </trkpt>
      <trkpt lat="45.998603347688913" lon="9.818349899724126">
        <ele>2046.3</ele>
        <time>2017-10-08T12:13:55Z</time>
      </trkpt>
      <trkpt lat="45.998633773997426" lon="9.818135658279061">
        <ele>2046.3</ele>
        <time>2017-10-08T12:14:07Z</time>
      </trkpt>
      <trkpt lat="45.998615920543671" lon="9.817930301651359">
        <ele>2046.3</ele>
        <time>2017-10-08T12:14:18Z</time>
      </trkpt>
      <trkpt lat="45.998601419851184" lon="9.817800801247358">
        <ele>2045.8199999999999</ele>
        <time>2017-10-08T12:14:29Z</time>
      </trkpt>
      <trkpt lat="45.998585242778063" lon="9.817651603370905">
        <ele>2046.3</ele>
        <time>2017-10-08T12:14:40Z</time>
      </trkpt>
      <trkpt lat="45.998577363789082" lon="9.817520091310144">
        <ele>2045.8199999999999</ele>
        <time>2017-10-08T12:14:49Z</time>
      </trkpt>
      <trkpt lat="45.998556660488248" lon="9.817276680842042">
        <ele>2046.3</ele>
        <time>2017-10-08T12:15:03Z</time>
      </trkpt>
      <trkpt lat="45.998525060713291" lon="9.817225970327854">
        <ele>2046.3</ele>
        <time>2017-10-08T12:15:08Z</time>
      </trkpt>
      <trkpt lat="45.998515505343676" lon="9.817038299515843">
        <ele>2045.3399999999999</ele>
        <time>2017-10-08T12:15:21Z</time>
      </trkpt>
      <trkpt lat="45.998522797599435" lon="9.817012986168265">
        <ele>2045.3399999999999</ele>
        <time>2017-10-08T12:15:23Z</time>
      </trkpt>
      <trkpt lat="45.99857434630394" lon="9.816786926239729">
        <ele>2042.9400000000001</ele>
        <time>2017-10-08T12:15:39Z</time>
      </trkpt>
      <trkpt lat="45.998581973835826" lon="9.816755661740899">
        <ele>2042.9400000000001</ele>
        <time>2017-10-08T12:15:42Z</time>
      </trkpt>
      <trkpt lat="45.99863494746387" lon="9.816606463864446">
        <ele>2041.5</ele>
        <time>2017-10-08T12:15:55Z</time>
      </trkpt>
      <trkpt lat="45.99868624471128" lon="9.816489703953266">
        <ele>2039.0899999999999</ele>
        <time>2017-10-08T12:16:07Z</time>
      </trkpt>
      <trkpt lat="45.998652800917625" lon="9.816368669271469">
        <ele>2038.1300000000001</ele>
        <time>2017-10-08T12:16:16Z</time>
      </trkpt>
      <trkpt lat="45.998629918321967" lon="9.816333800554276">
        <ele>2038.1300000000001</ele>
        <time>2017-10-08T12:16:19Z</time>
      </trkpt>
      <trkpt lat="45.998605191707611" lon="9.816304380074143">
        <ele>2037.1700000000001</ele>
        <time>2017-10-08T12:16:23Z</time>
      </trkpt>
      <trkpt lat="45.998538555577397" lon="9.816159121692181">
        <ele>2035.73</ele>
        <time>2017-10-08T12:16:36Z</time>
      </trkpt>
      <trkpt lat="45.998544758185744" lon="9.815963739529252">
        <ele>2034.29</ele>
        <time>2017-10-08T12:16:48Z</time>
      </trkpt>
      <trkpt lat="45.998559091240168" lon="9.815816972404718">
        <ele>2033.8099999999999</ele>
        <time>2017-10-08T12:16:58Z</time>
      </trkpt>
      <trkpt lat="45.998601084575057" lon="9.815671462565661">
        <ele>2032.3599999999999</ele>
        <time>2017-10-08T12:17:09Z</time>
      </trkpt>
      <trkpt lat="45.998618686571717" lon="9.81562159024179">
        <ele>2032.3599999999999</ele>
        <time>2017-10-08T12:17:13Z</time>
      </trkpt>
      <trkpt lat="45.998632181435823" lon="9.815490078181028">
        <ele>2029.96</ele>
        <time>2017-10-08T12:17:23Z</time>
      </trkpt>
      <trkpt lat="45.998644586652517" lon="9.815456802025437">
        <ele>2029.48</ele>
        <time>2017-10-08T12:17:26Z</time>
      </trkpt>
      <trkpt lat="45.998699320480227" lon="9.815336856991053">
        <ele>2027.5599999999999</ele>
        <time>2017-10-08T12:17:38Z</time>
      </trkpt>
      <trkpt lat="45.998758245259523" lon="9.815202746540308">
        <ele>2026.1199999999999</ele>
        <time>2017-10-08T12:17:50Z</time>
      </trkpt>
      <trkpt lat="45.998790683224797" lon="9.815143821761012">
        <ele>2025.1500000000001</ele>
        <time>2017-10-08T12:17:55Z</time>
      </trkpt>
      <trkpt lat="45.998846758157015" lon="9.814993618056178">
        <ele>2023.23</ele>
        <time>2017-10-08T12:18:08Z</time>
      </trkpt>
      <trkpt lat="45.998865198343992" lon="9.814949948340654">
        <ele>2021.79</ele>
        <time>2017-10-08T12:18:13Z</time>
      </trkpt>
      <trkpt lat="45.998888500034809" lon="9.81487987563014">
        <ele>2020.3499999999999</ele>
        <time>2017-10-08T12:18:22Z</time>
      </trkpt>
      <trkpt lat="45.99889880977571" lon="9.814816676080227">
        <ele>2018.9100000000001</ele>
        <time>2017-10-08T12:18:31Z</time>
      </trkpt>
      <trkpt lat="45.998896546661854" lon="9.81480116955936">
        <ele>2017.46</ele>
        <time>2017-10-08T12:18:34Z</time>
      </trkpt>
      <trkpt lat="45.998911885544658" lon="9.814687259495258">
        <ele>2015.0599999999999</ele>
        <time>2017-10-08T12:18:44Z</time>
      </trkpt>
      <trkpt lat="45.998945832252502" lon="9.814607463777065">
        <ele>2013.6199999999999</ele>
        <time>2017-10-08T12:18:53Z</time>
      </trkpt>
      <trkpt lat="45.998970894142985" lon="9.814550466835499">
        <ele>2011.7</ele>
        <time>2017-10-08T12:19:00Z</time>
      </trkpt>
      <trkpt lat="45.999033087864518" lon="9.814456757158041">
        <ele>2009.29</ele>
        <time>2017-10-08T12:19:11Z</time>
      </trkpt>
      <trkpt lat="45.99903660826385" lon="9.814444435760379">
        <ele>2009.29</ele>
        <time>2017-10-08T12:19:12Z</time>
      </trkpt>
      <trkpt lat="45.999049600213766" lon="9.81440830975771">
        <ele>2008.3299999999999</ele>
        <time>2017-10-08T12:19:15Z</time>
      </trkpt>
      <trkpt lat="45.999125456437469" lon="9.814295573160052">
        <ele>2005.45</ele>
        <time>2017-10-08T12:19:26Z</time>
      </trkpt>
      <trkpt lat="45.99913140758872" lon="9.814289370551705">
        <ele>2004.49</ele>
        <time>2017-10-08T12:19:27Z</time>
      </trkpt>
      <trkpt lat="45.999158564954996" lon="9.814188200980425">
        <ele>2004.01</ele>
        <time>2017-10-08T12:19:35Z</time>
      </trkpt>
      <trkpt lat="45.99912453442812" lon="9.814095748588443">
        <ele>2002.0799999999999</ele>
        <time>2017-10-08T12:19:47Z</time>
      </trkpt>
      <trkpt lat="45.999143226072192" lon="9.814050989225507">
        <ele>2001.1199999999999</ele>
        <time>2017-10-08T12:19:54Z</time>
      </trkpt>
      <trkpt lat="45.999201228842139" lon="9.813846051692963">
        <ele>1998.24</ele>
        <time>2017-10-08T12:20:06Z</time>
      </trkpt>
      <trkpt lat="45.999216148629785" lon="9.813669109717012">
        <ele>1997.76</ele>
        <time>2017-10-08T12:20:17Z</time>
      </trkpt>
      <trkpt lat="45.999212125316262" lon="9.813477918505669">
        <ele>1996.3199999999999</ele>
        <time>2017-10-08T12:20:29Z</time>
      </trkpt>
      <trkpt lat="45.999210365116596" lon="9.813355542719364">
        <ele>1994.8699999999999</ele>
        <time>2017-10-08T12:20:36Z</time>
      </trkpt>
      <trkpt lat="45.999229727312922" lon="9.813123531639576">
        <ele>1992.47</ele>
        <time>2017-10-08T12:20:51Z</time>
      </trkpt>
      <trkpt lat="45.999227128922939" lon="9.812990594655275">
        <ele>1991.99</ele>
        <time>2017-10-08T12:21:00Z</time>
      </trkpt>
      <trkpt lat="45.999206593260169" lon="9.81279781088233">
        <ele>1989.5899999999999</ele>
        <time>2017-10-08T12:21:14Z</time>
      </trkpt>
      <trkpt lat="45.999199133366346" lon="9.812668478116393">
        <ele>1988.6199999999999</ele>
        <time>2017-10-08T12:21:23Z</time>
      </trkpt>
      <trkpt lat="45.99918463267386" lon="9.812475275248289">
        <ele>1987.1800000000001</ele>
        <time>2017-10-08T12:21:36Z</time>
      </trkpt>
      <trkpt lat="45.999173568561673" lon="9.812381817027926">
        <ele>1986.22</ele>
        <time>2017-10-08T12:21:43Z</time>
      </trkpt>
      <trkpt lat="45.999175747856498" lon="9.812350468710065">
        <ele>1986.22</ele>
        <time>2017-10-08T12:21:45Z</time>
      </trkpt>
      <trkpt lat="45.999127719551325" lon="9.812200432643294">
        <ele>1984.3</ele>
        <time>2017-10-08T12:21:57Z</time>
      </trkpt>
      <trkpt lat="45.999107351526618" lon="9.812109572812915">
        <ele>1983.3399999999999</ele>
        <time>2017-10-08T12:22:04Z</time>
      </trkpt>
      <trkpt lat="45.999098466709256" lon="9.811945455148816">
        <ele>1982.8599999999999</ele>
        <time>2017-10-08T12:22:16Z</time>
      </trkpt>
      <trkpt lat="45.999155547469854" lon="9.811831964179874">
        <ele>1981.4100000000001</ele>
        <time>2017-10-08T12:22:28Z</time>
      </trkpt>
      <trkpt lat="45.999149428680539" lon="9.811792569234967">
        <ele>1980.9300000000001</ele>
        <time>2017-10-08T12:22:31Z</time>
      </trkpt>
      <trkpt lat="45.999094862490892" lon="9.811705900356174">
        <ele>1979.49</ele>
        <time>2017-10-08T12:22:42Z</time>
      </trkpt>
      <trkpt lat="45.999052030965686" lon="9.811608670279384">
        <ele>1979.49</ele>
        <time>2017-10-08T12:22:51Z</time>
      </trkpt>
      <trkpt lat="45.999027639627457" lon="9.811433237046003">
        <ele>1977.5699999999999</ele>
        <time>2017-10-08T12:23:03Z</time>
      </trkpt>
      <trkpt lat="45.999019593000412" lon="9.811405912041664">
        <ele>1977.5699999999999</ele>
        <time>2017-10-08T12:23:05Z</time>
      </trkpt>
      <trkpt lat="45.998988328501582" lon="9.811297450214624">
        <ele>1977.0899999999999</ele>
        <time>2017-10-08T12:23:15Z</time>
      </trkpt>
      <trkpt lat="45.998974330723286" lon="9.811275405809283">
        <ele>1976.1300000000001</ele>
        <time>2017-10-08T12:23:17Z</time>
      </trkpt>
      <trkpt lat="45.99893543869257" lon="9.811143726110458">
        <ele>1973.72</ele>
        <time>2017-10-08T12:23:29Z</time>
      </trkpt>
      <trkpt lat="45.998904928565025" lon="9.811038365587592">
        <ele>1972.28</ele>
        <time>2017-10-08T12:23:40Z</time>
      </trkpt>
      <trkpt lat="45.998889841139317" lon="9.810984302312136">
        <ele>1971.3199999999999</ele>
        <time>2017-10-08T12:23:44Z</time>
      </trkpt>
      <trkpt lat="45.998871903866529" lon="9.810838205739856">
        <ele>1969.4000000000001</ele>
        <time>2017-10-08T12:23:55Z</time>
      </trkpt>
      <trkpt lat="45.998847680166364" lon="9.810635363683105">
        <ele>1966.51</ele>
        <time>2017-10-08T12:24:09Z</time>
      </trkpt>
      <trkpt lat="45.998844830319285" lon="9.81054768897593">
        <ele>1966.51</ele>
        <time>2017-10-08T12:24:17Z</time>
      </trkpt>
      <trkpt lat="45.998814487829804" lon="9.810362113639712">
        <ele>1964.5899999999999</ele>
        <time>2017-10-08T12:24:30Z</time>
      </trkpt>
      <trkpt lat="45.998824462294579" lon="9.810191709548235">
        <ele>1963.6300000000001</ele>
        <time>2017-10-08T12:24:43Z</time>
      </trkpt>
      <trkpt lat="45.998821528628469" lon="9.810179136693478">
        <ele>1963.1500000000001</ele>
        <time>2017-10-08T12:24:44Z</time>
      </trkpt>
      <trkpt lat="45.998801747336984" lon="9.810040164738894">
        <ele>1962.1900000000001</ele>
        <time>2017-10-08T12:24:55Z</time>
      </trkpt>
      <trkpt lat="45.998793616890907" lon="9.809929775074124">
        <ele>1960.75</ele>
        <time>2017-10-08T12:25:03Z</time>
      </trkpt>
      <trkpt lat="45.998749695718288" lon="9.809769010171294">
        <ele>1960.27</ele>
        <time>2017-10-08T12:25:15Z</time>
      </trkpt>
      <trkpt lat="45.99872974678874" lon="9.809723664075136">
        <ele>1959.3</ele>
        <time>2017-10-08T12:25:19Z</time>
      </trkpt>
      <trkpt lat="45.998713737353683" lon="9.809638503938913">
        <ele>1958.3399999999999</ele>
        <time>2017-10-08T12:25:25Z</time>
      </trkpt>
      <trkpt lat="45.998697141185403" lon="9.809424765408039">
        <ele>1956.4200000000001</ele>
        <time>2017-10-08T12:25:39Z</time>
      </trkpt>
      <trkpt lat="45.998673085123301" lon="9.809242626652122">
        <ele>1955.46</ele>
        <time>2017-10-08T12:25:51Z</time>
      </trkpt>
      <trkpt lat="45.998669564723969" lon="9.809181271120906">
        <ele>1955.46</ele>
        <time>2017-10-08T12:25:55Z</time>
      </trkpt>
      <trkpt lat="45.998653052374721" lon="9.809147408232093">
        <ele>1954.5</ele>
        <time>2017-10-08T12:25:58Z</time>
      </trkpt>
      <trkpt lat="45.998660512268543" lon="9.809057051315904">
        <ele>1954.02</ele>
        <time>2017-10-08T12:26:04Z</time>
      </trkpt>
      <trkpt lat="45.998658668249846" lon="9.808914726600051">
        <ele>1952.5699999999999</ele>
        <time>2017-10-08T12:26:15Z</time>
      </trkpt>
      <trkpt lat="45.998651040717959" lon="9.808814227581024">
        <ele>1951.6099999999999</ele>
        <time>2017-10-08T12:26:24Z</time>
      </trkpt>
      <trkpt lat="45.998648274689913" lon="9.808708615601063">
        <ele>1951.1300000000001</ele>
        <time>2017-10-08T12:26:31Z</time>
      </trkpt>
      <trkpt lat="45.998643832281232" lon="9.808680284768343">
        <ele>1950.6500000000001</ele>
        <time>2017-10-08T12:26:33Z</time>
      </trkpt>
      <trkpt lat="45.998625811189413" lon="9.808505270630121">
        <ele>1949.21</ele>
        <time>2017-10-08T12:26:45Z</time>
      </trkpt>
      <trkpt lat="45.998614998534322" lon="9.808336291462183">
        <ele>1947.29</ele>
        <time>2017-10-08T12:26:57Z</time>
      </trkpt>
      <trkpt lat="45.998596642166376" lon="9.808240402489901">
        <ele>1946.8099999999999</ele>
        <time>2017-10-08T12:27:04Z</time>
      </trkpt>
      <trkpt lat="45.998581806197762" lon="9.808106040582061">
        <ele>1946.3299999999999</ele>
        <time>2017-10-08T12:27:14Z</time>
      </trkpt>
      <trkpt lat="45.998584823682904" lon="9.808088187128305">
        <ele>1946.3299999999999</ele>
        <time>2017-10-08T12:27:15Z</time>
      </trkpt>
      <trkpt lat="45.998577028512955" lon="9.807995483279228">
        <ele>1945.3599999999999</ele>
        <time>2017-10-08T12:27:21Z</time>
      </trkpt>
      <trkpt lat="45.998552469536662" lon="9.807937564328313">
        <ele>1944.8800000000001</ele>
        <time>2017-10-08T12:27:26Z</time>
      </trkpt>
      <trkpt lat="45.99853235296905" lon="9.807830695062876">
        <ele>1943.9200000000001</ele>
        <time>2017-10-08T12:27:34Z</time>
      </trkpt>
      <trkpt lat="45.998503938317299" lon="9.807633720338345">
        <ele>1942.48</ele>
        <time>2017-10-08T12:27:48Z</time>
      </trkpt>
      <trkpt lat="45.998500417917967" lon="9.807443451136351">
        <ele>1941.04</ele>
        <time>2017-10-08T12:28:00Z</time>
      </trkpt>
      <trkpt lat="45.998497987166047" lon="9.807407492771745">
        <ele>1940.5599999999999</ele>
        <time>2017-10-08T12:28:02Z</time>
      </trkpt>
      <trkpt lat="45.998504692688584" lon="9.807349406182766">
        <ele>1940.0799999999999</ele>
        <time>2017-10-08T12:28:06Z</time>
      </trkpt>
      <trkpt lat="45.998499495908618" lon="9.807130806148052">
        <ele>1938.1600000000001</ele>
        <time>2017-10-08T12:28:21Z</time>
      </trkpt>
      <trkpt lat="45.998486671596766" lon="9.806989403441548">
        <ele>1937.6700000000001</ele>
        <time>2017-10-08T12:28:30Z</time>
      </trkpt>
      <trkpt lat="45.998480888083577" lon="9.80691228993237">
        <ele>1937.6700000000001</ele>
        <time>2017-10-08T12:28:36Z</time>
      </trkpt>
      <trkpt lat="45.998448031023145" lon="9.80675152502954">
        <ele>1936.71</ele>
        <time>2017-10-08T12:28:48Z</time>
      </trkpt>
      <trkpt lat="45.99847367964685" lon="9.806605177000165">
        <ele>1935.75</ele>
        <time>2017-10-08T12:28:59Z</time>
      </trkpt>
      <trkpt lat="45.998479714617133" lon="9.806505935266614">
        <ele>1934.79</ele>
        <time>2017-10-08T12:29:06Z</time>
      </trkpt>
      <trkpt lat="45.998477200046182" lon="9.806436197832227">
        <ele>1934.79</ele>
        <time>2017-10-08T12:29:10Z</time>
      </trkpt>
      <trkpt lat="45.998451383784413" lon="9.806327736005187">
        <ele>1934.3099999999999</ele>
        <time>2017-10-08T12:29:18Z</time>
      </trkpt>
      <trkpt lat="45.998446522280574" lon="9.806201001629233">
        <ele>1933.3499999999999</ele>
        <time>2017-10-08T12:29:28Z</time>
      </trkpt>
      <trkpt lat="45.998467477038503" lon="9.805991370230913">
        <ele>1931.9100000000001</ele>
        <time>2017-10-08T12:29:41Z</time>
      </trkpt>
      <trkpt lat="45.9984693210572" lon="9.805958680808544">
        <ele>1931.4300000000001</ele>
        <time>2017-10-08T12:29:43Z</time>
      </trkpt>
      <trkpt lat="45.99846638739109" lon="9.805890619754791">
        <ele>1931.4300000000001</ele>
        <time>2017-10-08T12:29:48Z</time>
      </trkpt>
      <trkpt lat="45.998478122055531" lon="9.805813673883677">
        <ele>1930.95</ele>
        <time>2017-10-08T12:29:54Z</time>
      </trkpt>
      <trkpt lat="45.998489689081907" lon="9.805763131007552">
        <ele>1930.46</ele>
        <time>2017-10-08T12:29:58Z</time>
      </trkpt>
      <trkpt lat="45.998502681031823" lon="9.805581998080015">
        <ele>1929.02</ele>
        <time>2017-10-08T12:30:10Z</time>
      </trkpt>
      <trkpt lat="45.998527575284243" lon="9.805428525432944">
        <ele>1927.5799999999999</ele>
        <time>2017-10-08T12:30:21Z</time>
      </trkpt>
      <trkpt lat="45.998553978279233" lon="9.805292151868343">
        <ele>1926.6199999999999</ele>
        <time>2017-10-08T12:30:31Z</time>
      </trkpt>
      <trkpt lat="45.998588595539331" lon="9.805173547938466">
        <ele>1925.6600000000001</ele>
        <time>2017-10-08T12:30:42Z</time>
      </trkpt>
      <trkpt lat="45.998593708500266" lon="9.805114036425948">
        <ele>1924.22</ele>
        <time>2017-10-08T12:30:51Z</time>
      </trkpt>
      <trkpt lat="45.998636456206441" lon="9.804966263473034">
        <ele>1923.25</ele>
        <time>2017-10-08T12:31:03Z</time>
      </trkpt>
      <trkpt lat="45.998644754290581" lon="9.804903063923121">
        <ele>1921.8099999999999</ele>
        <time>2017-10-08T12:31:10Z</time>
      </trkpt>
      <trkpt lat="45.998685071244836" lon="9.804817568510771">
        <ele>1921.3299999999999</ele>
        <time>2017-10-08T12:31:17Z</time>
      </trkpt>
      <trkpt lat="45.998691860586405" lon="9.804781442508102">
        <ele>1921.8099999999999</ele>
        <time>2017-10-08T12:31:20Z</time>
      </trkpt>
      <trkpt lat="45.998733770102262" lon="9.804594526067376">
        <ele>1920.8499999999999</ele>
        <time>2017-10-08T12:31:33Z</time>
      </trkpt>
      <trkpt lat="45.998752377927303" lon="9.804480113089085">
        <ele>1920.3699999999999</ele>
        <time>2017-10-08T12:31:42Z</time>
      </trkpt>
      <trkpt lat="45.998755479231477" lon="9.804354133084416">
        <ele>1919.4100000000001</ele>
        <time>2017-10-08T12:31:53Z</time>
      </trkpt>
      <trkpt lat="45.998754138126969" lon="9.804281294345856">
        <ele>1919.4100000000001</ele>
        <time>2017-10-08T12:31:59Z</time>
      </trkpt>
      <trkpt lat="45.998745923861861" lon="9.804124888032675">
        <ele>1917.97</ele>
        <time>2017-10-08T12:32:12Z</time>
      </trkpt>
      <trkpt lat="45.99875170737505" lon="9.804094964638352">
        <ele>1917.49</ele>
        <time>2017-10-08T12:32:14Z</time>
      </trkpt>
      <trkpt lat="45.99877567961812" lon="9.804026568308473">
        <ele>1917.01</ele>
        <time>2017-10-08T12:32:19Z</time>
      </trkpt>
      <trkpt lat="45.998785318806767" lon="9.803930930793285">
        <ele>1917.49</ele>
        <time>2017-10-08T12:32:27Z</time>
      </trkpt>
      <trkpt lat="45.99878054112196" lon="9.803783074021339">
        <ele>1917.97</ele>
        <time>2017-10-08T12:32:39Z</time>
      </trkpt>
      <trkpt lat="45.99878104403615" lon="9.803685005754232">
        <ele>1915.5599999999999</ele>
        <time>2017-10-08T12:32:51Z</time>
      </trkpt>
      <trkpt lat="45.998784983530641" lon="9.803626332432032">
        <ele>1915.5599999999999</ele>
        <time>2017-10-08T12:32:58Z</time>
      </trkpt>
      <trkpt lat="45.998781127855182" lon="9.803571850061417">
        <ele>1915.0799999999999</ele>
        <time>2017-10-08T12:33:04Z</time>
      </trkpt>
      <trkpt lat="45.998782720416784" lon="9.803502866998315">
        <ele>1915.0799999999999</ele>
        <time>2017-10-08T12:33:10Z</time>
      </trkpt>
      <trkpt lat="45.998789761215448" lon="9.803407900035381">
        <ele>1914.1199999999999</ele>
        <time>2017-10-08T12:33:17Z</time>
      </trkpt>
      <trkpt lat="45.998770482838154" lon="9.803260378539562">
        <ele>1912.6800000000001</ele>
        <time>2017-10-08T12:33:29Z</time>
      </trkpt>
      <trkpt lat="45.998778278008103" lon="9.803087459877133">
        <ele>1911.24</ele>
        <time>2017-10-08T12:33:40Z</time>
      </trkpt>
      <trkpt lat="45.998808871954679" lon="9.802939686924219">
        <ele>1910.76</ele>
        <time>2017-10-08T12:33:51Z</time>
      </trkpt>
      <trkpt lat="45.998831083998084" lon="9.802858550101519">
        <ele>1912.2</ele>
        <time>2017-10-08T12:34:02Z</time>
      </trkpt>
      <trkpt lat="45.998820690438151" lon="9.802853520959616">
        <ele>1912.2</ele>
        <time>2017-10-08T12:34:17Z</time>
      </trkpt>
      <trkpt lat="45.998807027935982" lon="9.802852850407362">
        <ele>1912.2</ele>
        <time>2017-10-08T12:34:34Z</time>
      </trkpt>
      <trkpt lat="45.998811051249504" lon="9.802897945046425">
        <ele>1911.72</ele>
        <time>2017-10-08T12:34:52Z</time>
      </trkpt>
      <trkpt lat="45.998817086219788" lon="9.802865423262119">
        <ele>1911.72</ele>
        <time>2017-10-08T12:35:11Z</time>
      </trkpt>
      <trkpt lat="45.99879470653832" lon="9.802855616435409">
        <ele>1911.72</ele>
        <time>2017-10-08T12:35:28Z</time>
      </trkpt>
      <trkpt lat="45.998785234987736" lon="9.802868440747261">
        <ele>1911.72</ele>
        <time>2017-10-08T12:35:41Z</time>
      </trkpt>
      <trkpt lat="45.998798897489905" lon="9.802886042743921">
        <ele>1911.72</ele>
        <time>2017-10-08T12:35:59Z</time>
      </trkpt>
      <trkpt lat="45.998817756772041" lon="9.802808426320553">
        <ele>1912.6800000000001</ele>
        <time>2017-10-08T12:36:10Z</time>
      </trkpt>
      <trkpt lat="45.998818846419454" lon="9.802813120186329">
        <ele>1912.6800000000001</ele>
        <time>2017-10-08T12:36:23Z</time>
      </trkpt>
      <trkpt lat="45.998827312141657" lon="9.802810437977314">
        <ele>1913.1600000000001</ele>
        <time>2017-10-08T12:36:36Z</time>
      </trkpt>
      <trkpt lat="45.998839884996414" lon="9.802807839587331">
        <ele>1912.6800000000001</ele>
        <time>2017-10-08T12:36:51Z</time>
      </trkpt>
      <trkpt lat="45.998838292434812" lon="9.802775150164962">
        <ele>1913.1600000000001</ele>
        <time>2017-10-08T12:37:07Z</time>
      </trkpt>
      <trkpt lat="45.998828150331974" lon="9.802758302539587">
        <ele>1912.6800000000001</ele>
        <time>2017-10-08T12:37:23Z</time>
      </trkpt>
      <trkpt lat="45.99883041344583" lon="9.802689822390676">
        <ele>1913.1600000000001</ele>
        <time>2017-10-08T12:37:38Z</time>
      </trkpt>
      <trkpt lat="45.998847093433142" lon="9.80256057344377">
        <ele>1914.1199999999999</ele>
        <time>2017-10-08T12:37:48Z</time>
      </trkpt>
      <trkpt lat="45.998884979635477" lon="9.802395701408386">
        <ele>1914.1199999999999</ele>
        <time>2017-10-08T12:38:00Z</time>
      </trkpt>
      <trkpt lat="45.9988924395293" lon="9.802285060286522">
        <ele>1915.0799999999999</ele>
        <time>2017-10-08T12:38:10Z</time>
      </trkpt>
      <trkpt lat="45.998882297426462" lon="9.802125217393041">
        <ele>1916.04</ele>
        <time>2017-10-08T12:38:21Z</time>
      </trkpt>
      <trkpt lat="45.998898223042488" lon="9.801968559622765">
        <ele>1916.04</ele>
        <time>2017-10-08T12:38:32Z</time>
      </trkpt>
      <trkpt lat="45.998907946050167" lon="9.801788767799735">
        <ele>1916.53</ele>
        <time>2017-10-08T12:38:44Z</time>
      </trkpt>
      <trkpt lat="45.998942898586392" lon="9.801644431427121">
        <ele>1918.45</ele>
        <time>2017-10-08T12:38:56Z</time>
      </trkpt>
      <trkpt lat="45.998950861394405" lon="9.801443936303258">
        <ele>1917.97</ele>
        <time>2017-10-08T12:39:11Z</time>
      </trkpt>
      <trkpt lat="45.998982544988394" lon="9.801299767568708">
        <ele>1918.45</ele>
        <time>2017-10-08T12:39:22Z</time>
      </trkpt>
      <trkpt lat="45.998986987397075" lon="9.801261713728309">
        <ele>1918.45</ele>
        <time>2017-10-08T12:39:25Z</time>
      </trkpt>
      <trkpt lat="45.999018922448158" lon="9.80110933072865">
        <ele>1918.9300000000001</ele>
        <time>2017-10-08T12:39:38Z</time>
      </trkpt>
      <trkpt lat="45.999098131433129" lon="9.800984272733331">
        <ele>1919.4100000000001</ele>
        <time>2017-10-08T12:39:49Z</time>
      </trkpt>
      <trkpt lat="45.999128306284547" lon="9.800948314368725">
        <ele>1919.4100000000001</ele>
        <time>2017-10-08T12:39:53Z</time>
      </trkpt>
      <trkpt lat="45.999194523319602" lon="9.800874721258879">
        <ele>1919.8900000000001</ele>
        <time>2017-10-08T12:40:05Z</time>
      </trkpt>
      <trkpt lat="45.999250346794724" lon="9.800810432061553">
        <ele>1919.4100000000001</ele>
        <time>2017-10-08T12:40:10Z</time>
      </trkpt>
      <trkpt lat="45.999310864135623" lon="9.800794338807464">
        <ele>1919.4100000000001</ele>
        <time>2017-10-08T12:40:15Z</time>
      </trkpt>
      <trkpt lat="45.999428378418088" lon="9.8007389344275">
        <ele>1920.3699999999999</ele>
        <time>2017-10-08T12:40:26Z</time>
      </trkpt>
      <trkpt lat="45.999557795003057" lon="9.800630221143365">
        <ele>1919.8900000000001</ele>
        <time>2017-10-08T12:40:39Z</time>
      </trkpt>
      <trkpt lat="45.999600123614073" lon="9.800582444295287">
        <ele>1920.3699999999999</ele>
        <time>2017-10-08T12:40:44Z</time>
      </trkpt>
      <trkpt lat="45.99962049163878" lon="9.800569955259562">
        <ele>1921.8099999999999</ele>
        <time>2017-10-08T12:40:46Z</time>
      </trkpt>
      <trkpt lat="45.999737251549959" lon="9.8004643432796">
        <ele>1920.8499999999999</ele>
        <time>2017-10-08T12:40:57Z</time>
      </trkpt>
      <trkpt lat="45.999837163835764" lon="9.800382200628519">
        <ele>1921.8099999999999</ele>
        <time>2017-10-08T12:41:07Z</time>
      </trkpt>
      <trkpt lat="45.999941267073154" lon="9.800379602238536">
        <ele>1921.8099999999999</ele>
        <time>2017-10-08T12:41:15Z</time>
      </trkpt>
      <trkpt lat="46.000079065561295" lon="9.800396114587784">
        <ele>1920.8499999999999</ele>
        <time>2017-10-08T12:41:27Z</time>
      </trkpt>
      <trkpt lat="46.000148467719555" lon="9.800390414893627">
        <ele>1920.3699999999999</ele>
        <time>2017-10-08T12:41:32Z</time>
      </trkpt>
      <trkpt lat="46.00017948076129" lon="9.800398042425513">
        <ele>1920.8499999999999</ele>
        <time>2017-10-08T12:41:35Z</time>
      </trkpt>
      <trkpt lat="46.000300934538245" lon="9.800272816792131">
        <ele>1920.8499999999999</ele>
        <time>2017-10-08T12:41:48Z</time>
      </trkpt>
      <trkpt lat="46.000322643667459" lon="9.80024004355073">
        <ele>1920.3699999999999</ele>
        <time>2017-10-08T12:41:51Z</time>
      </trkpt>
      <trkpt lat="46.00035541690886" lon="9.800202492624521">
        <ele>1920.8499999999999</ele>
        <time>2017-10-08T12:41:55Z</time>
      </trkpt>
      <trkpt lat="46.000466728582978" lon="9.800051115453243">
        <ele>1920.3699999999999</ele>
        <time>2017-10-08T12:42:09Z</time>
      </trkpt>
      <trkpt lat="46.000530682504177" lon="9.800016498193145">
        <ele>1920.3699999999999</ele>
        <time>2017-10-08T12:42:19Z</time>
      </trkpt>
      <trkpt lat="46.000538896769285" lon="9.80001331306994">
        <ele>1920.3699999999999</ele>
        <time>2017-10-08T12:42:20Z</time>
      </trkpt>
      <trkpt lat="46.000584997236729" lon="9.800087828189135">
        <ele>1920.3699999999999</ele>
        <time>2017-10-08T12:42:29Z</time>
      </trkpt>
      <trkpt lat="46.000590277835727" lon="9.800099981948733">
        <ele>1920.3699999999999</ele>
        <time>2017-10-08T12:42:30Z</time>
      </trkpt>
      <trkpt lat="46.000607879832387" lon="9.800161169841886">
        <ele>1920.3699999999999</ele>
        <time>2017-10-08T12:42:34Z</time>
      </trkpt>
      <trkpt lat="46.000660518184304" lon="9.800122948363423">
        <ele>1919.8900000000001</ele>
        <time>2017-10-08T12:42:43Z</time>
      </trkpt>
      <trkpt lat="46.000681724399328" lon="9.799947766587138">
        <ele>1919.8900000000001</ele>
        <time>2017-10-08T12:42:54Z</time>
      </trkpt>
      <trkpt lat="46.000770656391978" lon="9.799793791025877">
        <ele>1919.4100000000001</ele>
        <time>2017-10-08T12:43:07Z</time>
      </trkpt>
      <trkpt lat="46.000847686082125" lon="9.799694716930389">
        <ele>1918.9300000000001</ele>
        <time>2017-10-08T12:43:16Z</time>
      </trkpt>
      <trkpt lat="46.000865455716848" lon="9.799678875133395">
        <ele>1919.8900000000001</ele>
        <time>2017-10-08T12:43:18Z</time>
      </trkpt>
      <trkpt lat="46.000962434336543" lon="9.799550715833902">
        <ele>1919.4100000000001</ele>
        <time>2017-10-08T12:43:30Z</time>
      </trkpt>
      <trkpt lat="46.001009372994304" lon="9.79953303001821">
        <ele>1919.8900000000001</ele>
        <time>2017-10-08T12:43:35Z</time>
      </trkpt>
      <trkpt lat="46.001072153449059" lon="9.799474272876978">
        <ele>1918.9300000000001</ele>
        <time>2017-10-08T12:43:44Z</time>
      </trkpt>
      <trkpt lat="46.001081708818674" lon="9.799469159916043">
        <ele>1919.4100000000001</ele>
        <time>2017-10-08T12:43:45Z</time>
      </trkpt>
      <trkpt lat="46.001160750165582" lon="9.79944359511137">
        <ele>1918.45</ele>
        <time>2017-10-08T12:43:56Z</time>
      </trkpt>
      <trkpt lat="46.001197211444378" lon="9.799435213208199">
        <ele>1917.97</ele>
        <time>2017-10-08T12:44:02Z</time>
      </trkpt>
      <trkpt lat="46.001316402107477" lon="9.799395818263292">
        <ele>1916.53</ele>
        <time>2017-10-08T12:44:14Z</time>
      </trkpt>
      <trkpt lat="46.001405250281096" lon="9.799256762489677">
        <ele>1915.0799999999999</ele>
        <time>2017-10-08T12:44:27Z</time>
      </trkpt>
      <trkpt lat="46.001434838399291" lon="9.799164393916726">
        <ele>1914.1199999999999</ele>
        <time>2017-10-08T12:44:36Z</time>
      </trkpt>
      <trkpt lat="46.001440621912479" lon="9.799070432782173">
        <ele>1913.6400000000001</ele>
        <time>2017-10-08T12:44:43Z</time>
      </trkpt>
      <trkpt lat="46.001464007422328" lon="9.798969347029924">
        <ele>1912.2</ele>
        <time>2017-10-08T12:44:50Z</time>
      </trkpt>
      <trkpt lat="46.001555286347866" lon="9.798861220479012">
        <ele>1911.24</ele>
        <time>2017-10-08T12:45:03Z</time>
      </trkpt>
      <trkpt lat="46.001565009355545" lon="9.798857616260648">
        <ele>1911.24</ele>
        <time>2017-10-08T12:45:04Z</time>
      </trkpt>
      <trkpt lat="46.001670956611633" lon="9.798739766702056">
        <ele>1911.24</ele>
        <time>2017-10-08T12:45:18Z</time>
      </trkpt>
      <trkpt lat="46.001695431768894" lon="9.798682518303394">
        <ele>1910.76</ele>
        <time>2017-10-08T12:45:26Z</time>
      </trkpt>
      <trkpt lat="46.001718733459711" lon="9.798619905486703">
        <ele>1910.76</ele>
        <time>2017-10-08T12:45:30Z</time>
      </trkpt>
      <trkpt lat="46.00173432379961" lon="9.798575984314084">
        <ele>1910.76</ele>
        <time>2017-10-08T12:45:33Z</time>
      </trkpt>
      <trkpt lat="46.001823339611292" lon="9.798423685133457">
        <ele>1909.8</ele>
        <time>2017-10-08T12:45:47Z</time>
      </trkpt>
      <trkpt lat="46.001838343217969" lon="9.79842041619122">
        <ele>1909.8</ele>
        <time>2017-10-08T12:45:49Z</time>
      </trkpt>
      <trkpt lat="46.001929873600602" lon="9.798328466713429">
        <ele>1907.8699999999999</ele>
        <time>2017-10-08T12:45:59Z</time>
      </trkpt>
      <trkpt lat="46.002036742866039" lon="9.798164516687393">
        <ele>1906.9100000000001</ele>
        <time>2017-10-08T12:46:13Z</time>
      </trkpt>
      <trkpt lat="46.002131709828973" lon="9.798084385693073">
        <ele>1905.47</ele>
        <time>2017-10-08T12:46:24Z</time>
      </trkpt>
      <trkpt lat="46.002198597416282" lon="9.798080697655678">
        <ele>1904.51</ele>
        <time>2017-10-08T12:46:34Z</time>
      </trkpt>
      <trkpt lat="46.002230700105429" lon="9.798026047646999">
        <ele>1903.55</ele>
        <time>2017-10-08T12:46:39Z</time>
      </trkpt>
      <trkpt lat="46.002284176647663" lon="9.797934181988239">
        <ele>1902.1099999999999</ele>
        <time>2017-10-08T12:46:48Z</time>
      </trkpt>
      <trkpt lat="46.00234511308372" lon="9.79779202491045">
        <ele>1900.6600000000001</ele>
        <time>2017-10-08T12:47:00Z</time>
      </trkpt>
      <trkpt lat="46.002376293763518" lon="9.797768890857697">
        <ele>1900.6600000000001</ele>
        <time>2017-10-08T12:47:03Z</time>
      </trkpt>
      <trkpt lat="46.002490036189556" lon="9.797704434022307">
        <ele>1900.6600000000001</ele>
        <time>2017-10-08T12:47:15Z</time>
      </trkpt>
      <trkpt lat="46.002531191334128" lon="9.797609969973564">
        <ele>1899.7</ele>
        <time>2017-10-08T12:47:22Z</time>
      </trkpt>
      <trkpt lat="46.002542423084378" lon="9.797555571421981">
        <ele>1899.7</ele>
        <time>2017-10-08T12:47:26Z</time>
      </trkpt>
      <trkpt lat="46.002551056444645" lon="9.79748466052115">
        <ele>1898.74</ele>
        <time>2017-10-08T12:47:30Z</time>
      </trkpt>
      <trkpt lat="46.002658931538463" lon="9.797337809577584">
        <ele>1897.3</ele>
        <time>2017-10-08T12:47:44Z</time>
      </trkpt>
      <trkpt lat="46.002718359231949" lon="9.797278884798288">
        <ele>1896.8199999999999</ele>
        <time>2017-10-08T12:47:54Z</time>
      </trkpt>
      <trkpt lat="46.002739230170846" lon="9.797235550358892">
        <ele>1896.8199999999999</ele>
        <time>2017-10-08T12:48:02Z</time>
      </trkpt>
      <trkpt lat="46.002737637609243" lon="9.797200346365571">
        <ele>1897.3</ele>
        <time>2017-10-08T12:48:15Z</time>
      </trkpt>
      <trkpt lat="46.002709390595555" lon="9.797218451276422">
        <ele>1896.3399999999999</ele>
        <time>2017-10-08T12:48:25Z</time>
      </trkpt>
      <trkpt lat="46.002709306776524" lon="9.797177379950881">
        <ele>1895.8599999999999</ele>
        <time>2017-10-08T12:48:37Z</time>
      </trkpt>
      <trkpt lat="46.002723639830947" lon="9.797136560082436">
        <ele>1894.9000000000001</ele>
        <time>2017-10-08T12:48:49Z</time>
      </trkpt>
      <trkpt lat="46.002694806084037" lon="9.797114850953221">
        <ele>1893.9300000000001</ele>
        <time>2017-10-08T12:48:58Z</time>
      </trkpt>
      <trkpt lat="46.002697236835957" lon="9.797082412987948">
        <ele>1893.45</ele>
        <time>2017-10-08T12:49:00Z</time>
      </trkpt>
      <trkpt lat="46.002719448879361" lon="9.79706154204905">
        <ele>1892.49</ele>
        <time>2017-10-08T12:49:02Z</time>
      </trkpt>
      <trkpt lat="46.002743169665337" lon="9.79703463613987">
        <ele>1891.53</ele>
        <time>2017-10-08T12:49:05Z</time>
      </trkpt>
      <trkpt lat="46.002771249040961" lon="9.796944027766585">
        <ele>1890.5699999999999</ele>
        <time>2017-10-08T12:49:14Z</time>
      </trkpt>
      <trkpt lat="46.002762783318758" lon="9.796845624223352">
        <ele>1889.6099999999999</ele>
        <time>2017-10-08T12:49:21Z</time>
      </trkpt>
      <trkpt lat="46.00281709805131" lon="9.796711262315512">
        <ele>1890.0899999999999</ele>
        <time>2017-10-08T12:49:32Z</time>
      </trkpt>
      <trkpt lat="46.002838052809238" lon="9.796623839065433">
        <ele>1889.6099999999999</ele>
        <time>2017-10-08T12:49:39Z</time>
      </trkpt>
      <trkpt lat="46.00282690487802" lon="9.796582013368607">
        <ele>1889.1300000000001</ele>
        <time>2017-10-08T12:49:43Z</time>
      </trkpt>
      <trkpt lat="46.002840986475348" lon="9.796407502144575">
        <ele>1887.21</ele>
        <time>2017-10-08T12:49:56Z</time>
      </trkpt>
      <trkpt lat="46.002916926518083" lon="9.796284036710858">
        <ele>1887.21</ele>
        <time>2017-10-08T12:50:07Z</time>
      </trkpt>
      <trkpt lat="46.002931259572506" lon="9.79626945219934">
        <ele>1888.1700000000001</ele>
        <time>2017-10-08T12:50:09Z</time>
      </trkpt>
      <trkpt lat="46.00303016602993" lon="9.796214969828725">
        <ele>1888.6500000000001</ele>
        <time>2017-10-08T12:50:20Z</time>
      </trkpt>
      <trkpt lat="46.003144243732095" lon="9.796110782772303">
        <ele>1888.6500000000001</ele>
        <time>2017-10-08T12:50:33Z</time>
      </trkpt>
      <trkpt lat="46.003178777173162" lon="9.796082619577646">
        <ele>1888.6500000000001</ele>
        <time>2017-10-08T12:50:42Z</time>
      </trkpt>
      <trkpt lat="46.003189757466316" lon="9.7960798535496">
        <ele>1887.21</ele>
        <time>2017-10-08T12:50:53Z</time>
      </trkpt>
      <trkpt lat="46.003200653940439" lon="9.79607742279768">
        <ele>1887.21</ele>
        <time>2017-10-08T12:51:15Z</time>
      </trkpt>
      <trkpt lat="46.003193948417902" lon="9.796088319271803">
        <ele>1887.21</ele>
        <time>2017-10-08T12:51:39Z</time>
      </trkpt>
      <trkpt lat="46.003191601485014" lon="9.796087061986327">
        <ele>1887.21</ele>
        <time>2017-10-08T12:52:06Z</time>
      </trkpt>
      <trkpt lat="46.003188248723745" lon="9.796087397262454">
        <ele>1887.21</ele>
        <time>2017-10-08T12:52:34Z</time>
      </trkpt>
      <trkpt lat="46.00318162702024" lon="9.796105585992336">
        <ele>1887.6900000000001</ele>
        <time>2017-10-08T12:53:02Z</time>
      </trkpt>
      <trkpt lat="46.003202330321074" lon="9.796100053936243">
        <ele>1887.6900000000001</ele>
        <time>2017-10-08T12:53:21Z</time>
      </trkpt>
      <trkpt lat="46.003187075257301" lon="9.796065604314208">
        <ele>1888.1700000000001</ele>
        <time>2017-10-08T12:53:32Z</time>
      </trkpt>
      <trkpt lat="46.003205515444279" lon="9.796077338978648">
        <ele>1888.1700000000001</ele>
        <time>2017-10-08T12:53:43Z</time>
      </trkpt>
      <trkpt lat="46.003208616748452" lon="9.796076081693173">
        <ele>1888.6500000000001</ele>
        <time>2017-10-08T12:53:56Z</time>
      </trkpt>
      <trkpt lat="46.003202749416232" lon="9.796064682304859">
        <ele>1887.6900000000001</ele>
        <time>2017-10-08T12:54:07Z</time>
      </trkpt>
      <trkpt lat="46.003205515444279" lon="9.796089995652437">
        <ele>1888.6500000000001</ele>
        <time>2017-10-08T12:54:18Z</time>
      </trkpt>
      <trkpt lat="46.00320853292942" lon="9.796097707003355">
        <ele>1888.6500000000001</ele>
        <time>2017-10-08T12:54:19Z</time>
      </trkpt>
      <trkpt lat="46.003211718052626" lon="9.796166103333235">
        <ele>1888.6500000000001</ele>
        <time>2017-10-08T12:54:29Z</time>
      </trkpt>
      <trkpt lat="46.003189170733094" lon="9.796181693673134">
        <ele>1888.6500000000001</ele>
        <time>2017-10-08T12:54:39Z</time>
      </trkpt>
      <trkpt lat="46.003177016973495" lon="9.796126373112202">
        <ele>1888.6500000000001</ele>
        <time>2017-10-08T12:54:45Z</time>
      </trkpt>
      <trkpt lat="46.00319386459887" lon="9.796071806922555">
        <ele>1889.1300000000001</ele>
        <time>2017-10-08T12:54:55Z</time>
      </trkpt>
      <trkpt lat="46.003191769123077" lon="9.796054288744927">
        <ele>1888.1700000000001</ele>
        <time>2017-10-08T12:55:07Z</time>
      </trkpt>
      <trkpt lat="46.003185398876667" lon="9.796052109450102">
        <ele>1888.1700000000001</ele>
        <time>2017-10-08T12:55:24Z</time>
      </trkpt>
      <trkpt lat="46.003199061378837" lon="9.79607155546546">
        <ele>1888.6500000000001</ele>
        <time>2017-10-08T12:55:41Z</time>
      </trkpt>
      <trkpt lat="46.003217585384846" lon="9.79603685438633">
        <ele>1888.1700000000001</ele>
        <time>2017-10-08T12:55:53Z</time>
      </trkpt>
      <trkpt lat="46.00324465893209" lon="9.795991508290172">
        <ele>1888.6500000000001</ele>
        <time>2017-10-08T12:56:04Z</time>
      </trkpt>
      <trkpt lat="46.003279192373157" lon="9.795930236577988">
        <ele>1888.6500000000001</ele>
        <time>2017-10-08T12:56:14Z</time>
      </trkpt>
      <trkpt lat="46.003311714157462" lon="9.795792521908879">
        <ele>1887.6900000000001</ele>
        <time>2017-10-08T12:56:26Z</time>
      </trkpt>
      <trkpt lat="46.003306768834591" lon="9.795682802796364">
        <ele>1887.6900000000001</ele>
        <time>2017-10-08T12:56:37Z</time>
      </trkpt>
      <trkpt lat="46.003367369994521" lon="9.795596720650792">
        <ele>1887.6900000000001</ele>
        <time>2017-10-08T12:56:48Z</time>
      </trkpt>
      <trkpt lat="46.003415482118726" lon="9.795478200539947">
        <ele>1888.1700000000001</ele>
        <time>2017-10-08T12:56:56Z</time>
      </trkpt>
      <trkpt lat="46.003483207896352" lon="9.795399578288198">
        <ele>1888.1700000000001</ele>
        <time>2017-10-08T12:57:09Z</time>
      </trkpt>
      <trkpt lat="46.00350902415812" lon="9.795416509732604">
        <ele>1888.1700000000001</ele>
        <time>2017-10-08T12:57:18Z</time>
      </trkpt>
      <trkpt lat="46.003558142110705" lon="9.795384323224425">
        <ele>1887.6900000000001</ele>
        <time>2017-10-08T12:57:29Z</time>
      </trkpt>
      <trkpt lat="46.003579348325729" lon="9.795382646843791">
        <ele>1887.21</ele>
        <time>2017-10-08T12:57:38Z</time>
      </trkpt>
      <trkpt lat="46.003592927008867" lon="9.795336043462157">
        <ele>1887.6900000000001</ele>
        <time>2017-10-08T12:57:48Z</time>
      </trkpt>
      <trkpt lat="46.003609858453274" lon="9.795314753428102">
        <ele>1887.21</ele>
        <time>2017-10-08T12:57:50Z</time>
      </trkpt>
      <trkpt lat="46.003627208992839" lon="9.795199921354652">
        <ele>1887.21</ele>
        <time>2017-10-08T12:57:57Z</time>
      </trkpt>
      <trkpt lat="46.003659227862954" lon="9.795099757611752">
        <ele>1887.21</ele>
        <time>2017-10-08T12:58:04Z</time>
      </trkpt>
      <trkpt lat="46.003630058839917" lon="9.794893059879541">
        <ele>1886.72</ele>
        <time>2017-10-08T12:58:17Z</time>
      </trkpt>
      <trkpt lat="46.003607679158449" lon="9.794783089309931">
        <ele>1885.76</ele>
        <time>2017-10-08T12:58:25Z</time>
      </trkpt>
      <trkpt lat="46.003584042191505" lon="9.794748974964023">
        <ele>1885.28</ele>
        <time>2017-10-08T12:58:28Z</time>
      </trkpt>
      <trkpt lat="46.003570714965463" lon="9.794617630541325">
        <ele>1885.28</ele>
        <time>2017-10-08T12:58:39Z</time>
      </trkpt>
      <trkpt lat="46.003530900925398" lon="9.794581504538655">
        <ele>1885.76</ele>
        <time>2017-10-08T12:58:49Z</time>
      </trkpt>
      <trkpt lat="46.003469126299024" lon="9.794429372996092">
        <ele>1884.3199999999999</ele>
        <time>2017-10-08T12:59:00Z</time>
      </trkpt>
      <trkpt lat="46.003484129905701" lon="9.79431395418942">
        <ele>1884.3199999999999</ele>
        <time>2017-10-08T12:59:10Z</time>
      </trkpt>
      <trkpt lat="46.003496367484331" lon="9.79419912211597">
        <ele>1883.8399999999999</ele>
        <time>2017-10-08T12:59:19Z</time>
      </trkpt>
      <trkpt lat="46.003556381911039" lon="9.794094599783421">
        <ele>1883.3599999999999</ele>
        <time>2017-10-08T12:59:30Z</time>
      </trkpt>
      <trkpt lat="46.003604577854276" lon="9.793980019167066">
        <ele>1884.3199999999999</ele>
        <time>2017-10-08T12:59:39Z</time>
      </trkpt>
      <trkpt lat="46.003620587289333" lon="9.793934840708971">
        <ele>1884.3199999999999</ele>
        <time>2017-10-08T12:59:48Z</time>
      </trkpt>
      <trkpt lat="46.003646655008197" lon="9.793890584260225">
        <ele>1883.8399999999999</ele>
        <time>2017-10-08T12:59:57Z</time>
      </trkpt>
      <trkpt lat="46.003686301410198" lon="9.7937744949013">
        <ele>1884.3199999999999</ele>
        <time>2017-10-08T13:00:06Z</time>
      </trkpt>
      <trkpt lat="46.003699293360114" lon="9.793753456324339">
        <ele>1884.3199999999999</ele>
        <time>2017-10-08T13:00:08Z</time>
      </trkpt>
      <trkpt lat="46.00377481430769" lon="9.793722862377763">
        <ele>1883.8399999999999</ele>
        <time>2017-10-08T13:00:21Z</time>
      </trkpt>
      <trkpt lat="46.003860058262944" lon="9.793701069429517">
        <ele>1883.8399999999999</ele>
        <time>2017-10-08T13:00:32Z</time>
      </trkpt>
      <trkpt lat="46.00389014929533" lon="9.793686987832189">
        <ele>1883.3599999999999</ele>
        <time>2017-10-08T13:00:35Z</time>
      </trkpt>
      <trkpt lat="46.00394538603723" lon="9.793653124943376">
        <ele>1883.8399999999999</ele>
        <time>2017-10-08T13:00:39Z</time>
      </trkpt>
      <trkpt lat="46.004045968875289" lon="9.793511386960745">
        <ele>1884.3199999999999</ele>
        <time>2017-10-08T13:00:51Z</time>
      </trkpt>
      <trkpt lat="46.00409634411335" lon="9.79347450658679">
        <ele>1884.8</ele>
        <time>2017-10-08T13:00:56Z</time>
      </trkpt>
      <trkpt lat="46.004205560311675" lon="9.793440392240882">
        <ele>1883.8399999999999</ele>
        <time>2017-10-08T13:01:07Z</time>
      </trkpt>
      <trkpt lat="46.004236824810505" lon="9.793413737788796">
        <ele>1883.8399999999999</ele>
        <time>2017-10-08T13:01:11Z</time>
      </trkpt>
      <trkpt lat="46.004266999661922" lon="9.793397560715675">
        <ele>1883.8399999999999</ele>
        <time>2017-10-08T13:01:14Z</time>
      </trkpt>
      <trkpt lat="46.004302874207497" lon="9.79336847551167">
        <ele>1884.3199999999999</ele>
        <time>2017-10-08T13:01:24Z</time>
      </trkpt>
      <trkpt lat="46.004414353519678" lon="9.793219780549407">
        <ele>1883.8399999999999</ele>
        <time>2017-10-08T13:01:38Z</time>
      </trkpt>
      <trkpt lat="46.004530526697636" lon="9.793155072256923">
        <ele>1884.3199999999999</ele>
        <time>2017-10-08T13:01:49Z</time>
      </trkpt>
      <trkpt lat="46.004575872793794" lon="9.793138979002833">
        <ele>1884.3199999999999</ele>
        <time>2017-10-08T13:01:53Z</time>
      </trkpt>
      <trkpt lat="46.00465239956975" lon="9.793094135820866">
        <ele>1884.8</ele>
        <time>2017-10-08T13:02:05Z</time>
      </trkpt>
      <trkpt lat="46.004702607169747" lon="9.793003527447581">
        <ele>1883.3599999999999</ele>
        <time>2017-10-08T13:02:18Z</time>
      </trkpt>
      <trkpt lat="46.004715263843536" lon="9.792940495535731">
        <ele>1882.8800000000001</ele>
        <time>2017-10-08T13:02:26Z</time>
      </trkpt>
      <trkpt lat="46.004721550270915" lon="9.792893389239907">
        <ele>1881.4400000000001</ele>
        <time>2017-10-08T13:02:36Z</time>
      </trkpt>
      <trkpt lat="46.004776870831847" lon="9.792872266843915">
        <ele>1880</ele>
        <time>2017-10-08T13:02:44Z</time>
      </trkpt>
      <trkpt lat="46.004832275211811" lon="9.79278258047998">
        <ele>1877.5899999999999</ele>
        <time>2017-10-08T13:02:56Z</time>
      </trkpt>
      <trkpt lat="46.004869071766734" lon="9.792692810297012">
        <ele>1875.6700000000001</ele>
        <time>2017-10-08T13:03:08Z</time>
      </trkpt>
      <trkpt lat="46.004873681813478" lon="9.792605470865965">
        <ele>1874.23</ele>
        <time>2017-10-08T13:03:18Z</time>
      </trkpt>
      <trkpt lat="46.004872592166066" lon="9.792507737874985">
        <ele>1872.3</ele>
        <time>2017-10-08T13:03:29Z</time>
      </trkpt>
      <trkpt lat="46.004925481975079" lon="9.792486783117056">
        <ele>1870.3800000000001</ele>
        <time>2017-10-08T13:03:39Z</time>
      </trkpt>
      <trkpt lat="46.004930846393108" lon="9.792440515011549">
        <ele>1868.9400000000001</ele>
        <time>2017-10-08T13:03:46Z</time>
      </trkpt>
      <trkpt lat="46.00492556579411" lon="9.792431881651282">
        <ele>1868.9400000000001</ele>
        <time>2017-10-08T13:03:47Z</time>
      </trkpt>
      <trkpt lat="46.004908550530672" lon="9.792385026812553">
        <ele>1867.98</ele>
        <time>2017-10-08T13:03:52Z</time>
      </trkpt>
      <trkpt lat="46.004935624077916" lon="9.792362479493022">
        <ele>1866.54</ele>
        <time>2017-10-08T13:04:03Z</time>
      </trkpt>
      <trkpt lat="46.004946604371071" lon="9.792358288541436">
        <ele>1866.0599999999999</ele>
        <time>2017-10-08T13:04:05Z</time>
      </trkpt>
      <trkpt lat="46.004993543028831" lon="9.792334735393524">
        <ele>1864.1300000000001</ele>
        <time>2017-10-08T13:04:14Z</time>
      </trkpt>
      <trkpt lat="46.004968648776412" lon="9.792228788137436">
        <ele>1862.21</ele>
        <time>2017-10-08T13:04:26Z</time>
      </trkpt>
      <trkpt lat="46.004989100620151" lon="9.79218210093677">
        <ele>1860.77</ele>
        <time>2017-10-08T13:04:32Z</time>
      </trkpt>
      <trkpt lat="46.005065627396107" lon="9.792144382372499">
        <ele>1858.8499999999999</ele>
        <time>2017-10-08T13:04:44Z</time>
      </trkpt>
      <trkpt lat="46.005098987370729" lon="9.792086128145456">
        <ele>1857.4000000000001</ele>
        <time>2017-10-08T13:04:53Z</time>
      </trkpt>
      <trkpt lat="46.00512932986021" lon="9.792028293013573">
        <ele>1856.4400000000001</ele>
        <time>2017-10-08T13:05:03Z</time>
      </trkpt>
      <trkpt lat="46.005127150565386" lon="9.792015049606562">
        <ele>1855.96</ele>
        <time>2017-10-08T13:05:07Z</time>
      </trkpt>
      <trkpt lat="46.00510242395103" lon="9.79202326387167">
        <ele>1855</ele>
        <time>2017-10-08T13:05:12Z</time>
      </trkpt>
      <trkpt lat="46.005057161673903" lon="9.792045392096043">
        <ele>1854.04</ele>
        <time>2017-10-08T13:05:17Z</time>
      </trkpt>
      <trkpt lat="46.005079708993435" lon="9.792012618854642">
        <ele>1852.5999999999999</ele>
        <time>2017-10-08T13:05:25Z</time>
      </trkpt>
      <trkpt lat="46.005133101716638" lon="9.791966015473008">
        <ele>1850.6800000000001</ele>
        <time>2017-10-08T13:05:36Z</time>
      </trkpt>
      <trkpt lat="46.005173334851861" lon="9.79193676263094">
        <ele>1848.75</ele>
        <time>2017-10-08T13:05:46Z</time>
      </trkpt>
      <trkpt lat="46.005184650421143" lon="9.791922345757484">
        <ele>1847.79</ele>
        <time>2017-10-08T13:05:49Z</time>
      </trkpt>
      <trkpt lat="46.005192277953029" lon="9.791885213926435">
        <ele>1846.8299999999999</ele>
        <time>2017-10-08T13:05:57Z</time>
      </trkpt>
      <trkpt lat="46.005157995969057" lon="9.791867779567838">
        <ele>1845.3900000000001</ele>
        <time>2017-10-08T13:06:07Z</time>
      </trkpt>
      <trkpt lat="46.00515422411263" lon="9.79186886921525">
        <ele>1845.3900000000001</ele>
        <time>2017-10-08T13:06:08Z</time>
      </trkpt>
      <trkpt lat="46.005111560225487" lon="9.791848668828607">
        <ele>1842.98</ele>
        <time>2017-10-08T13:06:17Z</time>
      </trkpt>
      <trkpt lat="46.005135113373399" lon="9.791795276105404">
        <ele>1842.02</ele>
        <time>2017-10-08T13:06:23Z</time>
      </trkpt>
      <trkpt lat="46.005168640986085" lon="9.791787397116423">
        <ele>1841.0599999999999</ele>
        <time>2017-10-08T13:06:27Z</time>
      </trkpt>
      <trkpt lat="46.005199570208788" lon="9.791720006614924">
        <ele>1839.6199999999999</ele>
        <time>2017-10-08T13:06:37Z</time>
      </trkpt>
      <trkpt lat="46.005176939070225" lon="9.791709529235959">
        <ele>1838.6600000000001</ele>
        <time>2017-10-08T13:06:41Z</time>
      </trkpt>
      <trkpt lat="46.005079541355371" lon="9.791662255302072">
        <ele>1837.22</ele>
        <time>2017-10-08T13:06:51Z</time>
      </trkpt>
      <trkpt lat="46.005071578547359" lon="9.791660914197564">
        <ele>1837.22</ele>
        <time>2017-10-08T13:06:52Z</time>
      </trkpt>
      <trkpt lat="46.004976527765393" lon="9.791516913101077">
        <ele>1836.74</ele>
        <time>2017-10-08T13:07:04Z</time>
      </trkpt>
      <trkpt lat="46.00498273037374" lon="9.7914725728333">
        <ele>1836.74</ele>
        <time>2017-10-08T13:07:07Z</time>
      </trkpt>
      <trkpt lat="46.004974348470569" lon="9.791321363300085">
        <ele>1836.74</ele>
        <time>2017-10-08T13:07:19Z</time>
      </trkpt>
      <trkpt lat="46.004955405369401" lon="9.791267970576882">
        <ele>1837.22</ele>
        <time>2017-10-08T13:07:24Z</time>
      </trkpt>
      <trkpt lat="46.004900671541691" lon="9.79127517901361">
        <ele>1835.77</ele>
        <time>2017-10-08T13:07:35Z</time>
      </trkpt>
      <trkpt lat="46.004867060109973" lon="9.791277274489403">
        <ele>1834.3299999999999</ele>
        <time>2017-10-08T13:07:45Z</time>
      </trkpt>
      <trkpt lat="46.004824312403798" lon="9.791268222033978">
        <ele>1832.8900000000001</ele>
        <time>2017-10-08T13:07:54Z</time>
      </trkpt>
      <trkpt lat="46.004771087318659" lon="9.791271574795246">
        <ele>1831.9300000000001</ele>
        <time>2017-10-08T13:08:04Z</time>
      </trkpt>
      <trkpt lat="46.004720376804471" lon="9.791257744655013">
        <ele>1830.01</ele>
        <time>2017-10-08T13:08:15Z</time>
      </trkpt>
      <trkpt lat="46.004772931337357" lon="9.791204100474715">
        <ele>1828.5599999999999</ele>
        <time>2017-10-08T13:08:24Z</time>
      </trkpt>
      <trkpt lat="46.004837471991777" lon="9.791173757985234">
        <ele>1827.1199999999999</ele>
        <time>2017-10-08T13:08:31Z</time>
      </trkpt>
      <trkpt lat="46.004906874150038" lon="9.791132099926472">
        <ele>1827.1199999999999</ele>
        <time>2017-10-08T13:08:39Z</time>
      </trkpt>
      <trkpt lat="46.004937384277582" lon="9.791129166260362">
        <ele>1826.6400000000001</ele>
        <time>2017-10-08T13:08:42Z</time>
      </trkpt>
      <trkpt lat="46.005035620182753" lon="9.791098153218627">
        <ele>1824.72</ele>
        <time>2017-10-08T13:08:52Z</time>
      </trkpt>
      <trkpt lat="46.00509068928659" lon="9.791108798235655">
        <ele>1823.76</ele>
        <time>2017-10-08T13:09:02Z</time>
      </trkpt>
      <trkpt lat="46.00511122494936" lon="9.79113494977355">
        <ele>1822.8</ele>
        <time>2017-10-08T13:09:07Z</time>
      </trkpt>
      <trkpt lat="46.005140226334333" lon="9.791199490427971">
        <ele>1820.8699999999999</ele>
        <time>2017-10-08T13:09:15Z</time>
      </trkpt>
      <trkpt lat="46.005137292668223" lon="9.791237711906433">
        <ele>1819.9100000000001</ele>
        <time>2017-10-08T13:09:19Z</time>
      </trkpt>
      <trkpt lat="46.005172245204449" lon="9.791267300024629">
        <ele>1819.4300000000001</ele>
        <time>2017-10-08T13:09:23Z</time>
      </trkpt>
      <trkpt lat="46.005196049809456" lon="9.791279453784227">
        <ele>1819.4300000000001</ele>
        <time>2017-10-08T13:09:25Z</time>
      </trkpt>
      <trkpt lat="46.005330998450518" lon="9.791298480704427">
        <ele>1818.47</ele>
        <time>2017-10-08T13:09:36Z</time>
      </trkpt>
      <trkpt lat="46.005368130281568" lon="9.791267048567534">
        <ele>1818.47</ele>
        <time>2017-10-08T13:09:41Z</time>
      </trkpt>
      <trkpt lat="46.005440801382065" lon="9.791187839582562">
        <ele>1817.51</ele>
        <time>2017-10-08T13:09:52Z</time>
      </trkpt>
      <trkpt lat="46.005498133599758" lon="9.791172500699759">
        <ele>1816.55</ele>
        <time>2017-10-08T13:10:01Z</time>
      </trkpt>
      <trkpt lat="46.005536774173379" lon="9.791126986965537">
        <ele>1816.0699999999999</ele>
        <time>2017-10-08T13:10:08Z</time>
      </trkpt>
      <trkpt lat="46.005565943196416" lon="9.791110223159194">
        <ele>1815.5899999999999</ele>
        <time>2017-10-08T13:10:11Z</time>
      </trkpt>
      <trkpt lat="46.005619755014777" lon="9.791032774373889">
        <ele>1813.6600000000001</ele>
        <time>2017-10-08T13:10:20Z</time>
      </trkpt>
      <trkpt lat="46.00568781606853" lon="9.791025146842003">
        <ele>1812.22</ele>
        <time>2017-10-08T13:10:30Z</time>
      </trkpt>
      <trkpt lat="46.005740622058511" lon="9.790961109101772">
        <ele>1809.8199999999999</ele>
        <time>2017-10-08T13:10:42Z</time>
      </trkpt>
      <trkpt lat="46.005747495219111" lon="9.790954487398267">
        <ele>1809.8199999999999</ele>
        <time>2017-10-08T13:10:43Z</time>
      </trkpt>
      <trkpt lat="46.005819495767355" lon="9.790929090231657">
        <ele>1807.9000000000001</ele>
        <time>2017-10-08T13:10:53Z</time>
      </trkpt>
      <trkpt lat="46.005851430818439" lon="9.790919283404946">
        <ele>1807.4200000000001</ele>
        <time>2017-10-08T13:10:57Z</time>
      </trkpt>
      <trkpt lat="46.005920832976699" lon="9.790883995592594">
        <ele>1805.97</ele>
        <time>2017-10-08T13:11:06Z</time>
      </trkpt>
      <trkpt lat="46.005988055840135" lon="9.790875110775232">
        <ele>1805.01</ele>
        <time>2017-10-08T13:11:16Z</time>
      </trkpt>
      <trkpt lat="46.00606014020741" lon="9.790824735537171">
        <ele>1802.6099999999999</ele>
        <time>2017-10-08T13:11:28Z</time>
      </trkpt>
      <trkpt lat="46.006073551252484" lon="9.790818868204951">
        <ele>1802.1300000000001</ele>
        <time>2017-10-08T13:11:30Z</time>
      </trkpt>
      <trkpt lat="46.006139600649476" lon="9.790743431076407">
        <ele>1801.1700000000001</ele>
        <time>2017-10-08T13:11:40Z</time>
      </trkpt>
      <trkpt lat="46.006185617297888" lon="9.790691882371903">
        <ele>1800.6900000000001</ele>
        <time>2017-10-08T13:11:51Z</time>
      </trkpt>
      <trkpt lat="46.006222665309906" lon="9.790662880986929">
        <ele>1799.24</ele>
        <time>2017-10-08T13:12:01Z</time>
      </trkpt>
      <trkpt lat="46.00623607635498" lon="9.790660366415978">
        <ele>1798.76</ele>
        <time>2017-10-08T13:12:05Z</time>
      </trkpt>
      <trkpt lat="46.006247391924262" lon="9.790618792176247">
        <ele>1797.3199999999999</ele>
        <time>2017-10-08T13:12:15Z</time>
      </trkpt>
      <trkpt lat="46.006261222064495" lon="9.790559113025665">
        <ele>1796.3599999999999</ele>
        <time>2017-10-08T13:12:23Z</time>
      </trkpt>
      <trkpt lat="46.006293073296547" lon="9.79054762981832">
        <ele>1795.4000000000001</ele>
        <time>2017-10-08T13:12:31Z</time>
      </trkpt>
      <trkpt lat="46.006353758275509" lon="9.790558945387602">
        <ele>1793.48</ele>
        <time>2017-10-08T13:12:41Z</time>
      </trkpt>
      <trkpt lat="46.006381502375007" lon="9.790535056963563">
        <ele>1791.0699999999999</ele>
        <time>2017-10-08T13:12:51Z</time>
      </trkpt>
      <trkpt lat="46.006372701376677" lon="9.790487615391612">
        <ele>1790.1099999999999</ele>
        <time>2017-10-08T13:12:54Z</time>
      </trkpt>
      <trkpt lat="46.006334731355309" lon="9.790388206019998">
        <ele>1788.6700000000001</ele>
        <time>2017-10-08T13:13:03Z</time>
      </trkpt>
      <trkpt lat="46.006333138793707" lon="9.790380662307143">
        <ele>1788.1900000000001</ele>
        <time>2017-10-08T13:13:04Z</time>
      </trkpt>
      <trkpt lat="46.006310759112239" lon="9.790289215743542">
        <ele>1787.71</ele>
        <time>2017-10-08T13:13:15Z</time>
      </trkpt>
      <trkpt lat="46.006302461028099" lon="9.79028862901032">
        <ele>1787.23</ele>
        <time>2017-10-08T13:13:16Z</time>
      </trkpt>
      <trkpt lat="46.006237836554646" lon="9.790336573496461">
        <ele>1786.75</ele>
        <time>2017-10-08T13:13:23Z</time>
      </trkpt>
      <trkpt lat="46.006190646439791" lon="9.790304638445377">
        <ele>1786.27</ele>
        <time>2017-10-08T13:13:29Z</time>
      </trkpt>
      <trkpt lat="46.006162483245134" lon="9.790168767794967">
        <ele>1786.27</ele>
        <time>2017-10-08T13:13:38Z</time>
      </trkpt>
      <trkpt lat="46.006250409409404" lon="9.790043709799647">
        <ele>1785.79</ele>
        <time>2017-10-08T13:13:49Z</time>
      </trkpt>
      <trkpt lat="46.006275974214077" lon="9.790018731728196">
        <ele>1785.3099999999999</ele>
        <time>2017-10-08T13:13:52Z</time>
      </trkpt>
      <trkpt lat="46.00631914101541" lon="9.789957627654076">
        <ele>1784.3399999999999</ele>
        <time>2017-10-08T13:13:57Z</time>
      </trkpt>
      <trkpt lat="46.006426848471165" lon="9.789807591587305">
        <ele>1783.8599999999999</ele>
        <time>2017-10-08T13:14:11Z</time>
      </trkpt>
      <trkpt lat="46.006433637812734" lon="9.789764760062099">
        <ele>1783.8599999999999</ele>
        <time>2017-10-08T13:14:14Z</time>
      </trkpt>
      <trkpt lat="46.006494490429759" lon="9.78962067514658">
        <ele>1783.3800000000001</ele>
        <time>2017-10-08T13:14:25Z</time>
      </trkpt>
      <trkpt lat="46.006530029699206" lon="9.789502322673798">
        <ele>1783.8599999999999</ele>
        <time>2017-10-08T13:14:34Z</time>
      </trkpt>
      <trkpt lat="46.006582668051124" lon="9.78940567933023">
        <ele>1783.3800000000001</ele>
        <time>2017-10-08T13:14:43Z</time>
      </trkpt>
      <trkpt lat="46.006611920893192" lon="9.789330828934908">
        <ele>1783.3800000000001</ele>
        <time>2017-10-08T13:14:53Z</time>
      </trkpt>
      <trkpt lat="46.006631618365645" lon="9.789287745952606">
        <ele>1782.4200000000001</ele>
        <time>2017-10-08T13:15:03Z</time>
      </trkpt>
      <trkpt lat="46.00667679682374" lon="9.789203507825732">
        <ele>1780.98</ele>
        <time>2017-10-08T13:15:12Z</time>
      </trkpt>
      <trkpt lat="46.006740164011717" lon="9.789158413186669">
        <ele>1779.54</ele>
        <time>2017-10-08T13:15:22Z</time>
      </trkpt>
      <trkpt lat="46.006768327206373" lon="9.78913301602006">
        <ele>1778.5799999999999</ele>
        <time>2017-10-08T13:15:32Z</time>
      </trkpt>
      <trkpt lat="46.006802441552281" lon="9.789102589711547">
        <ele>1778.0999999999999</ele>
        <time>2017-10-08T13:15:43Z</time>
      </trkpt>
      <trkpt lat="46.006823647767305" lon="9.789063949137926">
        <ele>1776.6500000000001</ele>
        <time>2017-10-08T13:15:51Z</time>
      </trkpt>
      <trkpt lat="46.00685223005712" lon="9.789012568071485">
        <ele>1775.6900000000001</ele>
        <time>2017-10-08T13:16:00Z</time>
      </trkpt>
      <trkpt lat="46.006889194250107" lon="9.788960516452789">
        <ele>1773.77</ele>
        <time>2017-10-08T13:16:10Z</time>
      </trkpt>
      <trkpt lat="46.006908137351274" lon="9.788957331329584">
        <ele>1774.25</ele>
        <time>2017-10-08T13:16:14Z</time>
      </trkpt>
      <trkpt lat="46.00690403021872" lon="9.789009802043438">
        <ele>1773.29</ele>
        <time>2017-10-08T13:16:23Z</time>
      </trkpt>
      <trkpt lat="46.006883326917887" lon="9.78907098993659">
        <ele>1771.8499999999999</ele>
        <time>2017-10-08T13:16:30Z</time>
      </trkpt>
      <trkpt lat="46.00688399747014" lon="9.789091777056456">
        <ele>1770.4100000000001</ele>
        <time>2017-10-08T13:16:37Z</time>
      </trkpt>
      <trkpt lat="46.006957925856113" lon="9.789055315777659">
        <ele>1768.96</ele>
        <time>2017-10-08T13:16:47Z</time>
      </trkpt>
      <trkpt lat="46.007032189518213" lon="9.788993876427412">
        <ele>1768</ele>
        <time>2017-10-08T13:16:56Z</time>
      </trkpt>
      <trkpt lat="46.007068483158946" lon="9.788960181176662">
        <ele>1767.52</ele>
        <time>2017-10-08T13:17:05Z</time>
      </trkpt>
      <trkpt lat="46.007123468443751" lon="9.788911733776331">
        <ele>1765.1199999999999</ele>
        <time>2017-10-08T13:17:15Z</time>
      </trkpt>
      <trkpt lat="46.007193457335234" lon="9.788855826482177">
        <ele>1764.1600000000001</ele>
        <time>2017-10-08T13:17:25Z</time>
      </trkpt>
      <trkpt lat="46.007274258881807" lon="9.788810815662146">
        <ele>1763.6800000000001</ele>
        <time>2017-10-08T13:17:34Z</time>
      </trkpt>
      <trkpt lat="46.007309462875128" lon="9.788787178695202">
        <ele>1763.6800000000001</ele>
        <time>2017-10-08T13:17:38Z</time>
      </trkpt>
      <trkpt lat="46.007389593869448" lon="9.788692714646459">
        <ele>1762.71</ele>
        <time>2017-10-08T13:17:50Z</time>
      </trkpt>
      <trkpt lat="46.007420103996992" lon="9.788663210347295">
        <ele>1762.23</ele>
        <time>2017-10-08T13:17:55Z</time>
      </trkpt>
      <trkpt lat="46.007498139515519" lon="9.788640327751637">
        <ele>1761.75</ele>
        <time>2017-10-08T13:18:04Z</time>
      </trkpt>
      <trkpt lat="46.007631411775947" lon="9.788623563945293">
        <ele>1760.3099999999999</ele>
        <time>2017-10-08T13:18:17Z</time>
      </trkpt>
      <trkpt lat="46.007681954652071" lon="9.788539661094546">
        <ele>1760.79</ele>
        <time>2017-10-08T13:18:26Z</time>
      </trkpt>
      <trkpt lat="46.007741801440716" lon="9.788450226187706">
        <ele>1760.79</ele>
        <time>2017-10-08T13:18:36Z</time>
      </trkpt>
      <trkpt lat="46.00774984806776" lon="9.788439581170678">
        <ele>1760.79</ele>
        <time>2017-10-08T13:18:37Z</time>
      </trkpt>
      <trkpt lat="46.007772395387292" lon="9.78833170607686">
        <ele>1761.27</ele>
        <time>2017-10-08T13:18:46Z</time>
      </trkpt>
      <trkpt lat="46.007852610200644" lon="9.788177227601409">
        <ele>1761.27</ele>
        <time>2017-10-08T13:18:59Z</time>
      </trkpt>
      <trkpt lat="46.007880102843046" lon="9.788107573986054">
        <ele>1760.79</ele>
        <time>2017-10-08T13:19:05Z</time>
      </trkpt>
      <trkpt lat="46.007891837507486" lon="9.78806491009891">
        <ele>1760.3099999999999</ele>
        <time>2017-10-08T13:19:10Z</time>
      </trkpt>
      <trkpt lat="46.007901057600975" lon="9.788038674741983">
        <ele>1760.3099999999999</ele>
        <time>2017-10-08T13:19:12Z</time>
      </trkpt>
      <trkpt lat="46.007957551628351" lon="9.787956699728966">
        <ele>1759.3499999999999</ele>
        <time>2017-10-08T13:19:22Z</time>
      </trkpt>
      <trkpt lat="46.007999544963241" lon="9.787891656160355">
        <ele>1757.9100000000001</ele>
        <time>2017-10-08T13:19:33Z</time>
      </trkpt>
      <trkpt lat="46.008026534691453" lon="9.787860894575715">
        <ele>1756.47</ele>
        <time>2017-10-08T13:19:42Z</time>
      </trkpt>
      <trkpt lat="46.008063917979598" lon="9.787767101079226">
        <ele>1755.02</ele>
        <time>2017-10-08T13:19:53Z</time>
      </trkpt>
      <trkpt lat="46.008081268519163" lon="9.787668781355023">
        <ele>1753.5799999999999</ele>
        <time>2017-10-08T13:20:02Z</time>
      </trkpt>
      <trkpt lat="46.00807816721499" lon="9.787658639252186">
        <ele>1753.0999999999999</ele>
        <time>2017-10-08T13:20:03Z</time>
      </trkpt>
      <trkpt lat="46.008071377873421" lon="9.787526791915298">
        <ele>1752.1400000000001</ele>
        <time>2017-10-08T13:20:15Z</time>
      </trkpt>
      <trkpt lat="46.008116723969579" lon="9.787549506872892">
        <ele>1751.1800000000001</ele>
        <time>2017-10-08T13:20:23Z</time>
      </trkpt>
      <trkpt lat="46.008153352886438" lon="9.787637097761035">
        <ele>1750.22</ele>
        <time>2017-10-08T13:20:32Z</time>
      </trkpt>
      <trkpt lat="46.008185874670744" lon="9.787714798003435">
        <ele>1748.78</ele>
        <time>2017-10-08T13:20:40Z</time>
      </trkpt>
      <trkpt lat="46.008194508031011" lon="9.787770956754684">
        <ele>1748.29</ele>
        <time>2017-10-08T13:20:44Z</time>
      </trkpt>
      <trkpt lat="46.008188221603632" lon="9.787895008921623">
        <ele>1747.3299999999999</ele>
        <time>2017-10-08T13:20:54Z</time>
      </trkpt>
      <trkpt lat="46.008179504424334" lon="9.787976648658514">
        <ele>1745.8900000000001</ele>
        <time>2017-10-08T13:21:03Z</time>
      </trkpt>
      <trkpt lat="46.008157795295119" lon="9.788049906492233">
        <ele>1745.4100000000001</ele>
        <time>2017-10-08T13:21:13Z</time>
      </trkpt>
      <trkpt lat="46.008154777809978" lon="9.788096509873867">
        <ele>1744.9300000000001</ele>
        <time>2017-10-08T13:21:24Z</time>
      </trkpt>
      <trkpt lat="46.008144300431013" lon="9.788137078285217">
        <ele>1743.01</ele>
        <time>2017-10-08T13:21:34Z</time>
      </trkpt>
      <trkpt lat="46.008117897436023" lon="9.788223579525948">
        <ele>1741.0799999999999</ele>
        <time>2017-10-08T13:21:45Z</time>
      </trkpt>
      <trkpt lat="46.008107252418995" lon="9.788279822096229">
        <ele>1740.1199999999999</ele>
        <time>2017-10-08T13:21:51Z</time>
      </trkpt>
      <trkpt lat="46.008119489997625" lon="9.78839666582644">
        <ele>1738.2</ele>
        <time>2017-10-08T13:22:02Z</time>
      </trkpt>
      <trkpt lat="46.008118316531181" lon="9.788480484858155">
        <ele>1737.72</ele>
        <time>2017-10-08T13:22:10Z</time>
      </trkpt>
      <trkpt lat="46.008123094215989" lon="9.788480484858155">
        <ele>1737.24</ele>
        <time>2017-10-08T13:22:11Z</time>
      </trkpt>
      <trkpt lat="46.008170703426003" lon="9.78837906382978">
        <ele>1736.28</ele>
        <time>2017-10-08T13:22:18Z</time>
      </trkpt>
      <trkpt lat="46.008246056735516" lon="9.788216203451157">
        <ele>1736.28</ele>
        <time>2017-10-08T13:22:31Z</time>
      </trkpt>
      <trkpt lat="46.008289642632008" lon="9.788138503208756">
        <ele>1736.28</ele>
        <time>2017-10-08T13:22:38Z</time>
      </trkpt>
      <trkpt lat="46.008299365639687" lon="9.788074884563685">
        <ele>1736.28</ele>
        <time>2017-10-08T13:22:42Z</time>
      </trkpt>
      <trkpt lat="46.00835133343935" lon="9.787950664758682">
        <ele>1735.3199999999999</ele>
        <time>2017-10-08T13:22:54Z</time>
      </trkpt>
      <trkpt lat="46.008401876315475" lon="9.787870617583394">
        <ele>1734.3599999999999</ele>
        <time>2017-10-08T13:23:03Z</time>
      </trkpt>
      <trkpt lat="46.008424591273069" lon="9.787838514894247">
        <ele>1733.8800000000001</ele>
        <time>2017-10-08T13:23:07Z</time>
      </trkpt>
      <trkpt lat="46.008454179391265" lon="9.787780093029141">
        <ele>1732.9100000000001</ele>
        <time>2017-10-08T13:23:12Z</time>
      </trkpt>
      <trkpt lat="46.008493155241013" lon="9.787641875445843">
        <ele>1731.95</ele>
        <time>2017-10-08T13:23:22Z</time>
      </trkpt>
      <trkpt lat="46.008532969281077" lon="9.787553027272224">
        <ele>1730.99</ele>
        <time>2017-10-08T13:23:33Z</time>
      </trkpt>
      <trkpt lat="46.00851402617991" lon="9.787462335079908">
        <ele>1730.99</ele>
        <time>2017-10-08T13:23:43Z</time>
      </trkpt>
      <trkpt lat="46.008508913218975" lon="9.787436686456204">
        <ele>1728.5899999999999</ele>
        <time>2017-10-08T13:23:46Z</time>
      </trkpt>
      <trkpt lat="46.00849692709744" lon="9.787387987598777">
        <ele>1727.1500000000001</ele>
        <time>2017-10-08T13:23:55Z</time>
      </trkpt>
      <trkpt lat="46.008511008694768" lon="9.787348425015807">
        <ele>1726.6700000000001</ele>
        <time>2017-10-08T13:24:06Z</time>
      </trkpt>
      <trkpt lat="46.008479576557875" lon="9.78730458766222">
        <ele>1725.22</ele>
        <time>2017-10-08T13:24:13Z</time>
      </trkpt>
      <trkpt lat="46.008545709773898" lon="9.787249015644193">
        <ele>1723.78</ele>
        <time>2017-10-08T13:24:21Z</time>
      </trkpt>
      <trkpt lat="46.008584015071392" lon="9.787233090028167">
        <ele>1722.8199999999999</ele>
        <time>2017-10-08T13:24:27Z</time>
      </trkpt>
      <trkpt lat="46.008530035614967" lon="9.787107780575752">
        <ele>1720.9000000000001</ele>
        <time>2017-10-08T13:24:37Z</time>
      </trkpt>
      <trkpt lat="46.008509332314134" lon="9.787025721743703">
        <ele>1720.4200000000001</ele>
        <time>2017-10-08T13:24:44Z</time>
      </trkpt>
      <trkpt lat="46.008473290130496" lon="9.78693176060915">
        <ele>1718.97</ele>
        <time>2017-10-08T13:24:54Z</time>
      </trkpt>
      <trkpt lat="46.008389638736844" lon="9.786898400634527">
        <ele>1717.53</ele>
        <time>2017-10-08T13:25:05Z</time>
      </trkpt>
      <trkpt lat="46.008365834131837" lon="9.786896724253893">
        <ele>1717.53</ele>
        <time>2017-10-08T13:25:08Z</time>
      </trkpt>
      <trkpt lat="46.008347310125828" lon="9.78689169511199">
        <ele>1716.5699999999999</ele>
        <time>2017-10-08T13:25:10Z</time>
      </trkpt>
      <trkpt lat="46.008290397003293" lon="9.786853641271591">
        <ele>1715.6099999999999</ele>
        <time>2017-10-08T13:25:19Z</time>
      </trkpt>
      <trkpt lat="46.008264664560556" lon="9.786843582987785">
        <ele>1715.6099999999999</ele>
        <time>2017-10-08T13:25:23Z</time>
      </trkpt>
      <trkpt lat="46.008137846365571" lon="9.786823047325015">
        <ele>1714.1700000000001</ele>
        <time>2017-10-08T13:25:35Z</time>
      </trkpt>
      <trkpt lat="46.008099708706141" lon="9.786823969334364">
        <ele>1714.1700000000001</ele>
        <time>2017-10-08T13:25:40Z</time>
      </trkpt>
      <trkpt lat="46.008020164445043" lon="9.786718273535371">
        <ele>1712.25</ele>
        <time>2017-10-08T13:25:53Z</time>
      </trkpt>
      <trkpt lat="46.008044639602304" lon="9.786603106185794">
        <ele>1711.28</ele>
        <time>2017-10-08T13:26:02Z</time>
      </trkpt>
      <trkpt lat="46.008073138073087" lon="9.786624480038881">
        <ele>1710.3199999999999</ele>
        <time>2017-10-08T13:26:05Z</time>
      </trkpt>
      <trkpt lat="46.008142288774252" lon="9.786638226360083">
        <ele>1709.3599999999999</ele>
        <time>2017-10-08T13:26:15Z</time>
      </trkpt>
      <trkpt lat="46.008194675669074" lon="9.786604195833206">
        <ele>1708.4000000000001</ele>
        <time>2017-10-08T13:26:23Z</time>
      </trkpt>
      <trkpt lat="46.008218061178923" lon="9.786564465612173">
        <ele>1707.4400000000001</ele>
        <time>2017-10-08T13:26:31Z</time>
      </trkpt>
      <trkpt lat="46.008265838027" lon="9.786522556096315">
        <ele>1706</ele>
        <time>2017-10-08T13:26:40Z</time>
      </trkpt>
      <trkpt lat="46.008346304297447" lon="9.786502690985799">
        <ele>1704.55</ele>
        <time>2017-10-08T13:26:51Z</time>
      </trkpt>
      <trkpt lat="46.008450910449028" lon="9.786477964371443">
        <ele>1702.1500000000001</ele>
        <time>2017-10-08T13:27:04Z</time>
      </trkpt>
      <trkpt lat="46.00850329734385" lon="9.786458099260926">
        <ele>1701.6700000000001</ele>
        <time>2017-10-08T13:27:13Z</time>
      </trkpt>
      <trkpt lat="46.008527437224984" lon="9.786398252472282">
        <ele>1700.23</ele>
        <time>2017-10-08T13:27:22Z</time>
      </trkpt>
      <trkpt lat="46.008556103333831" lon="9.786382745951414">
        <ele>1699.27</ele>
        <time>2017-10-08T13:27:33Z</time>
      </trkpt>
      <trkpt lat="46.008601281791925" lon="9.786315523087978">
        <ele>1697.3399999999999</ele>
        <time>2017-10-08T13:27:43Z</time>
      </trkpt>
      <trkpt lat="46.008655847981572" lon="9.786336394026876">
        <ele>1695.9000000000001</ele>
        <time>2017-10-08T13:27:51Z</time>
      </trkpt>
      <trkpt lat="46.008714186027646" lon="9.786337651312351">
        <ele>1694.46</ele>
        <time>2017-10-08T13:27:59Z</time>
      </trkpt>
      <trkpt lat="46.008782163262367" lon="9.786326671019197">
        <ele>1693.5</ele>
        <time>2017-10-08T13:28:08Z</time>
      </trkpt>
      <trkpt lat="46.008860869333148" lon="9.786362294107676">
        <ele>1692.0599999999999</ele>
        <time>2017-10-08T13:28:19Z</time>
      </trkpt>
      <trkpt lat="46.008863970637321" lon="9.786339998245239">
        <ele>1690.6199999999999</ele>
        <time>2017-10-08T13:28:27Z</time>
      </trkpt>
      <trkpt lat="46.008825330063701" lon="9.786250647157431">
        <ele>1689.6500000000001</ele>
        <time>2017-10-08T13:28:38Z</time>
      </trkpt>
      <trkpt lat="46.008873442187905" lon="9.786296999081969">
        <ele>1688.6900000000001</ele>
        <time>2017-10-08T13:28:46Z</time>
      </trkpt>
      <trkpt lat="46.008894899860024" lon="9.786279397085309">
        <ele>1687.73</ele>
        <time>2017-10-08T13:28:55Z</time>
      </trkpt>
      <trkpt lat="46.008932953700423" lon="9.78625450283289">
        <ele>1686.29</ele>
        <time>2017-10-08T13:29:05Z</time>
      </trkpt>
      <trkpt lat="46.008970001712441" lon="9.786256430670619">
        <ele>1684.8499999999999</ele>
        <time>2017-10-08T13:29:12Z</time>
      </trkpt>
      <trkpt lat="46.008959943428636" lon="9.786165319383144">
        <ele>1683.4100000000001</ele>
        <time>2017-10-08T13:29:24Z</time>
      </trkpt>
      <trkpt lat="46.009022891521454" lon="9.786230362951756">
        <ele>1682.4400000000001</ele>
        <time>2017-10-08T13:29:33Z</time>
      </trkpt>
      <trkpt lat="46.009069159626961" lon="9.786269925534725">
        <ele>1681</ele>
        <time>2017-10-08T13:29:42Z</time>
      </trkpt>
      <trkpt lat="46.009093299508095" lon="9.786309823393822">
        <ele>1680.04</ele>
        <time>2017-10-08T13:29:47Z</time>
      </trkpt>
      <trkpt lat="46.009135209023952" lon="9.786337483674288">
        <ele>1679.0799999999999</ele>
        <time>2017-10-08T13:29:56Z</time>
      </trkpt>
      <trkpt lat="46.009092796593904" lon="9.786284593865275">
        <ele>1678.1199999999999</ele>
        <time>2017-10-08T13:30:02Z</time>
      </trkpt>
      <trkpt lat="46.009083492681384" lon="9.786138916388154">
        <ele>1676.2</ele>
        <time>2017-10-08T13:30:14Z</time>
      </trkpt>
      <trkpt lat="46.009074691683054" lon="9.786123158410192">
        <ele>1676.2</ele>
        <time>2017-10-08T13:30:17Z</time>
      </trkpt>
      <trkpt lat="46.009043930098414" lon="9.785996926948428">
        <ele>1674.27</ele>
        <time>2017-10-08T13:30:28Z</time>
      </trkpt>
      <trkpt lat="46.009044349193573" lon="9.785978570580483">
        <ele>1673.79</ele>
        <time>2017-10-08T13:30:30Z</time>
      </trkpt>
      <trkpt lat="46.009000344201922" lon="9.785887375473976">
        <ele>1672.8299999999999</ele>
        <time>2017-10-08T13:30:40Z</time>
      </trkpt>
      <trkpt lat="46.009048791602254" lon="9.785844208672643">
        <ele>1670.9100000000001</ele>
        <time>2017-10-08T13:30:50Z</time>
      </trkpt>
      <trkpt lat="46.009115763008595" lon="9.785927776247263">
        <ele>1669.47</ele>
        <time>2017-10-08T13:31:00Z</time>
      </trkpt>
      <trkpt lat="46.009169407188892" lon="9.785997597500682">
        <ele>1669.47</ele>
        <time>2017-10-08T13:31:09Z</time>
      </trkpt>
      <trkpt lat="46.009174771606922" lon="9.786003548651934">
        <ele>1668.51</ele>
        <time>2017-10-08T13:31:10Z</time>
      </trkpt>
      <trkpt lat="46.009228499606252" lon="9.786085523664951">
        <ele>1667.0599999999999</ele>
        <time>2017-10-08T13:31:19Z</time>
      </trkpt>
      <trkpt lat="46.00926211103797" lon="9.786166325211525">
        <ele>1665.6199999999999</ele>
        <time>2017-10-08T13:31:29Z</time>
      </trkpt>
      <trkpt lat="46.009290693327785" lon="9.786202702671289">
        <ele>1664.1800000000001</ele>
        <time>2017-10-08T13:31:38Z</time>
      </trkpt>
      <trkpt lat="46.009291615337133" lon="9.786204798147082">
        <ele>1663.22</ele>
        <time>2017-10-08T13:31:44Z</time>
      </trkpt>
      <trkpt lat="46.009277617558837" lon="9.786083092913032">
        <ele>1660.8099999999999</ele>
        <time>2017-10-08T13:31:55Z</time>
      </trkpt>
      <trkpt lat="46.009279629215598" lon="9.786018216982484">
        <ele>1658.8900000000001</ele>
        <time>2017-10-08T13:32:05Z</time>
      </trkpt>
      <trkpt lat="46.009306032210588" lon="9.785960884764791">
        <ele>1657.45</ele>
        <time>2017-10-08T13:32:14Z</time>
      </trkpt>
      <trkpt lat="46.009351210668683" lon="9.78604830801487">
        <ele>1656.49</ele>
        <time>2017-10-08T13:32:20Z</time>
      </trkpt>
      <trkpt lat="46.009407369419932" lon="9.786098347976804">
        <ele>1655.05</ele>
        <time>2017-10-08T13:32:29Z</time>
      </trkpt>
      <trkpt lat="46.009415918961167" lon="9.786103293299675">
        <ele>1653.5999999999999</ele>
        <time>2017-10-08T13:32:38Z</time>
      </trkpt>
      <trkpt lat="46.009360263124108" lon="9.786034896969795">
        <ele>1652.6400000000001</ele>
        <time>2017-10-08T13:32:47Z</time>
      </trkpt>
      <trkpt lat="46.009396724402905" lon="9.786020647734404">
        <ele>1651.2</ele>
        <time>2017-10-08T13:32:57Z</time>
      </trkpt>
      <trkpt lat="46.009456068277359" lon="9.786132629960775">
        <ele>1649.76</ele>
        <time>2017-10-08T13:33:07Z</time>
      </trkpt>
      <trkpt lat="46.009447183459997" lon="9.78620421141386">
        <ele>1648.3199999999999</ele>
        <time>2017-10-08T13:33:17Z</time>
      </trkpt>
      <trkpt lat="46.009467802941799" lon="9.786228938028216">
        <ele>1647.3599999999999</ele>
        <time>2017-10-08T13:33:26Z</time>
      </trkpt>
      <trkpt lat="46.009487500414252" lon="9.786178059875965">
        <ele>1645.9100000000001</ele>
        <time>2017-10-08T13:33:34Z</time>
      </trkpt>
      <trkpt lat="46.00947224535048" lon="9.786121984943748">
        <ele>1643.99</ele>
        <time>2017-10-08T13:33:46Z</time>
      </trkpt>
      <trkpt lat="46.009526895359159" lon="9.786140006035566">
        <ele>1643.03</ele>
        <time>2017-10-08T13:33:54Z</time>
      </trkpt>
      <trkpt lat="46.009583976119757" lon="9.786205384880304">
        <ele>1642.0699999999999</ele>
        <time>2017-10-08T13:34:05Z</time>
      </trkpt>
      <trkpt lat="46.009582718834281" lon="9.786190213635564">
        <ele>1641.5899999999999</ele>
        <time>2017-10-08T13:34:07Z</time>
      </trkpt>
      <trkpt lat="46.00953720510006" lon="9.78610010817647">
        <ele>1640.1500000000001</ele>
        <time>2017-10-08T13:34:18Z</time>
      </trkpt>
      <trkpt lat="46.009523374959826" lon="9.786039758473635">
        <ele>1638.7</ele>
        <time>2017-10-08T13:34:28Z</time>
      </trkpt>
      <trkpt lat="46.009571403264999" lon="9.786088122054935">
        <ele>1637.26</ele>
        <time>2017-10-08T13:34:36Z</time>
      </trkpt>
      <trkpt lat="46.00964130833745" lon="9.786120057106018">
        <ele>1635.3399999999999</ele>
        <time>2017-10-08T13:34:46Z</time>
      </trkpt>
      <trkpt lat="46.009671315550804" lon="9.786148304119706">
        <ele>1633.9000000000001</ele>
        <time>2017-10-08T13:34:54Z</time>
      </trkpt>
      <trkpt lat="46.009737113490701" lon="9.786208653822541">
        <ele>1632.9400000000001</ele>
        <time>2017-10-08T13:35:03Z</time>
      </trkpt>
      <trkpt lat="46.009750189259648" lon="9.786138916388154">
        <ele>1631.49</ele>
        <time>2017-10-08T13:35:12Z</time>
      </trkpt>
      <trkpt lat="46.0097336769104" lon="9.786101281642914">
        <ele>1629.5699999999999</ele>
        <time>2017-10-08T13:35:16Z</time>
      </trkpt>
      <trkpt lat="46.009687995538116" lon="9.785950994119048">
        <ele>1628.6099999999999</ele>
        <time>2017-10-08T13:35:27Z</time>
      </trkpt>
      <trkpt lat="46.009681709110737" lon="9.785914868116379">
        <ele>1628.6099999999999</ele>
        <time>2017-10-08T13:35:30Z</time>
      </trkpt>
      <trkpt lat="46.009712554514408" lon="9.785901121795178">
        <ele>1627.1700000000001</ele>
        <time>2017-10-08T13:35:39Z</time>
      </trkpt>
      <trkpt lat="46.009743986651301" lon="9.785954682156444">
        <ele>1627.1700000000001</ele>
        <time>2017-10-08T13:35:44Z</time>
      </trkpt>
      <trkpt lat="46.009814310818911" lon="9.786058198660612">
        <ele>1625.25</ele>
        <time>2017-10-08T13:35:57Z</time>
      </trkpt>
      <trkpt lat="46.009813053533435" lon="9.786025173962116">
        <ele>1623.3199999999999</ele>
        <time>2017-10-08T13:36:06Z</time>
      </trkpt>
      <trkpt lat="46.009801989421248" lon="9.785889554768801">
        <ele>1621.8800000000001</ele>
        <time>2017-10-08T13:36:17Z</time>
      </trkpt>
      <trkpt lat="46.009816406294703" lon="9.785789726302028">
        <ele>1620.4400000000001</ele>
        <time>2017-10-08T13:36:27Z</time>
      </trkpt>
      <trkpt lat="46.009890669956803" lon="9.785839850082994">
        <ele>1618.04</ele>
        <time>2017-10-08T13:36:38Z</time>
      </trkpt>
      <trkpt lat="46.009933417662978" lon="9.785973289981484">
        <ele>1617.0699999999999</ele>
        <time>2017-10-08T13:36:49Z</time>
      </trkpt>
      <trkpt lat="46.010001646354795" lon="9.786098850890994">
        <ele>1615.6300000000001</ele>
        <time>2017-10-08T13:37:02Z</time>
      </trkpt>
      <trkpt lat="46.010050261393189" lon="9.786187531426549">
        <ele>1616.1099999999999</ele>
        <time>2017-10-08T13:37:12Z</time>
      </trkpt>
      <trkpt lat="46.010078089311719" lon="9.786191554740071">
        <ele>1613.71</ele>
        <time>2017-10-08T13:37:16Z</time>
      </trkpt>
      <trkpt lat="46.010099379345775" lon="9.786220220848918">
        <ele>1613.23</ele>
        <time>2017-10-08T13:37:19Z</time>
      </trkpt>
      <trkpt lat="46.010127207264304" lon="9.786233631893992">
        <ele>1613.23</ele>
        <time>2017-10-08T13:37:22Z</time>
      </trkpt>
      <trkpt lat="46.010193256661296" lon="9.786308649927378">
        <ele>1611.79</ele>
        <time>2017-10-08T13:37:33Z</time>
      </trkpt>
      <trkpt lat="46.01019149646163" lon="9.786258861422539">
        <ele>1610.8299999999999</ele>
        <time>2017-10-08T13:37:38Z</time>
      </trkpt>
      <trkpt lat="46.010158387944102" lon="9.786123912781477">
        <ele>1608.9000000000001</ele>
        <time>2017-10-08T13:37:50Z</time>
      </trkpt>
      <trkpt lat="46.010155957192183" lon="9.785996843129396">
        <ele>1607.9400000000001</ele>
        <time>2017-10-08T13:38:00Z</time>
      </trkpt>
      <trkpt lat="46.010159645229578" lon="9.785967003554106">
        <ele>1607.46</ele>
        <time>2017-10-08T13:38:03Z</time>
      </trkpt>
      <trkpt lat="46.010198537260294" lon="9.785860050469637">
        <ele>1606.02</ele>
        <time>2017-10-08T13:38:13Z</time>
      </trkpt>
      <trkpt lat="46.010264251381159" lon="9.785865414887667">
        <ele>1604.0999999999999</ele>
        <time>2017-10-08T13:38:22Z</time>
      </trkpt>
      <trkpt lat="46.010310268029571" lon="9.785856530070305">
        <ele>1602.6600000000001</ele>
        <time>2017-10-08T13:38:32Z</time>
      </trkpt>
      <trkpt lat="46.010390734300017" lon="9.785936577245593">
        <ele>1602.1700000000001</ele>
        <time>2017-10-08T13:38:41Z</time>
      </trkpt>
      <trkpt lat="46.010464243590832" lon="9.786008410155773">
        <ele>1600.25</ele>
        <time>2017-10-08T13:38:52Z</time>
      </trkpt>
      <trkpt lat="46.010526856407523" lon="9.786032801494002">
        <ele>1599.29</ele>
        <time>2017-10-08T13:39:01Z</time>
      </trkpt>
      <trkpt lat="46.010580500587821" lon="9.78602048009634">
        <ele>1598.8099999999999</ele>
        <time>2017-10-08T13:39:08Z</time>
      </trkpt>
      <trkpt lat="46.010634815320373" lon="9.786016708239913">
        <ele>1598.3299999999999</ele>
        <time>2017-10-08T13:39:17Z</time>
      </trkpt>
      <trkpt lat="46.010590139776468" lon="9.785975972190499">
        <ele>1596.8900000000001</ele>
        <time>2017-10-08T13:39:27Z</time>
      </trkpt>
      <trkpt lat="46.010585948824883" lon="9.78596817702055">
        <ele>1596.8900000000001</ele>
        <time>2017-10-08T13:39:28Z</time>
      </trkpt>
      <trkpt lat="46.010539764538407" lon="9.785931883379817">
        <ele>1596.4100000000001</ele>
        <time>2017-10-08T13:39:34Z</time>
      </trkpt>
      <trkpt lat="46.010544877499342" lon="9.785797270014882">
        <ele>1595.45</ele>
        <time>2017-10-08T13:39:44Z</time>
      </trkpt>
      <trkpt lat="46.010597180575132" lon="9.785689562559128">
        <ele>1594.96</ele>
        <time>2017-10-08T13:39:54Z</time>
      </trkpt>
      <trkpt lat="46.010643197223544" lon="9.785644048824906">
        <ele>1594</ele>
        <time>2017-10-08T13:40:01Z</time>
      </trkpt>
      <trkpt lat="46.010721484199166" lon="9.785609934478998">
        <ele>1592.5599999999999</ele>
        <time>2017-10-08T13:40:11Z</time>
      </trkpt>
      <trkpt lat="46.010784348472953" lon="9.785555703565478">
        <ele>1592.0799999999999</ele>
        <time>2017-10-08T13:40:21Z</time>
      </trkpt>
      <trkpt lat="46.010824246332049" lon="9.785528881475329">
        <ele>1591.1199999999999</ele>
        <time>2017-10-08T13:40:27Z</time>
      </trkpt>
      <trkpt lat="46.010895157232881" lon="9.785523936152458">
        <ele>1590.1600000000001</ele>
        <time>2017-10-08T13:40:35Z</time>
      </trkpt>
      <trkpt lat="46.010875627398491" lon="9.785621585324407">
        <ele>1589.2</ele>
        <time>2017-10-08T13:40:44Z</time>
      </trkpt>
      <trkpt lat="46.010926924645901" lon="9.785643629729748">
        <ele>1587.75</ele>
        <time>2017-10-08T13:40:54Z</time>
      </trkpt>
      <trkpt lat="46.010952657088637" lon="9.785623848438263">
        <ele>1586.79</ele>
        <time>2017-10-08T13:41:05Z</time>
      </trkpt>
      <trkpt lat="46.010962212458253" lon="9.785635666921735">
        <ele>1586.3099999999999</ele>
        <time>2017-10-08T13:41:07Z</time>
      </trkpt>
      <trkpt lat="46.011008229106665" lon="9.785689562559128">
        <ele>1585.3499999999999</ele>
        <time>2017-10-08T13:41:15Z</time>
      </trkpt>
      <trkpt lat="46.011055586859584" lon="9.785645473748446">
        <ele>1583.9100000000001</ele>
        <time>2017-10-08T13:41:24Z</time>
      </trkpt>
      <trkpt lat="46.011097161099315" lon="9.785573640838265">
        <ele>1582.47</ele>
        <time>2017-10-08T13:41:34Z</time>
      </trkpt>
      <trkpt lat="46.011099591851234" lon="9.78555235080421">
        <ele>1582.47</ele>
        <time>2017-10-08T13:41:36Z</time>
      </trkpt>
      <trkpt lat="46.011106884106994" lon="9.785464759916067">
        <ele>1581.03</ele>
        <time>2017-10-08T13:41:46Z</time>
      </trkpt>
      <trkpt lat="46.011134795844555" lon="9.785437937825918">
        <ele>1580.0599999999999</ele>
        <time>2017-10-08T13:41:55Z</time>
      </trkpt>
      <trkpt lat="46.011188104748726" lon="9.785456378012896">
        <ele>1579.0999999999999</ele>
        <time>2017-10-08T13:42:03Z</time>
      </trkpt>
      <trkpt lat="46.011221883818507" lon="9.785464340820909">
        <ele>1577.1800000000001</ele>
        <time>2017-10-08T13:42:11Z</time>
      </trkpt>
      <trkpt lat="46.011216267943382" lon="9.785406589508057">
        <ele>1576.22</ele>
        <time>2017-10-08T13:42:19Z</time>
      </trkpt>
      <trkpt lat="46.011226326227188" lon="9.785316232591867">
        <ele>1574.78</ele>
        <time>2017-10-08T13:42:30Z</time>
      </trkpt>
      <trkpt lat="46.011251304298639" lon="9.785263761878014">
        <ele>1574.3</ele>
        <time>2017-10-08T13:42:36Z</time>
      </trkpt>
      <trkpt lat="46.011299164965749" lon="9.785202238708735">
        <ele>1572.8499999999999</ele>
        <time>2017-10-08T13:42:46Z</time>
      </trkpt>
      <trkpt lat="46.011338895186782" lon="9.78513753041625">
        <ele>1571.8900000000001</ele>
        <time>2017-10-08T13:42:56Z</time>
      </trkpt>
      <trkpt lat="46.011406956240535" lon="9.785215146839619">
        <ele>1571.4100000000001</ele>
        <time>2017-10-08T13:43:04Z</time>
      </trkpt>
      <trkpt lat="46.011416930705309" lon="9.785162592306733">
        <ele>1569.97</ele>
        <time>2017-10-08T13:43:13Z</time>
      </trkpt>
      <trkpt lat="46.01144484244287" lon="9.785216487944126">
        <ele>1569.01</ele>
        <time>2017-10-08T13:43:20Z</time>
      </trkpt>
      <trkpt lat="46.011481806635857" lon="9.785207603126764">
        <ele>1568.53</ele>
        <time>2017-10-08T13:43:24Z</time>
      </trkpt>
      <trkpt lat="46.011497564613819" lon="9.785189749673009">
        <ele>1568.05</ele>
        <time>2017-10-08T13:43:26Z</time>
      </trkpt>
      <trkpt lat="46.011566212400794" lon="9.785201316699386">
        <ele>1567.0899999999999</ele>
        <time>2017-10-08T13:43:36Z</time>
      </trkpt>
      <trkpt lat="46.011606445536017" lon="9.785150103271008">
        <ele>1565.1600000000001</ele>
        <time>2017-10-08T13:43:47Z</time>
      </trkpt>
      <trkpt lat="46.011623125523329" lon="9.785064775496721">
        <ele>1564.2</ele>
        <time>2017-10-08T13:43:56Z</time>
      </trkpt>
      <trkpt lat="46.011647768318653" lon="9.784957151859999">
        <ele>1562.76</ele>
        <time>2017-10-08T13:44:07Z</time>
      </trkpt>
      <trkpt lat="46.011669728904963" lon="9.784943824633956">
        <ele>1562.28</ele>
        <time>2017-10-08T13:44:15Z</time>
      </trkpt>
      <trkpt lat="46.011710800230503" lon="9.784959247335792">
        <ele>1560.8399999999999</ele>
        <time>2017-10-08T13:44:22Z</time>
      </trkpt>
      <trkpt lat="46.011762013658881" lon="9.785049520432949">
        <ele>1559.4000000000001</ele>
        <time>2017-10-08T13:44:31Z</time>
      </trkpt>
      <trkpt lat="46.011750278994441" lon="9.785076593980193">
        <ele>1559.4000000000001</ele>
        <time>2017-10-08T13:44:33Z</time>
      </trkpt>
      <trkpt lat="46.011755559593439" lon="9.785187654197216">
        <ele>1558.4300000000001</ele>
        <time>2017-10-08T13:44:43Z</time>
      </trkpt>
      <trkpt lat="46.011724462732673" lon="9.785297205671668">
        <ele>1557.47</ele>
        <time>2017-10-08T13:44:53Z</time>
      </trkpt>
      <trkpt lat="46.01170526817441" lon="9.785357974469662">
        <ele>1556.51</ele>
        <time>2017-10-08T13:45:01Z</time>
      </trkpt>
      <trkpt lat="46.011682720854878" lon="9.785460233688355">
        <ele>1555.55</ele>
        <time>2017-10-08T13:45:10Z</time>
      </trkpt>
      <trkpt lat="46.011709962040186" lon="9.785550925880671">
        <ele>1555.0699999999999</ele>
        <time>2017-10-08T13:45:20Z</time>
      </trkpt>
      <trkpt lat="46.011734269559383" lon="9.785587890073657">
        <ele>1554.1099999999999</ele>
        <time>2017-10-08T13:45:29Z</time>
      </trkpt>
      <trkpt lat="46.011764444410801" lon="9.785664500668645">
        <ele>1553.1500000000001</ele>
        <time>2017-10-08T13:45:39Z</time>
      </trkpt>
      <trkpt lat="46.011789087206125" lon="9.78575854562223">
        <ele>1552.1900000000001</ele>
        <time>2017-10-08T13:45:47Z</time>
      </trkpt>
      <trkpt lat="46.011812640354037" lon="9.785862313583493">
        <ele>1551.22</ele>
        <time>2017-10-08T13:45:56Z</time>
      </trkpt>
      <trkpt lat="46.011895621195436" lon="9.785969350486994">
        <ele>1548.8199999999999</ele>
        <time>2017-10-08T13:46:08Z</time>
      </trkpt>
      <trkpt lat="46.011901991441846" lon="9.785962561145425">
        <ele>1547.8599999999999</ele>
        <time>2017-10-08T13:46:17Z</time>
      </trkpt>
      <trkpt lat="46.011894950643182" lon="9.78590028360486">
        <ele>1546.4200000000001</ele>
        <time>2017-10-08T13:46:27Z</time>
      </trkpt>
      <trkpt lat="46.011889921501279" lon="9.785800874233246">
        <ele>1544.98</ele>
        <time>2017-10-08T13:46:37Z</time>
      </trkpt>
      <trkpt lat="46.011871313676238" lon="9.785720407962799">
        <ele>1544.5</ele>
        <time>2017-10-08T13:46:45Z</time>
      </trkpt>
      <trkpt lat="46.011876678094268" lon="9.785583950579166">
        <ele>1543.05</ele>
        <time>2017-10-08T13:46:56Z</time>
      </trkpt>
      <trkpt lat="46.011915821582079" lon="9.785581519827247">
        <ele>1541.6099999999999</ele>
        <time>2017-10-08T13:47:06Z</time>
      </trkpt>
      <trkpt lat="46.011943481862545" lon="9.785673720762134">
        <ele>1540.6500000000001</ele>
        <time>2017-10-08T13:47:15Z</time>
      </trkpt>
      <trkpt lat="46.011980026960373" lon="9.785716384649277">
        <ele>1539.6900000000001</ele>
        <time>2017-10-08T13:47:24Z</time>
      </trkpt>
      <trkpt lat="46.012033754959702" lon="9.785679252818227">
        <ele>1537.77</ele>
        <time>2017-10-08T13:47:34Z</time>
      </trkpt>
      <trkpt lat="46.012054039165378" lon="9.785709762945771">
        <ele>1536.8</ele>
        <time>2017-10-08T13:47:44Z</time>
      </trkpt>
      <trkpt lat="46.012071138247848" lon="9.785728035494685">
        <ele>1535.3599999999999</ele>
        <time>2017-10-08T13:47:55Z</time>
      </trkpt>
      <trkpt lat="46.012060577049851" lon="9.785620411857963">
        <ele>1533.9200000000001</ele>
        <time>2017-10-08T13:48:05Z</time>
      </trkpt>
      <trkpt lat="46.01206443272531" lon="9.785569533705711">
        <ele>1533.4400000000001</ele>
        <time>2017-10-08T13:48:12Z</time>
      </trkpt>
      <trkpt lat="46.012053452432156" lon="9.785511950030923">
        <ele>1532</ele>
        <time>2017-10-08T13:48:20Z</time>
      </trkpt>
      <trkpt lat="46.012107264250517" lon="9.785438189283013">
        <ele>1531.04</ele>
        <time>2017-10-08T13:48:30Z</time>
      </trkpt>
      <trkpt lat="46.012143306434155" lon="9.785364344716072">
        <ele>1530.0799999999999</ele>
        <time>2017-10-08T13:48:40Z</time>
      </trkpt>
      <trkpt lat="46.012193346396089" lon="9.785347664728761">
        <ele>1529.1099999999999</ele>
        <time>2017-10-08T13:48:48Z</time>
      </trkpt>
      <trkpt lat="46.012237854301929" lon="9.785313801839948">
        <ele>1527.6700000000001</ele>
        <time>2017-10-08T13:48:58Z</time>
      </trkpt>
      <trkpt lat="46.012241123244166" lon="9.785310449078679">
        <ele>1527.6700000000001</ele>
        <time>2017-10-08T13:48:59Z</time>
      </trkpt>
      <trkpt lat="46.012273309752345" lon="9.785280274227262">
        <ele>1526.71</ele>
        <time>2017-10-08T13:49:05Z</time>
      </trkpt>
      <trkpt lat="46.012309854850173" lon="9.785219756886363">
        <ele>1525.27</ele>
        <time>2017-10-08T13:49:14Z</time>
      </trkpt>
      <trkpt lat="46.012328546494246" lon="9.78517365641892">
        <ele>1525.27</ele>
        <time>2017-10-08T13:49:19Z</time>
      </trkpt>
      <trkpt lat="46.012399289757013" lon="9.785114228725433">
        <ele>1523.3499999999999</ele>
        <time>2017-10-08T13:49:29Z</time>
      </trkpt>
      <trkpt lat="46.012442037463188" lon="9.785030325874686">
        <ele>1521.9000000000001</ele>
        <time>2017-10-08T13:49:39Z</time>
      </trkpt>
      <trkpt lat="46.012452933937311" lon="9.784993529319763">
        <ele>1521.9000000000001</ele>
        <time>2017-10-08T13:49:43Z</time>
      </trkpt>
      <trkpt lat="46.0124880541116" lon="9.78485606610775">
        <ele>1520.46</ele>
        <time>2017-10-08T13:49:54Z</time>
      </trkpt>
      <trkpt lat="46.012499872595072" lon="9.784777611494064">
        <ele>1519.02</ele>
        <time>2017-10-08T13:50:03Z</time>
      </trkpt>
      <trkpt lat="46.012487886473536" lon="9.784674262627959">
        <ele>1518.54</ele>
        <time>2017-10-08T13:50:14Z</time>
      </trkpt>
      <trkpt lat="46.012530801817775" lon="9.784649116918445">
        <ele>1516.1400000000001</ele>
        <time>2017-10-08T13:50:23Z</time>
      </trkpt>
      <trkpt lat="46.012537674978375" lon="9.78465037420392">
        <ele>1516.1400000000001</ele>
        <time>2017-10-08T13:50:24Z</time>
      </trkpt>
      <trkpt lat="46.012581344693899" lon="9.784696977585554">
        <ele>1514.6900000000001</ele>
        <time>2017-10-08T13:50:35Z</time>
      </trkpt>
      <trkpt lat="46.012588385492563" lon="9.784683231264353">
        <ele>1513.25</ele>
        <time>2017-10-08T13:50:45Z</time>
      </trkpt>
      <trkpt lat="46.012552678585052" lon="9.784568399190903">
        <ele>1511.8099999999999</ele>
        <time>2017-10-08T13:50:56Z</time>
      </trkpt>
      <trkpt lat="46.012559048831463" lon="9.784487178549171">
        <ele>1510.3699999999999</ele>
        <time>2017-10-08T13:51:08Z</time>
      </trkpt>
      <trkpt lat="46.012587631121278" lon="9.784480221569538">
        <ele>1508.45</ele>
        <time>2017-10-08T13:51:20Z</time>
      </trkpt>
      <trkpt lat="46.012614034116268" lon="9.784459602087736">
        <ele>1506.52</ele>
        <time>2017-10-08T13:51:29Z</time>
      </trkpt>
      <trkpt lat="46.0125882178545" lon="9.78439531289041">
        <ele>1505.0799999999999</ele>
        <time>2017-10-08T13:51:37Z</time>
      </trkpt>
      <trkpt lat="46.012583440169692" lon="9.784314762800932">
        <ele>1504.5999999999999</ele>
        <time>2017-10-08T13:51:43Z</time>
      </trkpt>
      <trkpt lat="46.012584110721946" lon="9.78420278057456">
        <ele>1503.1600000000001</ele>
        <time>2017-10-08T13:51:53Z</time>
      </trkpt>
      <trkpt lat="46.012592492625117" lon="9.784108819440007">
        <ele>1501.72</ele>
        <time>2017-10-08T13:52:02Z</time>
      </trkpt>
      <trkpt lat="46.012619063258171" lon="9.784012427553535">
        <ele>1500.27</ele>
        <time>2017-10-08T13:52:12Z</time>
      </trkpt>
      <trkpt lat="46.012663822621107" lon="9.784009326249361">
        <ele>1498.8299999999999</ele>
        <time>2017-10-08T13:52:22Z</time>
      </trkpt>
      <trkpt lat="46.01269424892962" lon="9.784088032320142">
        <ele>1497.8699999999999</ele>
        <time>2017-10-08T13:52:32Z</time>
      </trkpt>
      <trkpt lat="46.012737080454826" lon="9.784184927120805">
        <ele>1496.4300000000001</ele>
        <time>2017-10-08T13:52:45Z</time>
      </trkpt>
      <trkpt lat="46.01273532025516" lon="9.784131366759539">
        <ele>1495.47</ele>
        <time>2017-10-08T13:52:54Z</time>
      </trkpt>
      <trkpt lat="46.01273775100708" lon="9.784028017893434">
        <ele>1493.55</ele>
        <time>2017-10-08T13:53:04Z</time>
      </trkpt>
      <trkpt lat="46.012745462357998" lon="9.783930787816644">
        <ele>1491.6199999999999</ele>
        <time>2017-10-08T13:53:15Z</time>
      </trkpt>
      <trkpt lat="46.012780079618096" lon="9.783867001533508">
        <ele>1491.1400000000001</ele>
        <time>2017-10-08T13:53:25Z</time>
      </trkpt>
      <trkpt lat="46.012808745726943" lon="9.783818637952209">
        <ele>1490.6600000000001</ele>
        <time>2017-10-08T13:53:34Z</time>
      </trkpt>
      <trkpt lat="46.012831963598728" lon="9.7838294506073">
        <ele>1490.6600000000001</ele>
        <time>2017-10-08T13:53:42Z</time>
      </trkpt>
      <trkpt lat="46.012862306088209" lon="9.783745128661394">
        <ele>1489.7</ele>
        <time>2017-10-08T13:53:50Z</time>
      </trkpt>
      <trkpt lat="46.012908741831779" lon="9.783600457012653">
        <ele>1487.78</ele>
        <time>2017-10-08T13:54:03Z</time>
      </trkpt>
      <trkpt lat="46.012940090149641" lon="9.78352359496057">
        <ele>1485.3699999999999</ele>
        <time>2017-10-08T13:54:11Z</time>
      </trkpt>
      <trkpt lat="46.012944784015417" lon="9.783490737900138">
        <ele>1484.8900000000001</ele>
        <time>2017-10-08T13:54:21Z</time>
      </trkpt>
      <trkpt lat="46.012982502579689" lon="9.783397363498807">
        <ele>1483.9300000000001</ele>
        <time>2017-10-08T13:54:28Z</time>
      </trkpt>
      <trkpt lat="46.012961296364665" lon="9.783299211412668">
        <ele>1482.97</ele>
        <time>2017-10-08T13:54:38Z</time>
      </trkpt>
      <trkpt lat="46.013009157031775" lon="9.783249171450734">
        <ele>1481.53</ele>
        <time>2017-10-08T13:54:46Z</time>
      </trkpt>
      <trkpt lat="46.012980071827769" lon="9.78315026499331">
        <ele>1481.53</ele>
        <time>2017-10-08T13:54:56Z</time>
      </trkpt>
      <trkpt lat="46.01296691223979" lon="9.783075833693147">
        <ele>1479.1300000000001</ele>
        <time>2017-10-08T13:55:06Z</time>
      </trkpt>
      <trkpt lat="46.012983843684196" lon="9.782956307753921">
        <ele>1477.6800000000001</ele>
        <time>2017-10-08T13:55:16Z</time>
      </trkpt>
      <trkpt lat="46.012984262779355" lon="9.782844074070454">
        <ele>1476.72</ele>
        <time>2017-10-08T13:55:26Z</time>
      </trkpt>
      <trkpt lat="46.013014521449804" lon="9.782721782103181">
        <ele>1474.8</ele>
        <time>2017-10-08T13:55:38Z</time>
      </trkpt>
      <trkpt lat="46.013058526441455" lon="9.78274080902338">
        <ele>1473.3599999999999</ele>
        <time>2017-10-08T13:55:47Z</time>
      </trkpt>
      <trkpt lat="46.013093814253807" lon="9.782813396304846">
        <ele>1471.4400000000001</ele>
        <time>2017-10-08T13:55:56Z</time>
      </trkpt>
      <trkpt lat="46.013156846165657" lon="9.782861089333892">
        <ele>1469.51</ele>
        <time>2017-10-08T13:56:07Z</time>
      </trkpt>
      <trkpt lat="46.013185260817409" lon="9.782971311360598">
        <ele>1466.6300000000001</ele>
        <time>2017-10-08T13:56:19Z</time>
      </trkpt>
      <trkpt lat="46.013192469254136" lon="9.783039791509509">
        <ele>1465.1900000000001</ele>
        <time>2017-10-08T13:56:29Z</time>
      </trkpt>
      <trkpt lat="46.013193810358644" lon="9.78296703658998">
        <ele>1464.23</ele>
        <time>2017-10-08T13:56:43Z</time>
      </trkpt>
      <trkpt lat="46.013215687125921" lon="9.782850025221705">
        <ele>1462.78</ele>
        <time>2017-10-08T13:56:54Z</time>
      </trkpt>
      <trkpt lat="46.013248041272163" lon="9.782730331644416">
        <ele>1460.8599999999999</ele>
        <time>2017-10-08T13:57:04Z</time>
      </trkpt>
      <trkpt lat="46.013228092342615" lon="9.782635364681482">
        <ele>1459.4200000000001</ele>
        <time>2017-10-08T13:57:15Z</time>
      </trkpt>
      <trkpt lat="46.013255165889859" lon="9.782566297799349">
        <ele>1457.98</ele>
        <time>2017-10-08T13:57:25Z</time>
      </trkpt>
      <trkpt lat="46.013317694887519" lon="9.782601250335574">
        <ele>1456.05</ele>
        <time>2017-10-08T13:57:34Z</time>
      </trkpt>
      <trkpt lat="46.013363627716899" lon="9.782604686915875">
        <ele>1453.6500000000001</ele>
        <time>2017-10-08T13:57:44Z</time>
      </trkpt>
      <trkpt lat="46.013410817831755" lon="9.782589599490166">
        <ele>1451.73</ele>
        <time>2017-10-08T13:57:55Z</time>
      </trkpt>
      <trkpt lat="46.013458929955959" lon="9.7826206125319">
        <ele>1449.3199999999999</ele>
        <time>2017-10-08T13:58:07Z</time>
      </trkpt>
      <trkpt lat="46.013499917462468" lon="9.782492034137249">
        <ele>1446.9200000000001</ele>
        <time>2017-10-08T13:58:20Z</time>
      </trkpt>
      <trkpt lat="46.013490026816726" lon="9.782403772696853">
        <ele>1446.4400000000001</ele>
        <time>2017-10-08T13:58:29Z</time>
      </trkpt>
      <trkpt lat="46.01354937069118" lon="9.782421290874481">
        <ele>1444.52</ele>
        <time>2017-10-08T13:58:39Z</time>
      </trkpt>
      <trkpt lat="46.01357527077198" lon="9.782542325556278">
        <ele>1443.0799999999999</ele>
        <time>2017-10-08T13:58:49Z</time>
      </trkpt>
      <trkpt lat="46.013586837798357" lon="9.782640058547258">
        <ele>1441.1500000000001</ele>
        <time>2017-10-08T13:58:58Z</time>
      </trkpt>
      <trkpt lat="46.013620365411043" lon="9.782654726877809">
        <ele>1439.71</ele>
        <time>2017-10-08T13:59:08Z</time>
      </trkpt>
      <trkpt lat="46.013609636574984" lon="9.782592114061117">
        <ele>1438.27</ele>
        <time>2017-10-08T13:59:17Z</time>
      </trkpt>
      <trkpt lat="46.013654479756951" lon="9.782573087140918">
        <ele>1436.8299999999999</ele>
        <time>2017-10-08T13:59:26Z</time>
      </trkpt>
      <trkpt lat="46.013690605759621" lon="9.782517515122891">
        <ele>1434.4200000000001</ele>
        <time>2017-10-08T13:59:40Z</time>
      </trkpt>
      <trkpt lat="46.013765456154943" lon="9.782616337761283">
        <ele>1432.5</ele>
        <time>2017-10-08T13:59:51Z</time>
      </trkpt>
      <trkpt lat="46.013798145577312" lon="9.782734606415033">
        <ele>1431.54</ele>
        <time>2017-10-08T14:00:02Z</time>
      </trkpt>
      <trkpt lat="46.013845251873136" lon="9.782796381041408">
        <ele>1429.6199999999999</ele>
        <time>2017-10-08T14:00:11Z</time>
      </trkpt>
      <trkpt lat="46.013892693445086" lon="9.782815240323544">
        <ele>1427.7</ele>
        <time>2017-10-08T14:00:21Z</time>
      </trkpt>
      <trkpt lat="46.013911971822381" lon="9.782937364652753">
        <ele>1425.29</ele>
        <time>2017-10-08T14:00:32Z</time>
      </trkpt>
      <trkpt lat="46.013953797519207" lon="9.783053956925869">
        <ele>1423.8499999999999</ele>
        <time>2017-10-08T14:00:43Z</time>
      </trkpt>
      <trkpt lat="46.014032587409019" lon="9.783069966360927">
        <ele>1422.8900000000001</ele>
        <time>2017-10-08T14:00:52Z</time>
      </trkpt>
      <trkpt lat="46.014085728675127" lon="9.783064350485802">
        <ele>1421.9300000000001</ele>
        <time>2017-10-08T14:01:04Z</time>
      </trkpt>
      <trkpt lat="46.014096206054091" lon="9.783069463446736">
        <ele>1421.9300000000001</ele>
        <time>2017-10-08T14:01:09Z</time>
      </trkpt>
      <trkpt lat="46.014140043407679" lon="9.783122185617685">
        <ele>1420</ele>
        <time>2017-10-08T14:01:19Z</time>
      </trkpt>
      <trkpt lat="46.014114562422037" lon="9.783264007419348">
        <ele>1419.04</ele>
        <time>2017-10-08T14:01:30Z</time>
      </trkpt>
      <trkpt lat="46.014090925455093" lon="9.783280100673437">
        <ele>1418.5599999999999</ele>
        <time>2017-10-08T14:01:33Z</time>
      </trkpt>
      <trkpt lat="46.014075335115194" lon="9.783370709046722">
        <ele>1417.5999999999999</ele>
        <time>2017-10-08T14:01:43Z</time>
      </trkpt>
      <trkpt lat="46.014140546321869" lon="9.78334866464138">
        <ele>1416.6400000000001</ele>
        <time>2017-10-08T14:01:54Z</time>
      </trkpt>
      <trkpt lat="46.014194609597325" lon="9.783337265253067">
        <ele>1415.2</ele>
        <time>2017-10-08T14:02:05Z</time>
      </trkpt>
      <trkpt lat="46.014240710064769" lon="9.783331649377942">
        <ele>1413.76</ele>
        <time>2017-10-08T14:02:15Z</time>
      </trkpt>
      <trkpt lat="46.01427348330617" lon="9.783307425677776">
        <ele>1412.79</ele>
        <time>2017-10-08T14:02:20Z</time>
      </trkpt>
      <trkpt lat="46.014292929321527" lon="9.783280016854405">
        <ele>1412.3099999999999</ele>
        <time>2017-10-08T14:02:23Z</time>
      </trkpt>
      <trkpt lat="46.014352776110172" lon="9.783307341858745">
        <ele>1410.8699999999999</ele>
        <time>2017-10-08T14:02:32Z</time>
      </trkpt>
      <trkpt lat="46.014395523816347" lon="9.783295439556241">
        <ele>1408.95</ele>
        <time>2017-10-08T14:02:41Z</time>
      </trkpt>
      <trkpt lat="46.014382280409336" lon="9.783427705988288">
        <ele>1407.51</ele>
        <time>2017-10-08T14:02:52Z</time>
      </trkpt>
      <trkpt lat="46.014381190761924" lon="9.783558044582605">
        <ele>1406.0699999999999</ele>
        <time>2017-10-08T14:03:03Z</time>
      </trkpt>
      <trkpt lat="46.01440055295825" lon="9.783631470054388">
        <ele>1404.1400000000001</ele>
        <time>2017-10-08T14:03:14Z</time>
      </trkpt>
      <trkpt lat="46.01441421546042" lon="9.783571120351553">
        <ele>1403.1800000000001</ele>
        <time>2017-10-08T14:03:22Z</time>
      </trkpt>
      <trkpt lat="46.014419496059418" lon="9.783552680164576">
        <ele>1403.6600000000001</ele>
        <time>2017-10-08T14:03:24Z</time>
      </trkpt>
      <trkpt lat="46.014472050592303" lon="9.783496521413326">
        <ele>1401.26</ele>
        <time>2017-10-08T14:03:34Z</time>
      </trkpt>
      <trkpt lat="46.014513121917844" lon="9.783644964918494">
        <ele>1399.8199999999999</ele>
        <time>2017-10-08T14:03:45Z</time>
      </trkpt>
      <trkpt lat="46.01455494761467" lon="9.783663237467408">
        <ele>1397.8900000000001</ele>
        <time>2017-10-08T14:03:56Z</time>
      </trkpt>
      <trkpt lat="46.014594761654735" lon="9.783667176961899">
        <ele>1395.97</ele>
        <time>2017-10-08T14:04:06Z</time>
      </trkpt>
      <trkpt lat="46.014649663120508" lon="9.783666590228677">
        <ele>1394.53</ele>
        <time>2017-10-08T14:04:16Z</time>
      </trkpt>
      <trkpt lat="46.014714874327183" lon="9.783688047900796">
        <ele>1393.5699999999999</ele>
        <time>2017-10-08T14:04:26Z</time>
      </trkpt>
      <trkpt lat="46.01477237418294" lon="9.783719312399626">
        <ele>1392.1300000000001</ele>
        <time>2017-10-08T14:04:35Z</time>
      </trkpt>
      <trkpt lat="46.014844458550215" lon="9.783736411482096">
        <ele>1391.1700000000001</ele>
        <time>2017-10-08T14:04:44Z</time>
      </trkpt>
      <trkpt lat="46.014842446893454" lon="9.783796509727836">
        <ele>1390.2</ele>
        <time>2017-10-08T14:04:49Z</time>
      </trkpt>
      <trkpt lat="46.014747060835361" lon="9.78389348834753">
        <ele>1388.76</ele>
        <time>2017-10-08T14:05:01Z</time>
      </trkpt>
      <trkpt lat="46.014738008379936" lon="9.784001614898443">
        <ele>1387.8</ele>
        <time>2017-10-08T14:05:11Z</time>
      </trkpt>
      <trkpt lat="46.014731051400304" lon="9.784014523029327">
        <ele>1387.8</ele>
        <time>2017-10-08T14:05:12Z</time>
      </trkpt>
      <trkpt lat="46.014674305915833" lon="9.784120218828321">
        <ele>1386.8399999999999</ele>
        <time>2017-10-08T14:05:24Z</time>
      </trkpt>
      <trkpt lat="46.01466441527009" lon="9.784152489155531">
        <ele>1385.8800000000001</ele>
        <time>2017-10-08T14:05:28Z</time>
      </trkpt>
      <trkpt lat="46.014654692262411" lon="9.784220298752189">
        <ele>1384.4400000000001</ele>
        <time>2017-10-08T14:05:37Z</time>
      </trkpt>
      <trkpt lat="46.014723256230354" lon="9.78415148332715">
        <ele>1382.99</ele>
        <time>2017-10-08T14:05:47Z</time>
      </trkpt>
      <trkpt lat="46.014759298413992" lon="9.784085266292095">
        <ele>1381.55</ele>
        <time>2017-10-08T14:05:58Z</time>
      </trkpt>
      <trkpt lat="46.014779331162572" lon="9.784068502485752">
        <ele>1381.0699999999999</ele>
        <time>2017-10-08T14:06:00Z</time>
      </trkpt>
      <trkpt lat="46.014866000041366" lon="9.784025587141514">
        <ele>1379.1500000000001</ele>
        <time>2017-10-08T14:06:12Z</time>
      </trkpt>
      <trkpt lat="46.014893157407641" lon="9.784076884388924">
        <ele>1378.6700000000001</ele>
        <time>2017-10-08T14:06:17Z</time>
      </trkpt>
      <trkpt lat="46.014880919829011" lon="9.78417051024735">
        <ele>1377.23</ele>
        <time>2017-10-08T14:06:26Z</time>
      </trkpt>
      <trkpt lat="46.014867005869746" lon="9.784337813034654">
        <ele>1375.3</ele>
        <time>2017-10-08T14:06:38Z</time>
      </trkpt>
      <trkpt lat="46.014847559854388" lon="9.784449124708772">
        <ele>1374.8199999999999</ele>
        <time>2017-10-08T14:06:49Z</time>
      </trkpt>
      <trkpt lat="46.014854852110147" lon="9.784479634836316">
        <ele>1373.3800000000001</ele>
        <time>2017-10-08T14:06:57Z</time>
      </trkpt>
      <trkpt lat="46.01481051184237" lon="9.784573344513774">
        <ele>1371.46</ele>
        <time>2017-10-08T14:07:07Z</time>
      </trkpt>
      <trkpt lat="46.014801543205976" lon="9.784691613167524">
        <ele>1370.5</ele>
        <time>2017-10-08T14:07:16Z</time>
      </trkpt>
      <trkpt lat="46.014798190444708" lon="9.784800745546818">
        <ele>1370.98</ele>
        <time>2017-10-08T14:07:26Z</time>
      </trkpt>
      <trkpt lat="46.014739265665412" lon="9.784888084977865">
        <ele>1369.05</ele>
        <time>2017-10-08T14:07:36Z</time>
      </trkpt>
      <trkpt lat="46.014744797721505" lon="9.785003000870347">
        <ele>1368.0899999999999</ele>
        <time>2017-10-08T14:07:45Z</time>
      </trkpt>
      <trkpt lat="46.014736499637365" lon="9.785118252038956">
        <ele>1367.1300000000001</ele>
        <time>2017-10-08T14:07:54Z</time>
      </trkpt>
      <trkpt lat="46.014735577628016" lon="9.785172985866666">
        <ele>1366.1700000000001</ele>
        <time>2017-10-08T14:07:59Z</time>
      </trkpt>
      <trkpt lat="46.01472501643002" lon="9.785222103819251">
        <ele>1366.1700000000001</ele>
        <time>2017-10-08T14:08:02Z</time>
      </trkpt>
      <trkpt lat="46.014667181298137" lon="9.785355543717742">
        <ele>1364.73</ele>
        <time>2017-10-08T14:08:14Z</time>
      </trkpt>
      <trkpt lat="46.014697020873427" lon="9.785457467660308">
        <ele>1364.25</ele>
        <time>2017-10-08T14:08:24Z</time>
      </trkpt>
      <trkpt lat="46.014709090813994" lon="9.785578334704042">
        <ele>1362.8099999999999</ele>
        <time>2017-10-08T14:08:36Z</time>
      </trkpt>
      <trkpt lat="46.014718562364578" lon="9.785641450434923">
        <ele>1361.8399999999999</ele>
        <time>2017-10-08T14:08:40Z</time>
      </trkpt>
      <trkpt lat="46.014747815206647" lon="9.785825097933412">
        <ele>1360.4000000000001</ele>
        <time>2017-10-08T14:08:51Z</time>
      </trkpt>
      <trkpt lat="46.014749826863408" lon="9.785837503150106">
        <ele>1360.4000000000001</ele>
        <time>2017-10-08T14:08:52Z</time>
      </trkpt>
      <trkpt lat="46.014760723337531" lon="9.785857787355781">
        <ele>1359.9200000000001</ele>
        <time>2017-10-08T14:08:54Z</time>
      </trkpt>
      <trkpt lat="46.014803722500801" lon="9.785940600559115">
        <ele>1358.48</ele>
        <time>2017-10-08T14:09:03Z</time>
      </trkpt>
      <trkpt lat="46.014845799654722" lon="9.786003045737743">
        <ele>1357.52</ele>
        <time>2017-10-08T14:09:12Z</time>
      </trkpt>
      <trkpt lat="46.014900282025337" lon="9.786041099578142">
        <ele>1356.5599999999999</ele>
        <time>2017-10-08T14:09:21Z</time>
      </trkpt>
      <trkpt lat="46.014976892620325" lon="9.786079907789826">
        <ele>1355.1199999999999</ele>
        <time>2017-10-08T14:09:31Z</time>
      </trkpt>
      <trkpt lat="46.015046630054712" lon="9.786122236400843">
        <ele>1353.6700000000001</ele>
        <time>2017-10-08T14:09:41Z</time>
      </trkpt>
      <trkpt lat="46.015113517642021" lon="9.78619247674942">
        <ele>1352.23</ele>
        <time>2017-10-08T14:09:50Z</time>
      </trkpt>
      <trkpt lat="46.01516280323267" lon="9.786281660199165">
        <ele>1351.27</ele>
        <time>2017-10-08T14:09:57Z</time>
      </trkpt>
      <trkpt lat="46.015190379694104" lon="9.786384338513017">
        <ele>1350.3099999999999</ele>
        <time>2017-10-08T14:10:05Z</time>
      </trkpt>
      <trkpt lat="46.01525416597724" lon="9.78651937097311">
        <ele>1348.8699999999999</ele>
        <time>2017-10-08T14:10:15Z</time>
      </trkpt>
      <trkpt lat="46.015286771580577" lon="9.786640992388129">
        <ele>1347.9100000000001</ele>
        <time>2017-10-08T14:10:25Z</time>
      </trkpt>
      <trkpt lat="46.015338990837336" lon="9.786758003756404">
        <ele>1346.46</ele>
        <time>2017-10-08T14:10:35Z</time>
      </trkpt>
      <trkpt lat="46.015384085476398" lon="9.786774599924684">
        <ele>1344.54</ele>
        <time>2017-10-08T14:10:45Z</time>
      </trkpt>
      <trkpt lat="46.015436472371221" lon="9.786788513883948">
        <ele>1343.0999999999999</ele>
        <time>2017-10-08T14:10:55Z</time>
      </trkpt>
      <trkpt lat="46.015500761568546" lon="9.78679396212101">
        <ele>1341.1800000000001</ele>
        <time>2017-10-08T14:11:05Z</time>
      </trkpt>
      <trkpt lat="46.015534289181232" lon="9.786792201921344">
        <ele>1340.7</ele>
        <time>2017-10-08T14:11:14Z</time>
      </trkpt>
      <trkpt lat="46.015602769330144" lon="9.786798153072596">
        <ele>1339.25</ele>
        <time>2017-10-08T14:11:24Z</time>
      </trkpt>
      <trkpt lat="46.015594638884068" lon="9.786804020404816">
        <ele>1339.25</ele>
        <time>2017-10-08T14:11:33Z</time>
      </trkpt>
      <trkpt lat="46.015607882291079" lon="9.786829082295299">
        <ele>1339.73</ele>
        <time>2017-10-08T14:11:42Z</time>
      </trkpt>
      <trkpt lat="46.015553148463368" lon="9.78677493520081">
        <ele>1338.29</ele>
        <time>2017-10-08T14:11:54Z</time>
      </trkpt>
      <trkpt lat="46.015518866479397" lon="9.786705616861582">
        <ele>1336.8499999999999</ele>
        <time>2017-10-08T14:12:03Z</time>
      </trkpt>
      <trkpt lat="46.015442842617631" lon="9.786597238853574">
        <ele>1334.45</ele>
        <time>2017-10-08T14:12:14Z</time>
      </trkpt>
      <trkpt lat="46.015427755191922" lon="9.786496069282293">
        <ele>1333.49</ele>
        <time>2017-10-08T14:12:20Z</time>
      </trkpt>
      <trkpt lat="46.015430269762874" lon="9.786368831992149">
        <ele>1331.5599999999999</ele>
        <time>2017-10-08T14:12:30Z</time>
      </trkpt>
      <trkpt lat="46.015494894236326" lon="9.786419961601496">
        <ele>1329.6400000000001</ele>
        <time>2017-10-08T14:12:41Z</time>
      </trkpt>
      <trkpt lat="46.015582904219627" lon="9.786503864452243">
        <ele>1328.6800000000001</ele>
        <time>2017-10-08T14:12:52Z</time>
      </trkpt>
      <trkpt lat="46.015643840655684" lon="9.786525573581457">
        <ele>1326.76</ele>
        <time>2017-10-08T14:13:02Z</time>
      </trkpt>
      <trkpt lat="46.015711650252342" lon="9.786546109244227">
        <ele>1325.3099999999999</ele>
        <time>2017-10-08T14:13:11Z</time>
      </trkpt>
      <trkpt lat="46.015795217826962" lon="9.78657653555274">
        <ele>1324.3499999999999</ele>
        <time>2017-10-08T14:13:19Z</time>
      </trkpt>
      <trkpt lat="46.015834277495742" lon="9.786594221368432">
        <ele>1322.9100000000001</ele>
        <time>2017-10-08T14:13:29Z</time>
      </trkpt>
      <trkpt lat="46.015775352716446" lon="9.786545773968101">
        <ele>1321.47</ele>
        <time>2017-10-08T14:13:40Z</time>
      </trkpt>
      <trkpt lat="46.015734365209937" lon="9.786496236920357">
        <ele>1320.03</ele>
        <time>2017-10-08T14:13:49Z</time>
      </trkpt>
      <trkpt lat="46.015683067962527" lon="9.786390205845237">
        <ele>1318.5899999999999</ele>
        <time>2017-10-08T14:14:01Z</time>
      </trkpt>
      <trkpt lat="46.015749452635646" lon="9.786359360441566">
        <ele>1316.6600000000001</ele>
        <time>2017-10-08T14:14:10Z</time>
      </trkpt>
      <trkpt lat="46.015831846743822" lon="9.786395989358425">
        <ele>1315.22</ele>
        <time>2017-10-08T14:14:21Z</time>
      </trkpt>
      <trkpt lat="46.015910301357508" lon="9.786446029320359">
        <ele>1313.3</ele>
        <time>2017-10-08T14:14:31Z</time>
      </trkpt>
      <trkpt lat="46.015947517007589" lon="9.786503361538053">
        <ele>1312.3399999999999</ele>
        <time>2017-10-08T14:14:40Z</time>
      </trkpt>
      <trkpt lat="46.015950283035636" lon="9.78642800822854">
        <ele>1310.4100000000001</ele>
        <time>2017-10-08T14:14:49Z</time>
      </trkpt>
      <trkpt lat="46.015892112627625" lon="9.786338824778795">
        <ele>1308.49</ele>
        <time>2017-10-08T14:15:01Z</time>
      </trkpt>
      <trkpt lat="46.015843329951167" lon="9.786238577216864">
        <ele>1306.5699999999999</ele>
        <time>2017-10-08T14:15:12Z</time>
      </trkpt>
      <trkpt lat="46.015803599730134" lon="9.786119386553764">
        <ele>1305.1300000000001</ele>
        <time>2017-10-08T14:15:22Z</time>
      </trkpt>
      <trkpt lat="46.015822626650333" lon="9.786109244450927">
        <ele>1304.6500000000001</ele>
        <time>2017-10-08T14:15:24Z</time>
      </trkpt>
      <trkpt lat="46.015889430418611" lon="9.78613187558949">
        <ele>1303.2</ele>
        <time>2017-10-08T14:15:35Z</time>
      </trkpt>
      <trkpt lat="46.016061343252659" lon="9.786246037110686">
        <ele>1300.8</ele>
        <time>2017-10-08T14:15:48Z</time>
      </trkpt>
      <trkpt lat="46.016202243044972" lon="9.786345278844237">
        <ele>1298.4000000000001</ele>
        <time>2017-10-08T14:16:03Z</time>
      </trkpt>
      <trkpt lat="46.016134265810251" lon="9.78629800491035">
        <ele>1295.51</ele>
        <time>2017-10-08T14:16:17Z</time>
      </trkpt>
      <trkpt lat="46.016101408749819" lon="9.786183508113027">
        <ele>1294.0699999999999</ele>
        <time>2017-10-08T14:16:30Z</time>
      </trkpt>
      <trkpt lat="46.016043992713094" lon="9.786053337156773">
        <ele>1292.1500000000001</ele>
        <time>2017-10-08T14:16:42Z</time>
      </trkpt>
      <trkpt lat="46.016057906672359" lon="9.785985946655273">
        <ele>1290.23</ele>
        <time>2017-10-08T14:16:53Z</time>
      </trkpt>
      <trkpt lat="46.016075508669019" lon="9.785994160920382">
        <ele>1289.75</ele>
        <time>2017-10-08T14:16:55Z</time>
      </trkpt>
      <trkpt lat="46.016168631613255" lon="9.786050906404853">
        <ele>1287.3399999999999</ele>
        <time>2017-10-08T14:17:07Z</time>
      </trkpt>
      <trkpt lat="46.016221521422267" lon="9.786060797050595">
        <ele>1285.9000000000001</ele>
        <time>2017-10-08T14:17:13Z</time>
      </trkpt>
      <trkpt lat="46.016277763992548" lon="9.786115698516369">
        <ele>1284.46</ele>
        <time>2017-10-08T14:17:24Z</time>
      </trkpt>
      <trkpt lat="46.016292264685035" lon="9.786105891689658">
        <ele>1283.5</ele>
        <time>2017-10-08T14:17:26Z</time>
      </trkpt>
      <trkpt lat="46.016334677115083" lon="9.786131707951427">
        <ele>1283.98</ele>
        <time>2017-10-08T14:17:30Z</time>
      </trkpt>
      <trkpt lat="46.016396367922425" lon="9.78620664216578">
        <ele>1280.6099999999999</ele>
        <time>2017-10-08T14:17:40Z</time>
      </trkpt>
      <trkpt lat="46.01639318279922" lon="9.786199852824211">
        <ele>1280.6099999999999</ele>
        <time>2017-10-08T14:17:41Z</time>
      </trkpt>
      <trkpt lat="46.016353704035282" lon="9.78607663884759">
        <ele>1279.1700000000001</ele>
        <time>2017-10-08T14:17:52Z</time>
      </trkpt>
      <trkpt lat="46.016315566375852" lon="9.785944540053606">
        <ele>1276.77</ele>
        <time>2017-10-08T14:18:04Z</time>
      </trkpt>
      <trkpt lat="46.016340460628271" lon="9.785854518413544">
        <ele>1274.8499999999999</ele>
        <time>2017-10-08T14:18:14Z</time>
      </trkpt>
      <trkpt lat="46.016405588015914" lon="9.785907240584493">
        <ele>1272.9200000000001</ele>
        <time>2017-10-08T14:18:24Z</time>
      </trkpt>
      <trkpt lat="46.016497453674674" lon="9.785963483154774">
        <ele>1271</ele>
        <time>2017-10-08T14:18:34Z</time>
      </trkpt>
      <trkpt lat="46.016531148925424" lon="9.786061802878976">
        <ele>1269.5599999999999</ele>
        <time>2017-10-08T14:18:44Z</time>
      </trkpt>
      <trkpt lat="46.016559731215239" lon="9.786010254174471">
        <ele>1268.1199999999999</ele>
        <time>2017-10-08T14:18:52Z</time>
      </trkpt>
      <trkpt lat="46.016544476151466" lon="9.785887291654944">
        <ele>1265.71</ele>
        <time>2017-10-08T14:19:02Z</time>
      </trkpt>
      <trkpt lat="46.016557971015573" lon="9.78582015261054">
        <ele>1264.27</ele>
        <time>2017-10-08T14:19:12Z</time>
      </trkpt>
      <trkpt lat="46.016603736206889" lon="9.785892739892006">
        <ele>1261.8699999999999</ele>
        <time>2017-10-08T14:19:23Z</time>
      </trkpt>
      <trkpt lat="46.016638521105051" lon="9.785951916128397">
        <ele>1261.3900000000001</ele>
        <time>2017-10-08T14:19:31Z</time>
      </trkpt>
      <trkpt lat="46.016671126708388" lon="9.785915622487664">
        <ele>1258.98</ele>
        <time>2017-10-08T14:19:39Z</time>
      </trkpt>
      <trkpt lat="46.01665654219687" lon="9.785798275843263">
        <ele>1257.0599999999999</ele>
        <time>2017-10-08T14:19:51Z</time>
      </trkpt>
      <trkpt lat="46.016712700948119" lon="9.785865666344762">
        <ele>1256.5799999999999</ele>
        <time>2017-10-08T14:20:00Z</time>
      </trkpt>
      <trkpt lat="46.016749748960137" lon="9.785901289433241">
        <ele>1255.6199999999999</ele>
        <time>2017-10-08T14:20:04Z</time>
      </trkpt>
      <trkpt lat="46.01684614084661" lon="9.786027101799846">
        <ele>1253.7</ele>
        <time>2017-10-08T14:20:17Z</time>
      </trkpt>
      <trkpt lat="46.016921745613217" lon="9.786126427352428">
        <ele>1251.77</ele>
        <time>2017-10-08T14:20:29Z</time>
      </trkpt>
      <trkpt lat="46.016967594623566" lon="9.786152327433229">
        <ele>1250.3299999999999</ele>
        <time>2017-10-08T14:20:39Z</time>
      </trkpt>
      <trkpt lat="46.017009252682328" lon="9.786207564175129">
        <ele>1248.8900000000001</ele>
        <time>2017-10-08T14:20:48Z</time>
      </trkpt>
      <trkpt lat="46.017055604606867" lon="9.786228183656931">
        <ele>1247.9300000000001</ele>
        <time>2017-10-08T14:20:57Z</time>
      </trkpt>
      <trkpt lat="46.017106315121055" lon="9.786284510046244">
        <ele>1246.49</ele>
        <time>2017-10-08T14:21:12Z</time>
      </trkpt>
      <trkpt lat="46.017145710065961" lon="9.786220975220203">
        <ele>1244.0799999999999</ele>
        <time>2017-10-08T14:21:26Z</time>
      </trkpt>
      <trkpt lat="46.017092987895012" lon="9.78607420809567">
        <ele>1242.1600000000001</ele>
        <time>2017-10-08T14:21:43Z</time>
      </trkpt>
      <trkpt lat="46.017152331769466" lon="9.786084434017539">
        <ele>1239.76</ele>
        <time>2017-10-08T14:21:56Z</time>
      </trkpt>
      <trkpt lat="46.017318293452263" lon="9.786187782883644">
        <ele>1237.3499999999999</ele>
        <time>2017-10-08T14:22:13Z</time>
      </trkpt>
      <trkpt lat="46.017375374212861" lon="9.786208486184478">
        <ele>1235.9100000000001</ele>
        <time>2017-10-08T14:22:24Z</time>
      </trkpt>
      <trkpt lat="46.017437651753426" lon="9.786234721541405">
        <ele>1234.47</ele>
        <time>2017-10-08T14:22:33Z</time>
      </trkpt>
      <trkpt lat="46.017510993406177" lon="9.786295238882303">
        <ele>1232.55</ele>
        <time>2017-10-08T14:22:44Z</time>
      </trkpt>
      <trkpt lat="46.01758542470634" lon="9.786312337964773">
        <ele>1231.5899999999999</ele>
        <time>2017-10-08T14:22:54Z</time>
      </trkpt>
      <trkpt lat="46.01764258928597" lon="9.786319378763437">
        <ele>1229.6600000000001</ele>
        <time>2017-10-08T14:23:04Z</time>
      </trkpt>
      <trkpt lat="46.017631692811847" lon="9.7863092366606">
        <ele>1229.1800000000001</ele>
        <time>2017-10-08T14:23:08Z</time>
      </trkpt>
      <trkpt lat="46.017558518797159" lon="9.786236481741071">
        <ele>1226.3</ele>
        <time>2017-10-08T14:23:20Z</time>
      </trkpt>
      <trkpt lat="46.017482746392488" lon="9.786188118159771">
        <ele>1224.8599999999999</ele>
        <time>2017-10-08T14:23:30Z</time>
      </trkpt>
      <trkpt lat="46.017450308427215" lon="9.786131121218205">
        <ele>1223.4200000000001</ele>
        <time>2017-10-08T14:23:41Z</time>
      </trkpt>
      <trkpt lat="46.01744812913239" lon="9.786025090143085">
        <ele>1221.97</ele>
        <time>2017-10-08T14:23:49Z</time>
      </trkpt>
      <trkpt lat="46.017410410568118" lon="9.785962393507361">
        <ele>1220.53</ele>
        <time>2017-10-08T14:23:57Z</time>
      </trkpt>
      <trkpt lat="46.017465060576797" lon="9.786013271659613">
        <ele>1219.5699999999999</ele>
        <time>2017-10-08T14:24:08Z</time>
      </trkpt>
      <trkpt lat="46.017519794404507" lon="9.786036321893334">
        <ele>1218.6099999999999</ele>
        <time>2017-10-08T14:24:15Z</time>
      </trkpt>
      <trkpt lat="46.01756539195776" lon="9.786030538380146">
        <ele>1217.6500000000001</ele>
        <time>2017-10-08T14:24:21Z</time>
      </trkpt>
      <trkpt lat="46.017624735832214" lon="9.786041183397174">
        <ele>1215.72</ele>
        <time>2017-10-08T14:24:30Z</time>
      </trkpt>
      <trkpt lat="46.017707632854581" lon="9.786051576957107">
        <ele>1213.8</ele>
        <time>2017-10-08T14:24:41Z</time>
      </trkpt>
      <trkpt lat="46.017706962302327" lon="9.786052079871297">
        <ele>1212.3599999999999</ele>
        <time>2017-10-08T14:24:52Z</time>
      </trkpt>
      <trkpt lat="46.017628842964768" lon="9.785978319123387">
        <ele>1210.4400000000001</ele>
        <time>2017-10-08T14:25:02Z</time>
      </trkpt>
      <trkpt lat="46.017610151320696" lon="9.785913275554776">
        <ele>1209.48</ele>
        <time>2017-10-08T14:25:08Z</time>
      </trkpt>
      <trkpt lat="46.017591878771782" lon="9.785779500380158">
        <ele>1207.55</ele>
        <time>2017-10-08T14:25:19Z</time>
      </trkpt>
      <trkpt lat="46.01763672195375" lon="9.785694759339094">
        <ele>1206.1099999999999</ele>
        <time>2017-10-08T14:25:30Z</time>
      </trkpt>
      <trkpt lat="46.017705034464598" lon="9.785795928910375">
        <ele>1203.71</ele>
        <time>2017-10-08T14:25:41Z</time>
      </trkpt>
      <trkpt lat="46.017732443287969" lon="9.785794168710709">
        <ele>1202.27</ele>
        <time>2017-10-08T14:25:50Z</time>
      </trkpt>
      <trkpt lat="46.017748871818185" lon="9.785682605579495">
        <ele>1200.3399999999999</ele>
        <time>2017-10-08T14:26:01Z</time>
      </trkpt>
      <trkpt lat="46.017800504341722" lon="9.785759719088674">
        <ele>1198.9000000000001</ele>
        <time>2017-10-08T14:26:11Z</time>
      </trkpt>
      <trkpt lat="46.017847945913672" lon="9.785840520635247">
        <ele>1197.46</ele>
        <time>2017-10-08T14:26:21Z</time>
      </trkpt>
      <trkpt lat="46.017859596759081" lon="9.785835072398186">
        <ele>1195.0599999999999</ele>
        <time>2017-10-08T14:26:32Z</time>
      </trkpt>
      <trkpt lat="46.017887927591801" lon="9.785734824836254">
        <ele>1193.1300000000001</ele>
        <time>2017-10-08T14:26:42Z</time>
      </trkpt>
      <trkpt lat="46.017951797693968" lon="9.785775393247604">
        <ele>1191.6900000000001</ele>
        <time>2017-10-08T14:26:52Z</time>
      </trkpt>
      <trkpt lat="46.017983397468925" lon="9.785789726302028">
        <ele>1189.77</ele>
        <time>2017-10-08T14:27:00Z</time>
      </trkpt>
      <trkpt lat="46.018056320026517" lon="9.785832641646266">
        <ele>1188.3299999999999</ele>
        <time>2017-10-08T14:27:12Z</time>
      </trkpt>
      <trkpt lat="46.018109461292624" lon="9.785781009122729">
        <ele>1186.4000000000001</ele>
        <time>2017-10-08T14:27:22Z</time>
      </trkpt>
      <trkpt lat="46.018175762146711" lon="9.785801041871309">
        <ele>1184.96</ele>
        <time>2017-10-08T14:27:32Z</time>
      </trkpt>
      <trkpt lat="46.018254300579429" lon="9.78583674877882">
        <ele>1182.5599999999999</ele>
        <time>2017-10-08T14:27:44Z</time>
      </trkpt>
      <trkpt lat="46.018302077427506" lon="9.785889303311706">
        <ele>1180.6400000000001</ele>
        <time>2017-10-08T14:27:54Z</time>
      </trkpt>
      <trkpt lat="46.018324289470911" lon="9.785874886438251">
        <ele>1178.71</ele>
        <time>2017-10-08T14:28:06Z</time>
      </trkpt>
      <trkpt lat="46.018358319997787" lon="9.785871952772141">
        <ele>1176.3099999999999</ele>
        <time>2017-10-08T14:28:16Z</time>
      </trkpt>
      <trkpt lat="46.018365612253547" lon="9.785838006064296">
        <ele>1174.8699999999999</ele>
        <time>2017-10-08T14:28:25Z</time>
      </trkpt>
      <trkpt lat="46.018339963629842" lon="9.78579374961555">
        <ele>1172.95</ele>
        <time>2017-10-08T14:28:35Z</time>
      </trkpt>
      <trkpt lat="46.018306771293283" lon="9.785719905048609">
        <ele>1171.02</ele>
        <time>2017-10-08T14:28:44Z</time>
      </trkpt>
      <trkpt lat="46.018339628353715" lon="9.785668021067977">
        <ele>1169.0999999999999</ele>
        <time>2017-10-08T14:28:53Z</time>
      </trkpt>
      <trkpt lat="46.01838237605989" lon="9.785647066310048">
        <ele>1167.1800000000001</ele>
        <time>2017-10-08T14:29:02Z</time>
      </trkpt>
      <trkpt lat="46.01842537522316" lon="9.785671290010214">
        <ele>1165.26</ele>
        <time>2017-10-08T14:29:09Z</time>
      </trkpt>
      <trkpt lat="46.018491173163056" lon="9.785757791250944">
        <ele>1163.3299999999999</ele>
        <time>2017-10-08T14:29:19Z</time>
      </trkpt>
      <trkpt lat="46.018552277237177" lon="9.785837419331074">
        <ele>1162.3699999999999</ele>
        <time>2017-10-08T14:29:28Z</time>
      </trkpt>
      <trkpt lat="46.018621092662215" lon="9.785969601944089">
        <ele>1160.45</ele>
        <time>2017-10-08T14:29:39Z</time>
      </trkpt>
      <trkpt lat="46.018661661073565" lon="9.786030957475305">
        <ele>1158.53</ele>
        <time>2017-10-08T14:29:48Z</time>
      </trkpt>
      <trkpt lat="46.018678341060877" lon="9.786056522279978">
        <ele>1157.0799999999999</ele>
        <time>2017-10-08T14:29:57Z</time>
      </trkpt>
      <trkpt lat="46.018712539225817" lon="9.786104718223214">
        <ele>1155.6400000000001</ele>
        <time>2017-10-08T14:30:06Z</time>
      </trkpt>
      <trkpt lat="46.018730392679572" lon="9.786082254722714">
        <ele>1153.24</ele>
        <time>2017-10-08T14:30:16Z</time>
      </trkpt>
      <trkpt lat="46.018750676885247" lon="9.786028526723385">
        <ele>1151.8</ele>
        <time>2017-10-08T14:30:23Z</time>
      </trkpt>
      <trkpt lat="46.018758723512292" lon="9.786002961918712">
        <ele>1150.8399999999999</ele>
        <time>2017-10-08T14:30:25Z</time>
      </trkpt>
      <trkpt lat="46.018741372972727" lon="9.785840772092342">
        <ele>1148.9100000000001</ele>
        <time>2017-10-08T14:30:37Z</time>
      </trkpt>
      <trkpt lat="46.018728967756033" lon="9.785736165940762">
        <ele>1146.51</ele>
        <time>2017-10-08T14:30:48Z</time>
      </trkpt>
      <trkpt lat="46.01881630718708" lon="9.785790396854281">
        <ele>1145.55</ele>
        <time>2017-10-08T14:31:00Z</time>
      </trkpt>
      <trkpt lat="46.018849164247513" lon="9.785838006064296">
        <ele>1144.1099999999999</ele>
        <time>2017-10-08T14:31:09Z</time>
      </trkpt>
      <trkpt lat="46.018932061269879" lon="9.785886369645596">
        <ele>1140.74</ele>
        <time>2017-10-08T14:31:20Z</time>
      </trkpt>
      <trkpt lat="46.018959889188409" lon="9.785917215049267">
        <ele>1139.3</ele>
        <time>2017-10-08T14:31:24Z</time>
      </trkpt>
      <trkpt lat="46.018976401537657" lon="9.785935739055276">
        <ele>1139.3</ele>
        <time>2017-10-08T14:31:33Z</time>
      </trkpt>
      <trkpt lat="46.018995679914951" lon="9.785927943885326">
        <ele>1138.8199999999999</ele>
        <time>2017-10-08T14:31:47Z</time>
      </trkpt>
      <trkpt lat="46.019018646329641" lon="9.785859547555447">
        <ele>1137.8599999999999</ele>
        <time>2017-10-08T14:31:58Z</time>
      </trkpt>
      <trkpt lat="46.01899266242981" lon="9.785775393247604">
        <ele>1138.3399999999999</ele>
        <time>2017-10-08T14:32:05Z</time>
      </trkpt>
      <trkpt lat="46.018983861431479" lon="9.78567011654377">
        <ele>1139.3</ele>
        <time>2017-10-08T14:32:15Z</time>
      </trkpt>
      <trkpt lat="46.019010851159692" lon="9.78558755479753">
        <ele>1137.8599999999999</ele>
        <time>2017-10-08T14:32:25Z</time>
      </trkpt>
      <trkpt lat="46.019060974940658" lon="9.785519493743777">
        <ele>1135.9400000000001</ele>
        <time>2017-10-08T14:32:35Z</time>
      </trkpt>
      <trkpt lat="46.01913733407855" lon="9.785482864826918">
        <ele>1133.53</ele>
        <time>2017-10-08T14:32:47Z</time>
      </trkpt>
      <trkpt lat="46.01917153224349" lon="9.785462161526084">
        <ele>1132.0899999999999</ele>
        <time>2017-10-08T14:32:54Z</time>
      </trkpt>
      <trkpt lat="46.019259374588728" lon="9.785376079380512">
        <ele>1129.6900000000001</ele>
        <time>2017-10-08T14:33:06Z</time>
      </trkpt>
      <trkpt lat="46.019247304648161" lon="9.785315562039614">
        <ele>1129.21</ele>
        <time>2017-10-08T14:33:16Z</time>
      </trkpt>
      <trkpt lat="46.019232217222452" lon="9.785310868173838">
        <ele>1129.21</ele>
        <time>2017-10-08T14:33:36Z</time>
      </trkpt>
      <trkpt lat="46.019238587468863" lon="9.785284716635943">
        <ele>1129.21</ele>
        <time>2017-10-08T14:33:41Z</time>
      </trkpt>
      <trkpt lat="46.019229032099247" lon="9.785219756886363">
        <ele>1127.76</ele>
        <time>2017-10-08T14:33:47Z</time>
      </trkpt>
      <trkpt lat="46.019207322970033" lon="9.78508229367435">
        <ele>1126.8</ele>
        <time>2017-10-08T14:33:59Z</time>
      </trkpt>
      <trkpt lat="46.019198186695576" lon="9.785050442442298">
        <ele>1126.8</ele>
        <time>2017-10-08T14:34:02Z</time>
      </trkpt>
      <trkpt lat="46.019155438989401" lon="9.784845756366849">
        <ele>1125.3599999999999</ele>
        <time>2017-10-08T14:34:14Z</time>
      </trkpt>
      <trkpt lat="46.019114870578051" lon="9.784659426659346">
        <ele>1122.48</ele>
        <time>2017-10-08T14:34:26Z</time>
      </trkpt>
      <trkpt lat="46.019112356007099" lon="9.784621372818947">
        <ele>1122</ele>
        <time>2017-10-08T14:34:28Z</time>
      </trkpt>
      <trkpt lat="46.019102297723293" lon="9.784501427784562">
        <ele>1121.52</ele>
        <time>2017-10-08T14:34:36Z</time>
      </trkpt>
      <trkpt lat="46.019084025174379" lon="9.784446526318789">
        <ele>1121.52</ele>
        <time>2017-10-08T14:34:40Z</time>
      </trkpt>
      <trkpt lat="46.018987884745002" lon="9.784257933497429">
        <ele>1121.52</ele>
        <time>2017-10-08T14:34:55Z</time>
      </trkpt>
      <trkpt lat="46.01895653642714" lon="9.784011757001281">
        <ele>1121.52</ele>
        <time>2017-10-08T14:35:10Z</time>
      </trkpt>
      <trkpt lat="46.018936671316624" lon="9.783802544698119">
        <ele>1121.52</ele>
        <time>2017-10-08T14:35:23Z</time>
      </trkpt>
      <trkpt lat="46.018932480365038" lon="9.783673128113151">
        <ele>1121.52</ele>
        <time>2017-10-08T14:35:32Z</time>
      </trkpt>
      <trkpt lat="46.018939353525639" lon="9.783551841974258">
        <ele>1121.03</ele>
        <time>2017-10-08T14:35:39Z</time>
      </trkpt>
      <trkpt lat="46.018941449001431" lon="9.783292505890131">
        <ele>1121.03</ele>
        <time>2017-10-08T14:35:54Z</time>
      </trkpt>
      <trkpt lat="46.018949747085571" lon="9.783079186454415">
        <ele>1120.55</ele>
        <time>2017-10-08T14:36:06Z</time>
      </trkpt>
      <trkpt lat="46.018934240564704" lon="9.782796548679471">
        <ele>1120.55</ele>
        <time>2017-10-08T14:36:23Z</time>
      </trkpt>
      <trkpt lat="46.018917476758361" lon="9.78261130861938">
        <ele>1120.55</ele>
        <time>2017-10-08T14:36:34Z</time>
      </trkpt>
      <trkpt lat="46.018925942480564" lon="9.78247158229351">
        <ele>1120.0699999999999</ele>
        <time>2017-10-08T14:36:42Z</time>
      </trkpt>
      <trkpt lat="46.019051168113947" lon="9.782354151830077">
        <ele>1120.0699999999999</ele>
        <time>2017-10-08T14:36:54Z</time>
      </trkpt>
      <trkpt lat="46.019191397354007" lon="9.782253401353955">
        <ele>1120.0699999999999</ele>
        <time>2017-10-08T14:37:07Z</time>
      </trkpt>
      <trkpt lat="46.019334644079208" lon="9.782184502109885">
        <ele>1120.0699999999999</ele>
        <time>2017-10-08T14:37:21Z</time>
      </trkpt>
      <trkpt lat="46.019399100914598" lon="9.782181903719902">
        <ele>1119.5899999999999</ele>
        <time>2017-10-08T14:37:31Z</time>
      </trkpt>
      <trkpt lat="46.019452661275864" lon="9.782114345580339">
        <ele>1120.0699999999999</ele>
        <time>2017-10-08T14:37:38Z</time>
      </trkpt>
      <trkpt lat="46.019468922168016" lon="9.782094564288855">
        <ele>1120.0699999999999</ele>
        <time>2017-10-08T14:37:40Z</time>
      </trkpt>
      <trkpt lat="46.019520135596395" lon="9.782065227627754">
        <ele>1120.55</ele>
        <time>2017-10-08T14:37:49Z</time>
      </trkpt>
      <trkpt lat="46.019578641280532" lon="9.782040417194367">
        <ele>1122.48</ele>
        <time>2017-10-08T14:38:00Z</time>
      </trkpt>
      <trkpt lat="46.019653240218759" lon="9.782020300626755">
        <ele>1123.9200000000001</ele>
        <time>2017-10-08T14:38:10Z</time>
      </trkpt>
      <trkpt lat="46.019672686234117" lon="9.78202004916966">
        <ele>1124.4000000000001</ele>
        <time>2017-10-08T14:38:14Z</time>
      </trkpt>
      <trkpt lat="46.01975105702877" lon="9.78197512216866">
        <ele>1126.3199999999999</ele>
        <time>2017-10-08T14:38:26Z</time>
      </trkpt>
      <trkpt lat="46.019823057577014" lon="9.781964980065823">
        <ele>1128.24</ele>
        <time>2017-10-08T14:38:38Z</time>
      </trkpt>
      <trkpt lat="46.019878294318914" lon="9.781964560970664">
        <ele>1129.6900000000001</ele>
        <time>2017-10-08T14:38:49Z</time>
      </trkpt>
      <trkpt lat="46.019888101145625" lon="9.781958106905222">
        <ele>1129.6900000000001</ele>
        <time>2017-10-08T14:38:50Z</time>
      </trkpt>
      <trkpt lat="46.019989354535937" lon="9.781976882368326">
        <ele>1130.1700000000001</ele>
        <time>2017-10-08T14:39:00Z</time>
      </trkpt>
      <trkpt lat="46.020050207152963" lon="9.781950563192368">
        <ele>1131.1300000000001</ele>
        <time>2017-10-08T14:39:10Z</time>
      </trkpt>
      <trkpt lat="46.020082226023078" lon="9.781858948990703">
        <ele>1132.0899999999999</ele>
        <time>2017-10-08T14:39:21Z</time>
      </trkpt>
      <trkpt lat="46.020111897960305" lon="9.781790217384696">
        <ele>1133.05</ele>
        <time>2017-10-08T14:39:28Z</time>
      </trkpt>
      <trkpt lat="46.020129751414061" lon="9.781711343675852">
        <ele>1133.53</ele>
        <time>2017-10-08T14:39:38Z</time>
      </trkpt>
      <trkpt lat="46.020159088075161" lon="9.781719138845801">
        <ele>1133.53</ele>
        <time>2017-10-08T14:39:52Z</time>
      </trkpt>
      <trkpt lat="46.02014291100204" lon="9.781712936237454">
        <ele>1133.53</ele>
        <time>2017-10-08T14:40:06Z</time>
      </trkpt>
      <trkpt lat="46.020147185772657" lon="9.781681839376688">
        <ele>1133.53</ele>
        <time>2017-10-08T14:40:19Z</time>
      </trkpt>
      <trkpt lat="46.020133020356297" lon="9.781677313148975">
        <ele>1133.53</ele>
        <time>2017-10-08T14:40:28Z</time>
      </trkpt>
      <trkpt lat="46.020132433623075" lon="9.781629284843803">
        <ele>1134.01</ele>
        <time>2017-10-08T14:40:39Z</time>
      </trkpt>
      <trkpt lat="46.020162859931588" lon="9.781600367277861">
        <ele>1134.49</ele>
        <time>2017-10-08T14:40:46Z</time>
      </trkpt>
      <trkpt lat="46.020201332867146" lon="9.78162232786417">
        <ele>1134.49</ele>
        <time>2017-10-08T14:40:56Z</time>
      </trkpt>
      <trkpt lat="46.020205272361636" lon="9.781659292057157">
        <ele>1134.49</ele>
        <time>2017-10-08T14:41:09Z</time>
      </trkpt>
    </trkseg>
  </trk>

</gpx>